<?xml version="1.0" encoding="UTF-8" standalone="no" ?>
<gpx xmlns="http://www.topografix.com/GPX/1/1" xmlns:xsi="http://www.w3.org/2001/XMLSchema-instance" xsi:schemaLocation="http://www.topografix.com/GPX/1/1 http://www.topografix.com/GPX/1/1/gpx.xsd" version="1.1" creator="VisuGPX - https://www.visugpx.com">
  <metadata>
    <name>de veyre a veyre</name>
    <desc><![CDATA[de veyre a veyre par montlosier et pessade]]></desc>
  </metadata>
  <trk>
    <name><![CDATA[1veyremontlosier-F]]></name>
    <trkseg>
      <trkpt lat="45.68673" lon="3.1627">
        <ele>428</ele>
        <time>2008-08-04T09:19:27Z</time>
      </trkpt>
      <trkpt lat="45.68674" lon="3.16272">
        <ele>428</ele>
        <time>2008-08-04T09:19:29Z</time>
      </trkpt>
      <trkpt lat="45.68669" lon="3.16294">
        <ele>426</ele>
        <time>2008-08-04T09:19:47Z</time>
      </trkpt>
      <trkpt lat="45.68669" lon="3.16296">
        <ele>426</ele>
        <time>2008-08-04T09:19:48Z</time>
      </trkpt>
      <trkpt lat="45.68672" lon="3.163">
        <ele>426</ele>
        <time>2008-08-04T09:19:52Z</time>
      </trkpt>
      <trkpt lat="45.68696" lon="3.16291">
        <ele>424</ele>
        <time>2008-08-04T09:20:10Z</time>
      </trkpt>
      <trkpt lat="45.68716" lon="3.16278">
        <ele>422</ele>
        <time>2008-08-04T09:20:25Z</time>
      </trkpt>
      <trkpt lat="45.68736" lon="3.16265">
        <ele>421</ele>
        <time>2008-08-04T09:20:40Z</time>
      </trkpt>
      <trkpt lat="45.68751" lon="3.1623">
        <ele>422</ele>
        <time>2008-08-04T09:21:00Z</time>
      </trkpt>
      <trkpt lat="45.68753" lon="3.162">
        <ele>424</ele>
        <time>2008-08-04T09:21:18Z</time>
      </trkpt>
      <trkpt lat="45.68751" lon="3.16175">
        <ele>425</ele>
        <time>2008-08-04T09:21:34Z</time>
      </trkpt>
      <trkpt lat="45.6875" lon="3.16146">
        <ele>427</ele>
        <time>2008-08-04T09:21:51Z</time>
      </trkpt>
      <trkpt lat="45.68748" lon="3.1612">
        <ele>428</ele>
        <time>2008-08-04T09:22:07Z</time>
      </trkpt>
      <trkpt lat="45.6875" lon="3.16098">
        <ele>428</ele>
        <time>2008-08-04T09:22:21Z</time>
      </trkpt>
      <trkpt lat="45.68754" lon="3.16094">
        <ele>427</ele>
        <time>2008-08-04T09:22:27Z</time>
      </trkpt>
      <trkpt lat="45.68778" lon="3.16086">
        <ele>425</ele>
        <time>2008-08-04T09:22:46Z</time>
      </trkpt>
      <trkpt lat="45.68804" lon="3.16082">
        <ele>422</ele>
        <time>2008-08-04T09:23:05Z</time>
      </trkpt>
      <trkpt lat="45.68831" lon="3.16077">
        <ele>420</ele>
        <time>2008-08-04T09:23:25Z</time>
      </trkpt>
      <trkpt lat="45.68859" lon="3.16074">
        <ele>417</ele>
        <time>2008-08-04T09:23:47Z</time>
      </trkpt>
      <trkpt lat="45.68888" lon="3.16069">
        <ele>415</ele>
        <time>2008-08-04T09:24:09Z</time>
      </trkpt>
      <trkpt lat="45.68917" lon="3.16063">
        <ele>413</ele>
        <time>2008-08-04T09:24:32Z</time>
      </trkpt>
      <trkpt lat="45.68944" lon="3.16055">
        <ele>411</ele>
        <time>2008-08-04T09:24:53Z</time>
      </trkpt>
      <trkpt lat="45.68964" lon="3.16051">
        <ele>411</ele>
        <time>2008-08-04T09:25:09Z</time>
      </trkpt>
      <trkpt lat="45.68985" lon="3.16044">
        <ele>409</ele>
        <time>2008-08-04T09:25:27Z</time>
      </trkpt>
      <trkpt lat="45.69008" lon="3.1604">
        <ele>408</ele>
        <time>2008-08-04T09:25:48Z</time>
      </trkpt>
      <trkpt lat="45.69014" lon="3.1604">
        <ele>407</ele>
        <time>2008-08-04T09:25:59Z</time>
      </trkpt>
      <trkpt lat="45.69035" lon="3.16039">
        <ele>405</ele>
        <time>2008-08-04T09:26:18Z</time>
      </trkpt>
      <trkpt lat="45.69049" lon="3.16037">
        <ele>404</ele>
        <time>2008-08-04T09:26:33Z</time>
      </trkpt>
      <trkpt lat="45.6907" lon="3.16036">
        <ele>400</ele>
        <time>2008-08-04T09:26:54Z</time>
      </trkpt>
      <trkpt lat="45.69087" lon="3.16034">
        <ele>397</ele>
        <time>2008-08-04T09:27:10Z</time>
      </trkpt>
      <trkpt lat="45.69113" lon="3.16032">
        <ele>393</ele>
        <time>2008-08-04T09:27:30Z</time>
      </trkpt>
      <trkpt lat="45.6913" lon="3.16031">
        <ele>390</ele>
        <time>2008-08-04T09:27:43Z</time>
      </trkpt>
      <trkpt lat="45.69147" lon="3.1603">
        <ele>388</ele>
        <time>2008-08-04T09:27:55Z</time>
      </trkpt>
      <trkpt lat="45.69173" lon="3.16041">
        <ele>385</ele>
        <time>2008-08-04T09:28:15Z</time>
      </trkpt>
      <trkpt lat="45.69195" lon="3.16051">
        <ele>383</ele>
        <time>2008-08-04T09:28:32Z</time>
      </trkpt>
      <trkpt lat="45.69215" lon="3.16049">
        <ele>381</ele>
        <time>2008-08-04T09:28:47Z</time>
      </trkpt>
      <trkpt lat="45.69222" lon="3.16032">
        <ele>381</ele>
        <time>2008-08-04T09:28:58Z</time>
      </trkpt>
      <trkpt lat="45.69226" lon="3.16012">
        <ele>380</ele>
        <time>2008-08-04T09:29:12Z</time>
      </trkpt>
      <trkpt lat="45.69232" lon="3.15988">
        <ele>379</ele>
        <time>2008-08-04T09:29:28Z</time>
      </trkpt>
      <trkpt lat="45.69241" lon="3.15964">
        <ele>378</ele>
        <time>2008-08-04T09:29:44Z</time>
      </trkpt>
      <trkpt lat="45.69259" lon="3.15945">
        <ele>377</ele>
        <time>2008-08-04T09:30:00Z</time>
      </trkpt>
      <trkpt lat="45.69281" lon="3.15926">
        <ele>376</ele>
        <time>2008-08-04T09:30:19Z</time>
      </trkpt>
      <trkpt lat="45.69301" lon="3.15907">
        <ele>375</ele>
        <time>2008-08-04T09:30:38Z</time>
      </trkpt>
      <trkpt lat="45.69304" lon="3.15905">
        <ele>375</ele>
        <time>2008-08-04T09:30:50Z</time>
      </trkpt>
      <trkpt lat="45.69316" lon="3.15896">
        <ele>374</ele>
        <time>2008-08-04T09:31:02Z</time>
      </trkpt>
      <trkpt lat="45.69327" lon="3.15888">
        <ele>374</ele>
        <time>2008-08-04T09:31:16Z</time>
      </trkpt>
      <trkpt lat="45.6934" lon="3.1588">
        <ele>374</ele>
        <time>2008-08-04T09:31:28Z</time>
      </trkpt>
      <trkpt lat="45.6936" lon="3.15867">
        <ele>373</ele>
        <time>2008-08-04T09:31:43Z</time>
      </trkpt>
      <trkpt lat="45.69378" lon="3.15858">
        <ele>373</ele>
        <time>2008-08-04T09:31:58Z</time>
      </trkpt>
      <trkpt lat="45.69396" lon="3.15849">
        <ele>372</ele>
        <time>2008-08-04T09:32:13Z</time>
      </trkpt>
      <trkpt lat="45.69414" lon="3.15851">
        <ele>372</ele>
        <time>2008-08-04T09:32:29Z</time>
      </trkpt>
      <trkpt lat="45.69437" lon="3.15856">
        <ele>371</ele>
        <time>2008-08-04T09:32:43Z</time>
      </trkpt>
      <trkpt lat="45.69445" lon="3.15853">
        <ele>371</ele>
        <time>2008-08-04T09:33:03Z</time>
      </trkpt>
      <trkpt lat="45.69442" lon="3.15855">
        <ele>371</ele>
        <time>2008-08-04T09:33:14Z</time>
      </trkpt>
      <trkpt lat="45.69457" lon="3.1585">
        <ele>371</ele>
        <time>2008-08-04T09:34:06Z</time>
      </trkpt>
      <trkpt lat="45.69513" lon="3.15845">
        <ele>371</ele>
        <time>2008-08-04T09:34:46Z</time>
      </trkpt>
      <trkpt lat="45.6952" lon="3.15846">
        <ele>371</ele>
        <time>2008-08-04T09:34:53Z</time>
      </trkpt>
      <trkpt lat="45.69542" lon="3.1584">
        <ele>370</ele>
        <time>2008-08-04T09:35:10Z</time>
      </trkpt>
      <trkpt lat="45.69548" lon="3.15826">
        <ele>370</ele>
        <time>2008-08-04T09:35:21Z</time>
      </trkpt>
      <trkpt lat="45.6954" lon="3.15797">
        <ele>371</ele>
        <time>2008-08-04T09:35:38Z</time>
      </trkpt>
      <trkpt lat="45.69543" lon="3.15767">
        <ele>373</ele>
        <time>2008-08-04T09:35:54Z</time>
      </trkpt>
      <trkpt lat="45.69546" lon="3.15738">
        <ele>375</ele>
        <time>2008-08-04T09:36:09Z</time>
      </trkpt>
      <trkpt lat="45.69546" lon="3.15708">
        <ele>376</ele>
        <time>2008-08-04T09:36:25Z</time>
      </trkpt>
      <trkpt lat="45.69543" lon="3.15673">
        <ele>375</ele>
        <time>2008-08-04T09:36:43Z</time>
      </trkpt>
      <trkpt lat="45.69541" lon="3.15636">
        <ele>374</ele>
        <time>2008-08-04T09:37:03Z</time>
      </trkpt>
      <trkpt lat="45.6954" lon="3.15612">
        <ele>374</ele>
        <time>2008-08-04T09:37:16Z</time>
      </trkpt>
      <trkpt lat="45.69538" lon="3.15583">
        <ele>374</ele>
        <time>2008-08-04T09:37:32Z</time>
      </trkpt>
      <trkpt lat="45.69539" lon="3.15557">
        <ele>374</ele>
        <time>2008-08-04T09:37:47Z</time>
      </trkpt>
      <trkpt lat="45.69536" lon="3.15527">
        <ele>374</ele>
        <time>2008-08-04T09:38:04Z</time>
      </trkpt>
      <trkpt lat="45.69534" lon="3.15498">
        <ele>374</ele>
        <time>2008-08-04T09:38:20Z</time>
      </trkpt>
      <trkpt lat="45.69533" lon="3.1547">
        <ele>374</ele>
        <time>2008-08-04T09:38:35Z</time>
      </trkpt>
      <trkpt lat="45.69531" lon="3.1544">
        <ele>374</ele>
        <time>2008-08-04T09:38:52Z</time>
      </trkpt>
      <trkpt lat="45.69535" lon="3.15406">
        <ele>375</ele>
        <time>2008-08-04T09:39:11Z</time>
      </trkpt>
      <trkpt lat="45.69535" lon="3.154">
        <ele>375</ele>
        <time>2008-08-04T09:39:14Z</time>
      </trkpt>
      <trkpt lat="45.69543" lon="3.15369">
        <ele>375</ele>
        <time>2008-08-04T09:39:31Z</time>
      </trkpt>
      <trkpt lat="45.69551" lon="3.15347">
        <ele>375</ele>
        <time>2008-08-04T09:39:46Z</time>
      </trkpt>
      <trkpt lat="45.69563" lon="3.15306">
        <ele>375</ele>
        <time>2008-08-04T09:40:13Z</time>
      </trkpt>
      <trkpt lat="45.6958" lon="3.15247">
        <ele>376</ele>
        <time>2008-08-04T09:40:55Z</time>
      </trkpt>
      <trkpt lat="45.69576" lon="3.15231">
        <ele>376</ele>
        <time>2008-08-04T09:41:14Z</time>
      </trkpt>
      <trkpt lat="45.69586" lon="3.15198">
        <ele>377</ele>
        <time>2008-08-04T09:41:36Z</time>
      </trkpt>
      <trkpt lat="45.69584" lon="3.15167">
        <ele>377</ele>
        <time>2008-08-04T09:41:56Z</time>
      </trkpt>
      <trkpt lat="45.6959" lon="3.15128">
        <ele>377</ele>
        <time>2008-08-04T09:42:17Z</time>
      </trkpt>
      <trkpt lat="45.69605" lon="3.15096">
        <ele>378</ele>
        <time>2008-08-04T09:42:33Z</time>
      </trkpt>
      <trkpt lat="45.69605" lon="3.15089">
        <ele>378</ele>
        <time>2008-08-04T09:42:37Z</time>
      </trkpt>
      <trkpt lat="45.69619" lon="3.15052">
        <ele>379</ele>
        <time>2008-08-04T09:43:00Z</time>
      </trkpt>
      <trkpt lat="45.69623" lon="3.15036">
        <ele>380</ele>
        <time>2008-08-04T09:43:12Z</time>
      </trkpt>
      <trkpt lat="45.69619" lon="3.1503">
        <ele>380</ele>
        <time>2008-08-04T09:43:34Z</time>
      </trkpt>
      <trkpt lat="45.69614" lon="3.15023">
        <ele>380</ele>
        <time>2008-08-04T09:43:41Z</time>
      </trkpt>
      <trkpt lat="45.69601" lon="3.15013">
        <ele>379</ele>
        <time>2008-08-04T09:43:55Z</time>
      </trkpt>
      <trkpt lat="45.69583" lon="3.14992">
        <ele>379</ele>
        <time>2008-08-04T09:44:12Z</time>
      </trkpt>
      <trkpt lat="45.69562" lon="3.14971">
        <ele>379</ele>
        <time>2008-08-04T09:44:32Z</time>
      </trkpt>
      <trkpt lat="45.6954" lon="3.14956">
        <ele>379</ele>
        <time>2008-08-04T09:44:52Z</time>
      </trkpt>
      <trkpt lat="45.69521" lon="3.14943">
        <ele>380</ele>
        <time>2008-08-04T09:45:10Z</time>
      </trkpt>
      <trkpt lat="45.69515" lon="3.14936">
        <ele>381</ele>
        <time>2008-08-04T09:45:19Z</time>
      </trkpt>
      <trkpt lat="45.69522" lon="3.14913">
        <ele>382</ele>
        <time>2008-08-04T09:45:34Z</time>
      </trkpt>
      <trkpt lat="45.69633" lon="3.14873">
        <ele>385</ele>
        <time>2008-08-04T09:47:08Z</time>
      </trkpt>
      <trkpt lat="45.69643" lon="3.14869">
        <ele>386</ele>
        <time>2008-08-04T09:47:17Z</time>
      </trkpt>
      <trkpt lat="45.69666" lon="3.14857">
        <ele>387</ele>
        <time>2008-08-04T09:47:34Z</time>
      </trkpt>
      <trkpt lat="45.69668" lon="3.14806">
        <ele>388</ele>
        <time>2008-08-04T09:48:07Z</time>
      </trkpt>
      <trkpt lat="45.69669" lon="3.14803">
        <ele>388</ele>
        <time>2008-08-04T09:48:09Z</time>
      </trkpt>
      <trkpt lat="45.69673" lon="3.14771">
        <ele>388</ele>
        <time>2008-08-04T09:48:26Z</time>
      </trkpt>
      <trkpt lat="45.69678" lon="3.14751">
        <ele>388</ele>
        <time>2008-08-04T09:48:40Z</time>
      </trkpt>
      <trkpt lat="45.69686" lon="3.14722">
        <ele>388</ele>
        <time>2008-08-04T09:48:58Z</time>
      </trkpt>
      <trkpt lat="45.69692" lon="3.14694">
        <ele>388</ele>
        <time>2008-08-04T09:49:15Z</time>
      </trkpt>
      <trkpt lat="45.69695" lon="3.14665">
        <ele>388</ele>
        <time>2008-08-04T09:49:32Z</time>
      </trkpt>
      <trkpt lat="45.69697" lon="3.1464">
        <ele>388</ele>
        <time>2008-08-04T09:49:46Z</time>
      </trkpt>
      <trkpt lat="45.69704" lon="3.14582">
        <ele>388</ele>
        <time>2008-08-04T09:50:19Z</time>
      </trkpt>
      <trkpt lat="45.69703" lon="3.14557">
        <ele>388</ele>
        <time>2008-08-04T09:50:33Z</time>
      </trkpt>
      <trkpt lat="45.69698" lon="3.14527">
        <ele>388</ele>
        <time>2008-08-04T09:50:52Z</time>
      </trkpt>
      <trkpt lat="45.69697" lon="3.145">
        <ele>388</ele>
        <time>2008-08-04T09:51:08Z</time>
      </trkpt>
      <trkpt lat="45.69699" lon="3.14467">
        <ele>389</ele>
        <time>2008-08-04T09:51:26Z</time>
      </trkpt>
      <trkpt lat="45.69697" lon="3.14435">
        <ele>389</ele>
        <time>2008-08-04T09:51:45Z</time>
      </trkpt>
      <trkpt lat="45.69696" lon="3.14404">
        <ele>390</ele>
        <time>2008-08-04T09:52:04Z</time>
      </trkpt>
      <trkpt lat="45.69694" lon="3.1438">
        <ele>390</ele>
        <time>2008-08-04T09:52:19Z</time>
      </trkpt>
      <trkpt lat="45.69694" lon="3.14357">
        <ele>391</ele>
        <time>2008-08-04T09:52:33Z</time>
      </trkpt>
      <trkpt lat="45.69698" lon="3.14332">
        <ele>391</ele>
        <time>2008-08-04T09:52:49Z</time>
      </trkpt>
      <trkpt lat="45.69707" lon="3.14296">
        <ele>392</ele>
        <time>2008-08-04T09:53:12Z</time>
      </trkpt>
      <trkpt lat="45.69714" lon="3.14269">
        <ele>393</ele>
        <time>2008-08-04T09:53:29Z</time>
      </trkpt>
      <trkpt lat="45.69718" lon="3.14243">
        <ele>393</ele>
        <time>2008-08-04T09:53:44Z</time>
      </trkpt>
      <trkpt lat="45.69722" lon="3.14213">
        <ele>395</ele>
        <time>2008-08-04T09:54:01Z</time>
      </trkpt>
      <trkpt lat="45.69725" lon="3.14178">
        <ele>396</ele>
        <time>2008-08-04T09:54:20Z</time>
      </trkpt>
      <trkpt lat="45.69731" lon="3.14135">
        <ele>397</ele>
        <time>2008-08-04T09:54:35Z</time>
      </trkpt>
      <trkpt lat="45.69739" lon="3.1408">
        <ele>397</ele>
        <time>2008-08-04T09:54:49Z</time>
      </trkpt>
      <trkpt lat="45.69757" lon="3.14016">
        <ele>398</ele>
        <time>2008-08-04T09:55:05Z</time>
      </trkpt>
      <trkpt lat="45.69771" lon="3.13956">
        <ele>399</ele>
        <time>2008-08-04T09:55:20Z</time>
      </trkpt>
      <trkpt lat="45.69782" lon="3.13891">
        <ele>399</ele>
        <time>2008-08-04T09:55:35Z</time>
      </trkpt>
      <trkpt lat="45.69788" lon="3.13866">
        <ele>399</ele>
        <time>2008-08-04T09:55:48Z</time>
      </trkpt>
      <trkpt lat="45.69796" lon="3.13825">
        <ele>400</ele>
        <time>2008-08-04T09:56:09Z</time>
      </trkpt>
      <trkpt lat="45.69806" lon="3.13791">
        <ele>401</ele>
        <time>2008-08-04T09:56:28Z</time>
      </trkpt>
      <trkpt lat="45.6982" lon="3.13761">
        <ele>401</ele>
        <time>2008-08-04T09:56:47Z</time>
      </trkpt>
      <trkpt lat="45.69829" lon="3.13731">
        <ele>401</ele>
        <time>2008-08-04T09:57:06Z</time>
      </trkpt>
      <trkpt lat="45.6984" lon="3.13702">
        <ele>401</ele>
        <time>2008-08-04T09:57:22Z</time>
      </trkpt>
      <trkpt lat="45.69849" lon="3.13673">
        <ele>401</ele>
        <time>2008-08-04T09:57:39Z</time>
      </trkpt>
      <trkpt lat="45.69853" lon="3.13638">
        <ele>401</ele>
        <time>2008-08-04T09:57:58Z</time>
      </trkpt>
      <trkpt lat="45.69854" lon="3.1361">
        <ele>402</ele>
        <time>2008-08-04T09:58:13Z</time>
      </trkpt>
      <trkpt lat="45.69854" lon="3.13584">
        <ele>403</ele>
        <time>2008-08-04T09:58:29Z</time>
      </trkpt>
      <trkpt lat="45.69854" lon="3.13553">
        <ele>404</ele>
        <time>2008-08-04T09:58:48Z</time>
      </trkpt>
      <trkpt lat="45.69857" lon="3.13525">
        <ele>404</ele>
        <time>2008-08-04T09:59:06Z</time>
      </trkpt>
      <trkpt lat="45.69859" lon="3.13497">
        <ele>404</ele>
        <time>2008-08-04T09:59:23Z</time>
      </trkpt>
      <trkpt lat="45.69855" lon="3.13459">
        <ele>404</ele>
        <time>2008-08-04T09:59:42Z</time>
      </trkpt>
      <trkpt lat="45.6985" lon="3.13425">
        <ele>405</ele>
        <time>2008-08-04T10:00:03Z</time>
      </trkpt>
      <trkpt lat="45.6985" lon="3.13409">
        <ele>406</ele>
        <time>2008-08-04T10:00:22Z</time>
      </trkpt>
      <trkpt lat="45.69836" lon="3.13414">
        <ele>407</ele>
        <time>2008-08-04T10:00:36Z</time>
      </trkpt>
      <trkpt lat="45.69814" lon="3.1342">
        <ele>410</ele>
        <time>2008-08-04T10:00:55Z</time>
      </trkpt>
      <trkpt lat="45.69812" lon="3.13423">
        <ele>410</ele>
        <time>2008-08-04T10:01:14Z</time>
      </trkpt>
      <trkpt lat="45.69814" lon="3.13422">
        <ele>410</ele>
        <time>2008-08-04T10:01:35Z</time>
      </trkpt>
      <trkpt lat="45.69842" lon="3.13427">
        <ele>406</ele>
        <time>2008-08-04T10:02:28Z</time>
      </trkpt>
      <trkpt lat="45.69859" lon="3.13418">
        <ele>405</ele>
        <time>2008-08-04T10:03:24Z</time>
      </trkpt>
      <trkpt lat="45.6986" lon="3.1339">
        <ele>405</ele>
        <time>2008-08-04T10:03:40Z</time>
      </trkpt>
      <trkpt lat="45.69861" lon="3.13373">
        <ele>406</ele>
        <time>2008-08-04T10:03:54Z</time>
      </trkpt>
      <trkpt lat="45.69863" lon="3.13338">
        <ele>406</ele>
        <time>2008-08-04T10:04:08Z</time>
      </trkpt>
      <trkpt lat="45.69863" lon="3.13313">
        <ele>407</ele>
        <time>2008-08-04T10:04:20Z</time>
      </trkpt>
      <trkpt lat="45.69863" lon="3.13287">
        <ele>408</ele>
        <time>2008-08-04T10:04:37Z</time>
      </trkpt>
      <trkpt lat="45.69862" lon="3.13272">
        <ele>408</ele>
        <time>2008-08-04T10:04:50Z</time>
      </trkpt>
      <trkpt lat="45.69856" lon="3.13215">
        <ele>409</ele>
        <time>2008-08-04T10:05:06Z</time>
      </trkpt>
      <trkpt lat="45.6985" lon="3.13152">
        <ele>411</ele>
        <time>2008-08-04T10:05:21Z</time>
      </trkpt>
      <trkpt lat="45.69818" lon="3.13088">
        <ele>413</ele>
        <time>2008-08-04T10:05:39Z</time>
      </trkpt>
      <trkpt lat="45.69801" lon="3.13064">
        <ele>414</ele>
        <time>2008-08-04T10:05:50Z</time>
      </trkpt>
      <trkpt lat="45.69792" lon="3.13054">
        <ele>414</ele>
        <time>2008-08-04T10:06:00Z</time>
      </trkpt>
      <trkpt lat="45.69788" lon="3.13067">
        <ele>415</ele>
        <time>2008-08-04T10:06:09Z</time>
      </trkpt>
      <trkpt lat="45.69794" lon="3.13105">
        <ele>414</ele>
        <time>2008-08-04T10:06:29Z</time>
      </trkpt>
      <trkpt lat="45.69797" lon="3.13144">
        <ele>415</ele>
        <time>2008-08-04T10:06:48Z</time>
      </trkpt>
      <trkpt lat="45.69788" lon="3.13158">
        <ele>416</ele>
        <time>2008-08-04T10:07:00Z</time>
      </trkpt>
      <trkpt lat="45.6977" lon="3.13163">
        <ele>418</ele>
        <time>2008-08-04T10:07:16Z</time>
      </trkpt>
      <trkpt lat="45.69745" lon="3.13165">
        <ele>420</ele>
        <time>2008-08-04T10:07:37Z</time>
      </trkpt>
      <trkpt lat="45.69725" lon="3.1317">
        <ele>423</ele>
        <time>2008-08-04T10:07:57Z</time>
      </trkpt>
      <trkpt lat="45.69697" lon="3.13178">
        <ele>426</ele>
        <time>2008-08-04T10:08:10Z</time>
      </trkpt>
      <trkpt lat="45.69671" lon="3.13185">
        <ele>429</ele>
        <time>2008-08-04T10:08:21Z</time>
      </trkpt>
      <trkpt lat="45.69654" lon="3.1319">
        <ele>431</ele>
        <time>2008-08-04T10:08:36Z</time>
      </trkpt>
      <trkpt lat="45.69639" lon="3.13196">
        <ele>433</ele>
        <time>2008-08-04T10:08:53Z</time>
      </trkpt>
      <trkpt lat="45.6963" lon="3.13199">
        <ele>434</ele>
        <time>2008-08-04T10:09:05Z</time>
      </trkpt>
      <trkpt lat="45.69612" lon="3.13207">
        <ele>437</ele>
        <time>2008-08-04T10:09:24Z</time>
      </trkpt>
      <trkpt lat="45.69599" lon="3.13212">
        <ele>439</ele>
        <time>2008-08-04T10:09:39Z</time>
      </trkpt>
      <trkpt lat="45.6959" lon="3.1322">
        <ele>440</ele>
        <time>2008-08-04T10:09:54Z</time>
      </trkpt>
      <trkpt lat="45.69578" lon="3.13227">
        <ele>442</ele>
        <time>2008-08-04T10:10:09Z</time>
      </trkpt>
      <trkpt lat="45.69558" lon="3.13244">
        <ele>445</ele>
        <time>2008-08-04T10:10:31Z</time>
      </trkpt>
      <trkpt lat="45.6954" lon="3.13255">
        <ele>448</ele>
        <time>2008-08-04T10:10:47Z</time>
      </trkpt>
      <trkpt lat="45.69524" lon="3.13267">
        <ele>450</ele>
        <time>2008-08-04T10:11:03Z</time>
      </trkpt>
      <trkpt lat="45.69509" lon="3.13277">
        <ele>452</ele>
        <time>2008-08-04T10:11:18Z</time>
      </trkpt>
      <trkpt lat="45.69489" lon="3.13292">
        <ele>454</ele>
        <time>2008-08-04T10:11:40Z</time>
      </trkpt>
      <trkpt lat="45.69486" lon="3.1329">
        <ele>454</ele>
        <time>2008-08-04T10:11:43Z</time>
      </trkpt>
      <trkpt lat="45.69479" lon="3.13215">
        <ele>456</ele>
        <time>2008-08-04T10:12:22Z</time>
      </trkpt>
      <trkpt lat="45.69476" lon="3.13148">
        <ele>457</ele>
        <time>2008-08-04T10:12:38Z</time>
      </trkpt>
      <trkpt lat="45.69483" lon="3.13091">
        <ele>456</ele>
        <time>2008-08-04T10:12:54Z</time>
      </trkpt>
      <trkpt lat="45.69485" lon="3.13051">
        <ele>455</ele>
        <time>2008-08-04T10:13:11Z</time>
      </trkpt>
      <trkpt lat="45.69486" lon="3.13039">
        <ele>455</ele>
        <time>2008-08-04T10:13:17Z</time>
      </trkpt>
      <trkpt lat="45.6949" lon="3.13008">
        <ele>454</ele>
        <time>2008-08-04T10:13:33Z</time>
      </trkpt>
      <trkpt lat="45.69492" lon="3.12979">
        <ele>454</ele>
        <time>2008-08-04T10:13:49Z</time>
      </trkpt>
      <trkpt lat="45.69496" lon="3.12953">
        <ele>453</ele>
        <time>2008-08-04T10:14:05Z</time>
      </trkpt>
      <trkpt lat="45.69497" lon="3.12949">
        <ele>453</ele>
        <time>2008-08-04T10:14:19Z</time>
      </trkpt>
      <trkpt lat="45.69497" lon="3.12947">
        <ele>453</ele>
        <time>2008-08-04T10:14:30Z</time>
      </trkpt>
      <trkpt lat="45.69499" lon="3.12943">
        <ele>453</ele>
        <time>2008-08-04T10:14:33Z</time>
      </trkpt>
      <trkpt lat="45.69485" lon="3.12932">
        <ele>455</ele>
        <time>2008-08-04T10:14:47Z</time>
      </trkpt>
      <trkpt lat="45.6947" lon="3.12921">
        <ele>457</ele>
        <time>2008-08-04T10:15:04Z</time>
      </trkpt>
      <trkpt lat="45.69452" lon="3.12909">
        <ele>460</ele>
        <time>2008-08-04T10:15:23Z</time>
      </trkpt>
      <trkpt lat="45.69437" lon="3.12902">
        <ele>462</ele>
        <time>2008-08-04T10:15:39Z</time>
      </trkpt>
      <trkpt lat="45.69417" lon="3.12901">
        <ele>464</ele>
        <time>2008-08-04T10:15:58Z</time>
      </trkpt>
      <trkpt lat="45.69399" lon="3.129">
        <ele>466</ele>
        <time>2008-08-04T10:16:15Z</time>
      </trkpt>
      <trkpt lat="45.69395" lon="3.129">
        <ele>467</ele>
        <time>2008-08-04T10:16:22Z</time>
      </trkpt>
      <trkpt lat="45.69383" lon="3.129">
        <ele>468</ele>
        <time>2008-08-04T10:16:33Z</time>
      </trkpt>
      <trkpt lat="45.6938" lon="3.12895">
        <ele>468</ele>
        <time>2008-08-04T10:16:39Z</time>
      </trkpt>
      <trkpt lat="45.69389" lon="3.12867">
        <ele>468</ele>
        <time>2008-08-04T10:16:56Z</time>
      </trkpt>
      <trkpt lat="45.69403" lon="3.12836">
        <ele>467</ele>
        <time>2008-08-04T10:17:13Z</time>
      </trkpt>
      <trkpt lat="45.69417" lon="3.12802">
        <ele>465</ele>
        <time>2008-08-04T10:17:32Z</time>
      </trkpt>
      <trkpt lat="45.69428" lon="3.12769">
        <ele>464</ele>
        <time>2008-08-04T10:17:44Z</time>
      </trkpt>
      <trkpt lat="45.69439" lon="3.12719">
        <ele>461</ele>
        <time>2008-08-04T10:17:58Z</time>
      </trkpt>
      <trkpt lat="45.69452" lon="3.12651">
        <ele>460</ele>
        <time>2008-08-04T10:18:15Z</time>
      </trkpt>
      <trkpt lat="45.69462" lon="3.12589">
        <ele>461</ele>
        <time>2008-08-04T10:18:26Z</time>
      </trkpt>
      <trkpt lat="45.69477" lon="3.12484">
        <ele>462</ele>
        <time>2008-08-04T10:18:40Z</time>
      </trkpt>
      <trkpt lat="45.69481" lon="3.1246">
        <ele>462</ele>
        <time>2008-08-04T10:18:47Z</time>
      </trkpt>
      <trkpt lat="45.69486" lon="3.12439">
        <ele>462</ele>
        <time>2008-08-04T10:19:01Z</time>
      </trkpt>
      <trkpt lat="45.69487" lon="3.12411">
        <ele>462</ele>
        <time>2008-08-04T10:19:16Z</time>
      </trkpt>
      <trkpt lat="45.6949" lon="3.1238">
        <ele>461</ele>
        <time>2008-08-04T10:19:33Z</time>
      </trkpt>
      <trkpt lat="45.69496" lon="3.12349">
        <ele>461</ele>
        <time>2008-08-04T10:19:51Z</time>
      </trkpt>
      <trkpt lat="45.69504" lon="3.12324">
        <ele>460</ele>
        <time>2008-08-04T10:20:05Z</time>
      </trkpt>
      <trkpt lat="45.69519" lon="3.12269">
        <ele>456</ele>
        <time>2008-08-04T10:20:37Z</time>
      </trkpt>
      <trkpt lat="45.69517" lon="3.12258">
        <ele>456</ele>
        <time>2008-08-04T10:20:42Z</time>
      </trkpt>
      <trkpt lat="45.6951" lon="3.12255">
        <ele>457</ele>
        <time>2008-08-04T10:20:47Z</time>
      </trkpt>
      <trkpt lat="45.6949" lon="3.12267">
        <ele>460</ele>
        <time>2008-08-04T10:21:04Z</time>
      </trkpt>
      <trkpt lat="45.69471" lon="3.12275">
        <ele>462</ele>
        <time>2008-08-04T10:21:19Z</time>
      </trkpt>
      <trkpt lat="45.6945" lon="3.12276">
        <ele>465</ele>
        <time>2008-08-04T10:21:36Z</time>
      </trkpt>
      <trkpt lat="45.69429" lon="3.12276">
        <ele>467</ele>
        <time>2008-08-04T10:21:53Z</time>
      </trkpt>
      <trkpt lat="45.69406" lon="3.12277">
        <ele>470</ele>
        <time>2008-08-04T10:22:12Z</time>
      </trkpt>
      <trkpt lat="45.69399" lon="3.12277">
        <ele>470</ele>
        <time>2008-08-04T10:22:21Z</time>
      </trkpt>
      <trkpt lat="45.69383" lon="3.12275">
        <ele>472</ele>
        <time>2008-08-04T10:22:36Z</time>
      </trkpt>
      <trkpt lat="45.69364" lon="3.12271">
        <ele>475</ele>
        <time>2008-08-04T10:22:52Z</time>
      </trkpt>
      <trkpt lat="45.69345" lon="3.12262">
        <ele>477</ele>
        <time>2008-08-04T10:23:09Z</time>
      </trkpt>
      <trkpt lat="45.69321" lon="3.12249">
        <ele>480</ele>
        <time>2008-08-04T10:23:32Z</time>
      </trkpt>
      <trkpt lat="45.69303" lon="3.1224">
        <ele>483</ele>
        <time>2008-08-04T10:23:49Z</time>
      </trkpt>
      <trkpt lat="45.69292" lon="3.12228">
        <ele>484</ele>
        <time>2008-08-04T10:24:03Z</time>
      </trkpt>
      <trkpt lat="45.69293" lon="3.12198">
        <ele>485</ele>
        <time>2008-08-04T10:24:20Z</time>
      </trkpt>
      <trkpt lat="45.69295" lon="3.12163">
        <ele>484</ele>
        <time>2008-08-04T10:24:37Z</time>
      </trkpt>
      <trkpt lat="45.69299" lon="3.12128">
        <ele>483</ele>
        <time>2008-08-04T10:24:55Z</time>
      </trkpt>
      <trkpt lat="45.69301" lon="3.12097">
        <ele>483</ele>
        <time>2008-08-04T10:25:12Z</time>
      </trkpt>
      <trkpt lat="45.69298" lon="3.1206">
        <ele>483</ele>
        <time>2008-08-04T10:25:31Z</time>
      </trkpt>
      <trkpt lat="45.69293" lon="3.12025">
        <ele>485</ele>
        <time>2008-08-04T10:25:51Z</time>
      </trkpt>
      <trkpt lat="45.69288" lon="3.12008">
        <ele>485</ele>
        <time>2008-08-04T10:26:01Z</time>
      </trkpt>
      <trkpt lat="45.69275" lon="3.12002">
        <ele>487</ele>
        <time>2008-08-04T10:26:14Z</time>
      </trkpt>
      <trkpt lat="45.69261" lon="3.12004">
        <ele>488</ele>
        <time>2008-08-04T10:26:29Z</time>
      </trkpt>
      <trkpt lat="45.69256" lon="3.12006">
        <ele>489</ele>
        <time>2008-08-04T10:26:40Z</time>
      </trkpt>
      <trkpt lat="45.69246" lon="3.12014">
        <ele>491</ele>
        <time>2008-08-04T10:26:53Z</time>
      </trkpt>
      <trkpt lat="45.69232" lon="3.12027">
        <ele>493</ele>
        <time>2008-08-04T10:27:10Z</time>
      </trkpt>
      <trkpt lat="45.69215" lon="3.12037">
        <ele>496</ele>
        <time>2008-08-04T10:27:29Z</time>
      </trkpt>
      <trkpt lat="45.69212" lon="3.12039">
        <ele>496</ele>
        <time>2008-08-04T10:27:44Z</time>
      </trkpt>
      <trkpt lat="45.69201" lon="3.12042">
        <ele>498</ele>
        <time>2008-08-04T10:27:55Z</time>
      </trkpt>
      <trkpt lat="45.6918" lon="3.12051">
        <ele>501</ele>
        <time>2008-08-04T10:28:15Z</time>
      </trkpt>
      <trkpt lat="45.6916" lon="3.12061">
        <ele>504</ele>
        <time>2008-08-04T10:28:34Z</time>
      </trkpt>
      <trkpt lat="45.69158" lon="3.12062">
        <ele>504</ele>
        <time>2008-08-04T10:28:36Z</time>
      </trkpt>
      <trkpt lat="45.69154" lon="3.12055">
        <ele>505</ele>
        <time>2008-08-04T10:28:43Z</time>
      </trkpt>
      <trkpt lat="45.69167" lon="3.12032">
        <ele>503</ele>
        <time>2008-08-04T10:29:01Z</time>
      </trkpt>
      <trkpt lat="45.69182" lon="3.1201">
        <ele>501</ele>
        <time>2008-08-04T10:29:17Z</time>
      </trkpt>
      <trkpt lat="45.69195" lon="3.11998">
        <ele>500</ele>
        <time>2008-08-04T10:29:31Z</time>
      </trkpt>
      <trkpt lat="45.69195" lon="3.1199">
        <ele>500</ele>
        <time>2008-08-04T10:29:35Z</time>
      </trkpt>
      <trkpt lat="45.69189" lon="3.11977">
        <ele>500</ele>
        <time>2008-08-04T10:29:46Z</time>
      </trkpt>
      <trkpt lat="45.69134" lon="3.11997">
        <ele>509</ele>
        <time>2008-08-04T10:30:22Z</time>
      </trkpt>
      <trkpt lat="45.68972" lon="3.11958">
        <ele>530</ele>
        <time>2008-08-04T10:30:41Z</time>
      </trkpt>
      <trkpt lat="45.68954" lon="3.11955">
        <ele>532</ele>
        <time>2008-08-04T10:30:59Z</time>
      </trkpt>
      <trkpt lat="45.68937" lon="3.11949">
        <ele>534</ele>
        <time>2008-08-04T10:31:12Z</time>
      </trkpt>
      <trkpt lat="45.6892" lon="3.1195">
        <ele>536</ele>
        <time>2008-08-04T10:31:26Z</time>
      </trkpt>
      <trkpt lat="45.68919" lon="3.11953">
        <ele>536</ele>
        <time>2008-08-04T10:31:28Z</time>
      </trkpt>
      <trkpt lat="45.68929" lon="3.11999">
        <ele>535</ele>
        <time>2008-08-04T10:31:49Z</time>
      </trkpt>
      <trkpt lat="45.68936" lon="3.12033">
        <ele>535</ele>
        <time>2008-08-04T10:32:06Z</time>
      </trkpt>
      <trkpt lat="45.68943" lon="3.12069">
        <ele>534</ele>
        <time>2008-08-04T10:32:23Z</time>
      </trkpt>
      <trkpt lat="45.68941" lon="3.12095">
        <ele>534</ele>
        <time>2008-08-04T10:32:36Z</time>
      </trkpt>
      <trkpt lat="45.68941" lon="3.12131">
        <ele>535</ele>
        <time>2008-08-04T10:32:53Z</time>
      </trkpt>
      <trkpt lat="45.6894" lon="3.12157">
        <ele>535</ele>
        <time>2008-08-04T10:33:07Z</time>
      </trkpt>
      <trkpt lat="45.68938" lon="3.12191">
        <ele>536</ele>
        <time>2008-08-04T10:33:24Z</time>
      </trkpt>
      <trkpt lat="45.68935" lon="3.12228">
        <ele>537</ele>
        <time>2008-08-04T10:33:42Z</time>
      </trkpt>
      <trkpt lat="45.6893" lon="3.12244">
        <ele>538</ele>
        <time>2008-08-04T10:33:56Z</time>
      </trkpt>
      <trkpt lat="45.6892" lon="3.12253">
        <ele>539</ele>
        <time>2008-08-04T10:34:07Z</time>
      </trkpt>
      <trkpt lat="45.68909" lon="3.12261">
        <ele>540</ele>
        <time>2008-08-04T10:34:18Z</time>
      </trkpt>
      <trkpt lat="45.68894" lon="3.12269">
        <ele>541</ele>
        <time>2008-08-04T10:34:30Z</time>
      </trkpt>
      <trkpt lat="45.68873" lon="3.1228">
        <ele>544</ele>
        <time>2008-08-04T10:34:49Z</time>
      </trkpt>
      <trkpt lat="45.68868" lon="3.12285">
        <ele>545</ele>
        <time>2008-08-04T10:34:55Z</time>
      </trkpt>
      <trkpt lat="45.68865" lon="3.12296">
        <ele>545</ele>
        <time>2008-08-04T10:35:01Z</time>
      </trkpt>
      <trkpt lat="45.68858" lon="3.123">
        <ele>546</ele>
        <time>2008-08-04T10:35:08Z</time>
      </trkpt>
      <trkpt lat="45.68856" lon="3.12301">
        <ele>546</ele>
        <time>2008-08-04T10:35:10Z</time>
      </trkpt>
      <trkpt lat="45.68838" lon="3.12294">
        <ele>548</ele>
        <time>2008-08-04T10:35:26Z</time>
      </trkpt>
      <trkpt lat="45.68835" lon="3.12291">
        <ele>548</ele>
        <time>2008-08-04T10:35:42Z</time>
      </trkpt>
      <trkpt lat="45.68833" lon="3.12286">
        <ele>549</ele>
        <time>2008-08-04T10:35:46Z</time>
      </trkpt>
      <trkpt lat="45.68815" lon="3.12289">
        <ele>551</ele>
        <time>2008-08-04T10:36:02Z</time>
      </trkpt>
      <trkpt lat="45.68809" lon="3.12285">
        <ele>551</ele>
        <time>2008-08-04T10:36:12Z</time>
      </trkpt>
      <trkpt lat="45.68813" lon="3.12275">
        <ele>551</ele>
        <time>2008-08-04T10:36:19Z</time>
      </trkpt>
      <trkpt lat="45.6881" lon="3.12272">
        <ele>551</ele>
        <time>2008-08-04T10:36:30Z</time>
      </trkpt>
      <trkpt lat="45.68799" lon="3.12253">
        <ele>552</ele>
        <time>2008-08-04T10:36:45Z</time>
      </trkpt>
      <trkpt lat="45.68785" lon="3.12237">
        <ele>553</ele>
        <time>2008-08-04T10:36:59Z</time>
      </trkpt>
      <trkpt lat="45.68766" lon="3.12225">
        <ele>555</ele>
        <time>2008-08-04T10:37:16Z</time>
      </trkpt>
      <trkpt lat="45.68761" lon="3.12222">
        <ele>556</ele>
        <time>2008-08-04T10:37:28Z</time>
      </trkpt>
      <trkpt lat="45.6875" lon="3.12216">
        <ele>558</ele>
        <time>2008-08-04T10:37:42Z</time>
      </trkpt>
      <trkpt lat="45.68732" lon="3.12207">
        <ele>561</ele>
        <time>2008-08-04T10:37:58Z</time>
      </trkpt>
      <trkpt lat="45.68729" lon="3.12198">
        <ele>561</ele>
        <time>2008-08-04T10:38:06Z</time>
      </trkpt>
      <trkpt lat="45.68735" lon="3.12171">
        <ele>561</ele>
        <time>2008-08-04T10:38:21Z</time>
      </trkpt>
      <trkpt lat="45.68741" lon="3.12149">
        <ele>560</ele>
        <time>2008-08-04T10:38:34Z</time>
      </trkpt>
      <trkpt lat="45.68749" lon="3.12124">
        <ele>560</ele>
        <time>2008-08-04T10:38:50Z</time>
      </trkpt>
      <trkpt lat="45.68758" lon="3.12095">
        <ele>559</ele>
        <time>2008-08-04T10:39:07Z</time>
      </trkpt>
      <trkpt lat="45.68765" lon="3.12066">
        <ele>557</ele>
        <time>2008-08-04T10:39:24Z</time>
      </trkpt>
      <trkpt lat="45.68772" lon="3.12036">
        <ele>556</ele>
        <time>2008-08-04T10:39:39Z</time>
      </trkpt>
      <trkpt lat="45.68774" lon="3.11987">
        <ele>556</ele>
        <time>2008-08-04T10:39:53Z</time>
      </trkpt>
      <trkpt lat="45.68775" lon="3.11931">
        <ele>556</ele>
        <time>2008-08-04T10:40:07Z</time>
      </trkpt>
      <trkpt lat="45.68771" lon="3.11871">
        <ele>557</ele>
        <time>2008-08-04T10:40:21Z</time>
      </trkpt>
      <trkpt lat="45.68766" lon="3.11822">
        <ele>558</ele>
        <time>2008-08-04T10:40:34Z</time>
      </trkpt>
      <trkpt lat="45.68756" lon="3.118">
        <ele>560</ele>
        <time>2008-08-04T10:40:47Z</time>
      </trkpt>
      <trkpt lat="45.68748" lon="3.11783">
        <ele>561</ele>
        <time>2008-08-04T10:41:00Z</time>
      </trkpt>
      <trkpt lat="45.6874" lon="3.11761">
        <ele>563</ele>
        <time>2008-08-04T10:41:15Z</time>
      </trkpt>
      <trkpt lat="45.68737" lon="3.11728">
        <ele>563</ele>
        <time>2008-08-04T10:41:28Z</time>
      </trkpt>
      <trkpt lat="45.68732" lon="3.1166">
        <ele>565</ele>
        <time>2008-08-04T10:41:45Z</time>
      </trkpt>
      <trkpt lat="45.68725" lon="3.11579">
        <ele>566</ele>
        <time>2008-08-04T10:42:04Z</time>
      </trkpt>
      <trkpt lat="45.68707" lon="3.11487">
        <ele>568</ele>
        <time>2008-08-04T10:42:29Z</time>
      </trkpt>
      <trkpt lat="45.68699" lon="3.11467">
        <ele>570</ele>
        <time>2008-08-04T10:42:46Z</time>
      </trkpt>
      <trkpt lat="45.68693" lon="3.11454">
        <ele>571</ele>
        <time>2008-08-04T10:42:57Z</time>
      </trkpt>
      <trkpt lat="45.68688" lon="3.11447">
        <ele>572</ele>
        <time>2008-08-04T10:43:10Z</time>
      </trkpt>
      <trkpt lat="45.68688" lon="3.11438">
        <ele>572</ele>
        <time>2008-08-04T10:43:28Z</time>
      </trkpt>
      <trkpt lat="45.68682" lon="3.11422">
        <ele>574</ele>
        <time>2008-08-04T10:43:41Z</time>
      </trkpt>
      <trkpt lat="45.68673" lon="3.11383">
        <ele>577</ele>
        <time>2008-08-04T10:43:56Z</time>
      </trkpt>
      <trkpt lat="45.6866" lon="3.11324">
        <ele>580</ele>
        <time>2008-08-04T10:44:12Z</time>
      </trkpt>
      <trkpt lat="45.68634" lon="3.11252">
        <ele>584</ele>
        <time>2008-08-04T10:44:33Z</time>
      </trkpt>
      <trkpt lat="45.68624" lon="3.11227">
        <ele>586</ele>
        <time>2008-08-04T10:44:49Z</time>
      </trkpt>
      <trkpt lat="45.68619" lon="3.11222">
        <ele>587</ele>
        <time>2008-08-04T10:44:54Z</time>
      </trkpt>
      <trkpt lat="45.68611" lon="3.11193">
        <ele>587</ele>
        <time>2008-08-04T10:45:10Z</time>
      </trkpt>
      <trkpt lat="45.68597" lon="3.11171">
        <ele>589</ele>
        <time>2008-08-04T10:45:26Z</time>
      </trkpt>
      <trkpt lat="45.6856" lon="3.11128">
        <ele>591</ele>
        <time>2008-08-04T10:45:52Z</time>
      </trkpt>
      <trkpt lat="45.68509" lon="3.1107">
        <ele>596</ele>
        <time>2008-08-04T10:46:16Z</time>
      </trkpt>
      <trkpt lat="45.68507" lon="3.11067">
        <ele>596</ele>
        <time>2008-08-04T10:46:22Z</time>
      </trkpt>
      <trkpt lat="45.68493" lon="3.11053">
        <ele>598</ele>
        <time>2008-08-04T10:46:36Z</time>
      </trkpt>
      <trkpt lat="45.68478" lon="3.11043">
        <ele>600</ele>
        <time>2008-08-04T10:46:47Z</time>
      </trkpt>
      <trkpt lat="45.6847" lon="3.11028">
        <ele>601</ele>
        <time>2008-08-04T10:46:59Z</time>
      </trkpt>
      <trkpt lat="45.68469" lon="3.11027">
        <ele>601</ele>
        <time>2008-08-04T10:47:00Z</time>
      </trkpt>
      <trkpt lat="45.68468" lon="3.11018">
        <ele>601</ele>
        <time>2008-08-04T10:47:05Z</time>
      </trkpt>
      <trkpt lat="45.68468" lon="3.11005">
        <ele>600</ele>
        <time>2008-08-04T10:47:21Z</time>
      </trkpt>
      <trkpt lat="45.68469" lon="3.11004">
        <ele>600</ele>
        <time>2008-08-04T10:47:28Z</time>
      </trkpt>
      <trkpt lat="45.68472" lon="3.11006">
        <ele>600</ele>
        <time>2008-08-04T10:47:42Z</time>
      </trkpt>
      <trkpt lat="45.68485" lon="3.10998">
        <ele>598</ele>
        <time>2008-08-04T10:53:22Z</time>
      </trkpt>
      <trkpt lat="45.68478" lon="3.11002">
        <ele>599</ele>
        <time>2008-08-04T10:54:09Z</time>
      </trkpt>
      <trkpt lat="45.68474" lon="3.11003">
        <ele>599</ele>
        <time>2008-08-04T10:56:16Z</time>
      </trkpt>
      <trkpt lat="45.68473" lon="3.11005">
        <ele>600</ele>
        <time>2008-08-04T10:56:35Z</time>
      </trkpt>
      <trkpt lat="45.68472" lon="3.11005">
        <ele>600</ele>
        <time>2008-08-04T10:56:44Z</time>
      </trkpt>
      <trkpt lat="45.68472" lon="3.11004">
        <ele>600</ele>
        <time>2008-08-04T10:57:38Z</time>
      </trkpt>
      <trkpt lat="45.68473" lon="3.11004">
        <ele>600</ele>
        <time>2008-08-04T10:57:59Z</time>
      </trkpt>
      <trkpt lat="45.68472" lon="3.11006">
        <ele>600</ele>
        <time>2008-08-04T10:58:57Z</time>
      </trkpt>
      <trkpt lat="45.68472" lon="3.11005">
        <ele>600</ele>
        <time>2008-08-04T11:00:00Z</time>
      </trkpt>
      <trkpt lat="45.68471" lon="3.11009">
        <ele>600</ele>
        <time>2008-08-04T11:01:15Z</time>
      </trkpt>
      <trkpt lat="45.6847" lon="3.11008">
        <ele>600</ele>
        <time>2008-08-04T11:01:16Z</time>
      </trkpt>
      <trkpt lat="45.68465" lon="3.10987">
        <ele>600</ele>
        <time>2008-08-04T11:01:35Z</time>
      </trkpt>
      <trkpt lat="45.68475" lon="3.11003">
        <ele>599</ele>
        <time>2008-08-04T11:16:38Z</time>
      </trkpt>
      <trkpt lat="45.68474" lon="3.11007">
        <ele>599</ele>
        <time>2008-08-04T11:18:06Z</time>
      </trkpt>
      <trkpt lat="45.68472" lon="3.11007">
        <ele>600</ele>
        <time>2008-08-04T11:18:43Z</time>
      </trkpt>
      <trkpt lat="45.68472" lon="3.11015">
        <ele>600</ele>
        <time>2008-08-04T11:18:48Z</time>
      </trkpt>
      <trkpt lat="45.68471" lon="3.11022">
        <ele>600</ele>
        <time>2008-08-04T11:18:57Z</time>
      </trkpt>
      <trkpt lat="45.68459" lon="3.11017">
        <ele>602</ele>
        <time>2008-08-04T11:19:10Z</time>
      </trkpt>
      <trkpt lat="45.68425" lon="3.10958">
        <ele>604</ele>
        <time>2008-08-04T11:19:50Z</time>
      </trkpt>
      <trkpt lat="45.68415" lon="3.10929">
        <ele>604</ele>
        <time>2008-08-04T11:20:08Z</time>
      </trkpt>
      <trkpt lat="45.684" lon="3.10894">
        <ele>604</ele>
        <time>2008-08-04T11:20:26Z</time>
      </trkpt>
      <trkpt lat="45.6839" lon="3.10863">
        <ele>604</ele>
        <time>2008-08-04T11:20:36Z</time>
      </trkpt>
      <trkpt lat="45.68388" lon="3.10856">
        <ele>604</ele>
        <time>2008-08-04T11:20:39Z</time>
      </trkpt>
      <trkpt lat="45.68387" lon="3.10851">
        <ele>604</ele>
        <time>2008-08-04T11:20:42Z</time>
      </trkpt>
      <trkpt lat="45.68388" lon="3.10838">
        <ele>603</ele>
        <time>2008-08-04T11:20:56Z</time>
      </trkpt>
      <trkpt lat="45.68386" lon="3.10815">
        <ele>603</ele>
        <time>2008-08-04T11:21:11Z</time>
      </trkpt>
      <trkpt lat="45.68379" lon="3.10778">
        <ele>603</ele>
        <time>2008-08-04T11:21:27Z</time>
      </trkpt>
      <trkpt lat="45.68371" lon="3.10741">
        <ele>603</ele>
        <time>2008-08-04T11:21:43Z</time>
      </trkpt>
      <trkpt lat="45.68351" lon="3.1068">
        <ele>604</ele>
        <time>2008-08-04T11:22:17Z</time>
      </trkpt>
      <trkpt lat="45.68339" lon="3.10644">
        <ele>605</ele>
        <time>2008-08-04T11:22:33Z</time>
      </trkpt>
      <trkpt lat="45.68308" lon="3.10551">
        <ele>609</ele>
        <time>2008-08-04T11:22:58Z</time>
      </trkpt>
      <trkpt lat="45.68306" lon="3.10524">
        <ele>610</ele>
        <time>2008-08-04T11:23:09Z</time>
      </trkpt>
      <trkpt lat="45.68313" lon="3.10483">
        <ele>609</ele>
        <time>2008-08-04T11:23:27Z</time>
      </trkpt>
      <trkpt lat="45.68315" lon="3.10441">
        <ele>609</ele>
        <time>2008-08-04T11:23:49Z</time>
      </trkpt>
      <trkpt lat="45.68313" lon="3.1041">
        <ele>609</ele>
        <time>2008-08-04T11:24:05Z</time>
      </trkpt>
      <trkpt lat="45.68305" lon="3.10381">
        <ele>610</ele>
        <time>2008-08-04T11:24:20Z</time>
      </trkpt>
      <trkpt lat="45.68297" lon="3.10341">
        <ele>611</ele>
        <time>2008-08-04T11:24:40Z</time>
      </trkpt>
      <trkpt lat="45.68291" lon="3.103">
        <ele>612</ele>
        <time>2008-08-04T11:25:01Z</time>
      </trkpt>
      <trkpt lat="45.68287" lon="3.10266">
        <ele>612</ele>
        <time>2008-08-04T11:25:19Z</time>
      </trkpt>
      <trkpt lat="45.68288" lon="3.1025">
        <ele>612</ele>
        <time>2008-08-04T11:25:30Z</time>
      </trkpt>
      <trkpt lat="45.68286" lon="3.10235">
        <ele>612</ele>
        <time>2008-08-04T11:25:41Z</time>
      </trkpt>
      <trkpt lat="45.68291" lon="3.10212">
        <ele>610</ele>
        <time>2008-08-04T11:25:58Z</time>
      </trkpt>
      <trkpt lat="45.68294" lon="3.10197">
        <ele>609</ele>
        <time>2008-08-04T11:26:13Z</time>
      </trkpt>
      <trkpt lat="45.68295" lon="3.10184">
        <ele>609</ele>
        <time>2008-08-04T11:26:26Z</time>
      </trkpt>
      <trkpt lat="45.68301" lon="3.1015">
        <ele>608</ele>
        <time>2008-08-04T11:26:50Z</time>
      </trkpt>
      <trkpt lat="45.68311" lon="3.10125">
        <ele>606</ele>
        <time>2008-08-04T11:27:08Z</time>
      </trkpt>
      <trkpt lat="45.68317" lon="3.10101">
        <ele>606</ele>
        <time>2008-08-04T11:27:21Z</time>
      </trkpt>
      <trkpt lat="45.68315" lon="3.10093">
        <ele>607</ele>
        <time>2008-08-04T11:27:26Z</time>
      </trkpt>
      <trkpt lat="45.68314" lon="3.10044">
        <ele>608</ele>
        <time>2008-08-04T11:27:56Z</time>
      </trkpt>
      <trkpt lat="45.68304" lon="3.1001">
        <ele>610</ele>
        <time>2008-08-04T11:28:17Z</time>
      </trkpt>
      <trkpt lat="45.68306" lon="3.09978">
        <ele>611</ele>
        <time>2008-08-04T11:28:36Z</time>
      </trkpt>
      <trkpt lat="45.6831" lon="3.09955">
        <ele>611</ele>
        <time>2008-08-04T11:28:50Z</time>
      </trkpt>
      <trkpt lat="45.68309" lon="3.09928">
        <ele>612</ele>
        <time>2008-08-04T11:29:07Z</time>
      </trkpt>
      <trkpt lat="45.68313" lon="3.09908">
        <ele>612</ele>
        <time>2008-08-04T11:29:20Z</time>
      </trkpt>
      <trkpt lat="45.68321" lon="3.09875">
        <ele>612</ele>
        <time>2008-08-04T11:29:42Z</time>
      </trkpt>
      <trkpt lat="45.6833" lon="3.09859">
        <ele>612</ele>
        <time>2008-08-04T11:29:56Z</time>
      </trkpt>
      <trkpt lat="45.68343" lon="3.09841">
        <ele>611</ele>
        <time>2008-08-04T11:30:14Z</time>
      </trkpt>
      <trkpt lat="45.68345" lon="3.09835">
        <ele>610</ele>
        <time>2008-08-04T11:30:26Z</time>
      </trkpt>
      <trkpt lat="45.68351" lon="3.0982">
        <ele>610</ele>
        <time>2008-08-04T11:30:36Z</time>
      </trkpt>
      <trkpt lat="45.68367" lon="3.09772">
        <ele>609</ele>
        <time>2008-08-04T11:31:05Z</time>
      </trkpt>
      <trkpt lat="45.68376" lon="3.09751">
        <ele>608</ele>
        <time>2008-08-04T11:31:17Z</time>
      </trkpt>
      <trkpt lat="45.68379" lon="3.09734">
        <ele>608</ele>
        <time>2008-08-04T11:31:27Z</time>
      </trkpt>
      <trkpt lat="45.68387" lon="3.09705">
        <ele>607</ele>
        <time>2008-08-04T11:31:46Z</time>
      </trkpt>
      <trkpt lat="45.68394" lon="3.09676">
        <ele>606</ele>
        <time>2008-08-04T11:32:03Z</time>
      </trkpt>
      <trkpt lat="45.68393" lon="3.09665">
        <ele>606</ele>
        <time>2008-08-04T11:32:09Z</time>
      </trkpt>
      <trkpt lat="45.68392" lon="3.09611">
        <ele>605</ele>
        <time>2008-08-04T11:32:36Z</time>
      </trkpt>
      <trkpt lat="45.68394" lon="3.09583">
        <ele>604</ele>
        <time>2008-08-04T11:32:53Z</time>
      </trkpt>
      <trkpt lat="45.68394" lon="3.09554">
        <ele>604</ele>
        <time>2008-08-04T11:33:12Z</time>
      </trkpt>
      <trkpt lat="45.68383" lon="3.09521">
        <ele>607</ele>
        <time>2008-08-04T11:33:33Z</time>
      </trkpt>
      <trkpt lat="45.68362" lon="3.09506">
        <ele>610</ele>
        <time>2008-08-04T11:34:03Z</time>
      </trkpt>
      <trkpt lat="45.68328" lon="3.09418">
        <ele>619</ele>
        <time>2008-08-04T11:35:00Z</time>
      </trkpt>
      <trkpt lat="45.68307" lon="3.0933">
        <ele>624</ele>
        <time>2008-08-04T11:35:19Z</time>
      </trkpt>
      <trkpt lat="45.68298" lon="3.09288">
        <ele>626</ele>
        <time>2008-08-04T11:35:32Z</time>
      </trkpt>
      <trkpt lat="45.68295" lon="3.0918">
        <ele>628</ele>
        <time>2008-08-04T11:36:30Z</time>
      </trkpt>
      <trkpt lat="45.68295" lon="3.09154">
        <ele>629</ele>
        <time>2008-08-04T11:36:45Z</time>
      </trkpt>
      <trkpt lat="45.68295" lon="3.09136">
        <ele>629</ele>
        <time>2008-08-04T11:36:57Z</time>
      </trkpt>
      <trkpt lat="45.68297" lon="3.09106">
        <ele>630</ele>
        <time>2008-08-04T11:37:14Z</time>
      </trkpt>
      <trkpt lat="45.68297" lon="3.09076">
        <ele>630</ele>
        <time>2008-08-04T11:37:31Z</time>
      </trkpt>
      <trkpt lat="45.68299" lon="3.09043">
        <ele>631</ele>
        <time>2008-08-04T11:37:53Z</time>
      </trkpt>
      <trkpt lat="45.683" lon="3.0904">
        <ele>631</ele>
        <time>2008-08-04T11:37:55Z</time>
      </trkpt>
      <trkpt lat="45.68305" lon="3.09039">
        <ele>631</ele>
        <time>2008-08-04T11:37:59Z</time>
      </trkpt>
      <trkpt lat="45.68322" lon="3.09032">
        <ele>629</ele>
        <time>2008-08-04T11:38:15Z</time>
      </trkpt>
      <trkpt lat="45.68336" lon="3.08994">
        <ele>631</ele>
        <time>2008-08-04T11:38:30Z</time>
      </trkpt>
      <trkpt lat="45.68369" lon="3.08913">
        <ele>634</ele>
        <time>2008-08-04T11:38:52Z</time>
      </trkpt>
      <trkpt lat="45.68391" lon="3.08872">
        <ele>636</ele>
        <time>2008-08-04T11:39:09Z</time>
      </trkpt>
      <trkpt lat="45.68406" lon="3.08853">
        <ele>637</ele>
        <time>2008-08-04T11:39:25Z</time>
      </trkpt>
      <trkpt lat="45.68436" lon="3.08827">
        <ele>638</ele>
        <time>2008-08-04T11:39:42Z</time>
      </trkpt>
      <trkpt lat="45.68468" lon="3.08805">
        <ele>640</ele>
        <time>2008-08-04T11:39:56Z</time>
      </trkpt>
      <trkpt lat="45.68482" lon="3.08782">
        <ele>643</ele>
        <time>2008-08-04T11:40:11Z</time>
      </trkpt>
      <trkpt lat="45.68494" lon="3.08742">
        <ele>648</ele>
        <time>2008-08-04T11:40:41Z</time>
      </trkpt>
      <trkpt lat="45.68504" lon="3.08716">
        <ele>650</ele>
        <time>2008-08-04T11:41:00Z</time>
      </trkpt>
      <trkpt lat="45.68515" lon="3.08682">
        <ele>652</ele>
        <time>2008-08-04T11:41:16Z</time>
      </trkpt>
      <trkpt lat="45.68533" lon="3.08639">
        <ele>653</ele>
        <time>2008-08-04T11:41:32Z</time>
      </trkpt>
      <trkpt lat="45.68567" lon="3.08599">
        <ele>650</ele>
        <time>2008-08-04T11:42:06Z</time>
      </trkpt>
      <trkpt lat="45.68579" lon="3.08544">
        <ele>652</ele>
        <time>2008-08-04T11:42:27Z</time>
      </trkpt>
      <trkpt lat="45.68582" lon="3.08531">
        <ele>652</ele>
        <time>2008-08-04T11:42:33Z</time>
      </trkpt>
      <trkpt lat="45.68587" lon="3.0852">
        <ele>652</ele>
        <time>2008-08-04T11:42:38Z</time>
      </trkpt>
      <trkpt lat="45.68602" lon="3.08483">
        <ele>651</ele>
        <time>2008-08-04T11:42:56Z</time>
      </trkpt>
      <trkpt lat="45.68609" lon="3.08459">
        <ele>651</ele>
        <time>2008-08-04T11:43:11Z</time>
      </trkpt>
      <trkpt lat="45.68616" lon="3.08433">
        <ele>650</ele>
        <time>2008-08-04T11:43:26Z</time>
      </trkpt>
      <trkpt lat="45.6863" lon="3.08403">
        <ele>650</ele>
        <time>2008-08-04T11:43:44Z</time>
      </trkpt>
      <trkpt lat="45.68644" lon="3.08368">
        <ele>649</ele>
        <time>2008-08-04T11:44:06Z</time>
      </trkpt>
      <trkpt lat="45.68655" lon="3.08331">
        <ele>649</ele>
        <time>2008-08-04T11:44:27Z</time>
      </trkpt>
      <trkpt lat="45.68662" lon="3.08293">
        <ele>650</ele>
        <time>2008-08-04T11:44:50Z</time>
      </trkpt>
      <trkpt lat="45.68667" lon="3.08274">
        <ele>650</ele>
        <time>2008-08-04T11:45:03Z</time>
      </trkpt>
      <trkpt lat="45.68674" lon="3.0825">
        <ele>650</ele>
        <time>2008-08-04T11:45:19Z</time>
      </trkpt>
      <trkpt lat="45.68681" lon="3.08224">
        <ele>650</ele>
        <time>2008-08-04T11:45:33Z</time>
      </trkpt>
      <trkpt lat="45.68689" lon="3.08197">
        <ele>649</ele>
        <time>2008-08-04T11:45:47Z</time>
      </trkpt>
      <trkpt lat="45.68697" lon="3.08172">
        <ele>649</ele>
        <time>2008-08-04T11:46:04Z</time>
      </trkpt>
      <trkpt lat="45.68701" lon="3.08158">
        <ele>648</ele>
        <time>2008-08-04T11:46:19Z</time>
      </trkpt>
      <trkpt lat="45.68708" lon="3.08102">
        <ele>647</ele>
        <time>2008-08-04T11:46:53Z</time>
      </trkpt>
      <trkpt lat="45.68701" lon="3.08057">
        <ele>649</ele>
        <time>2008-08-04T11:47:06Z</time>
      </trkpt>
      <trkpt lat="45.68693" lon="3.08007">
        <ele>652</ele>
        <time>2008-08-04T11:47:21Z</time>
      </trkpt>
      <trkpt lat="45.68688" lon="3.07955">
        <ele>654</ele>
        <time>2008-08-04T11:47:52Z</time>
      </trkpt>
      <trkpt lat="45.68686" lon="3.07873">
        <ele>655</ele>
        <time>2008-08-04T11:48:43Z</time>
      </trkpt>
      <trkpt lat="45.68683" lon="3.07827">
        <ele>656</ele>
        <time>2008-08-04T11:49:18Z</time>
      </trkpt>
      <trkpt lat="45.68683" lon="3.07809">
        <ele>656</ele>
        <time>2008-08-04T11:49:40Z</time>
      </trkpt>
      <trkpt lat="45.6868" lon="3.078">
        <ele>657</ele>
        <time>2008-08-04T11:49:54Z</time>
      </trkpt>
      <trkpt lat="45.68685" lon="3.07748">
        <ele>655</ele>
        <time>2008-08-04T11:50:41Z</time>
      </trkpt>
      <trkpt lat="45.68697" lon="3.07699">
        <ele>652</ele>
        <time>2008-08-04T11:51:19Z</time>
      </trkpt>
      <trkpt lat="45.68704" lon="3.07676">
        <ele>649</ele>
        <time>2008-08-04T11:51:46Z</time>
      </trkpt>
      <trkpt lat="45.68713" lon="3.07652">
        <ele>646</ele>
        <time>2008-08-04T11:52:06Z</time>
      </trkpt>
      <trkpt lat="45.68712" lon="3.0765">
        <ele>646</ele>
        <time>2008-08-04T11:52:24Z</time>
      </trkpt>
      <trkpt lat="45.68712" lon="3.07629">
        <ele>645</ele>
        <time>2008-08-04T11:53:35Z</time>
      </trkpt>
      <trkpt lat="45.68707" lon="3.0761">
        <ele>646</ele>
        <time>2008-08-04T11:53:47Z</time>
      </trkpt>
      <trkpt lat="45.68723" lon="3.07586">
        <ele>640</ele>
        <time>2008-08-04T11:54:37Z</time>
      </trkpt>
      <trkpt lat="45.68727" lon="3.07579">
        <ele>639</ele>
        <time>2008-08-04T11:54:41Z</time>
      </trkpt>
      <trkpt lat="45.68749" lon="3.0753">
        <ele>634</ele>
        <time>2008-08-04T11:55:05Z</time>
      </trkpt>
      <trkpt lat="45.68767" lon="3.07494">
        <ele>633</ele>
        <time>2008-08-04T11:55:24Z</time>
      </trkpt>
      <trkpt lat="45.68781" lon="3.07472">
        <ele>633</ele>
        <time>2008-08-04T11:55:38Z</time>
      </trkpt>
      <trkpt lat="45.68791" lon="3.07458">
        <ele>633</ele>
        <time>2008-08-04T11:55:52Z</time>
      </trkpt>
      <trkpt lat="45.68796" lon="3.0745">
        <ele>632</ele>
        <time>2008-08-04T11:56:04Z</time>
      </trkpt>
      <trkpt lat="45.68802" lon="3.07442">
        <ele>632</ele>
        <time>2008-08-04T11:56:16Z</time>
      </trkpt>
      <trkpt lat="45.68807" lon="3.07438">
        <ele>632</ele>
        <time>2008-08-04T11:56:50Z</time>
      </trkpt>
      <trkpt lat="45.68819" lon="3.07429">
        <ele>631</ele>
        <time>2008-08-04T11:57:04Z</time>
      </trkpt>
      <trkpt lat="45.68834" lon="3.07409">
        <ele>630</ele>
        <time>2008-08-04T11:57:22Z</time>
      </trkpt>
      <trkpt lat="45.68837" lon="3.07406">
        <ele>630</ele>
        <time>2008-08-04T11:57:26Z</time>
      </trkpt>
      <trkpt lat="45.69007" lon="3.06805">
        <ele>642</ele>
        <time>2008-08-04T11:59:48Z</time>
      </trkpt>
      <trkpt lat="45.69015" lon="3.06768">
        <ele>645</ele>
        <time>2008-08-04T12:00:11Z</time>
      </trkpt>
      <trkpt lat="45.69005" lon="3.06627">
        <ele>668</ele>
        <time>2008-08-04T12:02:01Z</time>
      </trkpt>
      <trkpt lat="45.68961" lon="3.06657">
        <ele>671</ele>
        <time>2008-08-04T12:02:41Z</time>
      </trkpt>
      <trkpt lat="45.68938" lon="3.06691">
        <ele>672</ele>
        <time>2008-08-04T12:03:03Z</time>
      </trkpt>
      <trkpt lat="45.68931" lon="3.06707">
        <ele>672</ele>
        <time>2008-08-04T12:03:06Z</time>
      </trkpt>
      <trkpt lat="45.68904" lon="3.0676">
        <ele>672</ele>
        <time>2008-08-04T12:03:16Z</time>
      </trkpt>
      <trkpt lat="45.68894" lon="3.06787">
        <ele>672</ele>
        <time>2008-08-04T12:03:20Z</time>
      </trkpt>
      <trkpt lat="45.68887" lon="3.06799">
        <ele>673</ele>
        <time>2008-08-04T12:03:22Z</time>
      </trkpt>
      <trkpt lat="45.68858" lon="3.06871">
        <ele>674</ele>
        <time>2008-08-04T12:03:37Z</time>
      </trkpt>
      <trkpt lat="45.68846" lon="3.06902">
        <ele>674</ele>
        <time>2008-08-04T12:03:50Z</time>
      </trkpt>
      <trkpt lat="45.68823" lon="3.06954">
        <ele>676</ele>
        <time>2008-08-04T12:04:23Z</time>
      </trkpt>
      <trkpt lat="45.68817" lon="3.06969">
        <ele>677</ele>
        <time>2008-08-04T12:04:33Z</time>
      </trkpt>
      <trkpt lat="45.68769" lon="3.07078">
        <ele>687</ele>
        <time>2008-08-04T12:05:46Z</time>
      </trkpt>
      <trkpt lat="45.68743" lon="3.07117">
        <ele>691</ele>
        <time>2008-08-04T12:06:25Z</time>
      </trkpt>
      <trkpt lat="45.68737" lon="3.07123">
        <ele>692</ele>
        <time>2008-08-04T12:06:33Z</time>
      </trkpt>
      <trkpt lat="45.68712" lon="3.07151">
        <ele>696</ele>
        <time>2008-08-04T12:06:56Z</time>
      </trkpt>
      <trkpt lat="45.68704" lon="3.07162">
        <ele>696</ele>
        <time>2008-08-04T12:07:09Z</time>
      </trkpt>
      <trkpt lat="45.68695" lon="3.07164">
        <ele>697</ele>
        <time>2008-08-04T12:07:27Z</time>
      </trkpt>
      <trkpt lat="45.68687" lon="3.07171">
        <ele>698</ele>
        <time>2008-08-04T12:07:42Z</time>
      </trkpt>
      <trkpt lat="45.68684" lon="3.07167">
        <ele>699</ele>
        <time>2008-08-04T12:08:28Z</time>
      </trkpt>
      <trkpt lat="45.68678" lon="3.07176">
        <ele>699</ele>
        <time>2008-08-04T12:08:50Z</time>
      </trkpt>
      <trkpt lat="45.68661" lon="3.07206">
        <ele>698</ele>
        <time>2008-08-04T12:09:10Z</time>
      </trkpt>
      <trkpt lat="45.68648" lon="3.07239">
        <ele>696</ele>
        <time>2008-08-04T12:09:30Z</time>
      </trkpt>
      <trkpt lat="45.68635" lon="3.07267">
        <ele>693</ele>
        <time>2008-08-04T12:09:47Z</time>
      </trkpt>
      <trkpt lat="45.68618" lon="3.07293">
        <ele>693</ele>
        <time>2008-08-04T12:10:05Z</time>
      </trkpt>
      <trkpt lat="45.68603" lon="3.07312">
        <ele>694</ele>
        <time>2008-08-04T12:10:21Z</time>
      </trkpt>
      <trkpt lat="45.68595" lon="3.07355">
        <ele>688</ele>
        <time>2008-08-04T12:10:42Z</time>
      </trkpt>
      <trkpt lat="45.6859" lon="3.07382">
        <ele>686</ele>
        <time>2008-08-04T12:10:56Z</time>
      </trkpt>
      <trkpt lat="45.68584" lon="3.0742">
        <ele>683</ele>
        <time>2008-08-04T12:11:14Z</time>
      </trkpt>
      <trkpt lat="45.6858" lon="3.07456">
        <ele>682</ele>
        <time>2008-08-04T12:11:31Z</time>
      </trkpt>
      <trkpt lat="45.68579" lon="3.0748">
        <ele>682</ele>
        <time>2008-08-04T12:11:45Z</time>
      </trkpt>
      <trkpt lat="45.68581" lon="3.07526">
        <ele>683</ele>
        <time>2008-08-04T12:12:07Z</time>
      </trkpt>
      <trkpt lat="45.68525" lon="3.07626">
        <ele>704</ele>
        <time>2008-08-04T12:13:19Z</time>
      </trkpt>
      <trkpt lat="45.68508" lon="3.07631">
        <ele>707</ele>
        <time>2008-08-04T12:13:34Z</time>
      </trkpt>
      <trkpt lat="45.68488" lon="3.07626">
        <ele>709</ele>
        <time>2008-08-04T12:13:49Z</time>
      </trkpt>
      <trkpt lat="45.68467" lon="3.07623">
        <ele>712</ele>
        <time>2008-08-04T12:14:04Z</time>
      </trkpt>
      <trkpt lat="45.68443" lon="3.07616">
        <ele>715</ele>
        <time>2008-08-04T12:14:23Z</time>
      </trkpt>
      <trkpt lat="45.68422" lon="3.07613">
        <ele>717</ele>
        <time>2008-08-04T12:14:40Z</time>
      </trkpt>
      <trkpt lat="45.68396" lon="3.07606">
        <ele>719</ele>
        <time>2008-08-04T12:15:01Z</time>
      </trkpt>
      <trkpt lat="45.68383" lon="3.076">
        <ele>720</ele>
        <time>2008-08-04T12:15:13Z</time>
      </trkpt>
      <trkpt lat="45.68371" lon="3.0759">
        <ele>721</ele>
        <time>2008-08-04T12:15:26Z</time>
      </trkpt>
      <trkpt lat="45.68367" lon="3.07588">
        <ele>721</ele>
        <time>2008-08-04T12:15:29Z</time>
      </trkpt>
      <trkpt lat="45.68364" lon="3.07583">
        <ele>721</ele>
        <time>2008-08-04T12:15:43Z</time>
      </trkpt>
      <trkpt lat="45.68363" lon="3.07576">
        <ele>722</ele>
        <time>2008-08-04T12:16:03Z</time>
      </trkpt>
      <trkpt lat="45.68363" lon="3.07566">
        <ele>722</ele>
        <time>2008-08-04T12:16:24Z</time>
      </trkpt>
      <trkpt lat="45.68364" lon="3.07562">
        <ele>722</ele>
        <time>2008-08-04T12:16:38Z</time>
      </trkpt>
      <trkpt lat="45.68368" lon="3.07563">
        <ele>722</ele>
        <time>2008-08-04T12:17:59Z</time>
      </trkpt>
      <trkpt lat="45.68372" lon="3.07561">
        <ele>722</ele>
        <time>2008-08-04T12:25:04Z</time>
      </trkpt>
      <trkpt lat="45.68367" lon="3.07567">
        <ele>722</ele>
        <time>2008-08-04T12:36:08Z</time>
      </trkpt>
      <trkpt lat="45.68376" lon="3.07566">
        <ele>721</ele>
        <time>2008-08-04T12:36:23Z</time>
      </trkpt>
      <trkpt lat="45.68364" lon="3.0756">
        <ele>722</ele>
        <time>2008-08-04T12:36:54Z</time>
      </trkpt>
      <trkpt lat="45.6836" lon="3.07556">
        <ele>722</ele>
        <time>2008-08-04T12:40:21Z</time>
      </trkpt>
      <trkpt lat="45.68364" lon="3.07556">
        <ele>722</ele>
        <time>2008-08-04T12:48:36Z</time>
      </trkpt>
      <trkpt lat="45.68365" lon="3.0756">
        <ele>722</ele>
        <time>2008-08-04T12:53:48Z</time>
      </trkpt>
      <trkpt lat="45.6836" lon="3.07555">
        <ele>722</ele>
        <time>2008-08-04T10:41:12Z</time>
      </trkpt>
      <trkpt lat="45.68367" lon="3.07563">
        <ele>722</ele>
        <time>2008-08-04T10:42:05Z</time>
      </trkpt>
      <trkpt lat="45.68359" lon="3.07558">
        <ele>722</ele>
        <time>2008-08-04T10:44:01Z</time>
      </trkpt>
      <trkpt lat="45.68364" lon="3.07569">
        <ele>722</ele>
        <time>2008-08-04T10:58:04Z</time>
      </trkpt>
      <trkpt lat="45.68374" lon="3.07569">
        <ele>721</ele>
        <time>2008-08-04T10:58:24Z</time>
      </trkpt>
      <trkpt lat="45.68384" lon="3.0757">
        <ele>721</ele>
        <time>2008-08-04T10:58:34Z</time>
      </trkpt>
      <trkpt lat="45.68393" lon="3.07571">
        <ele>721</ele>
        <time>2008-08-04T10:58:46Z</time>
      </trkpt>
      <trkpt lat="45.68393" lon="3.07557">
        <ele>721</ele>
        <time>2008-08-04T10:59:25Z</time>
      </trkpt>
      <trkpt lat="45.68395" lon="3.07544">
        <ele>721</ele>
        <time>2008-08-04T10:59:34Z</time>
      </trkpt>
      <trkpt lat="45.68396" lon="3.0753">
        <ele>721</ele>
        <time>2008-08-04T10:59:43Z</time>
      </trkpt>
      <trkpt lat="45.68398" lon="3.07518">
        <ele>721</ele>
        <time>2008-08-04T10:59:51Z</time>
      </trkpt>
      <trkpt lat="45.68401" lon="3.07505">
        <ele>721</ele>
        <time>2008-08-04T10:59:59Z</time>
      </trkpt>
      <trkpt lat="45.68403" lon="3.07491">
        <ele>721</ele>
        <time>2008-08-04T11:00:08Z</time>
      </trkpt>
      <trkpt lat="45.68405" lon="3.07477">
        <ele>722</ele>
        <time>2008-08-04T11:00:17Z</time>
      </trkpt>
      <trkpt lat="45.68407" lon="3.07465">
        <ele>722</ele>
        <time>2008-08-04T11:00:25Z</time>
      </trkpt>
      <trkpt lat="45.68408" lon="3.0745">
        <ele>722</ele>
        <time>2008-08-04T11:00:33Z</time>
      </trkpt>
      <trkpt lat="45.68407" lon="3.07437">
        <ele>723</ele>
        <time>2008-08-04T11:00:41Z</time>
      </trkpt>
      <trkpt lat="45.68408" lon="3.07422">
        <ele>723</ele>
        <time>2008-08-04T11:00:49Z</time>
      </trkpt>
      <trkpt lat="45.6841" lon="3.07408">
        <ele>723</ele>
        <time>2008-08-04T11:00:58Z</time>
      </trkpt>
      <trkpt lat="45.68412" lon="3.07394">
        <ele>724</ele>
        <time>2008-08-04T11:01:06Z</time>
      </trkpt>
      <trkpt lat="45.68415" lon="3.0738">
        <ele>724</ele>
        <time>2008-08-04T11:01:15Z</time>
      </trkpt>
      <trkpt lat="45.68416" lon="3.07366">
        <ele>725</ele>
        <time>2008-08-04T11:01:23Z</time>
      </trkpt>
      <trkpt lat="45.68415" lon="3.07352">
        <ele>725</ele>
        <time>2008-08-04T11:01:31Z</time>
      </trkpt>
      <trkpt lat="45.68413" lon="3.07338">
        <ele>726</ele>
        <time>2008-08-04T11:01:39Z</time>
      </trkpt>
      <trkpt lat="45.68412" lon="3.07324">
        <ele>726</ele>
        <time>2008-08-04T11:01:48Z</time>
      </trkpt>
      <trkpt lat="45.6841" lon="3.07311">
        <ele>727</ele>
        <time>2008-08-04T11:01:56Z</time>
      </trkpt>
      <trkpt lat="45.68409" lon="3.07296">
        <ele>727</ele>
        <time>2008-08-04T11:02:01Z</time>
      </trkpt>
      <trkpt lat="45.68407" lon="3.0728">
        <ele>728</ele>
        <time>2008-08-04T11:02:06Z</time>
      </trkpt>
      <trkpt lat="45.68403" lon="3.07266">
        <ele>729</ele>
        <time>2008-08-04T11:02:10Z</time>
      </trkpt>
      <trkpt lat="45.68399" lon="3.07253">
        <ele>730</ele>
        <time>2008-08-04T11:02:14Z</time>
      </trkpt>
      <trkpt lat="45.68394" lon="3.0724">
        <ele>731</ele>
        <time>2008-08-04T11:02:18Z</time>
      </trkpt>
      <trkpt lat="45.68391" lon="3.07227">
        <ele>731</ele>
        <time>2008-08-04T11:02:22Z</time>
      </trkpt>
      <trkpt lat="45.68387" lon="3.07214">
        <ele>731</ele>
        <time>2008-08-04T11:02:26Z</time>
      </trkpt>
      <trkpt lat="45.68388" lon="3.07198">
        <ele>731</ele>
        <time>2008-08-04T11:02:29Z</time>
      </trkpt>
      <trkpt lat="45.68388" lon="3.07179">
        <ele>732</ele>
        <time>2008-08-04T11:02:32Z</time>
      </trkpt>
      <trkpt lat="45.68387" lon="3.07159">
        <ele>732</ele>
        <time>2008-08-04T11:02:35Z</time>
      </trkpt>
      <trkpt lat="45.68387" lon="3.07146">
        <ele>732</ele>
        <time>2008-08-04T11:02:37Z</time>
      </trkpt>
      <trkpt lat="45.68387" lon="3.07131">
        <ele>733</ele>
        <time>2008-08-04T11:02:39Z</time>
      </trkpt>
      <trkpt lat="45.68387" lon="3.07117">
        <ele>733</ele>
        <time>2008-08-04T11:02:41Z</time>
      </trkpt>
      <trkpt lat="45.68388" lon="3.07098">
        <ele>733</ele>
        <time>2008-08-04T11:02:44Z</time>
      </trkpt>
      <trkpt lat="45.68387" lon="3.07084">
        <ele>733</ele>
        <time>2008-08-04T11:02:46Z</time>
      </trkpt>
      <trkpt lat="45.68388" lon="3.07064">
        <ele>734</ele>
        <time>2008-08-04T11:02:49Z</time>
      </trkpt>
      <trkpt lat="45.68388" lon="3.07051">
        <ele>734</ele>
        <time>2008-08-04T11:02:51Z</time>
      </trkpt>
      <trkpt lat="45.68388" lon="3.07037">
        <ele>734</ele>
        <time>2008-08-04T11:02:53Z</time>
      </trkpt>
      <trkpt lat="45.68388" lon="3.0702">
        <ele>734</ele>
        <time>2008-08-04T11:02:56Z</time>
      </trkpt>
      <trkpt lat="45.6839" lon="3.07006">
        <ele>734</ele>
        <time>2008-08-04T11:02:59Z</time>
      </trkpt>
      <trkpt lat="45.68394" lon="3.06992">
        <ele>735</ele>
        <time>2008-08-04T11:03:06Z</time>
      </trkpt>
      <trkpt lat="45.68396" lon="3.06978">
        <ele>735</ele>
        <time>2008-08-04T11:03:14Z</time>
      </trkpt>
      <trkpt lat="45.68402" lon="3.06967">
        <ele>735</ele>
        <time>2008-08-04T11:03:21Z</time>
      </trkpt>
      <trkpt lat="45.68406" lon="3.06954">
        <ele>735</ele>
        <time>2008-08-04T11:03:28Z</time>
      </trkpt>
      <trkpt lat="45.6841" lon="3.06942">
        <ele>735</ele>
        <time>2008-08-04T11:03:35Z</time>
      </trkpt>
      <trkpt lat="45.68414" lon="3.0693">
        <ele>735</ele>
        <time>2008-08-04T11:03:42Z</time>
      </trkpt>
      <trkpt lat="45.68419" lon="3.06918">
        <ele>735</ele>
        <time>2008-08-04T11:03:49Z</time>
      </trkpt>
      <trkpt lat="45.68422" lon="3.06905">
        <ele>736</ele>
        <time>2008-08-04T11:03:58Z</time>
      </trkpt>
      <trkpt lat="45.68428" lon="3.06894">
        <ele>736</ele>
        <time>2008-08-04T11:04:08Z</time>
      </trkpt>
      <trkpt lat="45.6843" lon="3.06881">
        <ele>737</ele>
        <time>2008-08-04T11:04:17Z</time>
      </trkpt>
      <trkpt lat="45.68435" lon="3.06869">
        <ele>737</ele>
        <time>2008-08-04T11:04:26Z</time>
      </trkpt>
      <trkpt lat="45.68441" lon="3.06857">
        <ele>738</ele>
        <time>2008-08-04T11:04:35Z</time>
      </trkpt>
      <trkpt lat="45.68442" lon="3.06844">
        <ele>738</ele>
        <time>2008-08-04T11:04:46Z</time>
      </trkpt>
      <trkpt lat="45.68447" lon="3.0683">
        <ele>739</ele>
        <time>2008-08-04T11:04:54Z</time>
      </trkpt>
      <trkpt lat="45.68452" lon="3.06819">
        <ele>739</ele>
        <time>2008-08-04T11:05:02Z</time>
      </trkpt>
      <trkpt lat="45.68458" lon="3.06807">
        <ele>739</ele>
        <time>2008-08-04T11:05:09Z</time>
      </trkpt>
      <trkpt lat="45.6846" lon="3.06794">
        <ele>740</ele>
        <time>2008-08-04T11:05:16Z</time>
      </trkpt>
      <trkpt lat="45.68462" lon="3.0678">
        <ele>741</ele>
        <time>2008-08-04T11:05:23Z</time>
      </trkpt>
      <trkpt lat="45.68461" lon="3.06767">
        <ele>742</ele>
        <time>2008-08-04T11:05:30Z</time>
      </trkpt>
      <trkpt lat="45.68461" lon="3.06752">
        <ele>743</ele>
        <time>2008-08-04T11:05:38Z</time>
      </trkpt>
      <trkpt lat="45.68459" lon="3.06739">
        <ele>744</ele>
        <time>2008-08-04T11:05:46Z</time>
      </trkpt>
      <trkpt lat="45.68458" lon="3.06724">
        <ele>745</ele>
        <time>2008-08-04T11:05:53Z</time>
      </trkpt>
      <trkpt lat="45.68458" lon="3.06711">
        <ele>745</ele>
        <time>2008-08-04T11:06:01Z</time>
      </trkpt>
      <trkpt lat="45.68456" lon="3.06697">
        <ele>746</ele>
        <time>2008-08-04T11:06:08Z</time>
      </trkpt>
      <trkpt lat="45.68456" lon="3.06682">
        <ele>747</ele>
        <time>2008-08-04T11:06:16Z</time>
      </trkpt>
      <trkpt lat="45.68455" lon="3.06668">
        <ele>748</ele>
        <time>2008-08-04T11:06:23Z</time>
      </trkpt>
      <trkpt lat="45.68455" lon="3.06654">
        <ele>749</ele>
        <time>2008-08-04T11:06:30Z</time>
      </trkpt>
      <trkpt lat="45.68455" lon="3.0664">
        <ele>749</ele>
        <time>2008-08-04T11:06:38Z</time>
      </trkpt>
      <trkpt lat="45.68455" lon="3.06626">
        <ele>750</ele>
        <time>2008-08-04T11:06:46Z</time>
      </trkpt>
      <trkpt lat="45.68456" lon="3.06612">
        <ele>750</ele>
        <time>2008-08-04T11:06:54Z</time>
      </trkpt>
      <trkpt lat="45.68457" lon="3.06599">
        <ele>751</ele>
        <time>2008-08-04T11:07:02Z</time>
      </trkpt>
      <trkpt lat="45.68457" lon="3.06585">
        <ele>751</ele>
        <time>2008-08-04T11:07:10Z</time>
      </trkpt>
      <trkpt lat="45.68458" lon="3.06571">
        <ele>752</ele>
        <time>2008-08-04T11:07:18Z</time>
      </trkpt>
      <trkpt lat="45.68459" lon="3.06557">
        <ele>752</ele>
        <time>2008-08-04T11:07:26Z</time>
      </trkpt>
      <trkpt lat="45.6846" lon="3.06543">
        <ele>753</ele>
        <time>2008-08-04T11:07:34Z</time>
      </trkpt>
      <trkpt lat="45.68461" lon="3.06529">
        <ele>753</ele>
        <time>2008-08-04T11:07:42Z</time>
      </trkpt>
      <trkpt lat="45.68461" lon="3.06515">
        <ele>753</ele>
        <time>2008-08-04T11:07:50Z</time>
      </trkpt>
      <trkpt lat="45.68463" lon="3.06501">
        <ele>754</ele>
        <time>2008-08-04T11:07:58Z</time>
      </trkpt>
      <trkpt lat="45.68463" lon="3.06487">
        <ele>754</ele>
        <time>2008-08-04T11:08:06Z</time>
      </trkpt>
      <trkpt lat="45.68464" lon="3.06473">
        <ele>754</ele>
        <time>2008-08-04T11:08:15Z</time>
      </trkpt>
      <trkpt lat="45.68463" lon="3.06459">
        <ele>755</ele>
        <time>2008-08-04T11:08:23Z</time>
      </trkpt>
      <trkpt lat="45.68461" lon="3.06445">
        <ele>755</ele>
        <time>2008-08-04T11:08:31Z</time>
      </trkpt>
      <trkpt lat="45.6846" lon="3.06432">
        <ele>756</ele>
        <time>2008-08-04T11:08:39Z</time>
      </trkpt>
      <trkpt lat="45.68458" lon="3.06417">
        <ele>756</ele>
        <time>2008-08-04T11:08:48Z</time>
      </trkpt>
      <trkpt lat="45.68456" lon="3.06404">
        <ele>757</ele>
        <time>2008-08-04T11:08:56Z</time>
      </trkpt>
      <trkpt lat="45.68453" lon="3.06389">
        <ele>757</ele>
        <time>2008-08-04T11:09:05Z</time>
      </trkpt>
      <trkpt lat="45.68452" lon="3.06376">
        <ele>757</ele>
        <time>2008-08-04T11:09:14Z</time>
      </trkpt>
      <trkpt lat="45.68451" lon="3.06361">
        <ele>758</ele>
        <time>2008-08-04T11:09:22Z</time>
      </trkpt>
      <trkpt lat="45.68447" lon="3.06348">
        <ele>758</ele>
        <time>2008-08-04T11:09:30Z</time>
      </trkpt>
      <trkpt lat="45.68445" lon="3.06334">
        <ele>758</ele>
        <time>2008-08-04T11:09:37Z</time>
      </trkpt>
      <trkpt lat="45.68444" lon="3.0632">
        <ele>759</ele>
        <time>2008-08-04T11:09:44Z</time>
      </trkpt>
      <trkpt lat="45.68444" lon="3.06306">
        <ele>760</ele>
        <time>2008-08-04T11:09:52Z</time>
      </trkpt>
      <trkpt lat="45.68443" lon="3.06291">
        <ele>760</ele>
        <time>2008-08-04T11:10:00Z</time>
      </trkpt>
      <trkpt lat="45.68442" lon="3.06277">
        <ele>761</ele>
        <time>2008-08-04T11:10:08Z</time>
      </trkpt>
      <trkpt lat="45.68442" lon="3.06264">
        <ele>761</ele>
        <time>2008-08-04T11:10:17Z</time>
      </trkpt>
      <trkpt lat="45.68442" lon="3.06249">
        <ele>762</ele>
        <time>2008-08-04T11:10:24Z</time>
      </trkpt>
      <trkpt lat="45.68441" lon="3.06236">
        <ele>762</ele>
        <time>2008-08-04T11:10:33Z</time>
      </trkpt>
      <trkpt lat="45.68442" lon="3.06221">
        <ele>763</ele>
        <time>2008-08-04T11:10:41Z</time>
      </trkpt>
      <trkpt lat="45.68441" lon="3.06208">
        <ele>763</ele>
        <time>2008-08-04T11:10:49Z</time>
      </trkpt>
      <trkpt lat="45.68441" lon="3.06194">
        <ele>764</ele>
        <time>2008-08-04T11:10:57Z</time>
      </trkpt>
      <trkpt lat="45.68444" lon="3.06181">
        <ele>764</ele>
        <time>2008-08-04T11:11:17Z</time>
      </trkpt>
      <trkpt lat="45.68443" lon="3.06167">
        <ele>764</ele>
        <time>2008-08-04T11:11:25Z</time>
      </trkpt>
      <trkpt lat="45.68444" lon="3.06152">
        <ele>765</ele>
        <time>2008-08-04T11:11:35Z</time>
      </trkpt>
      <trkpt lat="45.68443" lon="3.06139">
        <ele>765</ele>
        <time>2008-08-04T11:11:43Z</time>
      </trkpt>
      <trkpt lat="45.68441" lon="3.06125">
        <ele>766</ele>
        <time>2008-08-04T11:11:51Z</time>
      </trkpt>
      <trkpt lat="45.68441" lon="3.06111">
        <ele>766</ele>
        <time>2008-08-04T11:12:01Z</time>
      </trkpt>
      <trkpt lat="45.68442" lon="3.06096">
        <ele>767</ele>
        <time>2008-08-04T11:12:09Z</time>
      </trkpt>
      <trkpt lat="45.68444" lon="3.06082">
        <ele>767</ele>
        <time>2008-08-04T11:12:17Z</time>
      </trkpt>
      <trkpt lat="45.68445" lon="3.06069">
        <ele>767</ele>
        <time>2008-08-04T11:12:26Z</time>
      </trkpt>
      <trkpt lat="45.68446" lon="3.06055">
        <ele>768</ele>
        <time>2008-08-04T11:12:34Z</time>
      </trkpt>
      <trkpt lat="45.68447" lon="3.06041">
        <ele>768</ele>
        <time>2008-08-04T11:12:42Z</time>
      </trkpt>
      <trkpt lat="45.68449" lon="3.06027">
        <ele>768</ele>
        <time>2008-08-04T11:12:49Z</time>
      </trkpt>
      <trkpt lat="45.68449" lon="3.06013">
        <ele>768</ele>
        <time>2008-08-04T11:12:57Z</time>
      </trkpt>
      <trkpt lat="45.6845" lon="3.05999">
        <ele>768</ele>
        <time>2008-08-04T11:13:06Z</time>
      </trkpt>
      <trkpt lat="45.68449" lon="3.05985">
        <ele>768</ele>
        <time>2008-08-04T11:13:13Z</time>
      </trkpt>
      <trkpt lat="45.6845" lon="3.05971">
        <ele>769</ele>
        <time>2008-08-04T11:13:21Z</time>
      </trkpt>
      <trkpt lat="45.68448" lon="3.05957">
        <ele>769</ele>
        <time>2008-08-04T11:13:29Z</time>
      </trkpt>
      <trkpt lat="45.68447" lon="3.05944">
        <ele>770</ele>
        <time>2008-08-04T11:13:38Z</time>
      </trkpt>
      <trkpt lat="45.68447" lon="3.0593">
        <ele>770</ele>
        <time>2008-08-04T11:13:45Z</time>
      </trkpt>
      <trkpt lat="45.68448" lon="3.05915">
        <ele>771</ele>
        <time>2008-08-04T11:13:53Z</time>
      </trkpt>
      <trkpt lat="45.68447" lon="3.05901">
        <ele>772</ele>
        <time>2008-08-04T11:14:01Z</time>
      </trkpt>
      <trkpt lat="45.68446" lon="3.05886">
        <ele>772</ele>
        <time>2008-08-04T11:14:10Z</time>
      </trkpt>
      <trkpt lat="45.68447" lon="3.05873">
        <ele>773</ele>
        <time>2008-08-04T11:14:18Z</time>
      </trkpt>
      <trkpt lat="45.68447" lon="3.05858">
        <ele>774</ele>
        <time>2008-08-04T11:14:25Z</time>
      </trkpt>
      <trkpt lat="45.68447" lon="3.05844">
        <ele>775</ele>
        <time>2008-08-04T11:14:32Z</time>
      </trkpt>
      <trkpt lat="45.68446" lon="3.0583">
        <ele>776</ele>
        <time>2008-08-04T11:14:40Z</time>
      </trkpt>
      <trkpt lat="45.68447" lon="3.05815">
        <ele>777</ele>
        <time>2008-08-04T11:14:48Z</time>
      </trkpt>
      <trkpt lat="45.68447" lon="3.05801">
        <ele>778</ele>
        <time>2008-08-04T11:14:57Z</time>
      </trkpt>
      <trkpt lat="45.68449" lon="3.05787">
        <ele>779</ele>
        <time>2008-08-04T11:15:05Z</time>
      </trkpt>
      <trkpt lat="45.68452" lon="3.05775">
        <ele>780</ele>
        <time>2008-08-04T11:15:14Z</time>
      </trkpt>
      <trkpt lat="45.68454" lon="3.05762">
        <ele>781</ele>
        <time>2008-08-04T11:15:21Z</time>
      </trkpt>
      <trkpt lat="45.68459" lon="3.0575">
        <ele>781</ele>
        <time>2008-08-04T11:15:28Z</time>
      </trkpt>
      <trkpt lat="45.68463" lon="3.05738">
        <ele>782</ele>
        <time>2008-08-04T11:15:35Z</time>
      </trkpt>
      <trkpt lat="45.68466" lon="3.05724">
        <ele>783</ele>
        <time>2008-08-04T11:15:43Z</time>
      </trkpt>
      <trkpt lat="45.68467" lon="3.0571">
        <ele>783</ele>
        <time>2008-08-04T11:15:51Z</time>
      </trkpt>
      <trkpt lat="45.68468" lon="3.05697">
        <ele>784</ele>
        <time>2008-08-04T11:15:59Z</time>
      </trkpt>
      <trkpt lat="45.68468" lon="3.05683">
        <ele>784</ele>
        <time>2008-08-04T11:16:06Z</time>
      </trkpt>
      <trkpt lat="45.68466" lon="3.0567">
        <ele>784</ele>
        <time>2008-08-04T11:16:14Z</time>
      </trkpt>
      <trkpt lat="45.6846" lon="3.0566">
        <ele>785</ele>
        <time>2008-08-04T11:16:21Z</time>
      </trkpt>
      <trkpt lat="45.68455" lon="3.05648">
        <ele>785</ele>
        <time>2008-08-04T11:16:32Z</time>
      </trkpt>
      <trkpt lat="45.68448" lon="3.05638">
        <ele>786</ele>
        <time>2008-08-04T11:16:41Z</time>
      </trkpt>
      <trkpt lat="45.68443" lon="3.05626">
        <ele>787</ele>
        <time>2008-08-04T11:16:49Z</time>
      </trkpt>
      <trkpt lat="45.68441" lon="3.05612">
        <ele>787</ele>
        <time>2008-08-04T11:16:56Z</time>
      </trkpt>
      <trkpt lat="45.68436" lon="3.05599">
        <ele>787</ele>
        <time>2008-08-04T11:17:05Z</time>
      </trkpt>
      <trkpt lat="45.6843" lon="3.05586">
        <ele>788</ele>
        <time>2008-08-04T11:17:13Z</time>
      </trkpt>
      <trkpt lat="45.68428" lon="3.05572">
        <ele>789</ele>
        <time>2008-08-04T11:17:25Z</time>
      </trkpt>
      <trkpt lat="45.68424" lon="3.05558">
        <ele>790</ele>
        <time>2008-08-04T11:17:35Z</time>
      </trkpt>
      <trkpt lat="45.68421" lon="3.05546">
        <ele>791</ele>
        <time>2008-08-04T11:17:44Z</time>
      </trkpt>
      <trkpt lat="45.68415" lon="3.05534">
        <ele>792</ele>
        <time>2008-08-04T11:17:53Z</time>
      </trkpt>
      <trkpt lat="45.68411" lon="3.05522">
        <ele>793</ele>
        <time>2008-08-04T11:18:03Z</time>
      </trkpt>
      <trkpt lat="45.68409" lon="3.05509">
        <ele>794</ele>
        <time>2008-08-04T11:18:15Z</time>
      </trkpt>
      <trkpt lat="45.68402" lon="3.055">
        <ele>796</ele>
        <time>2008-08-04T11:18:23Z</time>
      </trkpt>
      <trkpt lat="45.68398" lon="3.05488">
        <ele>797</ele>
        <time>2008-08-04T11:18:32Z</time>
      </trkpt>
      <trkpt lat="45.68391" lon="3.05477">
        <ele>799</ele>
        <time>2008-08-04T11:18:41Z</time>
      </trkpt>
      <trkpt lat="45.68384" lon="3.05469">
        <ele>800</ele>
        <time>2008-08-04T11:18:50Z</time>
      </trkpt>
      <trkpt lat="45.68376" lon="3.0546">
        <ele>802</ele>
        <time>2008-08-04T11:18:58Z</time>
      </trkpt>
      <trkpt lat="45.68369" lon="3.05451">
        <ele>803</ele>
        <time>2008-08-04T11:19:07Z</time>
      </trkpt>
      <trkpt lat="45.68361" lon="3.05443">
        <ele>805</ele>
        <time>2008-08-04T11:19:17Z</time>
      </trkpt>
      <trkpt lat="45.6835" lon="3.05443">
        <ele>805</ele>
        <time>2008-08-04T11:19:27Z</time>
      </trkpt>
      <trkpt lat="45.68339" lon="3.05444">
        <ele>806</ele>
        <time>2008-08-04T11:19:35Z</time>
      </trkpt>
      <trkpt lat="45.68329" lon="3.05443">
        <ele>807</ele>
        <time>2008-08-04T11:19:44Z</time>
      </trkpt>
      <trkpt lat="45.68319" lon="3.05442">
        <ele>808</ele>
        <time>2008-08-04T11:19:55Z</time>
      </trkpt>
      <trkpt lat="45.68309" lon="3.05442">
        <ele>808</ele>
        <time>2008-08-04T11:20:04Z</time>
      </trkpt>
      <trkpt lat="45.68299" lon="3.05438">
        <ele>809</ele>
        <time>2008-08-04T11:20:12Z</time>
      </trkpt>
      <trkpt lat="45.68291" lon="3.05429">
        <ele>810</ele>
        <time>2008-08-04T11:20:21Z</time>
      </trkpt>
      <trkpt lat="45.68288" lon="3.05416">
        <ele>810</ele>
        <time>2008-08-04T11:20:30Z</time>
      </trkpt>
      <trkpt lat="45.68285" lon="3.05403">
        <ele>811</ele>
        <time>2008-08-04T11:20:40Z</time>
      </trkpt>
      <trkpt lat="45.68281" lon="3.0539">
        <ele>812</ele>
        <time>2008-08-04T11:20:49Z</time>
      </trkpt>
      <trkpt lat="45.68278" lon="3.05376">
        <ele>813</ele>
        <time>2008-08-04T11:20:59Z</time>
      </trkpt>
      <trkpt lat="45.68275" lon="3.05363">
        <ele>813</ele>
        <time>2008-08-04T11:21:07Z</time>
      </trkpt>
      <trkpt lat="45.68272" lon="3.0535">
        <ele>814</ele>
        <time>2008-08-04T11:21:19Z</time>
      </trkpt>
      <trkpt lat="45.6827" lon="3.05336">
        <ele>814</ele>
        <time>2008-08-04T11:21:28Z</time>
      </trkpt>
      <trkpt lat="45.68266" lon="3.05323">
        <ele>814</ele>
        <time>2008-08-04T11:21:38Z</time>
      </trkpt>
      <trkpt lat="45.68262" lon="3.0531">
        <ele>814</ele>
        <time>2008-08-04T11:21:48Z</time>
      </trkpt>
      <trkpt lat="45.68259" lon="3.05298">
        <ele>815</ele>
        <time>2008-08-04T11:21:57Z</time>
      </trkpt>
      <trkpt lat="45.68255" lon="3.05286">
        <ele>816</ele>
        <time>2008-08-04T11:22:05Z</time>
      </trkpt>
      <trkpt lat="45.68252" lon="3.05274">
        <ele>817</ele>
        <time>2008-08-04T11:22:13Z</time>
      </trkpt>
      <trkpt lat="45.6825" lon="3.0526">
        <ele>818</ele>
        <time>2008-08-04T11:22:22Z</time>
      </trkpt>
      <trkpt lat="45.6825" lon="3.05247">
        <ele>819</ele>
        <time>2008-08-04T11:22:32Z</time>
      </trkpt>
      <trkpt lat="45.68247" lon="3.05233">
        <ele>820</ele>
        <time>2008-08-04T11:22:43Z</time>
      </trkpt>
      <trkpt lat="45.68245" lon="3.0522">
        <ele>821</ele>
        <time>2008-08-04T11:22:52Z</time>
      </trkpt>
      <trkpt lat="45.68243" lon="3.05205">
        <ele>823</ele>
        <time>2008-08-04T11:23:04Z</time>
      </trkpt>
      <trkpt lat="45.68241" lon="3.05191">
        <ele>824</ele>
        <time>2008-08-04T11:23:13Z</time>
      </trkpt>
      <trkpt lat="45.68235" lon="3.05178">
        <ele>825</ele>
        <time>2008-08-04T11:23:26Z</time>
      </trkpt>
      <trkpt lat="45.6823" lon="3.05166">
        <ele>826</ele>
        <time>2008-08-04T11:23:35Z</time>
      </trkpt>
      <trkpt lat="45.68226" lon="3.05154">
        <ele>826</ele>
        <time>2008-08-04T11:23:45Z</time>
      </trkpt>
      <trkpt lat="45.68219" lon="3.05145">
        <ele>825</ele>
        <time>2008-08-04T11:23:54Z</time>
      </trkpt>
      <trkpt lat="45.68211" lon="3.05138">
        <ele>825</ele>
        <time>2008-08-04T11:24:03Z</time>
      </trkpt>
      <trkpt lat="45.68203" lon="3.05129">
        <ele>825</ele>
        <time>2008-08-04T11:24:12Z</time>
      </trkpt>
      <trkpt lat="45.68194" lon="3.05121">
        <ele>826</ele>
        <time>2008-08-04T11:24:19Z</time>
      </trkpt>
      <trkpt lat="45.68187" lon="3.05112">
        <ele>826</ele>
        <time>2008-08-04T11:24:30Z</time>
      </trkpt>
      <trkpt lat="45.68178" lon="3.05105">
        <ele>826</ele>
        <time>2008-08-04T11:24:38Z</time>
      </trkpt>
      <trkpt lat="45.68168" lon="3.05099">
        <ele>825</ele>
        <time>2008-08-04T11:24:46Z</time>
      </trkpt>
      <trkpt lat="45.6816" lon="3.05092">
        <ele>824</ele>
        <time>2008-08-04T11:24:55Z</time>
      </trkpt>
      <trkpt lat="45.68151" lon="3.05086">
        <ele>824</ele>
        <time>2008-08-04T11:25:04Z</time>
      </trkpt>
      <trkpt lat="45.68142" lon="3.05082">
        <ele>823</ele>
        <time>2008-08-04T11:25:13Z</time>
      </trkpt>
      <trkpt lat="45.68134" lon="3.05076">
        <ele>823</ele>
        <time>2008-08-04T11:25:21Z</time>
      </trkpt>
      <trkpt lat="45.68124" lon="3.05072">
        <ele>823</ele>
        <time>2008-08-04T11:25:32Z</time>
      </trkpt>
      <trkpt lat="45.68114" lon="3.05065">
        <ele>823</ele>
        <time>2008-08-04T11:25:40Z</time>
      </trkpt>
      <trkpt lat="45.68105" lon="3.05062">
        <ele>823</ele>
        <time>2008-08-04T11:25:49Z</time>
      </trkpt>
      <trkpt lat="45.681" lon="3.0505">
        <ele>825</ele>
        <time>2008-08-04T11:25:58Z</time>
      </trkpt>
      <trkpt lat="45.68092" lon="3.05038">
        <ele>826</ele>
        <time>2008-08-04T11:26:03Z</time>
      </trkpt>
      <trkpt lat="45.68083" lon="3.05029">
        <ele>827</ele>
        <time>2008-08-04T11:26:07Z</time>
      </trkpt>
      <trkpt lat="45.68075" lon="3.05018">
        <ele>828</ele>
        <time>2008-08-04T11:26:11Z</time>
      </trkpt>
      <trkpt lat="45.68066" lon="3.05005">
        <ele>830</ele>
        <time>2008-08-04T11:26:15Z</time>
      </trkpt>
      <trkpt lat="45.68058" lon="3.04995">
        <ele>832</ele>
        <time>2008-08-04T11:26:20Z</time>
      </trkpt>
      <trkpt lat="45.68051" lon="3.04983">
        <ele>834</ele>
        <time>2008-08-04T11:26:29Z</time>
      </trkpt>
      <trkpt lat="45.68043" lon="3.04975">
        <ele>835</ele>
        <time>2008-08-04T11:26:38Z</time>
      </trkpt>
      <trkpt lat="45.68034" lon="3.04969">
        <ele>835</ele>
        <time>2008-08-04T11:26:44Z</time>
      </trkpt>
      <trkpt lat="45.68026" lon="3.04961">
        <ele>836</ele>
        <time>2008-08-04T11:26:51Z</time>
      </trkpt>
      <trkpt lat="45.68019" lon="3.04953">
        <ele>837</ele>
        <time>2008-08-04T11:27:00Z</time>
      </trkpt>
      <trkpt lat="45.68012" lon="3.04944">
        <ele>839</ele>
        <time>2008-08-04T11:27:09Z</time>
      </trkpt>
      <trkpt lat="45.68004" lon="3.04935">
        <ele>840</ele>
        <time>2008-08-04T11:27:16Z</time>
      </trkpt>
      <trkpt lat="45.68003" lon="3.04921">
        <ele>843</ele>
        <time>2008-08-04T11:27:25Z</time>
      </trkpt>
      <trkpt lat="45.68002" lon="3.04906">
        <ele>844</ele>
        <time>2008-08-04T11:27:34Z</time>
      </trkpt>
      <trkpt lat="45.68007" lon="3.04895">
        <ele>845</ele>
        <time>2008-08-04T11:27:41Z</time>
      </trkpt>
      <trkpt lat="45.68011" lon="3.04881">
        <ele>846</ele>
        <time>2008-08-04T11:27:50Z</time>
      </trkpt>
      <trkpt lat="45.68015" lon="3.04868">
        <ele>846</ele>
        <time>2008-08-04T11:27:58Z</time>
      </trkpt>
      <trkpt lat="45.68018" lon="3.04855">
        <ele>847</ele>
        <time>2008-08-04T11:28:06Z</time>
      </trkpt>
      <trkpt lat="45.68022" lon="3.04842">
        <ele>847</ele>
        <time>2008-08-04T11:28:14Z</time>
      </trkpt>
      <trkpt lat="45.68027" lon="3.04831">
        <ele>848</ele>
        <time>2008-08-04T11:28:22Z</time>
      </trkpt>
      <trkpt lat="45.68033" lon="3.0482">
        <ele>848</ele>
        <time>2008-08-04T11:28:32Z</time>
      </trkpt>
      <trkpt lat="45.68038" lon="3.04807">
        <ele>849</ele>
        <time>2008-08-04T11:28:42Z</time>
      </trkpt>
      <trkpt lat="45.68044" lon="3.04798">
        <ele>849</ele>
        <time>2008-08-04T11:28:52Z</time>
      </trkpt>
      <trkpt lat="45.68049" lon="3.04786">
        <ele>850</ele>
        <time>2008-08-04T11:29:00Z</time>
      </trkpt>
      <trkpt lat="45.68045" lon="3.04771">
        <ele>850</ele>
        <time>2008-08-04T11:29:11Z</time>
      </trkpt>
      <trkpt lat="45.68044" lon="3.04758">
        <ele>851</ele>
        <time>2008-08-04T11:29:18Z</time>
      </trkpt>
      <trkpt lat="45.68048" lon="3.04746">
        <ele>852</ele>
        <time>2008-08-04T11:29:29Z</time>
      </trkpt>
      <trkpt lat="45.68051" lon="3.04734">
        <ele>853</ele>
        <time>2008-08-04T11:29:38Z</time>
      </trkpt>
      <trkpt lat="45.68055" lon="3.04721">
        <ele>853</ele>
        <time>2008-08-04T11:29:50Z</time>
      </trkpt>
      <trkpt lat="45.6806" lon="3.04708">
        <ele>854</ele>
        <time>2008-08-04T11:29:55Z</time>
      </trkpt>
      <trkpt lat="45.68063" lon="3.04692">
        <ele>855</ele>
        <time>2008-08-04T11:30:00Z</time>
      </trkpt>
      <trkpt lat="45.68065" lon="3.04679">
        <ele>856</ele>
        <time>2008-08-04T11:30:04Z</time>
      </trkpt>
      <trkpt lat="45.68065" lon="3.04665">
        <ele>857</ele>
        <time>2008-08-04T11:30:08Z</time>
      </trkpt>
      <trkpt lat="45.68067" lon="3.04652">
        <ele>857</ele>
        <time>2008-08-04T11:30:12Z</time>
      </trkpt>
      <trkpt lat="45.6807" lon="3.04639">
        <ele>858</ele>
        <time>2008-08-04T11:30:17Z</time>
      </trkpt>
      <trkpt lat="45.68077" lon="3.0463">
        <ele>859</ele>
        <time>2008-08-04T11:30:26Z</time>
      </trkpt>
      <trkpt lat="45.68086" lon="3.04623">
        <ele>861</ele>
        <time>2008-08-04T11:30:35Z</time>
      </trkpt>
      <trkpt lat="45.68092" lon="3.04613">
        <ele>862</ele>
        <time>2008-08-04T11:30:43Z</time>
      </trkpt>
      <trkpt lat="45.68096" lon="3.046">
        <ele>863</ele>
        <time>2008-08-04T11:30:53Z</time>
      </trkpt>
      <trkpt lat="45.681" lon="3.04588">
        <ele>864</ele>
        <time>2008-08-04T11:31:01Z</time>
      </trkpt>
      <trkpt lat="45.68106" lon="3.04576">
        <ele>865</ele>
        <time>2008-08-04T11:31:11Z</time>
      </trkpt>
      <trkpt lat="45.6811" lon="3.04564">
        <ele>866</ele>
        <time>2008-08-04T11:31:20Z</time>
      </trkpt>
      <trkpt lat="45.68114" lon="3.04552">
        <ele>868</ele>
        <time>2008-08-04T11:31:36Z</time>
      </trkpt>
      <trkpt lat="45.68119" lon="3.0454">
        <ele>869</ele>
        <time>2008-08-04T11:31:46Z</time>
      </trkpt>
      <trkpt lat="45.68121" lon="3.04526">
        <ele>870</ele>
        <time>2008-08-04T11:31:56Z</time>
      </trkpt>
      <trkpt lat="45.68122" lon="3.04512">
        <ele>872</ele>
        <time>2008-08-04T11:32:06Z</time>
      </trkpt>
      <trkpt lat="45.68119" lon="3.04498">
        <ele>873</ele>
        <time>2008-08-04T11:32:14Z</time>
      </trkpt>
      <trkpt lat="45.68118" lon="3.04485">
        <ele>874</ele>
        <time>2008-08-04T11:32:33Z</time>
      </trkpt>
      <trkpt lat="45.68115" lon="3.04472">
        <ele>875</ele>
        <time>2008-08-04T11:32:42Z</time>
      </trkpt>
      <trkpt lat="45.68111" lon="3.0446">
        <ele>876</ele>
        <time>2008-08-04T11:32:51Z</time>
      </trkpt>
      <trkpt lat="45.68108" lon="3.04447">
        <ele>877</ele>
        <time>2008-08-04T11:33:00Z</time>
      </trkpt>
      <trkpt lat="45.68108" lon="3.04433">
        <ele>878</ele>
        <time>2008-08-04T11:33:14Z</time>
      </trkpt>
      <trkpt lat="45.68107" lon="3.04418">
        <ele>880</ele>
        <time>2008-08-04T11:33:25Z</time>
      </trkpt>
      <trkpt lat="45.68103" lon="3.04407">
        <ele>880</ele>
        <time>2008-08-04T11:33:33Z</time>
      </trkpt>
      <trkpt lat="45.68099" lon="3.04394">
        <ele>881</ele>
        <time>2008-08-04T11:33:43Z</time>
      </trkpt>
      <trkpt lat="45.68095" lon="3.04382">
        <ele>882</ele>
        <time>2008-08-04T11:33:52Z</time>
      </trkpt>
      <trkpt lat="45.68094" lon="3.04368">
        <ele>883</ele>
        <time>2008-08-04T11:34:01Z</time>
      </trkpt>
      <trkpt lat="45.68091" lon="3.04355">
        <ele>885</ele>
        <time>2008-08-04T11:34:16Z</time>
      </trkpt>
      <trkpt lat="45.68091" lon="3.04341">
        <ele>886</ele>
        <time>2008-08-04T11:34:26Z</time>
      </trkpt>
      <trkpt lat="45.68085" lon="3.0433">
        <ele>886</ele>
        <time>2008-08-04T11:34:34Z</time>
      </trkpt>
      <trkpt lat="45.68083" lon="3.04316">
        <ele>887</ele>
        <time>2008-08-04T11:34:43Z</time>
      </trkpt>
      <trkpt lat="45.6808" lon="3.04303">
        <ele>888</ele>
        <time>2008-08-04T11:34:52Z</time>
      </trkpt>
      <trkpt lat="45.68075" lon="3.0429">
        <ele>889</ele>
        <time>2008-08-04T11:35:03Z</time>
      </trkpt>
      <trkpt lat="45.68066" lon="3.04284">
        <ele>890</ele>
        <time>2008-08-04T11:35:07Z</time>
      </trkpt>
      <trkpt lat="45.68058" lon="3.04273">
        <ele>890</ele>
        <time>2008-08-04T11:35:11Z</time>
      </trkpt>
      <trkpt lat="45.68049" lon="3.04265">
        <ele>890</ele>
        <time>2008-08-04T11:35:15Z</time>
      </trkpt>
      <trkpt lat="45.68039" lon="3.04254">
        <ele>891</ele>
        <time>2008-08-04T11:35:19Z</time>
      </trkpt>
      <trkpt lat="45.68031" lon="3.04243">
        <ele>891</ele>
        <time>2008-08-04T11:35:24Z</time>
      </trkpt>
      <trkpt lat="45.68029" lon="3.04229">
        <ele>892</ele>
        <time>2008-08-04T11:35:27Z</time>
      </trkpt>
      <trkpt lat="45.68027" lon="3.04215">
        <ele>893</ele>
        <time>2008-08-04T11:35:31Z</time>
      </trkpt>
      <trkpt lat="45.68027" lon="3.042">
        <ele>894</ele>
        <time>2008-08-04T11:35:39Z</time>
      </trkpt>
      <trkpt lat="45.68029" lon="3.04186">
        <ele>894</ele>
        <time>2008-08-04T11:35:47Z</time>
      </trkpt>
      <trkpt lat="45.68028" lon="3.04171">
        <ele>895</ele>
        <time>2008-08-04T11:35:55Z</time>
      </trkpt>
      <trkpt lat="45.68027" lon="3.04157">
        <ele>895</ele>
        <time>2008-08-04T11:36:03Z</time>
      </trkpt>
      <trkpt lat="45.68027" lon="3.04144">
        <ele>896</ele>
        <time>2008-08-04T11:36:10Z</time>
      </trkpt>
      <trkpt lat="45.68026" lon="3.0413">
        <ele>896</ele>
        <time>2008-08-04T11:36:18Z</time>
      </trkpt>
      <trkpt lat="45.68025" lon="3.04117">
        <ele>896</ele>
        <time>2008-08-04T11:36:24Z</time>
      </trkpt>
      <trkpt lat="45.68026" lon="3.04101">
        <ele>896</ele>
        <time>2008-08-04T11:36:28Z</time>
      </trkpt>
      <trkpt lat="45.68027" lon="3.04086">
        <ele>896</ele>
        <time>2008-08-04T11:36:32Z</time>
      </trkpt>
      <trkpt lat="45.68027" lon="3.04073">
        <ele>897</ele>
        <time>2008-08-04T11:36:36Z</time>
      </trkpt>
      <trkpt lat="45.68027" lon="3.04056">
        <ele>897</ele>
        <time>2008-08-04T11:36:40Z</time>
      </trkpt>
      <trkpt lat="45.68027" lon="3.04043">
        <ele>897</ele>
        <time>2008-08-04T11:36:43Z</time>
      </trkpt>
      <trkpt lat="45.68027" lon="3.04029">
        <ele>898</ele>
        <time>2008-08-04T11:36:46Z</time>
      </trkpt>
      <trkpt lat="45.68027" lon="3.04016">
        <ele>898</ele>
        <time>2008-08-04T11:36:49Z</time>
      </trkpt>
      <trkpt lat="45.68027" lon="3.04002">
        <ele>899</ele>
        <time>2008-08-04T11:36:53Z</time>
      </trkpt>
      <trkpt lat="45.68029" lon="3.03987">
        <ele>899</ele>
        <time>2008-08-04T11:37:00Z</time>
      </trkpt>
      <trkpt lat="45.6803" lon="3.03974">
        <ele>900</ele>
        <time>2008-08-04T11:37:07Z</time>
      </trkpt>
      <trkpt lat="45.68031" lon="3.0396">
        <ele>901</ele>
        <time>2008-08-04T11:37:14Z</time>
      </trkpt>
      <trkpt lat="45.68031" lon="3.03947">
        <ele>901</ele>
        <time>2008-08-04T11:37:23Z</time>
      </trkpt>
      <trkpt lat="45.68032" lon="3.03932">
        <ele>902</ele>
        <time>2008-08-04T11:37:32Z</time>
      </trkpt>
      <trkpt lat="45.68034" lon="3.03919">
        <ele>903</ele>
        <time>2008-08-04T11:37:41Z</time>
      </trkpt>
      <trkpt lat="45.68039" lon="3.03907">
        <ele>904</ele>
        <time>2008-08-04T11:37:49Z</time>
      </trkpt>
      <trkpt lat="45.68045" lon="3.03896">
        <ele>904</ele>
        <time>2008-08-04T11:37:58Z</time>
      </trkpt>
      <trkpt lat="45.68051" lon="3.03884">
        <ele>905</ele>
        <time>2008-08-04T11:38:07Z</time>
      </trkpt>
      <trkpt lat="45.68052" lon="3.0387">
        <ele>906</ele>
        <time>2008-08-04T11:38:17Z</time>
      </trkpt>
      <trkpt lat="45.68051" lon="3.03857">
        <ele>907</ele>
        <time>2008-08-04T11:38:25Z</time>
      </trkpt>
      <trkpt lat="45.6805" lon="3.03843">
        <ele>908</ele>
        <time>2008-08-04T11:38:35Z</time>
      </trkpt>
      <trkpt lat="45.68051" lon="3.03829">
        <ele>909</ele>
        <time>2008-08-04T11:38:48Z</time>
      </trkpt>
      <trkpt lat="45.6805" lon="3.03816">
        <ele>909</ele>
        <time>2008-08-04T11:38:56Z</time>
      </trkpt>
      <trkpt lat="45.68051" lon="3.03801">
        <ele>910</ele>
        <time>2008-08-04T11:39:05Z</time>
      </trkpt>
      <trkpt lat="45.68052" lon="3.03788">
        <ele>910</ele>
        <time>2008-08-04T11:39:14Z</time>
      </trkpt>
      <trkpt lat="45.68053" lon="3.03773">
        <ele>911</ele>
        <time>2008-08-04T11:39:24Z</time>
      </trkpt>
      <trkpt lat="45.68054" lon="3.0376">
        <ele>911</ele>
        <time>2008-08-04T11:39:33Z</time>
      </trkpt>
      <trkpt lat="45.68054" lon="3.03746">
        <ele>911</ele>
        <time>2008-08-04T11:39:41Z</time>
      </trkpt>
      <trkpt lat="45.68054" lon="3.03732">
        <ele>912</ele>
        <time>2008-08-04T11:39:49Z</time>
      </trkpt>
      <trkpt lat="45.68055" lon="3.03719">
        <ele>912</ele>
        <time>2008-08-04T11:39:56Z</time>
      </trkpt>
      <trkpt lat="45.68055" lon="3.03704">
        <ele>913</ele>
        <time>2008-08-04T11:40:04Z</time>
      </trkpt>
      <trkpt lat="45.68055" lon="3.03691">
        <ele>913</ele>
        <time>2008-08-04T11:40:12Z</time>
      </trkpt>
      <trkpt lat="45.68056" lon="3.03677">
        <ele>914</ele>
        <time>2008-08-04T11:40:20Z</time>
      </trkpt>
      <trkpt lat="45.68058" lon="3.03663">
        <ele>915</ele>
        <time>2008-08-04T11:40:30Z</time>
      </trkpt>
      <trkpt lat="45.6806" lon="3.03649">
        <ele>916</ele>
        <time>2008-08-04T11:40:38Z</time>
      </trkpt>
      <trkpt lat="45.68062" lon="3.03635">
        <ele>916</ele>
        <time>2008-08-04T11:40:53Z</time>
      </trkpt>
      <trkpt lat="45.68065" lon="3.03622">
        <ele>917</ele>
        <time>2008-08-04T11:41:02Z</time>
      </trkpt>
      <trkpt lat="45.68067" lon="3.03608">
        <ele>918</ele>
        <time>2008-08-04T11:41:11Z</time>
      </trkpt>
      <trkpt lat="45.6807" lon="3.03595">
        <ele>918</ele>
        <time>2008-08-04T11:41:20Z</time>
      </trkpt>
      <trkpt lat="45.68072" lon="3.0358">
        <ele>919</ele>
        <time>2008-08-04T11:41:30Z</time>
      </trkpt>
      <trkpt lat="45.68072" lon="3.03567">
        <ele>919</ele>
        <time>2008-08-04T11:41:39Z</time>
      </trkpt>
      <trkpt lat="45.68073" lon="3.03553">
        <ele>920</ele>
        <time>2008-08-04T11:41:47Z</time>
      </trkpt>
      <trkpt lat="45.68073" lon="3.0354">
        <ele>920</ele>
        <time>2008-08-04T11:42:19Z</time>
      </trkpt>
      <trkpt lat="45.68075" lon="3.03526">
        <ele>920</ele>
        <time>2008-08-04T11:42:28Z</time>
      </trkpt>
      <trkpt lat="45.68073" lon="3.03512">
        <ele>920</ele>
        <time>2008-08-04T11:42:37Z</time>
      </trkpt>
      <trkpt lat="45.68071" lon="3.03496">
        <ele>921</ele>
        <time>2008-08-04T11:42:43Z</time>
      </trkpt>
      <trkpt lat="45.68069" lon="3.0348">
        <ele>921</ele>
        <time>2008-08-04T11:42:47Z</time>
      </trkpt>
      <trkpt lat="45.68068" lon="3.03465">
        <ele>921</ele>
        <time>2008-08-04T11:42:50Z</time>
      </trkpt>
      <trkpt lat="45.68068" lon="3.03452">
        <ele>922</ele>
        <time>2008-08-04T11:42:53Z</time>
      </trkpt>
      <trkpt lat="45.68069" lon="3.03435">
        <ele>922</ele>
        <time>2008-08-04T11:42:57Z</time>
      </trkpt>
      <trkpt lat="45.68073" lon="3.03421">
        <ele>923</ele>
        <time>2008-08-04T11:43:01Z</time>
      </trkpt>
      <trkpt lat="45.68083" lon="3.03413">
        <ele>924</ele>
        <time>2008-08-04T11:43:05Z</time>
      </trkpt>
      <trkpt lat="45.68093" lon="3.03409">
        <ele>925</ele>
        <time>2008-08-04T11:43:09Z</time>
      </trkpt>
      <trkpt lat="45.68104" lon="3.03406">
        <ele>926</ele>
        <time>2008-08-04T11:43:12Z</time>
      </trkpt>
      <trkpt lat="45.68114" lon="3.03407">
        <ele>927</ele>
        <time>2008-08-04T11:43:18Z</time>
      </trkpt>
      <trkpt lat="45.68123" lon="3.03404">
        <ele>928</ele>
        <time>2008-08-04T11:43:28Z</time>
      </trkpt>
      <trkpt lat="45.68133" lon="3.03402">
        <ele>929</ele>
        <time>2008-08-04T11:43:37Z</time>
      </trkpt>
      <trkpt lat="45.68143" lon="3.03402">
        <ele>930</ele>
        <time>2008-08-04T11:43:45Z</time>
      </trkpt>
      <trkpt lat="45.68152" lon="3.03398">
        <ele>931</ele>
        <time>2008-08-04T11:43:54Z</time>
      </trkpt>
      <trkpt lat="45.68162" lon="3.03393">
        <ele>931</ele>
        <time>2008-08-04T11:44:02Z</time>
      </trkpt>
      <trkpt lat="45.6817" lon="3.03389">
        <ele>932</ele>
        <time>2008-08-04T11:44:11Z</time>
      </trkpt>
      <trkpt lat="45.68177" lon="3.03379">
        <ele>933</ele>
        <time>2008-08-04T11:44:19Z</time>
      </trkpt>
      <trkpt lat="45.68183" lon="3.03367">
        <ele>934</ele>
        <time>2008-08-04T11:44:28Z</time>
      </trkpt>
      <trkpt lat="45.68189" lon="3.03357">
        <ele>935</ele>
        <time>2008-08-04T11:44:37Z</time>
      </trkpt>
      <trkpt lat="45.68189" lon="3.03342">
        <ele>935</ele>
        <time>2008-08-04T11:44:47Z</time>
      </trkpt>
      <trkpt lat="45.68187" lon="3.03329">
        <ele>936</ele>
        <time>2008-08-04T11:44:56Z</time>
      </trkpt>
      <trkpt lat="45.68184" lon="3.03315">
        <ele>936</ele>
        <time>2008-08-04T11:45:05Z</time>
      </trkpt>
      <trkpt lat="45.68181" lon="3.03303">
        <ele>937</ele>
        <time>2008-08-04T11:45:14Z</time>
      </trkpt>
      <trkpt lat="45.68174" lon="3.03291">
        <ele>937</ele>
        <time>2008-08-04T11:45:23Z</time>
      </trkpt>
      <trkpt lat="45.68166" lon="3.03283">
        <ele>937</ele>
        <time>2008-08-04T11:45:31Z</time>
      </trkpt>
      <trkpt lat="45.68162" lon="3.0327">
        <ele>938</ele>
        <time>2008-08-04T11:45:40Z</time>
      </trkpt>
      <trkpt lat="45.68163" lon="3.03257">
        <ele>939</ele>
        <time>2008-08-04T11:45:50Z</time>
      </trkpt>
      <trkpt lat="45.68165" lon="3.03243">
        <ele>940</ele>
        <time>2008-08-04T11:45:59Z</time>
      </trkpt>
      <trkpt lat="45.68165" lon="3.0323">
        <ele>941</ele>
        <time>2008-08-04T11:46:07Z</time>
      </trkpt>
      <trkpt lat="45.68165" lon="3.03216">
        <ele>942</ele>
        <time>2008-08-04T11:46:16Z</time>
      </trkpt>
      <trkpt lat="45.68165" lon="3.03203">
        <ele>943</ele>
        <time>2008-08-04T11:46:25Z</time>
      </trkpt>
      <trkpt lat="45.68165" lon="3.0319">
        <ele>944</ele>
        <time>2008-08-04T11:46:32Z</time>
      </trkpt>
      <trkpt lat="45.68163" lon="3.03173">
        <ele>945</ele>
        <time>2008-08-04T11:46:37Z</time>
      </trkpt>
      <trkpt lat="45.68161" lon="3.03158">
        <ele>945</ele>
        <time>2008-08-04T11:46:42Z</time>
      </trkpt>
      <trkpt lat="45.6816" lon="3.03143">
        <ele>946</ele>
        <time>2008-08-04T11:46:46Z</time>
      </trkpt>
      <trkpt lat="45.6816" lon="3.03128">
        <ele>947</ele>
        <time>2008-08-04T11:46:50Z</time>
      </trkpt>
      <trkpt lat="45.68162" lon="3.03112">
        <ele>948</ele>
        <time>2008-08-04T11:46:54Z</time>
      </trkpt>
      <trkpt lat="45.68163" lon="3.03097">
        <ele>948</ele>
        <time>2008-08-04T11:46:58Z</time>
      </trkpt>
      <trkpt lat="45.68166" lon="3.03084">
        <ele>949</ele>
        <time>2008-08-04T11:47:01Z</time>
      </trkpt>
      <trkpt lat="45.68167" lon="3.0307">
        <ele>949</ele>
        <time>2008-08-04T11:47:04Z</time>
      </trkpt>
      <trkpt lat="45.68168" lon="3.03055">
        <ele>950</ele>
        <time>2008-08-04T11:47:07Z</time>
      </trkpt>
      <trkpt lat="45.68169" lon="3.03041">
        <ele>950</ele>
        <time>2008-08-04T11:47:09Z</time>
      </trkpt>
      <trkpt lat="45.6817" lon="3.03028">
        <ele>950</ele>
        <time>2008-08-04T11:47:11Z</time>
      </trkpt>
      <trkpt lat="45.6817" lon="3.03013">
        <ele>951</ele>
        <time>2008-08-04T11:47:13Z</time>
      </trkpt>
      <trkpt lat="45.6817" lon="3.02997">
        <ele>951</ele>
        <time>2008-08-04T11:47:15Z</time>
      </trkpt>
      <trkpt lat="45.68168" lon="3.02982">
        <ele>951</ele>
        <time>2008-08-04T11:47:17Z</time>
      </trkpt>
      <trkpt lat="45.68167" lon="3.02968">
        <ele>951</ele>
        <time>2008-08-04T11:47:19Z</time>
      </trkpt>
      <trkpt lat="45.68165" lon="3.02954">
        <ele>951</ele>
        <time>2008-08-04T11:47:21Z</time>
      </trkpt>
      <trkpt lat="45.68163" lon="3.02939">
        <ele>951</ele>
        <time>2008-08-04T11:47:23Z</time>
      </trkpt>
      <trkpt lat="45.6816" lon="3.02924">
        <ele>952</ele>
        <time>2008-08-04T11:47:25Z</time>
      </trkpt>
      <trkpt lat="45.68157" lon="3.02909">
        <ele>952</ele>
        <time>2008-08-04T11:47:27Z</time>
      </trkpt>
      <trkpt lat="45.68154" lon="3.02894">
        <ele>952</ele>
        <time>2008-08-04T11:47:29Z</time>
      </trkpt>
      <trkpt lat="45.68151" lon="3.02878">
        <ele>952</ele>
        <time>2008-08-04T11:47:31Z</time>
      </trkpt>
      <trkpt lat="45.6815" lon="3.02863">
        <ele>952</ele>
        <time>2008-08-04T11:47:33Z</time>
      </trkpt>
      <trkpt lat="45.68148" lon="3.02845">
        <ele>952</ele>
        <time>2008-08-04T11:47:36Z</time>
      </trkpt>
      <trkpt lat="45.68146" lon="3.0283">
        <ele>952</ele>
        <time>2008-08-04T11:47:39Z</time>
      </trkpt>
      <trkpt lat="45.68146" lon="3.02817">
        <ele>952</ele>
        <time>2008-08-04T11:47:42Z</time>
      </trkpt>
      <trkpt lat="45.68148" lon="3.02803">
        <ele>952</ele>
        <time>2008-08-04T11:47:45Z</time>
      </trkpt>
      <trkpt lat="45.68149" lon="3.02789">
        <ele>953</ele>
        <time>2008-08-04T11:47:48Z</time>
      </trkpt>
      <trkpt lat="45.68149" lon="3.02774">
        <ele>953</ele>
        <time>2008-08-04T11:47:51Z</time>
      </trkpt>
      <trkpt lat="45.6815" lon="3.02757">
        <ele>953</ele>
        <time>2008-08-04T11:47:55Z</time>
      </trkpt>
      <trkpt lat="45.6815" lon="3.02741">
        <ele>954</ele>
        <time>2008-08-04T11:47:59Z</time>
      </trkpt>
      <trkpt lat="45.6815" lon="3.02728">
        <ele>953</ele>
        <time>2008-08-04T11:48:03Z</time>
      </trkpt>
      <trkpt lat="45.68151" lon="3.02714">
        <ele>953</ele>
        <time>2008-08-04T11:48:10Z</time>
      </trkpt>
      <trkpt lat="45.68153" lon="3.02701">
        <ele>953</ele>
        <time>2008-08-04T11:48:18Z</time>
      </trkpt>
      <trkpt lat="45.68158" lon="3.02689">
        <ele>953</ele>
        <time>2008-08-04T11:48:26Z</time>
      </trkpt>
      <trkpt lat="45.6816" lon="3.02676">
        <ele>953</ele>
        <time>2008-08-04T11:48:34Z</time>
      </trkpt>
      <trkpt lat="45.68164" lon="3.02662">
        <ele>953</ele>
        <time>2008-08-04T11:49:21Z</time>
      </trkpt>
      <trkpt lat="45.6817" lon="3.02651">
        <ele>953</ele>
        <time>2008-08-04T11:49:29Z</time>
      </trkpt>
      <trkpt lat="45.68173" lon="3.02638">
        <ele>953</ele>
        <time>2008-08-04T11:49:35Z</time>
      </trkpt>
      <trkpt lat="45.68177" lon="3.02621">
        <ele>953</ele>
        <time>2008-08-04T11:49:38Z</time>
      </trkpt>
      <trkpt lat="45.6818" lon="3.02607">
        <ele>953</ele>
        <time>2008-08-04T11:49:40Z</time>
      </trkpt>
      <trkpt lat="45.68184" lon="3.02593">
        <ele>952</ele>
        <time>2008-08-04T11:49:42Z</time>
      </trkpt>
      <trkpt lat="45.68188" lon="3.02578">
        <ele>952</ele>
        <time>2008-08-04T11:49:44Z</time>
      </trkpt>
      <trkpt lat="45.68191" lon="3.02563">
        <ele>952</ele>
        <time>2008-08-04T11:49:46Z</time>
      </trkpt>
      <trkpt lat="45.68194" lon="3.02549">
        <ele>952</ele>
        <time>2008-08-04T11:49:48Z</time>
      </trkpt>
      <trkpt lat="45.68199" lon="3.02536">
        <ele>953</ele>
        <time>2008-08-04T11:49:50Z</time>
      </trkpt>
      <trkpt lat="45.68204" lon="3.02521">
        <ele>954</ele>
        <time>2008-08-04T11:49:52Z</time>
      </trkpt>
      <trkpt lat="45.68209" lon="3.02507">
        <ele>954</ele>
        <time>2008-08-04T11:49:54Z</time>
      </trkpt>
      <trkpt lat="45.68217" lon="3.02494">
        <ele>955</ele>
        <time>2008-08-04T11:49:56Z</time>
      </trkpt>
      <trkpt lat="45.68223" lon="3.02483">
        <ele>955</ele>
        <time>2008-08-04T11:49:58Z</time>
      </trkpt>
      <trkpt lat="45.68232" lon="3.02474">
        <ele>956</ele>
        <time>2008-08-04T11:50:01Z</time>
      </trkpt>
      <trkpt lat="45.6824" lon="3.02465">
        <ele>956</ele>
        <time>2008-08-04T11:50:07Z</time>
      </trkpt>
      <trkpt lat="45.68247" lon="3.02456">
        <ele>957</ele>
        <time>2008-08-04T11:50:14Z</time>
      </trkpt>
      <trkpt lat="45.68248" lon="3.02439">
        <ele>957</ele>
        <time>2008-08-04T11:50:21Z</time>
      </trkpt>
      <trkpt lat="45.68247" lon="3.02426">
        <ele>958</ele>
        <time>2008-08-04T11:50:23Z</time>
      </trkpt>
      <trkpt lat="45.68245" lon="3.02407">
        <ele>958</ele>
        <time>2008-08-04T11:50:26Z</time>
      </trkpt>
      <trkpt lat="45.68243" lon="3.02392">
        <ele>958</ele>
        <time>2008-08-04T11:50:28Z</time>
      </trkpt>
      <trkpt lat="45.68241" lon="3.02377">
        <ele>958</ele>
        <time>2008-08-04T11:50:30Z</time>
      </trkpt>
      <trkpt lat="45.68239" lon="3.02364">
        <ele>958</ele>
        <time>2008-08-04T11:50:32Z</time>
      </trkpt>
      <trkpt lat="45.68238" lon="3.02345">
        <ele>959</ele>
        <time>2008-08-04T11:50:35Z</time>
      </trkpt>
      <trkpt lat="45.68238" lon="3.02331">
        <ele>959</ele>
        <time>2008-08-04T11:50:37Z</time>
      </trkpt>
      <trkpt lat="45.68238" lon="3.02317">
        <ele>959</ele>
        <time>2008-08-04T11:50:39Z</time>
      </trkpt>
      <trkpt lat="45.68238" lon="3.02304">
        <ele>960</ele>
        <time>2008-08-04T11:50:41Z</time>
      </trkpt>
      <trkpt lat="45.68238" lon="3.02289">
        <ele>960</ele>
        <time>2008-08-04T11:50:43Z</time>
      </trkpt>
      <trkpt lat="45.68238" lon="3.02274">
        <ele>960</ele>
        <time>2008-08-04T11:50:45Z</time>
      </trkpt>
      <trkpt lat="45.68237" lon="3.02259">
        <ele>961</ele>
        <time>2008-08-04T11:50:47Z</time>
      </trkpt>
      <trkpt lat="45.68236" lon="3.02245">
        <ele>961</ele>
        <time>2008-08-04T11:50:49Z</time>
      </trkpt>
      <trkpt lat="45.68235" lon="3.02229">
        <ele>961</ele>
        <time>2008-08-04T11:50:51Z</time>
      </trkpt>
      <trkpt lat="45.68234" lon="3.02215">
        <ele>961</ele>
        <time>2008-08-04T11:50:53Z</time>
      </trkpt>
      <trkpt lat="45.68232" lon="3.02196">
        <ele>961</ele>
        <time>2008-08-04T11:50:56Z</time>
      </trkpt>
      <trkpt lat="45.68231" lon="3.02183">
        <ele>962</ele>
        <time>2008-08-04T11:50:59Z</time>
      </trkpt>
      <trkpt lat="45.6823" lon="3.02169">
        <ele>962</ele>
        <time>2008-08-04T11:51:03Z</time>
      </trkpt>
      <trkpt lat="45.68228" lon="3.02155">
        <ele>962</ele>
        <time>2008-08-04T11:51:10Z</time>
      </trkpt>
      <trkpt lat="45.68226" lon="3.0214">
        <ele>962</ele>
        <time>2008-08-04T11:51:18Z</time>
      </trkpt>
      <trkpt lat="45.68227" lon="3.02127">
        <ele>962</ele>
        <time>2008-08-04T11:51:26Z</time>
      </trkpt>
      <trkpt lat="45.68224" lon="3.02113">
        <ele>962</ele>
        <time>2008-08-04T11:51:40Z</time>
      </trkpt>
      <trkpt lat="45.68218" lon="3.02102">
        <ele>961</ele>
        <time>2008-08-04T11:51:47Z</time>
      </trkpt>
      <trkpt lat="45.68218" lon="3.02088">
        <ele>962</ele>
        <time>2008-08-04T11:51:53Z</time>
      </trkpt>
      <trkpt lat="45.68217" lon="3.02075">
        <ele>962</ele>
        <time>2008-08-04T11:52:00Z</time>
      </trkpt>
      <trkpt lat="45.68216" lon="3.0206">
        <ele>962</ele>
        <time>2008-08-04T11:52:07Z</time>
      </trkpt>
      <trkpt lat="45.68214" lon="3.02047">
        <ele>963</ele>
        <time>2008-08-04T11:52:14Z</time>
      </trkpt>
      <trkpt lat="45.68213" lon="3.02033">
        <ele>963</ele>
        <time>2008-08-04T11:52:22Z</time>
      </trkpt>
      <trkpt lat="45.68213" lon="3.02019">
        <ele>963</ele>
        <time>2008-08-04T11:52:30Z</time>
      </trkpt>
      <trkpt lat="45.68212" lon="3.02005">
        <ele>963</ele>
        <time>2008-08-04T11:52:38Z</time>
      </trkpt>
      <trkpt lat="45.68213" lon="3.0199">
        <ele>964</ele>
        <time>2008-08-04T11:52:47Z</time>
      </trkpt>
      <trkpt lat="45.68218" lon="3.01979">
        <ele>964</ele>
        <time>2008-08-04T11:52:56Z</time>
      </trkpt>
      <trkpt lat="45.68228" lon="3.01979">
        <ele>966</ele>
        <time>2008-08-04T11:53:04Z</time>
      </trkpt>
      <trkpt lat="45.68238" lon="3.0198">
        <ele>967</ele>
        <time>2008-08-04T11:53:12Z</time>
      </trkpt>
      <trkpt lat="45.68247" lon="3.0198">
        <ele>968</ele>
        <time>2008-08-04T11:53:19Z</time>
      </trkpt>
      <trkpt lat="45.68257" lon="3.01981">
        <ele>968</ele>
        <time>2008-08-04T11:53:27Z</time>
      </trkpt>
      <trkpt lat="45.68267" lon="3.0198">
        <ele>969</ele>
        <time>2008-08-04T11:53:36Z</time>
      </trkpt>
      <trkpt lat="45.68277" lon="3.0198">
        <ele>969</ele>
        <time>2008-08-04T11:53:44Z</time>
      </trkpt>
      <trkpt lat="45.68286" lon="3.01981">
        <ele>969</ele>
        <time>2008-08-04T11:53:52Z</time>
      </trkpt>
      <trkpt lat="45.68296" lon="3.01982">
        <ele>970</ele>
        <time>2008-08-04T11:54:00Z</time>
      </trkpt>
      <trkpt lat="45.68306" lon="3.01984">
        <ele>970</ele>
        <time>2008-08-04T11:54:08Z</time>
      </trkpt>
      <trkpt lat="45.68316" lon="3.01985">
        <ele>971</ele>
        <time>2008-08-04T11:54:16Z</time>
      </trkpt>
      <trkpt lat="45.68326" lon="3.01985">
        <ele>971</ele>
        <time>2008-08-04T11:54:24Z</time>
      </trkpt>
      <trkpt lat="45.68335" lon="3.01986">
        <ele>971</ele>
        <time>2008-08-04T11:54:32Z</time>
      </trkpt>
      <trkpt lat="45.68345" lon="3.01986">
        <ele>972</ele>
        <time>2008-08-04T11:54:39Z</time>
      </trkpt>
      <trkpt lat="45.68355" lon="3.01986">
        <ele>972</ele>
        <time>2008-08-04T11:54:48Z</time>
      </trkpt>
      <trkpt lat="45.68365" lon="3.01987">
        <ele>972</ele>
        <time>2008-08-04T11:54:57Z</time>
      </trkpt>
      <trkpt lat="45.68375" lon="3.01988">
        <ele>972</ele>
        <time>2008-08-04T11:55:04Z</time>
      </trkpt>
      <trkpt lat="45.68384" lon="3.01988">
        <ele>973</ele>
        <time>2008-08-04T11:55:12Z</time>
      </trkpt>
      <trkpt lat="45.68394" lon="3.01991">
        <ele>973</ele>
        <time>2008-08-04T11:55:20Z</time>
      </trkpt>
      <trkpt lat="45.68403" lon="3.01992">
        <ele>973</ele>
        <time>2008-08-04T11:55:28Z</time>
      </trkpt>
      <trkpt lat="45.6841" lon="3.01983">
        <ele>973</ele>
        <time>2008-08-04T11:55:38Z</time>
      </trkpt>
      <trkpt lat="45.68411" lon="3.0197">
        <ele>974</ele>
        <time>2008-08-04T11:55:45Z</time>
      </trkpt>
      <trkpt lat="45.68413" lon="3.01956">
        <ele>974</ele>
        <time>2008-08-04T11:55:52Z</time>
      </trkpt>
      <trkpt lat="45.68413" lon="3.01943">
        <ele>975</ele>
        <time>2008-08-04T11:55:59Z</time>
      </trkpt>
      <trkpt lat="45.68415" lon="3.01928">
        <ele>976</ele>
        <time>2008-08-04T11:56:08Z</time>
      </trkpt>
      <trkpt lat="45.68415" lon="3.01914">
        <ele>976</ele>
        <time>2008-08-04T11:56:17Z</time>
      </trkpt>
      <trkpt lat="45.68415" lon="3.019">
        <ele>977</ele>
        <time>2008-08-04T11:56:25Z</time>
      </trkpt>
      <trkpt lat="45.68413" lon="3.01886">
        <ele>978</ele>
        <time>2008-08-04T11:56:34Z</time>
      </trkpt>
      <trkpt lat="45.68412" lon="3.01872">
        <ele>978</ele>
        <time>2008-08-04T11:56:44Z</time>
      </trkpt>
      <trkpt lat="45.68408" lon="3.01857">
        <ele>979</ele>
        <time>2008-08-04T11:56:53Z</time>
      </trkpt>
      <trkpt lat="45.68403" lon="3.01846">
        <ele>979</ele>
        <time>2008-08-04T11:57:01Z</time>
      </trkpt>
      <trkpt lat="45.68399" lon="3.01833">
        <ele>979</ele>
        <time>2008-08-04T11:57:09Z</time>
      </trkpt>
      <trkpt lat="45.68396" lon="3.01821">
        <ele>979</ele>
        <time>2008-08-04T11:57:15Z</time>
      </trkpt>
      <trkpt lat="45.68397" lon="3.01806">
        <ele>980</ele>
        <time>2008-08-04T11:57:22Z</time>
      </trkpt>
      <trkpt lat="45.684" lon="3.01793">
        <ele>980</ele>
        <time>2008-08-04T11:57:30Z</time>
      </trkpt>
      <trkpt lat="45.68403" lon="3.0178">
        <ele>981</ele>
        <time>2008-08-04T11:57:37Z</time>
      </trkpt>
      <trkpt lat="45.68405" lon="3.01766">
        <ele>981</ele>
        <time>2008-08-04T11:57:44Z</time>
      </trkpt>
      <trkpt lat="45.6841" lon="3.01754">
        <ele>982</ele>
        <time>2008-08-04T11:57:51Z</time>
      </trkpt>
      <trkpt lat="45.68413" lon="3.01736">
        <ele>982</ele>
        <time>2008-08-04T11:57:56Z</time>
      </trkpt>
      <trkpt lat="45.68415" lon="3.01717">
        <ele>982</ele>
        <time>2008-08-04T11:57:59Z</time>
      </trkpt>
      <trkpt lat="45.68417" lon="3.01697">
        <ele>983</ele>
        <time>2008-08-04T11:58:02Z</time>
      </trkpt>
      <trkpt lat="45.68419" lon="3.01684">
        <ele>983</ele>
        <time>2008-08-04T11:58:04Z</time>
      </trkpt>
      <trkpt lat="45.6842" lon="3.0167">
        <ele>983</ele>
        <time>2008-08-04T11:58:06Z</time>
      </trkpt>
      <trkpt lat="45.68423" lon="3.01653">
        <ele>983</ele>
        <time>2008-08-04T11:58:09Z</time>
      </trkpt>
      <trkpt lat="45.68425" lon="3.01639">
        <ele>984</ele>
        <time>2008-08-04T11:58:12Z</time>
      </trkpt>
      <trkpt lat="45.68429" lon="3.01626">
        <ele>984</ele>
        <time>2008-08-04T11:58:19Z</time>
      </trkpt>
      <trkpt lat="45.68431" lon="3.01614">
        <ele>985</ele>
        <time>2008-08-04T11:58:25Z</time>
      </trkpt>
      <trkpt lat="45.68434" lon="3.01601">
        <ele>985</ele>
        <time>2008-08-04T11:58:31Z</time>
      </trkpt>
      <trkpt lat="45.68437" lon="3.01588">
        <ele>986</ele>
        <time>2008-08-04T11:58:38Z</time>
      </trkpt>
      <trkpt lat="45.68439" lon="3.01574">
        <ele>986</ele>
        <time>2008-08-04T11:58:45Z</time>
      </trkpt>
      <trkpt lat="45.68442" lon="3.01561">
        <ele>987</ele>
        <time>2008-08-04T11:58:52Z</time>
      </trkpt>
      <trkpt lat="45.68444" lon="3.01547">
        <ele>987</ele>
        <time>2008-08-04T11:58:59Z</time>
      </trkpt>
      <trkpt lat="45.68446" lon="3.01534">
        <ele>988</ele>
        <time>2008-08-04T11:59:06Z</time>
      </trkpt>
      <trkpt lat="45.68449" lon="3.0152">
        <ele>989</ele>
        <time>2008-08-04T11:59:13Z</time>
      </trkpt>
      <trkpt lat="45.68449" lon="3.01505">
        <ele>989</ele>
        <time>2008-08-04T11:59:20Z</time>
      </trkpt>
      <trkpt lat="45.68452" lon="3.01491">
        <ele>990</ele>
        <time>2008-08-04T11:59:28Z</time>
      </trkpt>
      <trkpt lat="45.68454" lon="3.01477">
        <ele>990</ele>
        <time>2008-08-04T11:59:35Z</time>
      </trkpt>
      <trkpt lat="45.68456" lon="3.01464">
        <ele>991</ele>
        <time>2008-08-04T11:59:42Z</time>
      </trkpt>
      <trkpt lat="45.68459" lon="3.0145">
        <ele>991</ele>
        <time>2008-08-04T11:59:50Z</time>
      </trkpt>
      <trkpt lat="45.68462" lon="3.01436">
        <ele>992</ele>
        <time>2008-08-04T11:59:58Z</time>
      </trkpt>
      <trkpt lat="45.68465" lon="3.01423">
        <ele>992</ele>
        <time>2008-08-04T12:00:06Z</time>
      </trkpt>
      <trkpt lat="45.68467" lon="3.01408">
        <ele>993</ele>
        <time>2008-08-04T12:00:14Z</time>
      </trkpt>
      <trkpt lat="45.68469" lon="3.01395">
        <ele>993</ele>
        <time>2008-08-04T12:00:21Z</time>
      </trkpt>
      <trkpt lat="45.6847" lon="3.0138">
        <ele>993</ele>
        <time>2008-08-04T12:00:29Z</time>
      </trkpt>
      <trkpt lat="45.68472" lon="3.01367">
        <ele>994</ele>
        <time>2008-08-04T12:00:36Z</time>
      </trkpt>
      <trkpt lat="45.68475" lon="3.01354">
        <ele>994</ele>
        <time>2008-08-04T12:00:43Z</time>
      </trkpt>
      <trkpt lat="45.68478" lon="3.01341">
        <ele>995</ele>
        <time>2008-08-04T12:00:51Z</time>
      </trkpt>
      <trkpt lat="45.68481" lon="3.01327">
        <ele>995</ele>
        <time>2008-08-04T12:00:59Z</time>
      </trkpt>
      <trkpt lat="45.68483" lon="3.01315">
        <ele>996</ele>
        <time>2008-08-04T12:01:06Z</time>
      </trkpt>
      <trkpt lat="45.68485" lon="3.013">
        <ele>996</ele>
        <time>2008-08-04T12:01:14Z</time>
      </trkpt>
      <trkpt lat="45.68488" lon="3.01284">
        <ele>997</ele>
        <time>2008-08-04T12:01:20Z</time>
      </trkpt>
      <trkpt lat="45.68491" lon="3.0127">
        <ele>997</ele>
        <time>2008-08-04T12:01:25Z</time>
      </trkpt>
      <trkpt lat="45.68495" lon="3.01255">
        <ele>997</ele>
        <time>2008-08-04T12:01:29Z</time>
      </trkpt>
      <trkpt lat="45.68498" lon="3.01242">
        <ele>998</ele>
        <time>2008-08-04T12:01:31Z</time>
      </trkpt>
      <trkpt lat="45.68502" lon="3.01224">
        <ele>998</ele>
        <time>2008-08-04T12:01:34Z</time>
      </trkpt>
      <trkpt lat="45.68505" lon="3.01211">
        <ele>998</ele>
        <time>2008-08-04T12:01:36Z</time>
      </trkpt>
      <trkpt lat="45.68507" lon="3.01198">
        <ele>998</ele>
        <time>2008-08-04T12:01:38Z</time>
      </trkpt>
      <trkpt lat="45.6851" lon="3.01185">
        <ele>998</ele>
        <time>2008-08-04T12:01:40Z</time>
      </trkpt>
      <trkpt lat="45.68514" lon="3.01173">
        <ele>998</ele>
        <time>2008-08-04T12:01:42Z</time>
      </trkpt>
      <trkpt lat="45.68517" lon="3.0116">
        <ele>998</ele>
        <time>2008-08-04T12:01:44Z</time>
      </trkpt>
      <trkpt lat="45.6852" lon="3.01146">
        <ele>999</ele>
        <time>2008-08-04T12:01:46Z</time>
      </trkpt>
      <trkpt lat="45.68524" lon="3.01133">
        <ele>999</ele>
        <time>2008-08-04T12:01:48Z</time>
      </trkpt>
      <trkpt lat="45.68529" lon="3.01122">
        <ele>999</ele>
        <time>2008-08-04T12:01:50Z</time>
      </trkpt>
      <trkpt lat="45.68534" lon="3.01109">
        <ele>999</ele>
        <time>2008-08-04T12:01:52Z</time>
      </trkpt>
      <trkpt lat="45.68539" lon="3.01096">
        <ele>999</ele>
        <time>2008-08-04T12:01:54Z</time>
      </trkpt>
      <trkpt lat="45.68543" lon="3.01083">
        <ele>999</ele>
        <time>2008-08-04T12:01:56Z</time>
      </trkpt>
      <trkpt lat="45.68546" lon="3.01064">
        <ele>999</ele>
        <time>2008-08-04T12:01:59Z</time>
      </trkpt>
      <trkpt lat="45.68548" lon="3.01048">
        <ele>999</ele>
        <time>2008-08-04T12:02:02Z</time>
      </trkpt>
      <trkpt lat="45.68549" lon="3.01033">
        <ele>999</ele>
        <time>2008-08-04T12:02:05Z</time>
      </trkpt>
      <trkpt lat="45.68556" lon="3.0102">
        <ele>999</ele>
        <time>2008-08-04T12:02:09Z</time>
      </trkpt>
      <trkpt lat="45.68565" lon="3.01017">
        <ele>1000</ele>
        <time>2008-08-04T12:02:14Z</time>
      </trkpt>
      <trkpt lat="45.68575" lon="3.01018">
        <ele>1000</ele>
        <time>2008-08-04T12:02:21Z</time>
      </trkpt>
      <trkpt lat="45.68585" lon="3.01018">
        <ele>1001</ele>
        <time>2008-08-04T12:02:29Z</time>
      </trkpt>
      <trkpt lat="45.68594" lon="3.01018">
        <ele>1002</ele>
        <time>2008-08-04T12:02:36Z</time>
      </trkpt>
      <trkpt lat="45.68603" lon="3.01011">
        <ele>1002</ele>
        <time>2008-08-04T12:02:44Z</time>
      </trkpt>
      <trkpt lat="45.68606" lon="3.00999">
        <ele>1002</ele>
        <time>2008-08-04T12:02:51Z</time>
      </trkpt>
      <trkpt lat="45.68609" lon="3.00985">
        <ele>1001</ele>
        <time>2008-08-04T12:02:59Z</time>
      </trkpt>
      <trkpt lat="45.68611" lon="3.00972">
        <ele>1001</ele>
        <time>2008-08-04T12:03:07Z</time>
      </trkpt>
      <trkpt lat="45.68614" lon="3.00958">
        <ele>1000</ele>
        <time>2008-08-04T12:03:15Z</time>
      </trkpt>
      <trkpt lat="45.68615" lon="3.00943">
        <ele>1000</ele>
        <time>2008-08-04T12:03:23Z</time>
      </trkpt>
      <trkpt lat="45.68615" lon="3.00929">
        <ele>999</ele>
        <time>2008-08-04T12:03:29Z</time>
      </trkpt>
      <trkpt lat="45.68614" lon="3.00914">
        <ele>998</ele>
        <time>2008-08-04T12:03:36Z</time>
      </trkpt>
      <trkpt lat="45.68614" lon="3.009">
        <ele>998</ele>
        <time>2008-08-04T12:03:43Z</time>
      </trkpt>
      <trkpt lat="45.68615" lon="3.00884">
        <ele>997</ele>
        <time>2008-08-04T12:03:50Z</time>
      </trkpt>
      <trkpt lat="45.68615" lon="3.0087">
        <ele>997</ele>
        <time>2008-08-04T12:03:57Z</time>
      </trkpt>
      <trkpt lat="45.68616" lon="3.00857">
        <ele>996</ele>
        <time>2008-08-04T12:04:04Z</time>
      </trkpt>
      <trkpt lat="45.68617" lon="3.00843">
        <ele>996</ele>
        <time>2008-08-04T12:04:11Z</time>
      </trkpt>
      <trkpt lat="45.68621" lon="3.00831">
        <ele>996</ele>
        <time>2008-08-04T12:04:19Z</time>
      </trkpt>
      <trkpt lat="45.68624" lon="3.00816">
        <ele>995</ele>
        <time>2008-08-04T12:04:29Z</time>
      </trkpt>
      <trkpt lat="45.68626" lon="3.00803">
        <ele>995</ele>
        <time>2008-08-04T12:04:36Z</time>
      </trkpt>
      <trkpt lat="45.68628" lon="3.0079">
        <ele>994</ele>
        <time>2008-08-04T12:04:43Z</time>
      </trkpt>
      <trkpt lat="45.68632" lon="3.00776">
        <ele>994</ele>
        <time>2008-08-04T12:04:51Z</time>
      </trkpt>
      <trkpt lat="45.68636" lon="3.00764">
        <ele>994</ele>
        <time>2008-08-04T12:04:59Z</time>
      </trkpt>
      <trkpt lat="45.68641" lon="3.00751">
        <ele>993</ele>
        <time>2008-08-04T12:05:08Z</time>
      </trkpt>
      <trkpt lat="45.68649" lon="3.00742">
        <ele>993</ele>
        <time>2008-08-04T12:05:16Z</time>
      </trkpt>
      <trkpt lat="45.68653" lon="3.0073">
        <ele>993</ele>
        <time>2008-08-04T12:05:24Z</time>
      </trkpt>
      <trkpt lat="45.6865" lon="3.00717">
        <ele>991</ele>
        <time>2008-08-04T12:05:33Z</time>
      </trkpt>
      <trkpt lat="45.68646" lon="3.00706">
        <ele>989</ele>
        <time>2008-08-04T12:05:41Z</time>
      </trkpt>
      <trkpt lat="45.68652" lon="3.00694">
        <ele>988</ele>
        <time>2008-08-04T12:05:49Z</time>
      </trkpt>
      <trkpt lat="45.68662" lon="3.00689">
        <ele>988</ele>
        <time>2008-08-04T12:05:57Z</time>
      </trkpt>
      <trkpt lat="45.6867" lon="3.00684">
        <ele>989</ele>
        <time>2008-08-04T12:06:03Z</time>
      </trkpt>
      <trkpt lat="45.68679" lon="3.00679">
        <ele>990</ele>
        <time>2008-08-04T12:06:10Z</time>
      </trkpt>
      <trkpt lat="45.68688" lon="3.00674">
        <ele>991</ele>
        <time>2008-08-04T12:06:17Z</time>
      </trkpt>
      <trkpt lat="45.68697" lon="3.00669">
        <ele>991</ele>
        <time>2008-08-04T12:06:25Z</time>
      </trkpt>
      <trkpt lat="45.68706" lon="3.00664">
        <ele>992</ele>
        <time>2008-08-04T12:06:33Z</time>
      </trkpt>
      <trkpt lat="45.68716" lon="3.0066">
        <ele>993</ele>
        <time>2008-08-04T12:06:41Z</time>
      </trkpt>
      <trkpt lat="45.68725" lon="3.00654">
        <ele>994</ele>
        <time>2008-08-04T12:06:50Z</time>
      </trkpt>
      <trkpt lat="45.68735" lon="3.00648">
        <ele>995</ele>
        <time>2008-08-04T12:06:58Z</time>
      </trkpt>
      <trkpt lat="45.68743" lon="3.00642">
        <ele>995</ele>
        <time>2008-08-04T12:07:07Z</time>
      </trkpt>
      <trkpt lat="45.68752" lon="3.00637">
        <ele>996</ele>
        <time>2008-08-04T12:07:16Z</time>
      </trkpt>
      <trkpt lat="45.68761" lon="3.00633">
        <ele>997</ele>
        <time>2008-08-04T12:07:23Z</time>
      </trkpt>
      <trkpt lat="45.68769" lon="3.00627">
        <ele>997</ele>
        <time>2008-08-04T12:07:32Z</time>
      </trkpt>
      <trkpt lat="45.68778" lon="3.00623">
        <ele>997</ele>
        <time>2008-08-04T12:07:39Z</time>
      </trkpt>
      <trkpt lat="45.68787" lon="3.00618">
        <ele>997</ele>
        <time>2008-08-04T12:07:48Z</time>
      </trkpt>
      <trkpt lat="45.68796" lon="3.00614">
        <ele>997</ele>
        <time>2008-08-04T12:07:55Z</time>
      </trkpt>
      <trkpt lat="45.68804" lon="3.0061">
        <ele>997</ele>
        <time>2008-08-04T12:08:02Z</time>
      </trkpt>
      <trkpt lat="45.68814" lon="3.00606">
        <ele>997</ele>
        <time>2008-08-04T12:08:09Z</time>
      </trkpt>
      <trkpt lat="45.68823" lon="3.00601">
        <ele>997</ele>
        <time>2008-08-04T12:08:16Z</time>
      </trkpt>
      <trkpt lat="45.68832" lon="3.00599">
        <ele>997</ele>
        <time>2008-08-04T12:08:37Z</time>
      </trkpt>
      <trkpt lat="45.6884" lon="3.00593">
        <ele>997</ele>
        <time>2008-08-04T12:08:49Z</time>
      </trkpt>
      <trkpt lat="45.68849" lon="3.00588">
        <ele>997</ele>
        <time>2008-08-04T12:08:58Z</time>
      </trkpt>
      <trkpt lat="45.68858" lon="3.00583">
        <ele>996</ele>
        <time>2008-08-04T12:09:07Z</time>
      </trkpt>
      <trkpt lat="45.68867" lon="3.00577">
        <ele>996</ele>
        <time>2008-08-04T12:09:16Z</time>
      </trkpt>
      <trkpt lat="45.68876" lon="3.00573">
        <ele>996</ele>
        <time>2008-08-04T12:09:23Z</time>
      </trkpt>
      <trkpt lat="45.68884" lon="3.00566">
        <ele>995</ele>
        <time>2008-08-04T12:09:31Z</time>
      </trkpt>
      <trkpt lat="45.68893" lon="3.00561">
        <ele>994</ele>
        <time>2008-08-04T12:09:40Z</time>
      </trkpt>
      <trkpt lat="45.68902" lon="3.00557">
        <ele>993</ele>
        <time>2008-08-04T12:09:47Z</time>
      </trkpt>
      <trkpt lat="45.68911" lon="3.0055">
        <ele>991</ele>
        <time>2008-08-04T12:09:56Z</time>
      </trkpt>
      <trkpt lat="45.6892" lon="3.00545">
        <ele>989</ele>
        <time>2008-08-04T12:10:04Z</time>
      </trkpt>
      <trkpt lat="45.68928" lon="3.00539">
        <ele>987</ele>
        <time>2008-08-04T12:10:13Z</time>
      </trkpt>
      <trkpt lat="45.68939" lon="3.00534">
        <ele>986</ele>
        <time>2008-08-04T12:10:20Z</time>
      </trkpt>
      <trkpt lat="45.68948" lon="3.00532">
        <ele>984</ele>
        <time>2008-08-04T12:10:28Z</time>
      </trkpt>
      <trkpt lat="45.68957" lon="3.00533">
        <ele>983</ele>
        <time>2008-08-04T12:10:42Z</time>
      </trkpt>
      <trkpt lat="45.68967" lon="3.00534">
        <ele>982</ele>
        <time>2008-08-04T12:10:51Z</time>
      </trkpt>
      <trkpt lat="45.68976" lon="3.00535">
        <ele>981</ele>
        <time>2008-08-04T12:11:00Z</time>
      </trkpt>
      <trkpt lat="45.68986" lon="3.00537">
        <ele>981</ele>
        <time>2008-08-04T12:11:12Z</time>
      </trkpt>
      <trkpt lat="45.68995" lon="3.00541">
        <ele>981</ele>
        <time>2008-08-04T12:11:21Z</time>
      </trkpt>
      <trkpt lat="45.69005" lon="3.00547">
        <ele>980</ele>
        <time>2008-08-04T12:11:31Z</time>
      </trkpt>
      <trkpt lat="45.69014" lon="3.00552">
        <ele>980</ele>
        <time>2008-08-04T12:11:41Z</time>
      </trkpt>
      <trkpt lat="45.69024" lon="3.00557">
        <ele>980</ele>
        <time>2008-08-04T12:11:47Z</time>
      </trkpt>
      <trkpt lat="45.69034" lon="3.00559">
        <ele>980</ele>
        <time>2008-08-04T12:11:53Z</time>
      </trkpt>
      <trkpt lat="45.69044" lon="3.00559">
        <ele>980</ele>
        <time>2008-08-04T12:12:02Z</time>
      </trkpt>
      <trkpt lat="45.69053" lon="3.00562">
        <ele>980</ele>
        <time>2008-08-04T12:12:12Z</time>
      </trkpt>
      <trkpt lat="45.69063" lon="3.00562">
        <ele>980</ele>
        <time>2008-08-04T12:12:21Z</time>
      </trkpt>
      <trkpt lat="45.69072" lon="3.00559">
        <ele>979</ele>
        <time>2008-08-04T12:12:29Z</time>
      </trkpt>
      <trkpt lat="45.69082" lon="3.00557">
        <ele>979</ele>
        <time>2008-08-04T12:12:37Z</time>
      </trkpt>
      <trkpt lat="45.69092" lon="3.00555">
        <ele>979</ele>
        <time>2008-08-04T12:12:43Z</time>
      </trkpt>
      <trkpt lat="45.69101" lon="3.00551">
        <ele>978</ele>
        <time>2008-08-04T12:12:50Z</time>
      </trkpt>
      <trkpt lat="45.6911" lon="3.00544">
        <ele>977</ele>
        <time>2008-08-04T12:12:59Z</time>
      </trkpt>
      <trkpt lat="45.69119" lon="3.0054">
        <ele>977</ele>
        <time>2008-08-04T12:13:06Z</time>
      </trkpt>
      <trkpt lat="45.69127" lon="3.00533">
        <ele>976</ele>
        <time>2008-08-04T12:13:13Z</time>
      </trkpt>
      <trkpt lat="45.69137" lon="3.00527">
        <ele>976</ele>
        <time>2008-08-04T12:13:20Z</time>
      </trkpt>
      <trkpt lat="45.69147" lon="3.00524">
        <ele>976</ele>
        <time>2008-08-04T12:13:27Z</time>
      </trkpt>
      <trkpt lat="45.69155" lon="3.00516">
        <ele>975</ele>
        <time>2008-08-04T12:13:34Z</time>
      </trkpt>
      <trkpt lat="45.69165" lon="3.00512">
        <ele>976</ele>
        <time>2008-08-04T12:13:42Z</time>
      </trkpt>
      <trkpt lat="45.69174" lon="3.00505">
        <ele>975</ele>
        <time>2008-08-04T12:13:49Z</time>
      </trkpt>
      <trkpt lat="45.69183" lon="3.00498">
        <ele>975</ele>
        <time>2008-08-04T12:13:57Z</time>
      </trkpt>
      <trkpt lat="45.69192" lon="3.00493">
        <ele>975</ele>
        <time>2008-08-04T12:14:07Z</time>
      </trkpt>
      <trkpt lat="45.692" lon="3.00486">
        <ele>975</ele>
        <time>2008-08-04T12:14:19Z</time>
      </trkpt>
      <trkpt lat="45.69209" lon="3.0048">
        <ele>975</ele>
        <time>2008-08-04T12:14:27Z</time>
      </trkpt>
      <trkpt lat="45.69217" lon="3.00474">
        <ele>975</ele>
        <time>2008-08-04T12:14:34Z</time>
      </trkpt>
      <trkpt lat="45.69226" lon="3.00468">
        <ele>975</ele>
        <time>2008-08-04T12:14:42Z</time>
      </trkpt>
      <trkpt lat="45.69234" lon="3.0046">
        <ele>974</ele>
        <time>2008-08-04T12:14:50Z</time>
      </trkpt>
      <trkpt lat="45.69243" lon="3.00451">
        <ele>974</ele>
        <time>2008-08-04T12:14:59Z</time>
      </trkpt>
      <trkpt lat="45.6925" lon="3.00441">
        <ele>973</ele>
        <time>2008-08-04T12:15:08Z</time>
      </trkpt>
      <trkpt lat="45.69257" lon="3.00431">
        <ele>972</ele>
        <time>2008-08-04T12:15:16Z</time>
      </trkpt>
      <trkpt lat="45.69264" lon="3.00422">
        <ele>972</ele>
        <time>2008-08-04T12:15:23Z</time>
      </trkpt>
      <trkpt lat="45.6927" lon="3.00412">
        <ele>971</ele>
        <time>2008-08-04T12:15:30Z</time>
      </trkpt>
      <trkpt lat="45.69277" lon="3.00403">
        <ele>971</ele>
        <time>2008-08-04T12:15:37Z</time>
      </trkpt>
      <trkpt lat="45.69284" lon="3.00393">
        <ele>970</ele>
        <time>2008-08-04T12:15:44Z</time>
      </trkpt>
      <trkpt lat="45.69291" lon="3.00383">
        <ele>969</ele>
        <time>2008-08-04T12:15:53Z</time>
      </trkpt>
      <trkpt lat="45.69297" lon="3.00373">
        <ele>968</ele>
        <time>2008-08-04T12:16:01Z</time>
      </trkpt>
      <trkpt lat="45.69304" lon="3.00363">
        <ele>967</ele>
        <time>2008-08-04T12:16:09Z</time>
      </trkpt>
      <trkpt lat="45.6931" lon="3.00354">
        <ele>965</ele>
        <time>2008-08-04T12:16:18Z</time>
      </trkpt>
      <trkpt lat="45.69315" lon="3.00342">
        <ele>963</ele>
        <time>2008-08-04T12:16:27Z</time>
      </trkpt>
      <trkpt lat="45.69319" lon="3.0033">
        <ele>961</ele>
        <time>2008-08-04T12:16:35Z</time>
      </trkpt>
      <trkpt lat="45.69326" lon="3.0032">
        <ele>959</ele>
        <time>2008-08-04T12:16:45Z</time>
      </trkpt>
      <trkpt lat="45.69329" lon="3.00308">
        <ele>958</ele>
        <time>2008-08-04T12:16:53Z</time>
      </trkpt>
      <trkpt lat="45.69333" lon="3.00295">
        <ele>956</ele>
        <time>2008-08-04T12:17:02Z</time>
      </trkpt>
      <trkpt lat="45.69336" lon="3.00282">
        <ele>954</ele>
        <time>2008-08-04T12:17:11Z</time>
      </trkpt>
      <trkpt lat="45.69337" lon="3.00267">
        <ele>952</ele>
        <time>2008-08-04T12:17:20Z</time>
      </trkpt>
      <trkpt lat="45.69339" lon="3.00254">
        <ele>950</ele>
        <time>2008-08-04T12:17:29Z</time>
      </trkpt>
      <trkpt lat="45.69341" lon="3.00239">
        <ele>949</ele>
        <time>2008-08-04T12:17:37Z</time>
      </trkpt>
      <trkpt lat="45.69343" lon="3.00227">
        <ele>948</ele>
        <time>2008-08-04T12:17:45Z</time>
      </trkpt>
      <trkpt lat="45.69347" lon="3.00213">
        <ele>946</ele>
        <time>2008-08-04T12:17:54Z</time>
      </trkpt>
      <trkpt lat="45.69351" lon="3.002">
        <ele>944</ele>
        <time>2008-08-04T12:18:02Z</time>
      </trkpt>
      <trkpt lat="45.69353" lon="3.00186">
        <ele>943</ele>
        <time>2008-08-04T12:18:11Z</time>
      </trkpt>
      <trkpt lat="45.69357" lon="3.00173">
        <ele>942</ele>
        <time>2008-08-04T12:18:19Z</time>
      </trkpt>
      <trkpt lat="45.69357" lon="3.0016">
        <ele>941</ele>
        <time>2008-08-04T12:18:26Z</time>
      </trkpt>
      <trkpt lat="45.69358" lon="3.00146">
        <ele>940</ele>
        <time>2008-08-04T12:18:33Z</time>
      </trkpt>
      <trkpt lat="45.69362" lon="3.00133">
        <ele>939</ele>
        <time>2008-08-04T12:18:41Z</time>
      </trkpt>
      <trkpt lat="45.69365" lon="3.0012">
        <ele>938</ele>
        <time>2008-08-04T12:18:49Z</time>
      </trkpt>
      <trkpt lat="45.69369" lon="3.00107">
        <ele>937</ele>
        <time>2008-08-04T12:18:58Z</time>
      </trkpt>
      <trkpt lat="45.69374" lon="3.00095">
        <ele>936</ele>
        <time>2008-08-04T12:19:06Z</time>
      </trkpt>
      <trkpt lat="45.6938" lon="3.00083">
        <ele>935</ele>
        <time>2008-08-04T12:19:13Z</time>
      </trkpt>
      <trkpt lat="45.69387" lon="3.00073">
        <ele>934</ele>
        <time>2008-08-04T12:19:21Z</time>
      </trkpt>
      <trkpt lat="45.69393" lon="3.00063">
        <ele>933</ele>
        <time>2008-08-04T12:19:28Z</time>
      </trkpt>
      <trkpt lat="45.69399" lon="3.00052">
        <ele>932</ele>
        <time>2008-08-04T12:19:36Z</time>
      </trkpt>
      <trkpt lat="45.69405" lon="3.00041">
        <ele>931</ele>
        <time>2008-08-04T12:19:43Z</time>
      </trkpt>
      <trkpt lat="45.69411" lon="3.00031">
        <ele>930</ele>
        <time>2008-08-04T12:19:53Z</time>
      </trkpt>
      <trkpt lat="45.69419" lon="3.00019">
        <ele>929</ele>
        <time>2008-08-04T12:20:01Z</time>
      </trkpt>
      <trkpt lat="45.69423" lon="3.00007">
        <ele>928</ele>
        <time>2008-08-04T12:20:08Z</time>
      </trkpt>
      <trkpt lat="45.6943" lon="2.99997">
        <ele>927</ele>
        <time>2008-08-04T12:20:14Z</time>
      </trkpt>
      <trkpt lat="45.69437" lon="2.99985">
        <ele>926</ele>
        <time>2008-08-04T12:20:21Z</time>
      </trkpt>
      <trkpt lat="45.69442" lon="2.99974">
        <ele>924</ele>
        <time>2008-08-04T12:20:28Z</time>
      </trkpt>
      <trkpt lat="45.69447" lon="2.99961">
        <ele>923</ele>
        <time>2008-08-04T12:20:35Z</time>
      </trkpt>
      <trkpt lat="45.69451" lon="2.99948">
        <ele>922</ele>
        <time>2008-08-04T12:20:43Z</time>
      </trkpt>
      <trkpt lat="45.69448" lon="2.99934">
        <ele>922</ele>
        <time>2008-08-04T12:20:50Z</time>
      </trkpt>
      <trkpt lat="45.69447" lon="2.99919">
        <ele>922</ele>
        <time>2008-08-04T12:20:57Z</time>
      </trkpt>
      <trkpt lat="45.69445" lon="2.99904">
        <ele>922</ele>
        <time>2008-08-04T12:21:05Z</time>
      </trkpt>
      <trkpt lat="45.69442" lon="2.9989">
        <ele>922</ele>
        <time>2008-08-04T12:21:13Z</time>
      </trkpt>
      <trkpt lat="45.69439" lon="2.99877">
        <ele>922</ele>
        <time>2008-08-04T12:21:19Z</time>
      </trkpt>
      <trkpt lat="45.69435" lon="2.99862">
        <ele>921</ele>
        <time>2008-08-04T12:21:25Z</time>
      </trkpt>
      <trkpt lat="45.69433" lon="2.99847">
        <ele>920</ele>
        <time>2008-08-04T12:21:31Z</time>
      </trkpt>
      <trkpt lat="45.69431" lon="2.99833">
        <ele>919</ele>
        <time>2008-08-04T12:21:38Z</time>
      </trkpt>
      <trkpt lat="45.69426" lon="2.9982">
        <ele>918</ele>
        <time>2008-08-04T12:21:45Z</time>
      </trkpt>
      <trkpt lat="45.69423" lon="2.99807">
        <ele>917</ele>
        <time>2008-08-04T12:21:52Z</time>
      </trkpt>
      <trkpt lat="45.69421" lon="2.99794">
        <ele>916</ele>
        <time>2008-08-04T12:22:00Z</time>
      </trkpt>
      <trkpt lat="45.69419" lon="2.99781">
        <ele>915</ele>
        <time>2008-08-04T12:22:08Z</time>
      </trkpt>
      <trkpt lat="45.69414" lon="2.9977">
        <ele>915</ele>
        <time>2008-08-04T12:22:18Z</time>
      </trkpt>
      <trkpt lat="45.69407" lon="2.99761">
        <ele>915</ele>
        <time>2008-08-04T12:22:26Z</time>
      </trkpt>
      <trkpt lat="45.69398" lon="2.99755">
        <ele>915</ele>
        <time>2008-08-04T12:22:35Z</time>
      </trkpt>
      <trkpt lat="45.69389" lon="2.99751">
        <ele>916</ele>
        <time>2008-08-04T12:22:43Z</time>
      </trkpt>
      <trkpt lat="45.6938" lon="2.99745">
        <ele>916</ele>
        <time>2008-08-04T12:22:51Z</time>
      </trkpt>
      <trkpt lat="45.69371" lon="2.99742">
        <ele>916</ele>
        <time>2008-08-04T12:22:58Z</time>
      </trkpt>
      <trkpt lat="45.69362" lon="2.99738">
        <ele>916</ele>
        <time>2008-08-04T12:23:05Z</time>
      </trkpt>
      <trkpt lat="45.69353" lon="2.99733">
        <ele>915</ele>
        <time>2008-08-04T12:23:12Z</time>
      </trkpt>
      <trkpt lat="45.69344" lon="2.99732">
        <ele>915</ele>
        <time>2008-08-04T12:23:20Z</time>
      </trkpt>
      <trkpt lat="45.69335" lon="2.99732">
        <ele>915</ele>
        <time>2008-08-04T12:23:27Z</time>
      </trkpt>
      <trkpt lat="45.69324" lon="2.99731">
        <ele>915</ele>
        <time>2008-08-04T12:23:33Z</time>
      </trkpt>
      <trkpt lat="45.69314" lon="2.99733">
        <ele>915</ele>
        <time>2008-08-04T12:23:40Z</time>
      </trkpt>
      <trkpt lat="45.69305" lon="2.99736">
        <ele>915</ele>
        <time>2008-08-04T12:23:47Z</time>
      </trkpt>
      <trkpt lat="45.69295" lon="2.9974">
        <ele>915</ele>
        <time>2008-08-04T12:23:54Z</time>
      </trkpt>
      <trkpt lat="45.69286" lon="2.99744">
        <ele>914</ele>
        <time>2008-08-04T12:24:00Z</time>
      </trkpt>
      <trkpt lat="45.69277" lon="2.99749">
        <ele>912</ele>
        <time>2008-08-04T12:24:07Z</time>
      </trkpt>
      <trkpt lat="45.69268" lon="2.99756">
        <ele>911</ele>
        <time>2008-08-04T12:24:14Z</time>
      </trkpt>
      <trkpt lat="45.69258" lon="2.99762">
        <ele>910</ele>
        <time>2008-08-04T12:24:21Z</time>
      </trkpt>
      <trkpt lat="45.69249" lon="2.9977">
        <ele>909</ele>
        <time>2008-08-04T12:24:28Z</time>
      </trkpt>
      <trkpt lat="45.6924" lon="2.99776">
        <ele>907</ele>
        <time>2008-08-04T12:24:35Z</time>
      </trkpt>
      <trkpt lat="45.69233" lon="2.99785">
        <ele>906</ele>
        <time>2008-08-04T12:24:42Z</time>
      </trkpt>
      <trkpt lat="45.69224" lon="2.99792">
        <ele>904</ele>
        <time>2008-08-04T12:24:49Z</time>
      </trkpt>
      <trkpt lat="45.69214" lon="2.99789">
        <ele>901</ele>
        <time>2008-08-04T12:24:58Z</time>
      </trkpt>
      <trkpt lat="45.69215" lon="2.99774">
        <ele>900</ele>
        <time>2008-08-04T12:25:07Z</time>
      </trkpt>
      <trkpt lat="45.69219" lon="2.99761">
        <ele>900</ele>
        <time>2008-08-04T12:25:15Z</time>
      </trkpt>
      <trkpt lat="45.69222" lon="2.99748">
        <ele>900</ele>
        <time>2008-08-04T12:25:22Z</time>
      </trkpt>
      <trkpt lat="45.69224" lon="2.99734">
        <ele>900</ele>
        <time>2008-08-04T12:25:29Z</time>
      </trkpt>
      <trkpt lat="45.69229" lon="2.99722">
        <ele>899</ele>
        <time>2008-08-04T12:25:36Z</time>
      </trkpt>
      <trkpt lat="45.69233" lon="2.99709">
        <ele>899</ele>
        <time>2008-08-04T12:25:43Z</time>
      </trkpt>
      <trkpt lat="45.69236" lon="2.99696">
        <ele>898</ele>
        <time>2008-08-04T12:25:50Z</time>
      </trkpt>
      <trkpt lat="45.69241" lon="2.99683">
        <ele>898</ele>
        <time>2008-08-04T12:25:58Z</time>
      </trkpt>
      <trkpt lat="45.69246" lon="2.99671">
        <ele>897</ele>
        <time>2008-08-04T12:26:06Z</time>
      </trkpt>
      <trkpt lat="45.6925" lon="2.99658">
        <ele>897</ele>
        <time>2008-08-04T12:26:14Z</time>
      </trkpt>
      <trkpt lat="45.69248" lon="2.99645">
        <ele>896</ele>
        <time>2008-08-04T12:26:27Z</time>
      </trkpt>
      <trkpt lat="45.69255" lon="2.99636">
        <ele>896</ele>
        <time>2008-08-04T12:26:43Z</time>
      </trkpt>
      <trkpt lat="45.69261" lon="2.99624">
        <ele>896</ele>
        <time>2008-08-04T12:26:52Z</time>
      </trkpt>
      <trkpt lat="45.69264" lon="2.99612">
        <ele>896</ele>
        <time>2008-08-04T12:26:59Z</time>
      </trkpt>
      <trkpt lat="45.69269" lon="2.996">
        <ele>896</ele>
        <time>2008-08-04T12:27:07Z</time>
      </trkpt>
      <trkpt lat="45.69274" lon="2.99588">
        <ele>897</ele>
        <time>2008-08-04T12:27:15Z</time>
      </trkpt>
      <trkpt lat="45.69281" lon="2.99577">
        <ele>898</ele>
        <time>2008-08-04T12:27:23Z</time>
      </trkpt>
      <trkpt lat="45.69287" lon="2.99566">
        <ele>899</ele>
        <time>2008-08-04T12:27:31Z</time>
      </trkpt>
      <trkpt lat="45.6928" lon="2.99557">
        <ele>898</ele>
        <time>2008-08-04T12:27:40Z</time>
      </trkpt>
      <trkpt lat="45.69271" lon="2.9955">
        <ele>896</ele>
        <time>2008-08-04T12:27:48Z</time>
      </trkpt>
      <trkpt lat="45.69261" lon="2.99541">
        <ele>895</ele>
        <time>2008-08-04T12:27:57Z</time>
      </trkpt>
      <trkpt lat="45.69253" lon="2.99535">
        <ele>894</ele>
        <time>2008-08-04T12:28:06Z</time>
      </trkpt>
      <trkpt lat="45.69245" lon="2.99526">
        <ele>894</ele>
        <time>2008-08-04T12:28:15Z</time>
      </trkpt>
      <trkpt lat="45.69241" lon="2.99514">
        <ele>894</ele>
        <time>2008-08-04T12:28:22Z</time>
      </trkpt>
      <trkpt lat="45.69243" lon="2.99501">
        <ele>895</ele>
        <time>2008-08-04T12:28:30Z</time>
      </trkpt>
      <trkpt lat="45.69253" lon="2.99495">
        <ele>897</ele>
        <time>2008-08-04T12:28:44Z</time>
      </trkpt>
      <trkpt lat="45.69262" lon="2.99493">
        <ele>898</ele>
        <time>2008-08-04T12:28:52Z</time>
      </trkpt>
      <trkpt lat="45.69272" lon="2.99494">
        <ele>899</ele>
        <time>2008-08-04T12:29:02Z</time>
      </trkpt>
      <trkpt lat="45.69282" lon="2.99499">
        <ele>900</ele>
        <time>2008-08-04T12:29:12Z</time>
      </trkpt>
      <trkpt lat="45.6929" lon="2.99506">
        <ele>901</ele>
        <time>2008-08-04T12:29:20Z</time>
      </trkpt>
      <trkpt lat="45.69297" lon="2.99516">
        <ele>901</ele>
        <time>2008-08-04T12:29:28Z</time>
      </trkpt>
      <trkpt lat="45.69304" lon="2.99525">
        <ele>901</ele>
        <time>2008-08-04T12:29:38Z</time>
      </trkpt>
      <trkpt lat="45.69312" lon="2.99521">
        <ele>902</ele>
        <time>2008-08-04T12:29:52Z</time>
      </trkpt>
      <trkpt lat="45.69323" lon="2.99513">
        <ele>903</ele>
        <time>2008-08-04T12:29:59Z</time>
      </trkpt>
      <trkpt lat="45.69328" lon="2.99495">
        <ele>904</ele>
        <time>2008-08-04T12:30:02Z</time>
      </trkpt>
      <trkpt lat="45.69338" lon="2.99484">
        <ele>906</ele>
        <time>2008-08-04T12:30:05Z</time>
      </trkpt>
      <trkpt lat="45.69339" lon="2.99462">
        <ele>908</ele>
        <time>2008-08-04T12:30:08Z</time>
      </trkpt>
      <trkpt lat="45.69345" lon="2.99474">
        <ele>907</ele>
        <time>2008-08-04T12:30:15Z</time>
      </trkpt>
      <trkpt lat="45.6934" lon="2.99486">
        <ele>906</ele>
        <time>2008-08-04T12:30:23Z</time>
      </trkpt>
      <trkpt lat="45.69339" lon="2.99499">
        <ele>905</ele>
        <time>2008-08-04T12:30:49Z</time>
      </trkpt>
      <trkpt lat="45.69347" lon="2.99507">
        <ele>905</ele>
        <time>2008-08-04T12:30:57Z</time>
      </trkpt>
      <trkpt lat="45.69354" lon="2.99516">
        <ele>905</ele>
        <time>2008-08-04T12:31:05Z</time>
      </trkpt>
      <trkpt lat="45.69361" lon="2.99525">
        <ele>905</ele>
        <time>2008-08-04T12:31:14Z</time>
      </trkpt>
      <trkpt lat="45.69367" lon="2.99537">
        <ele>905</ele>
        <time>2008-08-04T12:31:22Z</time>
      </trkpt>
      <trkpt lat="45.69371" lon="2.99549">
        <ele>905</ele>
        <time>2008-08-04T12:31:29Z</time>
      </trkpt>
      <trkpt lat="45.69375" lon="2.99562">
        <ele>906</ele>
        <time>2008-08-04T12:31:37Z</time>
      </trkpt>
      <trkpt lat="45.6938" lon="2.99574">
        <ele>906</ele>
        <time>2008-08-04T12:31:45Z</time>
      </trkpt>
      <trkpt lat="45.69386" lon="2.99585">
        <ele>907</ele>
        <time>2008-08-04T12:31:53Z</time>
      </trkpt>
      <trkpt lat="45.69392" lon="2.99596">
        <ele>907</ele>
        <time>2008-08-04T12:32:03Z</time>
      </trkpt>
      <trkpt lat="45.69399" lon="2.99605">
        <ele>908</ele>
        <time>2008-08-04T12:32:10Z</time>
      </trkpt>
      <trkpt lat="45.69407" lon="2.99596">
        <ele>907</ele>
        <time>2008-08-04T12:32:37Z</time>
      </trkpt>
      <trkpt lat="45.69407" lon="2.99582">
        <ele>907</ele>
        <time>2008-08-04T12:32:49Z</time>
      </trkpt>
      <trkpt lat="45.69408" lon="2.99567">
        <ele>906</ele>
        <time>2008-08-04T12:32:57Z</time>
      </trkpt>
      <trkpt lat="45.69409" lon="2.99553">
        <ele>906</ele>
        <time>2008-08-04T12:33:06Z</time>
      </trkpt>
      <trkpt lat="45.69409" lon="2.9954">
        <ele>905</ele>
        <time>2008-08-04T12:33:15Z</time>
      </trkpt>
      <trkpt lat="45.69408" lon="2.99526">
        <ele>905</ele>
        <time>2008-08-04T12:33:23Z</time>
      </trkpt>
      <trkpt lat="45.69411" lon="2.99514">
        <ele>905</ele>
        <time>2008-08-04T12:33:32Z</time>
      </trkpt>
      <trkpt lat="45.69413" lon="2.99498">
        <ele>905</ele>
        <time>2008-08-04T12:33:38Z</time>
      </trkpt>
      <trkpt lat="45.69411" lon="2.99483">
        <ele>905</ele>
        <time>2008-08-04T12:33:43Z</time>
      </trkpt>
      <trkpt lat="45.69415" lon="2.99466">
        <ele>905</ele>
        <time>2008-08-04T12:33:48Z</time>
      </trkpt>
      <trkpt lat="45.69419" lon="2.99453">
        <ele>905</ele>
        <time>2008-08-04T12:33:51Z</time>
      </trkpt>
      <trkpt lat="45.69423" lon="2.99436">
        <ele>905</ele>
        <time>2008-08-04T12:33:55Z</time>
      </trkpt>
      <trkpt lat="45.69431" lon="2.99425">
        <ele>904</ele>
        <time>2008-08-04T12:34:00Z</time>
      </trkpt>
      <trkpt lat="45.69442" lon="2.99418">
        <ele>903</ele>
        <time>2008-08-04T12:34:05Z</time>
      </trkpt>
      <trkpt lat="45.69451" lon="2.99413">
        <ele>902</ele>
        <time>2008-08-04T12:34:08Z</time>
      </trkpt>
      <trkpt lat="45.6946" lon="2.99409">
        <ele>902</ele>
        <time>2008-08-04T12:34:11Z</time>
      </trkpt>
      <trkpt lat="45.69469" lon="2.994">
        <ele>902</ele>
        <time>2008-08-04T12:34:15Z</time>
      </trkpt>
      <trkpt lat="45.69476" lon="2.99391">
        <ele>902</ele>
        <time>2008-08-04T12:34:19Z</time>
      </trkpt>
      <trkpt lat="45.69482" lon="2.99379">
        <ele>903</ele>
        <time>2008-08-04T12:34:23Z</time>
      </trkpt>
      <trkpt lat="45.6949" lon="2.99367">
        <ele>904</ele>
        <time>2008-08-04T12:34:26Z</time>
      </trkpt>
      <trkpt lat="45.69495" lon="2.99356">
        <ele>905</ele>
        <time>2008-08-04T12:34:30Z</time>
      </trkpt>
      <trkpt lat="45.69501" lon="2.99342">
        <ele>906</ele>
        <time>2008-08-04T12:34:34Z</time>
      </trkpt>
      <trkpt lat="45.69508" lon="2.99329">
        <ele>906</ele>
        <time>2008-08-04T12:34:38Z</time>
      </trkpt>
      <trkpt lat="45.69514" lon="2.99318">
        <ele>906</ele>
        <time>2008-08-04T12:34:43Z</time>
      </trkpt>
      <trkpt lat="45.69517" lon="2.99304">
        <ele>907</ele>
        <time>2008-08-04T12:34:47Z</time>
      </trkpt>
      <trkpt lat="45.69519" lon="2.99289">
        <ele>909</ele>
        <time>2008-08-04T12:34:51Z</time>
      </trkpt>
      <trkpt lat="45.69521" lon="2.99276">
        <ele>910</ele>
        <time>2008-08-04T12:34:58Z</time>
      </trkpt>
      <trkpt lat="45.69522" lon="2.99262">
        <ele>911</ele>
        <time>2008-08-04T12:35:05Z</time>
      </trkpt>
      <trkpt lat="45.69525" lon="2.99249">
        <ele>912</ele>
        <time>2008-08-04T12:35:11Z</time>
      </trkpt>
      <trkpt lat="45.69527" lon="2.99235">
        <ele>913</ele>
        <time>2008-08-04T12:35:17Z</time>
      </trkpt>
      <trkpt lat="45.6953" lon="2.99222">
        <ele>914</ele>
        <time>2008-08-04T12:35:25Z</time>
      </trkpt>
      <trkpt lat="45.69535" lon="2.99208">
        <ele>915</ele>
        <time>2008-08-04T12:35:33Z</time>
      </trkpt>
      <trkpt lat="45.69539" lon="2.99197">
        <ele>915</ele>
        <time>2008-08-04T12:35:41Z</time>
      </trkpt>
      <trkpt lat="45.69544" lon="2.99182">
        <ele>915</ele>
        <time>2008-08-04T12:35:47Z</time>
      </trkpt>
      <trkpt lat="45.6955" lon="2.9917">
        <ele>915</ele>
        <time>2008-08-04T12:35:53Z</time>
      </trkpt>
      <trkpt lat="45.69555" lon="2.99156">
        <ele>915</ele>
        <time>2008-08-04T12:35:59Z</time>
      </trkpt>
      <trkpt lat="45.69562" lon="2.99144">
        <ele>915</ele>
        <time>2008-08-04T12:36:03Z</time>
      </trkpt>
      <trkpt lat="45.69562" lon="2.99128">
        <ele>917</ele>
        <time>2008-08-04T12:36:07Z</time>
      </trkpt>
      <trkpt lat="45.69561" lon="2.99115">
        <ele>919</ele>
        <time>2008-08-04T12:36:12Z</time>
      </trkpt>
      <trkpt lat="45.69559" lon="2.99101">
        <ele>921</ele>
        <time>2008-08-04T12:36:20Z</time>
      </trkpt>
      <trkpt lat="45.69556" lon="2.99089">
        <ele>922</ele>
        <time>2008-08-04T12:36:27Z</time>
      </trkpt>
      <trkpt lat="45.69554" lon="2.99076">
        <ele>922</ele>
        <time>2008-08-04T12:36:33Z</time>
      </trkpt>
      <trkpt lat="45.69549" lon="2.99062">
        <ele>923</ele>
        <time>2008-08-04T12:36:40Z</time>
      </trkpt>
      <trkpt lat="45.69547" lon="2.99047">
        <ele>923</ele>
        <time>2008-08-04T12:36:48Z</time>
      </trkpt>
      <trkpt lat="45.69544" lon="2.99035">
        <ele>924</ele>
        <time>2008-08-04T12:36:56Z</time>
      </trkpt>
      <trkpt lat="45.69541" lon="2.99021">
        <ele>924</ele>
        <time>2008-08-04T12:37:06Z</time>
      </trkpt>
      <trkpt lat="45.69535" lon="2.99011">
        <ele>925</ele>
        <time>2008-08-04T12:37:15Z</time>
      </trkpt>
      <trkpt lat="45.6953" lon="2.98997">
        <ele>925</ele>
        <time>2008-08-04T12:37:21Z</time>
      </trkpt>
      <trkpt lat="45.69527" lon="2.98985">
        <ele>925</ele>
        <time>2008-08-04T12:37:25Z</time>
      </trkpt>
      <trkpt lat="45.69525" lon="2.9897">
        <ele>925</ele>
        <time>2008-08-04T12:37:31Z</time>
      </trkpt>
      <trkpt lat="45.69522" lon="2.98957">
        <ele>926</ele>
        <time>2008-08-04T12:37:42Z</time>
      </trkpt>
      <trkpt lat="45.69523" lon="2.98943">
        <ele>927</ele>
        <time>2008-08-04T12:37:59Z</time>
      </trkpt>
      <trkpt lat="45.6953" lon="2.98932">
        <ele>926</ele>
        <time>2008-08-04T12:38:08Z</time>
      </trkpt>
      <trkpt lat="45.69533" lon="2.98919">
        <ele>926</ele>
        <time>2008-08-04T12:38:17Z</time>
      </trkpt>
      <trkpt lat="45.69538" lon="2.98906">
        <ele>925</ele>
        <time>2008-08-04T12:38:24Z</time>
      </trkpt>
      <trkpt lat="45.69545" lon="2.98894">
        <ele>924</ele>
        <time>2008-08-04T12:38:33Z</time>
      </trkpt>
      <trkpt lat="45.6955" lon="2.98881">
        <ele>924</ele>
        <time>2008-08-04T12:38:41Z</time>
      </trkpt>
      <trkpt lat="45.69555" lon="2.9887">
        <ele>924</ele>
        <time>2008-08-04T12:38:49Z</time>
      </trkpt>
      <trkpt lat="45.69561" lon="2.98858">
        <ele>925</ele>
        <time>2008-08-04T12:38:56Z</time>
      </trkpt>
      <trkpt lat="45.69564" lon="2.98844">
        <ele>926</ele>
        <time>2008-08-04T12:39:04Z</time>
      </trkpt>
      <trkpt lat="45.69567" lon="2.98832">
        <ele>927</ele>
        <time>2008-08-04T12:39:12Z</time>
      </trkpt>
      <trkpt lat="45.69568" lon="2.98817">
        <ele>927</ele>
        <time>2008-08-04T12:39:20Z</time>
      </trkpt>
      <trkpt lat="45.6957" lon="2.98804">
        <ele>927</ele>
        <time>2008-08-04T12:39:26Z</time>
      </trkpt>
      <trkpt lat="45.69573" lon="2.9879">
        <ele>928</ele>
        <time>2008-08-04T12:39:33Z</time>
      </trkpt>
      <trkpt lat="45.69575" lon="2.98776">
        <ele>928</ele>
        <time>2008-08-04T12:39:42Z</time>
      </trkpt>
      <trkpt lat="45.69581" lon="2.98763">
        <ele>927</ele>
        <time>2008-08-04T12:39:52Z</time>
      </trkpt>
      <trkpt lat="45.69584" lon="2.9875">
        <ele>927</ele>
        <time>2008-08-04T12:39:58Z</time>
      </trkpt>
      <trkpt lat="45.69588" lon="2.98737">
        <ele>927</ele>
        <time>2008-08-04T12:40:08Z</time>
      </trkpt>
      <trkpt lat="45.69593" lon="2.98726">
        <ele>927</ele>
        <time>2008-08-04T12:40:14Z</time>
      </trkpt>
      <trkpt lat="45.69596" lon="2.98713">
        <ele>927</ele>
        <time>2008-08-04T12:40:20Z</time>
      </trkpt>
      <trkpt lat="45.69601" lon="2.98701">
        <ele>927</ele>
        <time>2008-08-04T12:40:29Z</time>
      </trkpt>
      <trkpt lat="45.69603" lon="2.98688">
        <ele>927</ele>
        <time>2008-08-04T12:40:36Z</time>
      </trkpt>
      <trkpt lat="45.69608" lon="2.98676">
        <ele>928</ele>
        <time>2008-08-04T12:40:42Z</time>
      </trkpt>
      <trkpt lat="45.6961" lon="2.98664">
        <ele>928</ele>
        <time>2008-08-04T12:40:48Z</time>
      </trkpt>
      <trkpt lat="45.6961" lon="2.98649">
        <ele>928</ele>
        <time>2008-08-04T12:40:56Z</time>
      </trkpt>
      <trkpt lat="45.69613" lon="2.98636">
        <ele>928</ele>
        <time>2008-08-04T12:41:04Z</time>
      </trkpt>
      <trkpt lat="45.69616" lon="2.98623">
        <ele>929</ele>
        <time>2008-08-04T12:41:11Z</time>
      </trkpt>
      <trkpt lat="45.69618" lon="2.9861">
        <ele>929</ele>
        <time>2008-08-04T12:41:20Z</time>
      </trkpt>
      <trkpt lat="45.69621" lon="2.98597">
        <ele>930</ele>
        <time>2008-08-04T12:41:28Z</time>
      </trkpt>
      <trkpt lat="45.69623" lon="2.98584">
        <ele>931</ele>
        <time>2008-08-04T12:41:36Z</time>
      </trkpt>
      <trkpt lat="45.69628" lon="2.98571">
        <ele>932</ele>
        <time>2008-08-04T12:41:44Z</time>
      </trkpt>
      <trkpt lat="45.6963" lon="2.98557">
        <ele>934</ele>
        <time>2008-08-04T12:41:52Z</time>
      </trkpt>
      <trkpt lat="45.69635" lon="2.98545">
        <ele>935</ele>
        <time>2008-08-04T12:42:01Z</time>
      </trkpt>
      <trkpt lat="45.69639" lon="2.98533">
        <ele>937</ele>
        <time>2008-08-04T12:42:10Z</time>
      </trkpt>
      <trkpt lat="45.69643" lon="2.98521">
        <ele>938</ele>
        <time>2008-08-04T12:42:16Z</time>
      </trkpt>
      <trkpt lat="45.69642" lon="2.98508">
        <ele>939</ele>
        <time>2008-08-04T12:42:23Z</time>
      </trkpt>
      <trkpt lat="45.69647" lon="2.98493">
        <ele>940</ele>
        <time>2008-08-04T12:42:30Z</time>
      </trkpt>
      <trkpt lat="45.6964" lon="2.98482">
        <ele>939</ele>
        <time>2008-08-04T12:42:36Z</time>
      </trkpt>
      <trkpt lat="45.69641" lon="2.98469">
        <ele>940</ele>
        <time>2008-08-04T12:42:47Z</time>
      </trkpt>
      <trkpt lat="45.69644" lon="2.98455">
        <ele>941</ele>
        <time>2008-08-04T12:42:56Z</time>
      </trkpt>
      <trkpt lat="45.69648" lon="2.98442">
        <ele>941</ele>
        <time>2008-08-04T12:43:05Z</time>
      </trkpt>
      <trkpt lat="45.69646" lon="2.98428">
        <ele>942</ele>
        <time>2008-08-04T12:43:12Z</time>
      </trkpt>
      <trkpt lat="45.69649" lon="2.98416">
        <ele>942</ele>
        <time>2008-08-04T12:43:20Z</time>
      </trkpt>
      <trkpt lat="45.69653" lon="2.98403">
        <ele>943</ele>
        <time>2008-08-04T12:43:26Z</time>
      </trkpt>
      <trkpt lat="45.69657" lon="2.98392">
        <ele>944</ele>
        <time>2008-08-04T12:43:34Z</time>
      </trkpt>
      <trkpt lat="45.69659" lon="2.98378">
        <ele>944</ele>
        <time>2008-08-04T12:43:41Z</time>
      </trkpt>
      <trkpt lat="45.69665" lon="2.98366">
        <ele>945</ele>
        <time>2008-08-04T12:43:51Z</time>
      </trkpt>
      <trkpt lat="45.6967" lon="2.98353">
        <ele>946</ele>
        <time>2008-08-04T12:43:58Z</time>
      </trkpt>
      <trkpt lat="45.69669" lon="2.9834">
        <ele>947</ele>
        <time>2008-08-04T12:44:08Z</time>
      </trkpt>
      <trkpt lat="45.69669" lon="2.98325">
        <ele>947</ele>
        <time>2008-08-04T12:44:16Z</time>
      </trkpt>
      <trkpt lat="45.69673" lon="2.98313">
        <ele>948</ele>
        <time>2008-08-04T12:44:22Z</time>
      </trkpt>
      <trkpt lat="45.69679" lon="2.98301">
        <ele>949</ele>
        <time>2008-08-04T12:44:27Z</time>
      </trkpt>
      <trkpt lat="45.69684" lon="2.98289">
        <ele>949</ele>
        <time>2008-08-04T12:44:35Z</time>
      </trkpt>
      <trkpt lat="45.69683" lon="2.98275">
        <ele>950</ele>
        <time>2008-08-04T12:44:43Z</time>
      </trkpt>
      <trkpt lat="45.69683" lon="2.9826">
        <ele>950</ele>
        <time>2008-08-04T12:44:51Z</time>
      </trkpt>
      <trkpt lat="45.69687" lon="2.98249">
        <ele>950</ele>
        <time>2008-08-04T12:44:59Z</time>
      </trkpt>
      <trkpt lat="45.69694" lon="2.98238">
        <ele>950</ele>
        <time>2008-08-04T12:45:07Z</time>
      </trkpt>
      <trkpt lat="45.69696" lon="2.98224">
        <ele>950</ele>
        <time>2008-08-04T12:45:12Z</time>
      </trkpt>
      <trkpt lat="45.69695" lon="2.98209">
        <ele>950</ele>
        <time>2008-08-04T12:45:18Z</time>
      </trkpt>
      <trkpt lat="45.69694" lon="2.98194">
        <ele>949</ele>
        <time>2008-08-04T12:45:26Z</time>
      </trkpt>
      <trkpt lat="45.69699" lon="2.98182">
        <ele>949</ele>
        <time>2008-08-04T12:45:33Z</time>
      </trkpt>
      <trkpt lat="45.697" lon="2.98169">
        <ele>949</ele>
        <time>2008-08-04T12:45:42Z</time>
      </trkpt>
      <trkpt lat="45.69701" lon="2.98154">
        <ele>948</ele>
        <time>2008-08-04T12:45:50Z</time>
      </trkpt>
      <trkpt lat="45.697" lon="2.98141">
        <ele>948</ele>
        <time>2008-08-04T12:45:56Z</time>
      </trkpt>
      <trkpt lat="45.69701" lon="2.98127">
        <ele>948</ele>
        <time>2008-08-04T12:46:03Z</time>
      </trkpt>
      <trkpt lat="45.69703" lon="2.98113">
        <ele>947</ele>
        <time>2008-08-04T12:46:10Z</time>
      </trkpt>
      <trkpt lat="45.69705" lon="2.98099">
        <ele>946</ele>
        <time>2008-08-04T12:46:20Z</time>
      </trkpt>
      <trkpt lat="45.69707" lon="2.98084">
        <ele>946</ele>
        <time>2008-08-04T12:46:29Z</time>
      </trkpt>
      <trkpt lat="45.69711" lon="2.98071">
        <ele>945</ele>
        <time>2008-08-04T12:46:38Z</time>
      </trkpt>
      <trkpt lat="45.69715" lon="2.98057">
        <ele>944</ele>
        <time>2008-08-04T12:46:47Z</time>
      </trkpt>
      <trkpt lat="45.69719" lon="2.98041">
        <ele>943</ele>
        <time>2008-08-04T12:46:52Z</time>
      </trkpt>
      <trkpt lat="45.69723" lon="2.98029">
        <ele>943</ele>
        <time>2008-08-04T12:46:57Z</time>
      </trkpt>
      <trkpt lat="45.69725" lon="2.98016">
        <ele>942</ele>
        <time>2008-08-04T12:47:01Z</time>
      </trkpt>
      <trkpt lat="45.69726" lon="2.98002">
        <ele>942</ele>
        <time>2008-08-04T12:47:04Z</time>
      </trkpt>
      <trkpt lat="45.6973" lon="2.97987">
        <ele>942</ele>
        <time>2008-08-04T12:47:08Z</time>
      </trkpt>
      <trkpt lat="45.69732" lon="2.97971">
        <ele>942</ele>
        <time>2008-08-04T12:47:12Z</time>
      </trkpt>
      <trkpt lat="45.69731" lon="2.97957">
        <ele>942</ele>
        <time>2008-08-04T12:47:15Z</time>
      </trkpt>
      <trkpt lat="45.69732" lon="2.97942">
        <ele>943</ele>
        <time>2008-08-04T12:47:19Z</time>
      </trkpt>
      <trkpt lat="45.69739" lon="2.9793">
        <ele>943</ele>
        <time>2008-08-04T12:47:23Z</time>
      </trkpt>
      <trkpt lat="45.69745" lon="2.97916">
        <ele>944</ele>
        <time>2008-08-04T12:47:27Z</time>
      </trkpt>
      <trkpt lat="45.6975" lon="2.97902">
        <ele>945</ele>
        <time>2008-08-04T12:47:31Z</time>
      </trkpt>
      <trkpt lat="45.69755" lon="2.97889">
        <ele>945</ele>
        <time>2008-08-04T12:47:35Z</time>
      </trkpt>
      <trkpt lat="45.69761" lon="2.97878">
        <ele>946</ele>
        <time>2008-08-04T12:47:40Z</time>
      </trkpt>
      <trkpt lat="45.69764" lon="2.97865">
        <ele>947</ele>
        <time>2008-08-04T12:47:46Z</time>
      </trkpt>
      <trkpt lat="45.6977" lon="2.97853">
        <ele>947</ele>
        <time>2008-08-04T12:47:53Z</time>
      </trkpt>
      <trkpt lat="45.69773" lon="2.97839">
        <ele>948</ele>
        <time>2008-08-04T12:48:02Z</time>
      </trkpt>
      <trkpt lat="45.69778" lon="2.97827">
        <ele>948</ele>
        <time>2008-08-04T12:48:10Z</time>
      </trkpt>
      <trkpt lat="45.69783" lon="2.97816">
        <ele>949</ele>
        <time>2008-08-04T12:48:20Z</time>
      </trkpt>
      <trkpt lat="45.69791" lon="2.97806">
        <ele>949</ele>
        <time>2008-08-04T12:48:27Z</time>
      </trkpt>
      <trkpt lat="45.69797" lon="2.97795">
        <ele>950</ele>
        <time>2008-08-04T12:48:36Z</time>
      </trkpt>
      <trkpt lat="45.69802" lon="2.97783">
        <ele>950</ele>
        <time>2008-08-04T12:48:42Z</time>
      </trkpt>
      <trkpt lat="45.69804" lon="2.9777">
        <ele>950</ele>
        <time>2008-08-04T12:48:49Z</time>
      </trkpt>
      <trkpt lat="45.69808" lon="2.97757">
        <ele>951</ele>
        <time>2008-08-04T12:48:55Z</time>
      </trkpt>
      <trkpt lat="45.69809" lon="2.97744">
        <ele>951</ele>
        <time>2008-08-04T12:49:04Z</time>
      </trkpt>
      <trkpt lat="45.69815" lon="2.97733">
        <ele>952</ele>
        <time>2008-08-04T12:49:13Z</time>
      </trkpt>
      <trkpt lat="45.69819" lon="2.9772">
        <ele>952</ele>
        <time>2008-08-04T12:49:21Z</time>
      </trkpt>
      <trkpt lat="45.69822" lon="2.97707">
        <ele>953</ele>
        <time>2008-08-04T12:49:29Z</time>
      </trkpt>
      <trkpt lat="45.69824" lon="2.97692">
        <ele>953</ele>
        <time>2008-08-04T12:49:37Z</time>
      </trkpt>
      <trkpt lat="45.69826" lon="2.97677">
        <ele>954</ele>
        <time>2008-08-04T12:49:43Z</time>
      </trkpt>
      <trkpt lat="45.69827" lon="2.97662">
        <ele>954</ele>
        <time>2008-08-04T12:49:54Z</time>
      </trkpt>
      <trkpt lat="45.69832" lon="2.97651">
        <ele>954</ele>
        <time>2008-08-04T12:50:00Z</time>
      </trkpt>
      <trkpt lat="45.69835" lon="2.97634">
        <ele>955</ele>
        <time>2008-08-04T12:50:10Z</time>
      </trkpt>
      <trkpt lat="45.69837" lon="2.97621">
        <ele>955</ele>
        <time>2008-08-04T12:50:16Z</time>
      </trkpt>
      <trkpt lat="45.69843" lon="2.97609">
        <ele>955</ele>
        <time>2008-08-04T12:50:26Z</time>
      </trkpt>
      <trkpt lat="45.69844" lon="2.97594">
        <ele>956</ele>
        <time>2008-08-04T12:50:36Z</time>
      </trkpt>
      <trkpt lat="45.69848" lon="2.97581">
        <ele>956</ele>
        <time>2008-08-04T12:50:41Z</time>
      </trkpt>
      <trkpt lat="45.69853" lon="2.97569">
        <ele>956</ele>
        <time>2008-08-04T12:50:48Z</time>
      </trkpt>
      <trkpt lat="45.69858" lon="2.97555">
        <ele>956</ele>
        <time>2008-08-04T12:50:56Z</time>
      </trkpt>
      <trkpt lat="45.69861" lon="2.97543">
        <ele>956</ele>
        <time>2008-08-04T12:51:02Z</time>
      </trkpt>
      <trkpt lat="45.69866" lon="2.97531">
        <ele>957</ele>
        <time>2008-08-04T12:51:08Z</time>
      </trkpt>
      <trkpt lat="45.69871" lon="2.97518">
        <ele>957</ele>
        <time>2008-08-04T12:51:14Z</time>
      </trkpt>
      <trkpt lat="45.69873" lon="2.97504">
        <ele>957</ele>
        <time>2008-08-04T12:51:21Z</time>
      </trkpt>
      <trkpt lat="45.69878" lon="2.97491">
        <ele>958</ele>
        <time>2008-08-04T12:51:29Z</time>
      </trkpt>
      <trkpt lat="45.6988" lon="2.97477">
        <ele>960</ele>
        <time>2008-08-04T12:51:38Z</time>
      </trkpt>
      <trkpt lat="45.69884" lon="2.97465">
        <ele>961</ele>
        <time>2008-08-04T12:51:46Z</time>
      </trkpt>
      <trkpt lat="45.6989" lon="2.97454">
        <ele>962</ele>
        <time>2008-08-04T12:51:54Z</time>
      </trkpt>
      <trkpt lat="45.69895" lon="2.97443">
        <ele>963</ele>
        <time>2008-08-04T12:52:02Z</time>
      </trkpt>
      <trkpt lat="45.69902" lon="2.97434">
        <ele>964</ele>
        <time>2008-08-04T12:52:12Z</time>
      </trkpt>
      <trkpt lat="45.69905" lon="2.97421">
        <ele>965</ele>
        <time>2008-08-04T12:52:21Z</time>
      </trkpt>
      <trkpt lat="45.69913" lon="2.97412">
        <ele>966</ele>
        <time>2008-08-04T12:52:33Z</time>
      </trkpt>
      <trkpt lat="45.69921" lon="2.97403">
        <ele>966</ele>
        <time>2008-08-04T12:52:44Z</time>
      </trkpt>
      <trkpt lat="45.69924" lon="2.97389">
        <ele>968</ele>
        <time>2008-08-04T12:52:55Z</time>
      </trkpt>
      <trkpt lat="45.69931" lon="2.97377">
        <ele>969</ele>
        <time>2008-08-04T12:53:04Z</time>
      </trkpt>
      <trkpt lat="45.69937" lon="2.97362">
        <ele>970</ele>
        <time>2008-08-04T12:53:12Z</time>
      </trkpt>
      <trkpt lat="45.69939" lon="2.97346">
        <ele>970</ele>
        <time>2008-08-04T12:53:18Z</time>
      </trkpt>
      <trkpt lat="45.69942" lon="2.97333">
        <ele>971</ele>
        <time>2008-08-04T12:53:39Z</time>
      </trkpt>
      <trkpt lat="45.69945" lon="2.97319">
        <ele>971</ele>
        <time>2008-08-04T12:53:51Z</time>
      </trkpt>
      <trkpt lat="45.69948" lon="2.97306">
        <ele>972</ele>
        <time>2008-08-04T12:53:58Z</time>
      </trkpt>
      <trkpt lat="45.69952" lon="2.97292">
        <ele>972</ele>
        <time>2008-08-04T12:54:03Z</time>
      </trkpt>
      <trkpt lat="45.69955" lon="2.9728">
        <ele>972</ele>
        <time>2008-08-04T12:54:09Z</time>
      </trkpt>
      <trkpt lat="45.69958" lon="2.97265">
        <ele>973</ele>
        <time>2008-08-04T12:54:15Z</time>
      </trkpt>
      <trkpt lat="45.69963" lon="2.97253">
        <ele>973</ele>
        <time>2008-08-04T12:54:20Z</time>
      </trkpt>
      <trkpt lat="45.69966" lon="2.9724">
        <ele>973</ele>
        <time>2008-08-04T12:54:25Z</time>
      </trkpt>
      <trkpt lat="45.69969" lon="2.97227">
        <ele>974</ele>
        <time>2008-08-04T12:54:29Z</time>
      </trkpt>
      <trkpt lat="45.69976" lon="2.97215">
        <ele>974</ele>
        <time>2008-08-04T12:54:33Z</time>
      </trkpt>
      <trkpt lat="45.69982" lon="2.972">
        <ele>974</ele>
        <time>2008-08-04T12:54:38Z</time>
      </trkpt>
      <trkpt lat="45.69985" lon="2.97187">
        <ele>975</ele>
        <time>2008-08-04T12:54:41Z</time>
      </trkpt>
      <trkpt lat="45.69987" lon="2.97174">
        <ele>975</ele>
        <time>2008-08-04T12:54:47Z</time>
      </trkpt>
      <trkpt lat="45.6999" lon="2.97161">
        <ele>976</ele>
        <time>2008-08-04T12:54:54Z</time>
      </trkpt>
      <trkpt lat="45.69995" lon="2.97149">
        <ele>976</ele>
        <time>2008-08-04T12:55:02Z</time>
      </trkpt>
      <trkpt lat="45.69999" lon="2.97137">
        <ele>976</ele>
        <time>2008-08-04T12:55:10Z</time>
      </trkpt>
      <trkpt lat="45.70001" lon="2.97123">
        <ele>977</ele>
        <time>2008-08-04T12:55:18Z</time>
      </trkpt>
      <trkpt lat="45.70006" lon="2.9711">
        <ele>977</ele>
        <time>2008-08-04T12:55:29Z</time>
      </trkpt>
      <trkpt lat="45.70009" lon="2.97095">
        <ele>977</ele>
        <time>2008-08-04T12:55:39Z</time>
      </trkpt>
      <trkpt lat="45.70016" lon="2.97085">
        <ele>977</ele>
        <time>2008-08-04T12:55:47Z</time>
      </trkpt>
      <trkpt lat="45.70022" lon="2.97076">
        <ele>977</ele>
        <time>2008-08-04T12:55:55Z</time>
      </trkpt>
      <trkpt lat="45.70028" lon="2.97063">
        <ele>977</ele>
        <time>2008-08-04T12:56:00Z</time>
      </trkpt>
      <trkpt lat="45.70033" lon="2.97051">
        <ele>977</ele>
        <time>2008-08-04T12:56:04Z</time>
      </trkpt>
      <trkpt lat="45.7004" lon="2.97042">
        <ele>977</ele>
        <time>2008-08-04T12:56:10Z</time>
      </trkpt>
      <trkpt lat="45.70046" lon="2.97032">
        <ele>977</ele>
        <time>2008-08-04T12:56:14Z</time>
      </trkpt>
      <trkpt lat="45.70052" lon="2.97018">
        <ele>978</ele>
        <time>2008-08-04T12:56:19Z</time>
      </trkpt>
      <trkpt lat="45.70057" lon="2.97006">
        <ele>978</ele>
        <time>2008-08-04T12:56:23Z</time>
      </trkpt>
      <trkpt lat="45.70063" lon="2.96992">
        <ele>978</ele>
        <time>2008-08-04T12:56:27Z</time>
      </trkpt>
      <trkpt lat="45.70069" lon="2.96979">
        <ele>978</ele>
        <time>2008-08-04T12:56:31Z</time>
      </trkpt>
      <trkpt lat="45.70073" lon="2.96966">
        <ele>978</ele>
        <time>2008-08-04T12:56:36Z</time>
      </trkpt>
      <trkpt lat="45.70077" lon="2.96954">
        <ele>978</ele>
        <time>2008-08-04T12:56:40Z</time>
      </trkpt>
      <trkpt lat="45.70082" lon="2.96937">
        <ele>979</ele>
        <time>2008-08-04T12:56:44Z</time>
      </trkpt>
      <trkpt lat="45.70085" lon="2.96925">
        <ele>979</ele>
        <time>2008-08-04T12:56:48Z</time>
      </trkpt>
      <trkpt lat="45.70087" lon="2.96912">
        <ele>979</ele>
        <time>2008-08-04T12:56:55Z</time>
      </trkpt>
      <trkpt lat="45.70091" lon="2.96897">
        <ele>979</ele>
        <time>2008-08-04T12:57:03Z</time>
      </trkpt>
      <trkpt lat="45.70097" lon="2.96883">
        <ele>979</ele>
        <time>2008-08-04T12:57:10Z</time>
      </trkpt>
      <trkpt lat="45.70101" lon="2.96872">
        <ele>979</ele>
        <time>2008-08-04T12:57:17Z</time>
      </trkpt>
      <trkpt lat="45.70107" lon="2.96859">
        <ele>980</ele>
        <time>2008-08-04T12:57:25Z</time>
      </trkpt>
      <trkpt lat="45.70113" lon="2.96848">
        <ele>980</ele>
        <time>2008-08-04T12:57:32Z</time>
      </trkpt>
      <trkpt lat="45.70117" lon="2.96837">
        <ele>979</ele>
        <time>2008-08-04T12:57:39Z</time>
      </trkpt>
      <trkpt lat="45.70121" lon="2.96825">
        <ele>979</ele>
        <time>2008-08-04T12:57:46Z</time>
      </trkpt>
      <trkpt lat="45.70128" lon="2.96815">
        <ele>979</ele>
        <time>2008-08-04T12:57:55Z</time>
      </trkpt>
      <trkpt lat="45.7013" lon="2.96802">
        <ele>979</ele>
        <time>2008-08-04T12:58:01Z</time>
      </trkpt>
      <trkpt lat="45.70131" lon="2.96788">
        <ele>978</ele>
        <time>2008-08-04T12:58:07Z</time>
      </trkpt>
      <trkpt lat="45.70135" lon="2.96776">
        <ele>978</ele>
        <time>2008-08-04T12:58:16Z</time>
      </trkpt>
      <trkpt lat="45.7014" lon="2.96764">
        <ele>977</ele>
        <time>2008-08-04T12:58:24Z</time>
      </trkpt>
      <trkpt lat="45.70141" lon="2.9675">
        <ele>977</ele>
        <time>2008-08-04T12:58:34Z</time>
      </trkpt>
      <trkpt lat="45.70136" lon="2.96738">
        <ele>976</ele>
        <time>2008-08-04T12:58:43Z</time>
      </trkpt>
      <trkpt lat="45.70135" lon="2.96723">
        <ele>976</ele>
        <time>2008-08-04T12:58:51Z</time>
      </trkpt>
      <trkpt lat="45.70136" lon="2.9671">
        <ele>976</ele>
        <time>2008-08-04T12:58:58Z</time>
      </trkpt>
      <trkpt lat="45.70133" lon="2.96697">
        <ele>976</ele>
        <time>2008-08-04T12:59:14Z</time>
      </trkpt>
      <trkpt lat="45.70133" lon="2.96684">
        <ele>976</ele>
        <time>2008-08-04T12:59:23Z</time>
      </trkpt>
      <trkpt lat="45.70128" lon="2.96671">
        <ele>976</ele>
        <time>2008-08-04T12:59:31Z</time>
      </trkpt>
      <trkpt lat="45.70126" lon="2.96656">
        <ele>977</ele>
        <time>2008-08-04T12:59:38Z</time>
      </trkpt>
      <trkpt lat="45.70127" lon="2.96643">
        <ele>978</ele>
        <time>2008-08-04T12:59:46Z</time>
      </trkpt>
      <trkpt lat="45.70123" lon="2.9663">
        <ele>978</ele>
        <time>2008-08-04T12:59:55Z</time>
      </trkpt>
      <trkpt lat="45.70119" lon="2.96617">
        <ele>979</ele>
        <time>2008-08-04T13:00:01Z</time>
      </trkpt>
      <trkpt lat="45.70116" lon="2.96604">
        <ele>979</ele>
        <time>2008-08-04T13:00:10Z</time>
      </trkpt>
      <trkpt lat="45.70111" lon="2.96593">
        <ele>979</ele>
        <time>2008-08-04T13:00:20Z</time>
      </trkpt>
      <trkpt lat="45.70106" lon="2.96582">
        <ele>980</ele>
        <time>2008-08-04T13:00:27Z</time>
      </trkpt>
      <trkpt lat="45.70101" lon="2.96569">
        <ele>980</ele>
        <time>2008-08-04T13:00:43Z</time>
      </trkpt>
      <trkpt lat="45.70093" lon="2.96561">
        <ele>980</ele>
        <time>2008-08-04T13:00:52Z</time>
      </trkpt>
      <trkpt lat="45.70087" lon="2.96549">
        <ele>981</ele>
        <time>2008-08-04T13:01:00Z</time>
      </trkpt>
      <trkpt lat="45.70081" lon="2.96539">
        <ele>981</ele>
        <time>2008-08-04T13:01:08Z</time>
      </trkpt>
      <trkpt lat="45.70079" lon="2.96526">
        <ele>982</ele>
        <time>2008-08-04T13:01:17Z</time>
      </trkpt>
      <trkpt lat="45.70075" lon="2.96513">
        <ele>983</ele>
        <time>2008-08-04T13:01:28Z</time>
      </trkpt>
      <trkpt lat="45.70072" lon="2.96501">
        <ele>983</ele>
        <time>2008-08-04T13:01:36Z</time>
      </trkpt>
      <trkpt lat="45.70067" lon="2.96488">
        <ele>984</ele>
        <time>2008-08-04T13:01:45Z</time>
      </trkpt>
      <trkpt lat="45.70063" lon="2.96475">
        <ele>985</ele>
        <time>2008-08-04T13:01:57Z</time>
      </trkpt>
      <trkpt lat="45.70062" lon="2.9646">
        <ele>986</ele>
        <time>2008-08-04T13:02:07Z</time>
      </trkpt>
      <trkpt lat="45.70062" lon="2.96447">
        <ele>987</ele>
        <time>2008-08-04T13:02:17Z</time>
      </trkpt>
      <trkpt lat="45.7006" lon="2.96434">
        <ele>988</ele>
        <time>2008-08-04T13:02:22Z</time>
      </trkpt>
      <trkpt lat="45.70058" lon="2.96421">
        <ele>989</ele>
        <time>2008-08-04T13:02:27Z</time>
      </trkpt>
      <trkpt lat="45.70057" lon="2.96406">
        <ele>991</ele>
        <time>2008-08-04T13:02:32Z</time>
      </trkpt>
      <trkpt lat="45.70058" lon="2.96392">
        <ele>992</ele>
        <time>2008-08-04T13:02:38Z</time>
      </trkpt>
      <trkpt lat="45.70062" lon="2.96379">
        <ele>994</ele>
        <time>2008-08-04T13:02:46Z</time>
      </trkpt>
      <trkpt lat="45.70062" lon="2.96366">
        <ele>995</ele>
        <time>2008-08-04T13:02:54Z</time>
      </trkpt>
      <trkpt lat="45.70066" lon="2.96353">
        <ele>997</ele>
        <time>2008-08-04T13:03:01Z</time>
      </trkpt>
      <trkpt lat="45.70069" lon="2.96339">
        <ele>998</ele>
        <time>2008-08-04T13:03:08Z</time>
      </trkpt>
      <trkpt lat="45.70071" lon="2.96324">
        <ele>999</ele>
        <time>2008-08-04T13:03:15Z</time>
      </trkpt>
      <trkpt lat="45.70072" lon="2.96309">
        <ele>1000</ele>
        <time>2008-08-04T13:03:22Z</time>
      </trkpt>
      <trkpt lat="45.70072" lon="2.96291">
        <ele>1000</ele>
        <time>2008-08-04T13:03:26Z</time>
      </trkpt>
      <trkpt lat="45.70074" lon="2.96278">
        <ele>1001</ele>
        <time>2008-08-04T13:03:31Z</time>
      </trkpt>
      <trkpt lat="45.70076" lon="2.96264">
        <ele>1000</ele>
        <time>2008-08-04T13:03:38Z</time>
      </trkpt>
      <trkpt lat="45.70082" lon="2.96254">
        <ele>1001</ele>
        <time>2008-08-04T13:03:45Z</time>
      </trkpt>
      <trkpt lat="45.70089" lon="2.96243">
        <ele>1001</ele>
        <time>2008-08-04T13:03:52Z</time>
      </trkpt>
      <trkpt lat="45.70094" lon="2.9623">
        <ele>1002</ele>
        <time>2008-08-04T13:04:00Z</time>
      </trkpt>
      <trkpt lat="45.70101" lon="2.9622">
        <ele>1002</ele>
        <time>2008-08-04T13:04:09Z</time>
      </trkpt>
      <trkpt lat="45.70106" lon="2.96209">
        <ele>1003</ele>
        <time>2008-08-04T13:04:16Z</time>
      </trkpt>
      <trkpt lat="45.70109" lon="2.96196">
        <ele>1002</ele>
        <time>2008-08-04T13:04:25Z</time>
      </trkpt>
      <trkpt lat="45.70113" lon="2.96182">
        <ele>1001</ele>
        <time>2008-08-04T13:04:33Z</time>
      </trkpt>
      <trkpt lat="45.70116" lon="2.96169">
        <ele>1001</ele>
        <time>2008-08-04T13:05:08Z</time>
      </trkpt>
      <trkpt lat="45.70126" lon="2.96167">
        <ele>1003</ele>
        <time>2008-08-04T13:06:09Z</time>
      </trkpt>
      <trkpt lat="45.70129" lon="2.96155">
        <ele>1003</ele>
        <time>2008-08-04T13:06:22Z</time>
      </trkpt>
      <trkpt lat="45.70131" lon="2.96141">
        <ele>1001</ele>
        <time>2008-08-04T13:06:31Z</time>
      </trkpt>
      <trkpt lat="45.70139" lon="2.96132">
        <ele>1001</ele>
        <time>2008-08-04T13:06:40Z</time>
      </trkpt>
      <trkpt lat="45.70147" lon="2.96125">
        <ele>1003</ele>
        <time>2008-08-04T13:06:49Z</time>
      </trkpt>
      <trkpt lat="45.70153" lon="2.96114">
        <ele>1003</ele>
        <time>2008-08-04T13:07:01Z</time>
      </trkpt>
      <trkpt lat="45.70158" lon="2.96103">
        <ele>1002</ele>
        <time>2008-08-04T13:08:11Z</time>
      </trkpt>
      <trkpt lat="45.70163" lon="2.96091">
        <ele>1002</ele>
        <time>2008-08-04T13:08:17Z</time>
      </trkpt>
      <trkpt lat="45.70169" lon="2.9608">
        <ele>1002</ele>
        <time>2008-08-04T13:08:29Z</time>
      </trkpt>
      <trkpt lat="45.70176" lon="2.96069">
        <ele>1002</ele>
        <time>2008-08-04T13:08:36Z</time>
      </trkpt>
      <trkpt lat="45.70182" lon="2.96059">
        <ele>1002</ele>
        <time>2008-08-04T13:08:46Z</time>
      </trkpt>
      <trkpt lat="45.7019" lon="2.96051">
        <ele>1002</ele>
        <time>2008-08-04T13:08:56Z</time>
      </trkpt>
      <trkpt lat="45.70196" lon="2.96039">
        <ele>1001</ele>
        <time>2008-08-04T13:09:08Z</time>
      </trkpt>
      <trkpt lat="45.70201" lon="2.96026">
        <ele>998</ele>
        <time>2008-08-04T13:09:18Z</time>
      </trkpt>
      <trkpt lat="45.70206" lon="2.96015">
        <ele>998</ele>
        <time>2008-08-04T13:09:26Z</time>
      </trkpt>
      <trkpt lat="45.70212" lon="2.96005">
        <ele>998</ele>
        <time>2008-08-04T13:09:34Z</time>
      </trkpt>
      <trkpt lat="45.70216" lon="2.95992">
        <ele>997</ele>
        <time>2008-08-04T13:09:42Z</time>
      </trkpt>
      <trkpt lat="45.70222" lon="2.95982">
        <ele>996</ele>
        <time>2008-08-04T13:09:48Z</time>
      </trkpt>
      <trkpt lat="45.70226" lon="2.95971">
        <ele>995</ele>
        <time>2008-08-04T13:09:57Z</time>
      </trkpt>
      <trkpt lat="45.70227" lon="2.95955">
        <ele>993</ele>
        <time>2008-08-04T13:10:04Z</time>
      </trkpt>
      <trkpt lat="45.70226" lon="2.95942">
        <ele>991</ele>
        <time>2008-08-04T13:10:10Z</time>
      </trkpt>
      <trkpt lat="45.70225" lon="2.95928">
        <ele>990</ele>
        <time>2008-08-04T13:10:16Z</time>
      </trkpt>
      <trkpt lat="45.70225" lon="2.95915">
        <ele>989</ele>
        <time>2008-08-04T13:10:25Z</time>
      </trkpt>
      <trkpt lat="45.70223" lon="2.95902">
        <ele>988</ele>
        <time>2008-08-04T13:10:33Z</time>
      </trkpt>
      <trkpt lat="45.7022" lon="2.95889">
        <ele>988</ele>
        <time>2008-08-04T13:10:41Z</time>
      </trkpt>
      <trkpt lat="45.70215" lon="2.95877">
        <ele>988</ele>
        <time>2008-08-04T13:10:48Z</time>
      </trkpt>
      <trkpt lat="45.7021" lon="2.95866">
        <ele>987</ele>
        <time>2008-08-04T13:10:58Z</time>
      </trkpt>
      <trkpt lat="45.70204" lon="2.95856">
        <ele>987</ele>
        <time>2008-08-04T13:11:08Z</time>
      </trkpt>
      <trkpt lat="45.70198" lon="2.95844">
        <ele>987</ele>
        <time>2008-08-04T13:11:18Z</time>
      </trkpt>
      <trkpt lat="45.70191" lon="2.95833">
        <ele>987</ele>
        <time>2008-08-04T13:11:26Z</time>
      </trkpt>
      <trkpt lat="45.70186" lon="2.95821">
        <ele>987</ele>
        <time>2008-08-04T13:11:33Z</time>
      </trkpt>
      <trkpt lat="45.70183" lon="2.95808">
        <ele>988</ele>
        <time>2008-08-04T13:11:50Z</time>
      </trkpt>
      <trkpt lat="45.7018" lon="2.95796">
        <ele>988</ele>
        <time>2008-08-04T13:12:02Z</time>
      </trkpt>
      <trkpt lat="45.70176" lon="2.95782">
        <ele>989</ele>
        <time>2008-08-04T13:12:12Z</time>
      </trkpt>
      <trkpt lat="45.70174" lon="2.95768">
        <ele>989</ele>
        <time>2008-08-04T13:12:28Z</time>
      </trkpt>
      <trkpt lat="45.70169" lon="2.95756">
        <ele>989</ele>
        <time>2008-08-04T13:12:36Z</time>
      </trkpt>
      <trkpt lat="45.70163" lon="2.95745">
        <ele>989</ele>
        <time>2008-08-04T13:13:18Z</time>
      </trkpt>
      <trkpt lat="45.7016" lon="2.95732">
        <ele>989</ele>
        <time>2008-08-04T13:13:27Z</time>
      </trkpt>
      <trkpt lat="45.70153" lon="2.95722">
        <ele>989</ele>
        <time>2008-08-04T13:13:33Z</time>
      </trkpt>
      <trkpt lat="45.70145" lon="2.95715">
        <ele>989</ele>
        <time>2008-08-04T13:13:39Z</time>
      </trkpt>
      <trkpt lat="45.70136" lon="2.95715">
        <ele>989</ele>
        <time>2008-08-04T13:13:48Z</time>
      </trkpt>
      <trkpt lat="45.70128" lon="2.95708">
        <ele>989</ele>
        <time>2008-08-04T13:13:54Z</time>
      </trkpt>
      <trkpt lat="45.70118" lon="2.95706">
        <ele>989</ele>
        <time>2008-08-04T13:14:03Z</time>
      </trkpt>
      <trkpt lat="45.70108" lon="2.95705">
        <ele>988</ele>
        <time>2008-08-04T13:14:12Z</time>
      </trkpt>
      <trkpt lat="45.70098" lon="2.95707">
        <ele>988</ele>
        <time>2008-08-04T13:14:20Z</time>
      </trkpt>
      <trkpt lat="45.70089" lon="2.95707">
        <ele>988</ele>
        <time>2008-08-04T13:14:27Z</time>
      </trkpt>
      <trkpt lat="45.70079" lon="2.95707">
        <ele>988</ele>
        <time>2008-08-04T13:14:33Z</time>
      </trkpt>
      <trkpt lat="45.70069" lon="2.95703">
        <ele>988</ele>
        <time>2008-08-04T13:14:44Z</time>
      </trkpt>
      <trkpt lat="45.70058" lon="2.957">
        <ele>989</ele>
        <time>2008-08-04T13:14:54Z</time>
      </trkpt>
      <trkpt lat="45.70048" lon="2.95698">
        <ele>989</ele>
        <time>2008-08-04T13:15:04Z</time>
      </trkpt>
      <trkpt lat="45.70032" lon="2.95697">
        <ele>990</ele>
        <time>2008-08-04T13:15:17Z</time>
      </trkpt>
      <trkpt lat="45.70023" lon="2.95695">
        <ele>990</ele>
        <time>2008-08-04T13:15:23Z</time>
      </trkpt>
      <trkpt lat="45.70018" lon="2.95682">
        <ele>992</ele>
        <time>2008-08-04T13:15:29Z</time>
      </trkpt>
      <trkpt lat="45.7001" lon="2.95675">
        <ele>993</ele>
        <time>2008-08-04T13:15:38Z</time>
      </trkpt>
      <trkpt lat="45.70007" lon="2.95662">
        <ele>994</ele>
        <time>2008-08-04T13:15:47Z</time>
      </trkpt>
      <trkpt lat="45.69999" lon="2.95654">
        <ele>995</ele>
        <time>2008-08-04T13:15:57Z</time>
      </trkpt>
      <trkpt lat="45.7" lon="2.95641">
        <ele>996</ele>
        <time>2008-08-04T13:16:07Z</time>
      </trkpt>
      <trkpt lat="45.69995" lon="2.95628">
        <ele>998</ele>
        <time>2008-08-04T13:16:14Z</time>
      </trkpt>
      <trkpt lat="45.69997" lon="2.9561">
        <ele>1000</ele>
        <time>2008-08-04T13:16:26Z</time>
      </trkpt>
      <trkpt lat="45.70002" lon="2.95599">
        <ele>1001</ele>
        <time>2008-08-04T13:16:34Z</time>
      </trkpt>
      <trkpt lat="45.70003" lon="2.95585">
        <ele>1003</ele>
        <time>2008-08-04T13:16:41Z</time>
      </trkpt>
      <trkpt lat="45.70004" lon="2.9557">
        <ele>1004</ele>
        <time>2008-08-04T13:16:50Z</time>
      </trkpt>
      <trkpt lat="45.70004" lon="2.95556">
        <ele>1005</ele>
        <time>2008-08-04T13:16:59Z</time>
      </trkpt>
      <trkpt lat="45.70002" lon="2.95542">
        <ele>1006</ele>
        <time>2008-08-04T13:17:07Z</time>
      </trkpt>
      <trkpt lat="45.70001" lon="2.95529">
        <ele>1007</ele>
        <time>2008-08-04T13:17:15Z</time>
      </trkpt>
      <trkpt lat="45.70001" lon="2.95515">
        <ele>1008</ele>
        <time>2008-08-04T13:17:24Z</time>
      </trkpt>
      <trkpt lat="45.69999" lon="2.95501">
        <ele>1008</ele>
        <time>2008-08-04T13:17:32Z</time>
      </trkpt>
      <trkpt lat="45.70001" lon="2.95488">
        <ele>1008</ele>
        <time>2008-08-04T13:17:40Z</time>
      </trkpt>
      <trkpt lat="45.70006" lon="2.95471">
        <ele>1009</ele>
        <time>2008-08-04T13:17:50Z</time>
      </trkpt>
      <trkpt lat="45.70007" lon="2.95457">
        <ele>1009</ele>
        <time>2008-08-04T13:17:55Z</time>
      </trkpt>
      <trkpt lat="45.70002" lon="2.95444">
        <ele>1009</ele>
        <time>2008-08-04T13:18:02Z</time>
      </trkpt>
      <trkpt lat="45.69996" lon="2.95433">
        <ele>1009</ele>
        <time>2008-08-04T13:18:15Z</time>
      </trkpt>
      <trkpt lat="45.69988" lon="2.95425">
        <ele>1008</ele>
        <time>2008-08-04T13:18:26Z</time>
      </trkpt>
      <trkpt lat="45.69979" lon="2.95418">
        <ele>1007</ele>
        <time>2008-08-04T13:18:33Z</time>
      </trkpt>
      <trkpt lat="45.6997" lon="2.95412">
        <ele>1007</ele>
        <time>2008-08-04T13:18:51Z</time>
      </trkpt>
      <trkpt lat="45.69964" lon="2.954">
        <ele>1005</ele>
        <time>2008-08-04T13:19:04Z</time>
      </trkpt>
      <trkpt lat="45.69957" lon="2.95391">
        <ele>1004</ele>
        <time>2008-08-04T13:19:15Z</time>
      </trkpt>
      <trkpt lat="45.69954" lon="2.95379">
        <ele>1002</ele>
        <time>2008-08-04T13:19:29Z</time>
      </trkpt>
      <trkpt lat="45.69951" lon="2.95366">
        <ele>1001</ele>
        <time>2008-08-04T13:20:06Z</time>
      </trkpt>
      <trkpt lat="45.69946" lon="2.95354">
        <ele>1000</ele>
        <time>2008-08-04T13:20:18Z</time>
      </trkpt>
      <trkpt lat="45.69942" lon="2.95343">
        <ele>998</ele>
        <time>2008-08-04T13:20:27Z</time>
      </trkpt>
      <trkpt lat="45.6994" lon="2.95329">
        <ele>997</ele>
        <time>2008-08-04T13:20:43Z</time>
      </trkpt>
      <trkpt lat="45.69937" lon="2.95317">
        <ele>996</ele>
        <time>2008-08-04T13:20:54Z</time>
      </trkpt>
      <trkpt lat="45.69938" lon="2.95303">
        <ele>995</ele>
        <time>2008-08-04T13:21:04Z</time>
      </trkpt>
      <trkpt lat="45.69936" lon="2.95289">
        <ele>995</ele>
        <time>2008-08-04T13:21:14Z</time>
      </trkpt>
      <trkpt lat="45.69932" lon="2.95275">
        <ele>994</ele>
        <time>2008-08-04T13:21:20Z</time>
      </trkpt>
      <trkpt lat="45.69929" lon="2.95263">
        <ele>993</ele>
        <time>2008-08-04T13:21:28Z</time>
      </trkpt>
      <trkpt lat="45.69925" lon="2.9525">
        <ele>992</ele>
        <time>2008-08-04T13:21:35Z</time>
      </trkpt>
      <trkpt lat="45.69924" lon="2.95237">
        <ele>991</ele>
        <time>2008-08-04T13:21:42Z</time>
      </trkpt>
      <trkpt lat="45.69919" lon="2.95226">
        <ele>990</ele>
        <time>2008-08-04T13:21:49Z</time>
      </trkpt>
      <trkpt lat="45.69922" lon="2.95213">
        <ele>990</ele>
        <time>2008-08-04T13:21:53Z</time>
      </trkpt>
      <trkpt lat="45.69919" lon="2.95201">
        <ele>989</ele>
        <time>2008-08-04T13:21:58Z</time>
      </trkpt>
      <trkpt lat="45.69917" lon="2.95187">
        <ele>989</ele>
        <time>2008-08-04T13:22:03Z</time>
      </trkpt>
      <trkpt lat="45.69914" lon="2.95175">
        <ele>988</ele>
        <time>2008-08-04T13:22:07Z</time>
      </trkpt>
      <trkpt lat="45.69911" lon="2.9516">
        <ele>988</ele>
        <time>2008-08-04T13:22:13Z</time>
      </trkpt>
      <trkpt lat="45.69907" lon="2.95147">
        <ele>988</ele>
        <time>2008-08-04T13:22:17Z</time>
      </trkpt>
      <trkpt lat="45.69903" lon="2.95134">
        <ele>988</ele>
        <time>2008-08-04T13:22:21Z</time>
      </trkpt>
      <trkpt lat="45.69902" lon="2.95118">
        <ele>988</ele>
        <time>2008-08-04T13:22:26Z</time>
      </trkpt>
      <trkpt lat="45.69898" lon="2.95104">
        <ele>988</ele>
        <time>2008-08-04T13:22:30Z</time>
      </trkpt>
      <trkpt lat="45.69895" lon="2.9509">
        <ele>988</ele>
        <time>2008-08-04T13:22:34Z</time>
      </trkpt>
      <trkpt lat="45.69894" lon="2.95077">
        <ele>988</ele>
        <time>2008-08-04T13:22:38Z</time>
      </trkpt>
      <trkpt lat="45.69892" lon="2.95062">
        <ele>988</ele>
        <time>2008-08-04T13:22:42Z</time>
      </trkpt>
      <trkpt lat="45.69885" lon="2.95046">
        <ele>988</ele>
        <time>2008-08-04T13:22:45Z</time>
      </trkpt>
      <trkpt lat="45.69879" lon="2.9503">
        <ele>988</ele>
        <time>2008-08-04T13:22:48Z</time>
      </trkpt>
      <trkpt lat="45.69872" lon="2.95013">
        <ele>988</ele>
        <time>2008-08-04T13:22:51Z</time>
      </trkpt>
      <trkpt lat="45.69866" lon="2.95001">
        <ele>988</ele>
        <time>2008-08-04T13:22:53Z</time>
      </trkpt>
      <trkpt lat="45.6986" lon="2.94984">
        <ele>988</ele>
        <time>2008-08-04T13:22:56Z</time>
      </trkpt>
      <trkpt lat="45.69854" lon="2.94968">
        <ele>989</ele>
        <time>2008-08-04T13:22:59Z</time>
      </trkpt>
      <trkpt lat="45.69849" lon="2.94956">
        <ele>990</ele>
        <time>2008-08-04T13:23:01Z</time>
      </trkpt>
      <trkpt lat="45.69843" lon="2.94945">
        <ele>990</ele>
        <time>2008-08-04T13:23:03Z</time>
      </trkpt>
      <trkpt lat="45.69836" lon="2.94929">
        <ele>990</ele>
        <time>2008-08-04T13:23:06Z</time>
      </trkpt>
      <trkpt lat="45.6983" lon="2.94914">
        <ele>991</ele>
        <time>2008-08-04T13:23:09Z</time>
      </trkpt>
      <trkpt lat="45.69824" lon="2.94899">
        <ele>991</ele>
        <time>2008-08-04T13:23:12Z</time>
      </trkpt>
      <trkpt lat="45.6982" lon="2.94886">
        <ele>991</ele>
        <time>2008-08-04T13:23:14Z</time>
      </trkpt>
      <trkpt lat="45.69817" lon="2.94873">
        <ele>991</ele>
        <time>2008-08-04T13:23:16Z</time>
      </trkpt>
      <trkpt lat="45.69809" lon="2.94861">
        <ele>991</ele>
        <time>2008-08-04T13:23:19Z</time>
      </trkpt>
      <trkpt lat="45.69804" lon="2.9485">
        <ele>991</ele>
        <time>2008-08-04T13:23:22Z</time>
      </trkpt>
      <trkpt lat="45.69799" lon="2.94836">
        <ele>991</ele>
        <time>2008-08-04T13:23:26Z</time>
      </trkpt>
      <trkpt lat="45.69793" lon="2.94821">
        <ele>992</ele>
        <time>2008-08-04T13:23:30Z</time>
      </trkpt>
      <trkpt lat="45.69787" lon="2.9481">
        <ele>992</ele>
        <time>2008-08-04T13:23:34Z</time>
      </trkpt>
      <trkpt lat="45.69785" lon="2.94797">
        <ele>992</ele>
        <time>2008-08-04T13:23:44Z</time>
      </trkpt>
      <trkpt lat="45.69781" lon="2.94784">
        <ele>992</ele>
        <time>2008-08-04T13:23:52Z</time>
      </trkpt>
      <trkpt lat="45.69775" lon="2.94772">
        <ele>992</ele>
        <time>2008-08-04T13:24:01Z</time>
      </trkpt>
      <trkpt lat="45.69771" lon="2.9476">
        <ele>992</ele>
        <time>2008-08-04T13:24:12Z</time>
      </trkpt>
      <trkpt lat="45.69766" lon="2.94746">
        <ele>992</ele>
        <time>2008-08-04T13:24:22Z</time>
      </trkpt>
      <trkpt lat="45.69759" lon="2.94738">
        <ele>992</ele>
        <time>2008-08-04T13:24:28Z</time>
      </trkpt>
      <trkpt lat="45.69749" lon="2.94735">
        <ele>992</ele>
        <time>2008-08-04T13:24:34Z</time>
      </trkpt>
      <trkpt lat="45.69742" lon="2.94744">
        <ele>991</ele>
        <time>2008-08-04T13:24:42Z</time>
      </trkpt>
      <trkpt lat="45.69737" lon="2.94757">
        <ele>991</ele>
        <time>2008-08-04T13:24:50Z</time>
      </trkpt>
      <trkpt lat="45.69734" lon="2.9477">
        <ele>991</ele>
        <time>2008-08-04T13:24:57Z</time>
      </trkpt>
      <trkpt lat="45.69729" lon="2.94781">
        <ele>990</ele>
        <time>2008-08-04T13:25:06Z</time>
      </trkpt>
      <trkpt lat="45.69725" lon="2.94795">
        <ele>990</ele>
        <time>2008-08-04T13:25:17Z</time>
      </trkpt>
      <trkpt lat="45.69717" lon="2.94806">
        <ele>990</ele>
        <time>2008-08-04T13:25:24Z</time>
      </trkpt>
      <trkpt lat="45.6971" lon="2.94815">
        <ele>989</ele>
        <time>2008-08-04T13:25:32Z</time>
      </trkpt>
      <trkpt lat="45.69705" lon="2.94827">
        <ele>989</ele>
        <time>2008-08-04T13:25:38Z</time>
      </trkpt>
      <trkpt lat="45.69702" lon="2.9484">
        <ele>989</ele>
        <time>2008-08-04T13:25:44Z</time>
      </trkpt>
      <trkpt lat="45.69695" lon="2.94852">
        <ele>988</ele>
        <time>2008-08-04T13:25:51Z</time>
      </trkpt>
      <trkpt lat="45.69689" lon="2.94862">
        <ele>988</ele>
        <time>2008-08-04T13:25:57Z</time>
      </trkpt>
      <trkpt lat="45.69682" lon="2.94872">
        <ele>988</ele>
        <time>2008-08-04T13:26:03Z</time>
      </trkpt>
      <trkpt lat="45.69676" lon="2.94882">
        <ele>988</ele>
        <time>2008-08-04T13:26:10Z</time>
      </trkpt>
      <trkpt lat="45.69669" lon="2.94892">
        <ele>988</ele>
        <time>2008-08-04T13:26:16Z</time>
      </trkpt>
      <trkpt lat="45.69661" lon="2.94901">
        <ele>987</ele>
        <time>2008-08-04T13:26:24Z</time>
      </trkpt>
      <trkpt lat="45.69657" lon="2.94913">
        <ele>987</ele>
        <time>2008-08-04T13:26:31Z</time>
      </trkpt>
      <trkpt lat="45.69652" lon="2.94927">
        <ele>987</ele>
        <time>2008-08-04T13:26:39Z</time>
      </trkpt>
      <trkpt lat="45.69647" lon="2.94939">
        <ele>987</ele>
        <time>2008-08-04T13:26:49Z</time>
      </trkpt>
      <trkpt lat="45.6964" lon="2.94953">
        <ele>986</ele>
        <time>2008-08-04T13:26:57Z</time>
      </trkpt>
      <trkpt lat="45.69634" lon="2.94965">
        <ele>986</ele>
        <time>2008-08-04T13:27:04Z</time>
      </trkpt>
      <trkpt lat="45.69627" lon="2.94976">
        <ele>985</ele>
        <time>2008-08-04T13:27:11Z</time>
      </trkpt>
      <trkpt lat="45.69621" lon="2.94987">
        <ele>985</ele>
        <time>2008-08-04T13:27:17Z</time>
      </trkpt>
      <trkpt lat="45.69616" lon="2.95">
        <ele>985</ele>
        <time>2008-08-04T13:27:24Z</time>
      </trkpt>
      <trkpt lat="45.69613" lon="2.95012">
        <ele>984</ele>
        <time>2008-08-04T13:27:43Z</time>
      </trkpt>
      <trkpt lat="45.6961" lon="2.95026">
        <ele>984</ele>
        <time>2008-08-04T13:28:13Z</time>
      </trkpt>
      <trkpt lat="45.69605" lon="2.95038">
        <ele>984</ele>
        <time>2008-08-04T13:28:20Z</time>
      </trkpt>
      <trkpt lat="45.69599" lon="2.9505">
        <ele>983</ele>
        <time>2008-08-04T13:28:27Z</time>
      </trkpt>
      <trkpt lat="45.69595" lon="2.95063">
        <ele>983</ele>
        <time>2008-08-04T13:28:34Z</time>
      </trkpt>
      <trkpt lat="45.69593" lon="2.95078">
        <ele>983</ele>
        <time>2008-08-04T13:28:42Z</time>
      </trkpt>
      <trkpt lat="45.69591" lon="2.95092">
        <ele>982</ele>
        <time>2008-08-04T13:28:51Z</time>
      </trkpt>
      <trkpt lat="45.69586" lon="2.95105">
        <ele>982</ele>
        <time>2008-08-04T13:28:59Z</time>
      </trkpt>
      <trkpt lat="45.69581" lon="2.95115">
        <ele>981</ele>
        <time>2008-08-04T13:29:07Z</time>
      </trkpt>
      <trkpt lat="45.69574" lon="2.95125">
        <ele>981</ele>
        <time>2008-08-04T13:29:13Z</time>
      </trkpt>
      <trkpt lat="45.69566" lon="2.95133">
        <ele>980</ele>
        <time>2008-08-04T13:29:20Z</time>
      </trkpt>
      <trkpt lat="45.69558" lon="2.95142">
        <ele>979</ele>
        <time>2008-08-04T13:29:27Z</time>
      </trkpt>
      <trkpt lat="45.69552" lon="2.95155">
        <ele>978</ele>
        <time>2008-08-04T13:29:34Z</time>
      </trkpt>
      <trkpt lat="45.69545" lon="2.95165">
        <ele>977</ele>
        <time>2008-08-04T13:29:41Z</time>
      </trkpt>
      <trkpt lat="45.6954" lon="2.95177">
        <ele>977</ele>
        <time>2008-08-04T13:29:48Z</time>
      </trkpt>
      <trkpt lat="45.69536" lon="2.95191">
        <ele>976</ele>
        <time>2008-08-04T13:29:56Z</time>
      </trkpt>
      <trkpt lat="45.6953" lon="2.95203">
        <ele>975</ele>
        <time>2008-08-04T13:30:02Z</time>
      </trkpt>
      <trkpt lat="45.69526" lon="2.95216">
        <ele>974</ele>
        <time>2008-08-04T13:30:09Z</time>
      </trkpt>
      <trkpt lat="45.69521" lon="2.95228">
        <ele>974</ele>
        <time>2008-08-04T13:30:16Z</time>
      </trkpt>
      <trkpt lat="45.69517" lon="2.9524">
        <ele>973</ele>
        <time>2008-08-04T13:30:24Z</time>
      </trkpt>
      <trkpt lat="45.69512" lon="2.95254">
        <ele>973</ele>
        <time>2008-08-04T13:30:31Z</time>
      </trkpt>
      <trkpt lat="45.69506" lon="2.95265">
        <ele>972</ele>
        <time>2008-08-04T13:30:38Z</time>
      </trkpt>
      <trkpt lat="45.69502" lon="2.95277">
        <ele>972</ele>
        <time>2008-08-04T13:30:45Z</time>
      </trkpt>
      <trkpt lat="45.69497" lon="2.95291">
        <ele>971</ele>
        <time>2008-08-04T13:30:53Z</time>
      </trkpt>
      <trkpt lat="45.69493" lon="2.95302">
        <ele>970</ele>
        <time>2008-08-04T13:31:01Z</time>
      </trkpt>
      <trkpt lat="45.69487" lon="2.95314">
        <ele>970</ele>
        <time>2008-08-04T13:31:10Z</time>
      </trkpt>
      <trkpt lat="45.69481" lon="2.95325">
        <ele>969</ele>
        <time>2008-08-04T13:31:17Z</time>
      </trkpt>
      <trkpt lat="45.69472" lon="2.95335">
        <ele>968</ele>
        <time>2008-08-04T13:31:24Z</time>
      </trkpt>
      <trkpt lat="45.69463" lon="2.95334">
        <ele>968</ele>
        <time>2008-08-04T13:31:30Z</time>
      </trkpt>
      <trkpt lat="45.69455" lon="2.95327">
        <ele>967</ele>
        <time>2008-08-04T13:31:35Z</time>
      </trkpt>
      <trkpt lat="45.69447" lon="2.95319">
        <ele>967</ele>
        <time>2008-08-04T13:31:41Z</time>
      </trkpt>
      <trkpt lat="45.69439" lon="2.9531">
        <ele>966</ele>
        <time>2008-08-04T13:31:51Z</time>
      </trkpt>
      <trkpt lat="45.69433" lon="2.953">
        <ele>966</ele>
        <time>2008-08-04T13:31:58Z</time>
      </trkpt>
      <trkpt lat="45.69426" lon="2.95291">
        <ele>966</ele>
        <time>2008-08-04T13:32:05Z</time>
      </trkpt>
      <trkpt lat="45.6942" lon="2.95281">
        <ele>965</ele>
        <time>2008-08-04T13:32:12Z</time>
      </trkpt>
      <trkpt lat="45.69412" lon="2.95271">
        <ele>965</ele>
        <time>2008-08-04T13:32:20Z</time>
      </trkpt>
      <trkpt lat="45.69404" lon="2.95261">
        <ele>965</ele>
        <time>2008-08-04T13:32:27Z</time>
      </trkpt>
      <trkpt lat="45.69397" lon="2.95252">
        <ele>965</ele>
        <time>2008-08-04T13:32:34Z</time>
      </trkpt>
      <trkpt lat="45.69391" lon="2.9524">
        <ele>965</ele>
        <time>2008-08-04T13:32:46Z</time>
      </trkpt>
      <trkpt lat="45.69384" lon="2.9523">
        <ele>964</ele>
        <time>2008-08-04T13:32:56Z</time>
      </trkpt>
      <trkpt lat="45.69387" lon="2.95218">
        <ele>965</ele>
        <time>2008-08-04T13:33:05Z</time>
      </trkpt>
      <trkpt lat="45.6939" lon="2.95204">
        <ele>965</ele>
        <time>2008-08-04T13:33:14Z</time>
      </trkpt>
      <trkpt lat="45.69396" lon="2.95193">
        <ele>966</ele>
        <time>2008-08-04T13:33:24Z</time>
      </trkpt>
      <trkpt lat="45.69285" lon="2.95121">
        <ele>963</ele>
        <time>2008-08-05T06:24:36Z</time>
      </trkpt>
      <trkpt lat="45.69379" lon="2.95144">
        <ele>966.463745</ele>
      </trkpt>
      <trkpt lat="45.6935" lon="2.95195">
        <ele>962.877686</ele>
      </trkpt>
      <trkpt lat="45.695" lon="2.95412">
        <ele>968.70929</ele>
      </trkpt>
      <trkpt lat="45.69617" lon="2.95587">
        <ele>973.337524</ele>
      </trkpt>
      <trkpt lat="45.6961" lon="2.9559">
        <ele>972.417175</ele>
      </trkpt>
      <trkpt lat="45.69609" lon="2.95634">
        <ele>973.026123</ele>
      </trkpt>
      <trkpt lat="45.69584" lon="2.95658">
        <ele>971.275757</ele>
      </trkpt>
      <trkpt lat="45.69534" lon="2.95667">
        <ele>969.631226</ele>
      </trkpt>
      <trkpt lat="45.69487" lon="2.9566">
        <ele>969.212402</ele>
      </trkpt>
      <trkpt lat="45.69461" lon="2.95616">
        <ele>966.662476</ele>
      </trkpt>
      <trkpt lat="45.69396" lon="2.95602">
        <ele>966.795654</ele>
      </trkpt>
      <trkpt lat="45.69374" lon="2.95602">
        <ele>966.929688</ele>
      </trkpt>
      <trkpt lat="45.69253" lon="2.95702">
        <ele>969.515686</ele>
      </trkpt>
      <trkpt lat="45.69183" lon="2.95811">
        <ele>969.870667</ele>
      </trkpt>
      <trkpt lat="45.69129" lon="2.95862">
        <ele>962.628845</ele>
      </trkpt>
      <trkpt lat="45.6903" lon="2.95835">
        <ele>964.220642</ele>
      </trkpt>
      <trkpt lat="45.68918" lon="2.95801">
        <ele>957.010559</ele>
      </trkpt>
      <trkpt lat="45.68837" lon="2.95794">
        <ele>964.398071</ele>
      </trkpt>
      <trkpt lat="45.68741" lon="2.95671">
        <ele>958.260193</ele>
      </trkpt>
      <trkpt lat="45.68706" lon="2.95602">
        <ele>953.295044</ele>
      </trkpt>
      <trkpt lat="45.68572" lon="2.9552">
        <ele>966.421875</ele>
      </trkpt>
      <trkpt lat="45.68563" lon="2.9552">
        <ele>967.566101</ele>
      </trkpt>
      <trkpt lat="45.68589" lon="2.95648">
        <ele>984.125</ele>
      </trkpt>
      <trkpt lat="45.68622" lon="2.95752">
        <ele>1000.834778</ele>
      </trkpt>
      <trkpt lat="45.68642" lon="2.95819">
        <ele>1019.397278</ele>
      </trkpt>
      <trkpt lat="45.68714" lon="2.95846">
        <ele>1022.194214</ele>
      </trkpt>
      <trkpt lat="45.68783" lon="2.95891">
        <ele>1015.143738</ele>
      </trkpt>
      <trkpt lat="45.68833" lon="2.95953">
        <ele>1009.207642</ele>
      </trkpt>
      <trkpt lat="45.6885" lon="2.9604">
        <ele>1006.68573</ele>
      </trkpt>
      <trkpt lat="45.68818" lon="2.96113">
        <ele>1016.78186</ele>
      </trkpt>
      <trkpt lat="45.68802" lon="2.96184">
        <ele>1020.648865</ele>
      </trkpt>
      <trkpt lat="45.6879" lon="2.9627">
        <ele>1019.340332</ele>
      </trkpt>
      <trkpt lat="45.68754" lon="2.96427">
        <ele>1014.282104</ele>
      </trkpt>
      <trkpt lat="45.68636" lon="2.96525">
        <ele>1014.338135</ele>
      </trkpt>
      <trkpt lat="45.68519" lon="2.96504">
        <ele>1011.862183</ele>
      </trkpt>
      <trkpt lat="45.6845" lon="2.96481">
        <ele>1001.819397</ele>
      </trkpt>
      <trkpt lat="45.68371" lon="2.96538">
        <ele>981.976624</ele>
      </trkpt>
      <trkpt lat="45.68296" lon="2.96589">
        <ele>970.858398</ele>
      </trkpt>
      <trkpt lat="45.6826" lon="2.9662">
        <ele>969.178345</ele>
      </trkpt>
      <trkpt lat="45.68251" lon="2.96675">
        <ele>967.002991</ele>
      </trkpt>
      <trkpt lat="45.68293" lon="2.96733">
        <ele>964.601807</ele>
      </trkpt>
      <trkpt lat="45.68347" lon="2.96785">
        <ele>960.533569</ele>
      </trkpt>
      <trkpt lat="45.68419" lon="2.96786">
        <ele>957.490906</ele>
      </trkpt>
      <trkpt lat="45.68484" lon="2.96748">
        <ele>957.979492</ele>
      </trkpt>
      <trkpt lat="45.68545" lon="2.96749">
        <ele>953.604065</ele>
      </trkpt>
      <trkpt lat="45.6861" lon="2.96746">
        <ele>950.351624</ele>
      </trkpt>
      <trkpt lat="45.68673" lon="2.96728">
        <ele>950.269592</ele>
      </trkpt>
      <trkpt lat="45.68734" lon="2.96677">
        <ele>956.873108</ele>
      </trkpt>
      <trkpt lat="45.68788" lon="2.96671">
        <ele>958.57373</ele>
      </trkpt>
      <trkpt lat="45.68835" lon="2.96672">
        <ele>960.560364</ele>
      </trkpt>
      <trkpt lat="45.68889" lon="2.96656">
        <ele>962.20575</ele>
      </trkpt>
      <trkpt lat="45.68919" lon="2.96592">
        <ele>966.36377</ele>
      </trkpt>
      <trkpt lat="45.68949" lon="2.96535">
        <ele>970.064392</ele>
      </trkpt>
      <trkpt lat="45.69018" lon="2.96536">
        <ele>971.143799</ele>
      </trkpt>
      <trkpt lat="45.69092" lon="2.96553">
        <ele>969.100037</ele>
      </trkpt>
      <trkpt lat="45.69155" lon="2.96592">
        <ele>966.514526</ele>
      </trkpt>
      <trkpt lat="45.69198" lon="2.96647">
        <ele>963.800781</ele>
      </trkpt>
      <trkpt lat="45.69251" lon="2.96705">
        <ele>959.967468</ele>
      </trkpt>
      <trkpt lat="45.69308" lon="2.96671">
        <ele>957.196716</ele>
      </trkpt>
      <trkpt lat="45.69389" lon="2.96678">
        <ele>955.347473</ele>
      </trkpt>
      <trkpt lat="45.69474" lon="2.96711">
        <ele>958.816284</ele>
      </trkpt>
      <trkpt lat="45.69552" lon="2.96815">
        <ele>968.023743</ele>
      </trkpt>
      <trkpt lat="45.69531" lon="2.96904">
        <ele>973.52124</ele>
      </trkpt>
      <trkpt lat="45.69517" lon="2.96988">
        <ele>976.128235</ele>
      </trkpt>
      <trkpt lat="45.69608" lon="2.96934">
        <ele>981.878723</ele>
      </trkpt>
      <trkpt lat="45.69689" lon="2.96893">
        <ele>979.757507</ele>
      </trkpt>
      <trkpt lat="45.69792" lon="2.96895">
        <ele>978.078247</ele>
      </trkpt>
      <trkpt lat="45.69866" lon="2.96947">
        <ele>978.111938</ele>
      </trkpt>
      <trkpt lat="45.69958" lon="2.96999">
        <ele>976.373901</ele>
      </trkpt>
      <trkpt lat="45.70023" lon="2.96984">
        <ele>976.745178</ele>
      </trkpt>
      <trkpt lat="45.70087" lon="2.96965">
        <ele>979.332703</ele>
      </trkpt>
      <trkpt lat="45.70171" lon="2.97056">
        <ele>981.785095</ele>
      </trkpt>
      <trkpt lat="45.70261" lon="2.97144">
        <ele>973.737488</ele>
      </trkpt>
      <trkpt lat="45.70321" lon="2.97199">
        <ele>965.808594</ele>
      </trkpt>
      <trkpt lat="45.70369" lon="2.97216">
        <ele>964.787354</ele>
      </trkpt>
      <trkpt lat="45.70407" lon="2.97258">
        <ele>961.997498</ele>
      </trkpt>
      <trkpt lat="45.70483" lon="2.97169">
        <ele>966.268127</ele>
      </trkpt>
      <trkpt lat="45.70536" lon="2.97105">
        <ele>964.745911</ele>
      </trkpt>
      <trkpt lat="45.70574" lon="2.97042">
        <ele>965.389404</ele>
      </trkpt>
      <trkpt lat="45.70648" lon="2.97091">
        <ele>960.475464</ele>
      </trkpt>
      <trkpt lat="45.70743" lon="2.97069">
        <ele>961.047363</ele>
      </trkpt>
      <trkpt lat="45.70812" lon="2.97131">
        <ele>963.61853</ele>
      </trkpt>
      <trkpt lat="45.70875" lon="2.97209">
        <ele>963.68103</ele>
      </trkpt>
      <trkpt lat="45.71007" lon="2.97242">
        <ele>962.239868</ele>
      </trkpt>
      <trkpt lat="45.71102" lon="2.97243">
        <ele>958.517883</ele>
      </trkpt>
      <trkpt lat="45.71201" lon="2.97196">
        <ele>959.842712</ele>
      </trkpt>
      <trkpt lat="45.7132" lon="2.97146">
        <ele>966.88147</ele>
      </trkpt>
      <trkpt lat="45.71381" lon="2.97131">
        <ele>963.036133</ele>
      </trkpt>
      <trkpt lat="45.71428" lon="2.97167">
        <ele>961.548889</ele>
      </trkpt>
      <trkpt lat="45.71487" lon="2.9711">
        <ele>957.456238</ele>
      </trkpt>
      <trkpt lat="45.71518" lon="2.9712">
        <ele>955.610535</ele>
      </trkpt>
      <trkpt lat="45.71548" lon="2.97127">
        <ele>951.183289</ele>
      </trkpt>
      <trkpt lat="45.7158" lon="2.97037">
        <ele>945.919556</ele>
      </trkpt>
      <trkpt lat="45.71636" lon="2.97012">
        <ele>944.836487</ele>
      </trkpt>
      <trkpt lat="45.71746" lon="2.97007">
        <ele>943.94751</ele>
      </trkpt>
      <trkpt lat="45.71912" lon="2.97063">
        <ele>946.817444</ele>
      </trkpt>
      <trkpt lat="45.72027" lon="2.97094">
        <ele>951.276611</ele>
      </trkpt>
      <trkpt lat="45.72135" lon="2.97114">
        <ele>956.242493</ele>
      </trkpt>
      <trkpt lat="45.722" lon="2.97137">
        <ele>958.278137</ele>
      </trkpt>
      <trkpt lat="45.72364" lon="2.972">
        <ele>962.058777</ele>
      </trkpt>
      <trkpt lat="45.7246" lon="2.97205">
        <ele>965.140076</ele>
      </trkpt>
      <trkpt lat="45.72605" lon="2.97164">
        <ele>969.651794</ele>
      </trkpt>
      <trkpt lat="45.72697" lon="2.97159">
        <ele>969.807007</ele>
      </trkpt>
      <trkpt lat="45.72855" lon="2.9709">
        <ele>973.98999</ele>
      </trkpt>
      <trkpt lat="45.72922" lon="2.97097">
        <ele>974.129761</ele>
      </trkpt>
      <trkpt lat="45.73006" lon="2.97025">
        <ele>974.847473</ele>
      </trkpt>
      <trkpt lat="45.73082" lon="2.97029">
        <ele>975.544983</ele>
      </trkpt>
      <trkpt lat="45.73169" lon="2.97113">
        <ele>975.750122</ele>
      </trkpt>
      <trkpt lat="45.7321" lon="2.97085">
        <ele>977.695007</ele>
      </trkpt>
      <trkpt lat="45.73164" lon="2.96953">
        <ele>979.744995</ele>
      </trkpt>
      <trkpt lat="45.73108" lon="2.96849">
        <ele>982.134644</ele>
      </trkpt>
      <trkpt lat="45.73113" lon="2.96653">
        <ele>987.44751</ele>
      </trkpt>
      <trkpt lat="45.73134" lon="2.96159">
        <ele>1009.870728</ele>
      </trkpt>
      <trkpt lat="45.73038" lon="2.96119">
        <ele>1015.985901</ele>
      </trkpt>
      <trkpt lat="45.72998" lon="2.96035">
        <ele>1024.226196</ele>
      </trkpt>
      <trkpt lat="45.72935" lon="2.95954">
        <ele>1033.845703</ele>
      </trkpt>
      <trkpt lat="45.72861" lon="2.95883">
        <ele>1042.451172</ele>
      </trkpt>
      <trkpt lat="45.72837" lon="2.95786">
        <ele>1049.694946</ele>
      </trkpt>
      <trkpt lat="45.72746" lon="2.95679">
        <ele>1054.471191</ele>
      </trkpt>
      <trkpt lat="45.72714" lon="2.95631">
        <ele>1056.721191</ele>
      </trkpt>
      <trkpt lat="45.72631" lon="2.9563">
        <ele>1058.550049</ele>
      </trkpt>
      <trkpt lat="45.72555" lon="2.95603">
        <ele>1060.971069</ele>
      </trkpt>
      <trkpt lat="45.72349" lon="2.95386">
        <ele>1080.837646</ele>
      </trkpt>
      <trkpt lat="45.72159" lon="2.95181">
        <ele>1093.568726</ele>
      </trkpt>
      <trkpt lat="45.71993" lon="2.95086">
        <ele>1080.794556</ele>
      </trkpt>
      <trkpt lat="45.71874" lon="2.95021">
        <ele>1074.134155</ele>
      </trkpt>
      <trkpt lat="45.71713" lon="2.94897">
        <ele>1071.084717</ele>
      </trkpt>
      <trkpt lat="45.71632" lon="2.94858">
        <ele>1071.45752</ele>
      </trkpt>
      <trkpt lat="45.71522" lon="2.94831">
        <ele>1059.569946</ele>
      </trkpt>
      <trkpt lat="45.71448" lon="2.94811">
        <ele>1051.037964</ele>
      </trkpt>
      <trkpt lat="45.71361" lon="2.94713">
        <ele>1048.494995</ele>
      </trkpt>
      <trkpt lat="45.71352" lon="2.94723">
        <ele>1048.094971</ele>
      </trkpt>
      <trkpt lat="45.71282" lon="2.94693">
        <ele>1047</ele>
      </trkpt>
      <trkpt lat="45.71182" lon="2.94583">
        <ele>1050.112549</ele>
      </trkpt>
      <trkpt lat="45.71128" lon="2.94467">
        <ele>1050.102295</ele>
      </trkpt>
      <trkpt lat="45.7105" lon="2.94305">
        <ele>1046.297485</ele>
      </trkpt>
      <trkpt lat="45.71155" lon="2.94133">
        <ele>1047.224854</ele>
      </trkpt>
      <trkpt lat="45.71214" lon="2.94018">
        <ele>1048.362183</ele>
      </trkpt>
      <trkpt lat="45.71217" lon="2.93919">
        <ele>1041.204468</ele>
      </trkpt>
      <trkpt lat="45.71184" lon="2.9378">
        <ele>1048.225952</ele>
      </trkpt>
      <trkpt lat="45.71261" lon="2.93665">
        <ele>1046.833374</ele>
      </trkpt>
      <trkpt lat="45.71313" lon="2.93566">
        <ele>1038.712524</ele>
      </trkpt>
      <trkpt lat="45.71352" lon="2.93442">
        <ele>1031.679077</ele>
      </trkpt>
      <trkpt lat="45.7138" lon="2.93288">
        <ele>1019.947693</ele>
      </trkpt>
      <trkpt lat="45.71381" lon="2.93121">
        <ele>1007.8125</ele>
      </trkpt>
      <trkpt lat="45.7135" lon="2.9295">
        <ele>1001.702576</ele>
      </trkpt>
      <trkpt lat="45.71252" lon="2.9276">
        <ele>996.012573</ele>
      </trkpt>
      <trkpt lat="45.7114" lon="2.92711">
        <ele>1000.312134</ele>
      </trkpt>
      <trkpt lat="45.71129" lon="2.92691">
        <ele>998.286255</ele>
      </trkpt>
      <trkpt lat="45.71081" lon="2.92691">
        <ele>1002.958679</ele>
      </trkpt>
      <trkpt lat="45.71068" lon="2.92668">
        <ele>1000.906677</ele>
      </trkpt>
      <trkpt lat="45.70985" lon="2.92677">
        <ele>1008.044739</ele>
      </trkpt>
      <trkpt lat="45.70931" lon="2.92618">
        <ele>1005.502014</ele>
      </trkpt>
      <trkpt lat="45.70893" lon="2.92644">
        <ele>1009.565002</ele>
      </trkpt>
      <trkpt lat="45.70843" lon="2.92701">
        <ele>1017.889954</ele>
      </trkpt>
      <trkpt lat="45.7076" lon="2.92729">
        <ele>1021.628113</ele>
      </trkpt>
      <trkpt lat="45.70708" lon="2.9278">
        <ele>1025.632446</ele>
      </trkpt>
      <trkpt lat="45.70638" lon="2.92818">
        <ele>1030.157471</ele>
      </trkpt>
      <trkpt lat="45.7062" lon="2.92814">
        <ele>1031.357544</ele>
      </trkpt>
      <trkpt lat="45.70574" lon="2.92621">
        <ele>1032.28125</ele>
      </trkpt>
      <trkpt lat="45.70502" lon="2.92611">
        <ele>1032.55249</ele>
      </trkpt>
      <trkpt lat="45.70502" lon="2.92473">
        <ele>1024.607544</ele>
      </trkpt>
      <trkpt lat="45.70481" lon="2.92261">
        <ele>1014.652527</ele>
      </trkpt>
      <trkpt lat="45.70495" lon="2.92065">
        <ele>1006.609802</ele>
      </trkpt>
      <trkpt lat="45.70403" lon="2.91765">
        <ele>984.23999</ele>
      </trkpt>
      <trkpt lat="45.70373" lon="2.91826">
        <ele>983.256226</ele>
      </trkpt>
      <trkpt lat="45.70355" lon="2.91742">
        <ele>976.152527</ele>
      </trkpt>
      <trkpt lat="45.70356" lon="2.91633">
        <ele>961.787964</ele>
      </trkpt>
      <trkpt lat="45.70338" lon="2.91559">
        <ele>949.677734</ele>
      </trkpt>
      <trkpt lat="45.70332" lon="2.91498">
        <ele>944.903809</ele>
      </trkpt>
      <trkpt lat="45.70332" lon="2.91405">
        <ele>938.133667</ele>
      </trkpt>
      <trkpt lat="45.70317" lon="2.91331">
        <ele>932.068481</ele>
      </trkpt>
      <trkpt lat="45.7048" lon="2.91211">
        <ele>921.265625</ele>
      </trkpt>
      <trkpt lat="45.70534" lon="2.91057">
        <ele>926.407349</ele>
      </trkpt>
      <trkpt lat="45.70609" lon="2.90978">
        <ele>924.629028</ele>
      </trkpt>
      <trkpt lat="45.70666" lon="2.90888">
        <ele>921.932495</ele>
      </trkpt>
      <trkpt lat="45.70635" lon="2.90811">
        <ele>938.614746</ele>
      </trkpt>
      <trkpt lat="45.70583" lon="2.90798">
        <ele>940.948181</ele>
      </trkpt>
      <trkpt lat="45.70554" lon="2.90724">
        <ele>930.576599</ele>
      </trkpt>
      <trkpt lat="45.70496" lon="2.90607">
        <ele>925.596252</ele>
      </trkpt>
      <trkpt lat="45.70458" lon="2.90514">
        <ele>922.57251</ele>
      </trkpt>
      <trkpt lat="45.7041" lon="2.90395">
        <ele>916.237549</ele>
      </trkpt>
      <trkpt lat="45.70473" lon="2.90312">
        <ele>910.094971</ele>
      </trkpt>
      <trkpt lat="45.70521" lon="2.90229">
        <ele>914.110352</ele>
      </trkpt>
      <trkpt lat="45.70514" lon="2.90126">
        <ele>915.318115</ele>
      </trkpt>
      <trkpt lat="45.7047" lon="2.90058">
        <ele>918.436279</ele>
      </trkpt>
      <trkpt lat="45.70403" lon="2.8999">
        <ele>922.898621</ele>
      </trkpt>
      <trkpt lat="45.70331" lon="2.89861">
        <ele>918.082092</ele>
      </trkpt>
      <trkpt lat="45.70208" lon="2.89767">
        <ele>907.671265</ele>
      </trkpt>
      <trkpt lat="45.70155" lon="2.89667">
        <ele>894.094849</ele>
      </trkpt>
      <trkpt lat="45.70067" lon="2.89624">
        <ele>891.712524</ele>
      </trkpt>
      <trkpt lat="45.69942" lon="2.89475">
        <ele>880.033752</ele>
      </trkpt>
      <trkpt lat="45.6988" lon="2.8932">
        <ele>883.242493</ele>
      </trkpt>
      <trkpt lat="45.69858" lon="2.89195">
        <ele>898.173584</ele>
      </trkpt>
      <trkpt lat="45.69719" lon="2.89039">
        <ele>917.513733</ele>
      </trkpt>
      <trkpt lat="45.69616" lon="2.8892">
        <ele>931.225952</ele>
      </trkpt>
      <trkpt lat="45.69529" lon="2.88893">
        <ele>940.636475</ele>
      </trkpt>
      <trkpt lat="45.69425" lon="2.8885">
        <ele>940.112</ele>
      </trkpt>
      <trkpt lat="45.6925" lon="2.88871">
        <ele>941.914246</ele>
      </trkpt>
      <trkpt lat="45.69151" lon="2.88796">
        <ele>948.444885</ele>
      </trkpt>
      <trkpt lat="45.69001" lon="2.88759">
        <ele>945.887512</ele>
      </trkpt>
      <trkpt lat="45.68889" lon="2.88656">
        <ele>955.956543</ele>
      </trkpt>
      <trkpt lat="45.68889" lon="2.88514">
        <ele>962.908936</ele>
      </trkpt>
      <trkpt lat="45.68919" lon="2.8839">
        <ele>959.236633</ele>
      </trkpt>
      <trkpt lat="45.68943" lon="2.8812">
        <ele>962.385742</ele>
      </trkpt>
      <trkpt lat="45.68885" lon="2.88084">
        <ele>962.180969</ele>
      </trkpt>
      <trkpt lat="45.68847" lon="2.87968">
        <ele>959.194702</ele>
      </trkpt>
      <trkpt lat="45.68604" lon="2.87937">
        <ele>964.695435</ele>
      </trkpt>
      <trkpt lat="45.68478" lon="2.87952">
        <ele>962.751221</ele>
      </trkpt>
      <trkpt lat="45.68408" lon="2.87983">
        <ele>960.814026</ele>
      </trkpt>
      <trkpt lat="45.68357" lon="2.87996">
        <ele>954.696899</ele>
      </trkpt>
      <trkpt lat="45.68316" lon="2.87957">
        <ele>942.065552</ele>
      </trkpt>
      <trkpt lat="45.68296" lon="2.87934">
        <ele>937.119019</ele>
      </trkpt>
      <trkpt lat="45.68299" lon="2.87886">
        <ele>930.178345</ele>
      </trkpt>
      <trkpt lat="45.68313" lon="2.87793">
        <ele>921.963196</ele>
      </trkpt>
      <trkpt lat="45.68178" lon="2.87808">
        <ele>928.706177</ele>
      </trkpt>
      <trkpt lat="45.68121" lon="2.87875">
        <ele>935.602112</ele>
      </trkpt>
      <trkpt lat="45.68056" lon="2.87925">
        <ele>939.696594</ele>
      </trkpt>
      <trkpt lat="45.67983" lon="2.87995">
        <ele>937.893372</ele>
      </trkpt>
      <trkpt lat="45.67937" lon="2.87886">
        <ele>933.72876</ele>
      </trkpt>
      <trkpt lat="45.678" lon="2.87827">
        <ele>941.648743</ele>
      </trkpt>
      <trkpt lat="45.67765" lon="2.87631">
        <ele>932.72345</ele>
      </trkpt>
      <trkpt lat="45.67747" lon="2.87521">
        <ele>922.991577</ele>
      </trkpt>
      <trkpt lat="45.67808" lon="2.874">
        <ele>914.352966</ele>
      </trkpt>
      <trkpt lat="45.67897" lon="2.87285">
        <ele>900.7901</ele>
      </trkpt>
      <trkpt lat="45.67978" lon="2.87209">
        <ele>890.112</ele>
      </trkpt>
      <trkpt lat="45.68058" lon="2.87024">
        <ele>880.300354</ele>
      </trkpt>
      <trkpt lat="45.68107" lon="2.86992">
        <ele>876.875244</ele>
      </trkpt>
      <trkpt lat="45.68076" lon="2.8695">
        <ele>878.950256</ele>
      </trkpt>
      <trkpt lat="45.68144" lon="2.86874">
        <ele>878.358521</ele>
      </trkpt>
      <trkpt lat="45.68229" lon="2.86859">
        <ele>881.590027</ele>
      </trkpt>
      <trkpt lat="45.6832" lon="2.8675">
        <ele>886.680481</ele>
      </trkpt>
      <trkpt lat="45.68374" lon="2.86622">
        <ele>881.764404</ele>
      </trkpt>
      <trkpt lat="45.68438" lon="2.86533">
        <ele>886.695618</ele>
      </trkpt>
      <trkpt lat="45.68514" lon="2.86502">
        <ele>884.157532</ele>
      </trkpt>
      <trkpt lat="45.68657" lon="2.86365">
        <ele>879.415833</ele>
      </trkpt>
      <trkpt lat="45.68767" lon="2.86296">
        <ele>869.314514</ele>
      </trkpt>
      <trkpt lat="45.68892" lon="2.86197">
        <ele>859.281067</ele>
      </trkpt>
      <trkpt lat="45.68986" lon="2.86112">
        <ele>859.12262</ele>
      </trkpt>
      <trkpt lat="45.68982" lon="2.86086">
        <ele>861.195862</ele>
      </trkpt>
      <trkpt lat="45.69007" lon="2.85987">
        <ele>868.939514</ele>
      </trkpt>
      <trkpt lat="45.69059" lon="2.85888">
        <ele>876.800659</ele>
      </trkpt>
      <trkpt lat="45.6913" lon="2.8575">
        <ele>891.455505</ele>
      </trkpt>
      <trkpt lat="45.6913" lon="2.85747">
        <ele>891.973145</ele>
      </trkpt>
      <trkpt lat="45.68995" lon="2.8572">
        <ele>914.085388</ele>
      </trkpt>
      <trkpt lat="45.6895" lon="2.85723">
        <ele>918.595032</ele>
      </trkpt>
      <trkpt lat="45.6886" lon="2.85671">
        <ele>938.285278</ele>
      </trkpt>
      <trkpt lat="45.68733" lon="2.8556">
        <ele>971.443359</ele>
      </trkpt>
      <trkpt lat="45.68647" lon="2.85489">
        <ele>994.15802</ele>
      </trkpt>
      <trkpt lat="45.68549" lon="2.85456">
        <ele>1005.545288</ele>
      </trkpt>
      <trkpt lat="45.6851" lon="2.85433">
        <ele>1011.17926</ele>
      </trkpt>
      <trkpt lat="45.68417" lon="2.85221">
        <ele>1038.872192</ele>
      </trkpt>
      <trkpt lat="45.68375" lon="2.8513">
        <ele>1045.928345</ele>
      </trkpt>
      <trkpt lat="45.68332" lon="2.85088">
        <ele>1047.61499</ele>
      </trkpt>
      <trkpt lat="45.68191" lon="2.85064">
        <ele>1046.735718</ele>
      </trkpt>
      <trkpt lat="45.68044" lon="2.85028">
        <ele>1053.157471</ele>
      </trkpt>
      <trkpt lat="45.67941" lon="2.85024">
        <ele>1056.754028</ele>
      </trkpt>
      <trkpt lat="45.6775" lon="2.8508">
        <ele>1064.204956</ele>
      </trkpt>
      <trkpt lat="45.67644" lon="2.85079">
        <ele>1066.423706</ele>
      </trkpt>
      <trkpt lat="45.67574" lon="2.85104">
        <ele>1064.545654</ele>
      </trkpt>
      <trkpt lat="45.67378" lon="2.85102">
        <ele>1054.247437</ele>
      </trkpt>
      <trkpt lat="45.6732" lon="2.85101">
        <ele>1048.214722</ele>
      </trkpt>
      <trkpt lat="45.67191" lon="2.85148">
        <ele>1041.387451</ele>
      </trkpt>
      <trkpt lat="45.67149" lon="2.85112">
        <ele>1040.021484</ele>
      </trkpt>
      <trkpt lat="45.66974" lon="2.85056">
        <ele>1044.363525</ele>
      </trkpt>
      <trkpt lat="45.66877" lon="2.85027">
        <ele>1051.123779</ele>
      </trkpt>
      <trkpt lat="45.66756" lon="2.84984">
        <ele>1061.923706</ele>
      </trkpt>
      <trkpt lat="45.66644" lon="2.84928">
        <ele>1074.443848</ele>
      </trkpt>
      <trkpt lat="45.66417" lon="2.84785">
        <ele>1091.276245</ele>
      </trkpt>
      <trkpt lat="45.66314" lon="2.84717">
        <ele>1091.270996</ele>
      </trkpt>
      <trkpt lat="45.66219" lon="2.84777">
        <ele>1096.057495</ele>
      </trkpt>
      <trkpt lat="45.66187" lon="2.84898">
        <ele>1097.621948</ele>
      </trkpt>
      <trkpt lat="45.66011" lon="2.84986">
        <ele>1107.985107</ele>
      </trkpt>
      <trkpt lat="45.65894" lon="2.85056">
        <ele>1116.907349</ele>
      </trkpt>
      <trkpt lat="45.65802" lon="2.85055">
        <ele>1127.102539</ele>
      </trkpt>
      <trkpt lat="45.65644" lon="2.85236">
        <ele>1142.198975</ele>
      </trkpt>
      <trkpt lat="45.65479" lon="2.85392">
        <ele>1161.128418</ele>
      </trkpt>
      <trkpt lat="45.6533" lon="2.85387">
        <ele>1178.236206</ele>
      </trkpt>
      <trkpt lat="45.65213" lon="2.85457">
        <ele>1189.119629</ele>
      </trkpt>
      <trkpt lat="45.65139" lon="2.85443">
        <ele>1194.152466</ele>
      </trkpt>
      <trkpt lat="45.65044" lon="2.8558">
        <ele>1209.912476</ele>
      </trkpt>
      <trkpt lat="45.64935" lon="2.85839">
        <ele>1227.419067</ele>
      </trkpt>
      <trkpt lat="45.64773" lon="2.85712">
        <ele>1211.392456</ele>
      </trkpt>
      <trkpt lat="45.64779" lon="2.85886">
        <ele>1211.842529</ele>
      </trkpt>
      <trkpt lat="45.64761" lon="2.86014">
        <ele>1212.066284</ele>
      </trkpt>
      <trkpt lat="45.6469" lon="2.86135">
        <ele>1208.223755</ele>
      </trkpt>
      <trkpt lat="45.64735" lon="2.86222">
        <ele>1205.619019</ele>
      </trkpt>
      <trkpt lat="45.64722" lon="2.86613">
        <ele>1181.657104</ele>
      </trkpt>
      <trkpt lat="45.64786" lon="2.86752">
        <ele>1172.655029</ele>
      </trkpt>
      <trkpt lat="45.64903" lon="2.86871">
        <ele>1162.381226</ele>
      </trkpt>
      <trkpt lat="45.6506" lon="2.86979">
        <ele>1147.810059</ele>
      </trkpt>
      <trkpt lat="45.64953" lon="2.87157">
        <ele>1151.805054</ele>
      </trkpt>
      <trkpt lat="45.64806" lon="2.87335">
        <ele>1162.763428</ele>
      </trkpt>
      <trkpt lat="45.64607" lon="2.87561">
        <ele>1151.006226</ele>
      </trkpt>
      <trkpt lat="45.64521" lon="2.87612">
        <ele>1137.253784</ele>
      </trkpt>
      <trkpt lat="45.64545" lon="2.8782">
        <ele>1120.686279</ele>
      </trkpt>
      <trkpt lat="45.64641" lon="2.87901">
        <ele>1120.400635</ele>
      </trkpt>
      <trkpt lat="45.64738" lon="2.87995">
        <ele>1117.532471</ele>
      </trkpt>
      <trkpt lat="45.64767" lon="2.88069">
        <ele>1109.356201</ele>
      </trkpt>
      <trkpt lat="45.64699" lon="2.88094">
        <ele>1105.757446</ele>
      </trkpt>
      <trkpt lat="45.64551" lon="2.8808">
        <ele>1118.69519</ele>
      </trkpt>
      <trkpt lat="45.64372" lon="2.882">
        <ele>1130.630127</ele>
      </trkpt>
      <trkpt lat="45.64246" lon="2.88183">
        <ele>1138.998535</ele>
      </trkpt>
      <trkpt lat="45.64161" lon="2.88182">
        <ele>1145.55249</ele>
      </trkpt>
      <trkpt lat="45.6408" lon="2.88229">
        <ele>1149.316772</ele>
      </trkpt>
      <trkpt lat="45.63989" lon="2.8837">
        <ele>1152.171021</ele>
      </trkpt>
      <trkpt lat="45.63946" lon="2.88494">
        <ele>1153.391235</ele>
      </trkpt>
      <trkpt lat="45.63823" lon="2.88759">
        <ele>1160.533691</ele>
      </trkpt>
      <trkpt lat="45.6373" lon="2.88874">
        <ele>1160.059082</ele>
      </trkpt>
      <trkpt lat="45.63683" lon="2.8896">
        <ele>1160.45752</ele>
      </trkpt>
      <trkpt lat="45.63535" lon="2.88872">
        <ele>1173.300415</ele>
      </trkpt>
      <trkpt lat="45.63524" lon="2.88956">
        <ele>1170</ele>
      </trkpt>
      <trkpt lat="45.63525" lon="2.88969">
        <ele>1170</ele>
      </trkpt>
      <trkpt lat="45.63518" lon="2.88981">
        <ele>1170</ele>
      </trkpt>
      <trkpt lat="45.63509" lon="2.88987">
        <ele>1170</ele>
      </trkpt>
      <trkpt lat="45.635" lon="2.88993">
        <ele>1169</ele>
      </trkpt>
      <trkpt lat="45.63492" lon="2.88999">
        <ele>1169</ele>
      </trkpt>
      <trkpt lat="45.63484" lon="2.89006">
        <ele>1169</ele>
      </trkpt>
      <trkpt lat="45.63476" lon="2.89014">
        <ele>1168</ele>
      </trkpt>
      <trkpt lat="45.63469" lon="2.89025">
        <ele>1168</ele>
      </trkpt>
      <trkpt lat="45.63467" lon="2.89038">
        <ele>1167</ele>
      </trkpt>
      <trkpt lat="45.63465" lon="2.89052">
        <ele>1166</ele>
      </trkpt>
      <trkpt lat="45.63464" lon="2.89066">
        <ele>1165</ele>
      </trkpt>
      <trkpt lat="45.6346" lon="2.89079">
        <ele>1164</ele>
      </trkpt>
      <trkpt lat="45.63457" lon="2.89091">
        <ele>1164</ele>
      </trkpt>
      <trkpt lat="45.63453" lon="2.89105">
        <ele>1162</ele>
      </trkpt>
      <trkpt lat="45.63449" lon="2.89117">
        <ele>1161</ele>
      </trkpt>
      <trkpt lat="45.63444" lon="2.89131">
        <ele>1160</ele>
      </trkpt>
      <trkpt lat="45.63442" lon="2.89146">
        <ele>1158</ele>
      </trkpt>
      <trkpt lat="45.63448" lon="2.89157">
        <ele>1158</ele>
      </trkpt>
      <trkpt lat="45.63455" lon="2.89165">
        <ele>1158</ele>
      </trkpt>
      <trkpt lat="45.63462" lon="2.89174">
        <ele>1158</ele>
      </trkpt>
      <trkpt lat="45.6347" lon="2.89182">
        <ele>1157</ele>
      </trkpt>
      <trkpt lat="45.63479" lon="2.8919">
        <ele>1157</ele>
      </trkpt>
      <trkpt lat="45.63486" lon="2.89201">
        <ele>1157</ele>
      </trkpt>
      <trkpt lat="45.63492" lon="2.89213">
        <ele>1156</ele>
      </trkpt>
      <trkpt lat="45.63499" lon="2.89224">
        <ele>1156</ele>
      </trkpt>
      <trkpt lat="45.63507" lon="2.89233">
        <ele>1155</ele>
      </trkpt>
      <trkpt lat="45.63515" lon="2.89242">
        <ele>1155</ele>
      </trkpt>
      <trkpt lat="45.63523" lon="2.89251">
        <ele>1154</ele>
      </trkpt>
      <trkpt lat="45.6353" lon="2.8926">
        <ele>1154</ele>
      </trkpt>
      <trkpt lat="45.63535" lon="2.89272">
        <ele>1153</ele>
      </trkpt>
      <trkpt lat="45.63543" lon="2.89281">
        <ele>1153</ele>
      </trkpt>
      <trkpt lat="45.6355" lon="2.89291">
        <ele>1152</ele>
      </trkpt>
      <trkpt lat="45.63557" lon="2.89301">
        <ele>1152</ele>
      </trkpt>
      <trkpt lat="45.63565" lon="2.89309">
        <ele>1151</ele>
      </trkpt>
      <trkpt lat="45.63571" lon="2.8932">
        <ele>1151</ele>
      </trkpt>
      <trkpt lat="45.63578" lon="2.89329">
        <ele>1150</ele>
      </trkpt>
      <trkpt lat="45.63586" lon="2.89339">
        <ele>1150</ele>
      </trkpt>
      <trkpt lat="45.63592" lon="2.8935">
        <ele>1150</ele>
      </trkpt>
      <trkpt lat="45.636" lon="2.89359">
        <ele>1149</ele>
      </trkpt>
      <trkpt lat="45.63607" lon="2.8937">
        <ele>1149</ele>
      </trkpt>
      <trkpt lat="45.63614" lon="2.8938">
        <ele>1148</ele>
      </trkpt>
      <trkpt lat="45.63617" lon="2.89393">
        <ele>1147</ele>
      </trkpt>
      <trkpt lat="45.63609" lon="2.89402">
        <ele>1147</ele>
      </trkpt>
      <trkpt lat="45.63602" lon="2.89411">
        <ele>1146</ele>
      </trkpt>
      <trkpt lat="45.63593" lon="2.89418">
        <ele>1146</ele>
      </trkpt>
      <trkpt lat="45.63585" lon="2.89426">
        <ele>1145</ele>
      </trkpt>
      <trkpt lat="45.63577" lon="2.89434">
        <ele>1144</ele>
      </trkpt>
      <trkpt lat="45.63567" lon="2.89438">
        <ele>1143</ele>
      </trkpt>
      <trkpt lat="45.63558" lon="2.89446">
        <ele>1142</ele>
      </trkpt>
      <trkpt lat="45.6355" lon="2.89453">
        <ele>1141</ele>
      </trkpt>
      <trkpt lat="45.63541" lon="2.89459">
        <ele>1140</ele>
      </trkpt>
      <trkpt lat="45.63532" lon="2.89466">
        <ele>1139</ele>
      </trkpt>
      <trkpt lat="45.63525" lon="2.89476">
        <ele>1138</ele>
      </trkpt>
      <trkpt lat="45.63516" lon="2.89482">
        <ele>1137</ele>
      </trkpt>
      <trkpt lat="45.63507" lon="2.89489">
        <ele>1136</ele>
      </trkpt>
      <trkpt lat="45.63499" lon="2.89496">
        <ele>1135</ele>
      </trkpt>
      <trkpt lat="45.6349" lon="2.895">
        <ele>1134</ele>
      </trkpt>
      <trkpt lat="45.63481" lon="2.89506">
        <ele>1132</ele>
      </trkpt>
      <trkpt lat="45.63472" lon="2.89513">
        <ele>1131</ele>
      </trkpt>
      <trkpt lat="45.63462" lon="2.89517">
        <ele>1130</ele>
      </trkpt>
      <trkpt lat="45.63452" lon="2.89521">
        <ele>1129</ele>
      </trkpt>
      <trkpt lat="45.63443" lon="2.89528">
        <ele>1128</ele>
      </trkpt>
      <trkpt lat="45.63434" lon="2.89532">
        <ele>1126</ele>
      </trkpt>
      <trkpt lat="45.63424" lon="2.89532">
        <ele>1125</ele>
      </trkpt>
      <trkpt lat="45.63415" lon="2.89536">
        <ele>1124</ele>
      </trkpt>
      <trkpt lat="45.63406" lon="2.89541">
        <ele>1123</ele>
      </trkpt>
      <trkpt lat="45.63396" lon="2.89548">
        <ele>1122</ele>
      </trkpt>
      <trkpt lat="45.63387" lon="2.89556">
        <ele>1121</ele>
      </trkpt>
      <trkpt lat="45.63381" lon="2.89567">
        <ele>1120</ele>
      </trkpt>
      <trkpt lat="45.63375" lon="2.89577">
        <ele>1120</ele>
      </trkpt>
      <trkpt lat="45.63369" lon="2.8959">
        <ele>1119</ele>
      </trkpt>
      <trkpt lat="45.63363" lon="2.89603">
        <ele>1118</ele>
      </trkpt>
      <trkpt lat="45.63356" lon="2.89614">
        <ele>1117</ele>
      </trkpt>
      <trkpt lat="45.6335" lon="2.89626">
        <ele>1116</ele>
      </trkpt>
      <trkpt lat="45.63344" lon="2.89638">
        <ele>1116</ele>
      </trkpt>
      <trkpt lat="45.63337" lon="2.89647">
        <ele>1115</ele>
      </trkpt>
      <trkpt lat="45.63332" lon="2.89661">
        <ele>1114</ele>
      </trkpt>
      <trkpt lat="45.63327" lon="2.89672">
        <ele>1113</ele>
      </trkpt>
      <trkpt lat="45.63319" lon="2.89682">
        <ele>1112</ele>
      </trkpt>
      <trkpt lat="45.63311" lon="2.89691">
        <ele>1111</ele>
      </trkpt>
      <trkpt lat="45.63304" lon="2.89701">
        <ele>1110</ele>
      </trkpt>
      <trkpt lat="45.63296" lon="2.89711">
        <ele>1109</ele>
      </trkpt>
      <trkpt lat="45.63287" lon="2.89715">
        <ele>1107</ele>
      </trkpt>
      <trkpt lat="45.63277" lon="2.8972">
        <ele>1106</ele>
      </trkpt>
      <trkpt lat="45.63271" lon="2.8973">
        <ele>1105</ele>
      </trkpt>
      <trkpt lat="45.63257" lon="2.89748">
        <ele>1103</ele>
      </trkpt>
      <trkpt lat="45.63249" lon="2.89756">
        <ele>1101</ele>
      </trkpt>
      <trkpt lat="45.63242" lon="2.89765">
        <ele>1100</ele>
      </trkpt>
      <trkpt lat="45.63237" lon="2.89777">
        <ele>1100</ele>
      </trkpt>
      <trkpt lat="45.6323" lon="2.89786">
        <ele>1098</ele>
      </trkpt>
      <trkpt lat="45.63225" lon="2.89797">
        <ele>1098</ele>
      </trkpt>
      <trkpt lat="45.6322" lon="2.8981">
        <ele>1097</ele>
      </trkpt>
      <trkpt lat="45.63214" lon="2.89822">
        <ele>1096</ele>
      </trkpt>
      <trkpt lat="45.63208" lon="2.89834">
        <ele>1095</ele>
      </trkpt>
      <trkpt lat="45.63202" lon="2.89844">
        <ele>1094</ele>
      </trkpt>
      <trkpt lat="45.63195" lon="2.89853">
        <ele>1093</ele>
      </trkpt>
      <trkpt lat="45.63192" lon="2.89867">
        <ele>1094</ele>
      </trkpt>
      <trkpt lat="45.63189" lon="2.8988">
        <ele>1094</ele>
      </trkpt>
      <trkpt lat="45.63181" lon="2.89887">
        <ele>1093</ele>
      </trkpt>
      <trkpt lat="45.63176" lon="2.89899">
        <ele>1093</ele>
      </trkpt>
      <trkpt lat="45.6317" lon="2.8991">
        <ele>1092</ele>
      </trkpt>
      <trkpt lat="45.63165" lon="2.89921">
        <ele>1091</ele>
      </trkpt>
      <trkpt lat="45.63158" lon="2.89934">
        <ele>1090</ele>
      </trkpt>
      <trkpt lat="45.6315" lon="2.89943">
        <ele>1088</ele>
      </trkpt>
      <trkpt lat="45.63144" lon="2.89955">
        <ele>1086</ele>
      </trkpt>
      <trkpt lat="45.63142" lon="2.89968">
        <ele>1086</ele>
      </trkpt>
      <trkpt lat="45.63143" lon="2.89982">
        <ele>1086</ele>
      </trkpt>
      <trkpt lat="45.6314" lon="2.89994">
        <ele>1084</ele>
      </trkpt>
      <trkpt lat="45.63139" lon="2.90008">
        <ele>1083</ele>
      </trkpt>
      <trkpt lat="45.6314" lon="2.90022">
        <ele>1082</ele>
      </trkpt>
      <trkpt lat="45.63141" lon="2.90036">
        <ele>1081</ele>
      </trkpt>
      <trkpt lat="45.63143" lon="2.9005">
        <ele>1081</ele>
      </trkpt>
      <trkpt lat="45.63145" lon="2.90062">
        <ele>1081</ele>
      </trkpt>
      <trkpt lat="45.63147" lon="2.90076">
        <ele>1080</ele>
      </trkpt>
      <trkpt lat="45.63141" lon="2.90089">
        <ele>1076</ele>
      </trkpt>
      <trkpt lat="45.63137" lon="2.90101">
        <ele>1074</ele>
      </trkpt>
      <trkpt lat="45.6313" lon="2.90115">
        <ele>1071</ele>
      </trkpt>
      <trkpt lat="45.63123" lon="2.90124">
        <ele>1069</ele>
      </trkpt>
      <trkpt lat="45.63114" lon="2.90132">
        <ele>1067</ele>
      </trkpt>
      <trkpt lat="45.63106" lon="2.90139">
        <ele>1065</ele>
      </trkpt>
      <trkpt lat="45.631" lon="2.90149">
        <ele>1063</ele>
      </trkpt>
      <trkpt lat="45.6309" lon="2.90154">
        <ele>1061</ele>
      </trkpt>
      <trkpt lat="45.63082" lon="2.90162">
        <ele>1060</ele>
      </trkpt>
      <trkpt lat="45.63076" lon="2.90173">
        <ele>1058</ele>
      </trkpt>
      <trkpt lat="45.63069" lon="2.90182">
        <ele>1056</ele>
      </trkpt>
      <trkpt lat="45.63061" lon="2.9019">
        <ele>1055</ele>
      </trkpt>
      <trkpt lat="45.63052" lon="2.90199">
        <ele>1053</ele>
      </trkpt>
      <trkpt lat="45.63043" lon="2.90203">
        <ele>1053</ele>
      </trkpt>
      <trkpt lat="45.63037" lon="2.90213">
        <ele>1053</ele>
      </trkpt>
      <trkpt lat="45.63037" lon="2.90227">
        <ele>1053</ele>
      </trkpt>
      <trkpt lat="45.63034" lon="2.90239">
        <ele>1053</ele>
      </trkpt>
      <trkpt lat="45.63025" lon="2.90248">
        <ele>1054</ele>
      </trkpt>
      <trkpt lat="45.63029" lon="2.90259">
        <ele>1053</ele>
      </trkpt>
      <trkpt lat="45.63037" lon="2.90268">
        <ele>1052</ele>
      </trkpt>
      <trkpt lat="45.63037" lon="2.90282">
        <ele>1052</ele>
      </trkpt>
      <trkpt lat="45.6304" lon="2.90296">
        <ele>1052</ele>
      </trkpt>
      <trkpt lat="45.63044" lon="2.90311">
        <ele>1051</ele>
      </trkpt>
      <trkpt lat="45.63043" lon="2.90325">
        <ele>1052</ele>
      </trkpt>
      <trkpt lat="45.63044" lon="2.90338">
        <ele>1052</ele>
      </trkpt>
      <trkpt lat="45.63046" lon="2.90352">
        <ele>1052</ele>
      </trkpt>
      <trkpt lat="45.63048" lon="2.90364">
        <ele>1051</ele>
      </trkpt>
      <trkpt lat="45.63051" lon="2.90377">
        <ele>1051</ele>
      </trkpt>
      <trkpt lat="45.63053" lon="2.9039">
        <ele>1051</ele>
      </trkpt>
      <trkpt lat="45.63051" lon="2.90403">
        <ele>1052</ele>
      </trkpt>
      <trkpt lat="45.63055" lon="2.90418">
        <ele>1051</ele>
      </trkpt>
      <trkpt lat="45.6306" lon="2.9043">
        <ele>1051</ele>
      </trkpt>
      <trkpt lat="45.63064" lon="2.90442">
        <ele>1051</ele>
      </trkpt>
      <trkpt lat="45.63072" lon="2.90451">
        <ele>1050</ele>
      </trkpt>
      <trkpt lat="45.6308" lon="2.9046">
        <ele>1049</ele>
      </trkpt>
      <trkpt lat="45.63078" lon="2.90475">
        <ele>1049</ele>
      </trkpt>
      <trkpt lat="45.6308" lon="2.90489">
        <ele>1049</ele>
      </trkpt>
      <trkpt lat="45.63079" lon="2.90503">
        <ele>1050</ele>
      </trkpt>
      <trkpt lat="45.63085" lon="2.90513">
        <ele>1049</ele>
      </trkpt>
      <trkpt lat="45.63085" lon="2.90527">
        <ele>1049</ele>
      </trkpt>
      <trkpt lat="45.63088" lon="2.90539">
        <ele>1049</ele>
      </trkpt>
      <trkpt lat="45.63088" lon="2.90553">
        <ele>1049</ele>
      </trkpt>
      <trkpt lat="45.6309" lon="2.90566">
        <ele>1049</ele>
      </trkpt>
      <trkpt lat="45.63091" lon="2.90581">
        <ele>1050</ele>
      </trkpt>
      <trkpt lat="45.63097" lon="2.90592">
        <ele>1049</ele>
      </trkpt>
      <trkpt lat="45.63102" lon="2.90605">
        <ele>1049</ele>
      </trkpt>
      <trkpt lat="45.63107" lon="2.90617">
        <ele>1048</ele>
      </trkpt>
      <trkpt lat="45.63112" lon="2.9063">
        <ele>1048</ele>
      </trkpt>
      <trkpt lat="45.63118" lon="2.9064">
        <ele>1047</ele>
      </trkpt>
      <trkpt lat="45.63125" lon="2.9065">
        <ele>1047</ele>
      </trkpt>
      <trkpt lat="45.63134" lon="2.9066">
        <ele>1046</ele>
      </trkpt>
      <trkpt lat="45.63143" lon="2.90666">
        <ele>1044</ele>
      </trkpt>
      <trkpt lat="45.6315" lon="2.90678">
        <ele>1044</ele>
      </trkpt>
      <trkpt lat="45.63159" lon="2.90684">
        <ele>1043</ele>
      </trkpt>
      <trkpt lat="45.63166" lon="2.90694">
        <ele>1042</ele>
      </trkpt>
      <trkpt lat="45.63175" lon="2.90698">
        <ele>1040</ele>
      </trkpt>
      <trkpt lat="45.63184" lon="2.90703">
        <ele>1039</ele>
      </trkpt>
      <trkpt lat="45.63192" lon="2.90711">
        <ele>1039</ele>
      </trkpt>
      <trkpt lat="45.63202" lon="2.90719">
        <ele>1039</ele>
      </trkpt>
      <trkpt lat="45.63209" lon="2.9073">
        <ele>1039</ele>
      </trkpt>
      <trkpt lat="45.63214" lon="2.90742">
        <ele>1038</ele>
      </trkpt>
      <trkpt lat="45.63224" lon="2.90751">
        <ele>1037</ele>
      </trkpt>
      <trkpt lat="45.63232" lon="2.9076">
        <ele>1037</ele>
      </trkpt>
      <trkpt lat="45.63238" lon="2.90772">
        <ele>1037</ele>
      </trkpt>
      <trkpt lat="45.63245" lon="2.90781">
        <ele>1037</ele>
      </trkpt>
      <trkpt lat="45.63252" lon="2.90791">
        <ele>1037</ele>
      </trkpt>
      <trkpt lat="45.63257" lon="2.90804">
        <ele>1037</ele>
      </trkpt>
      <trkpt lat="45.63257" lon="2.90819">
        <ele>1036</ele>
      </trkpt>
      <trkpt lat="45.63261" lon="2.90832">
        <ele>1036</ele>
      </trkpt>
      <trkpt lat="45.63262" lon="2.90846">
        <ele>1036</ele>
      </trkpt>
      <trkpt lat="45.63266" lon="2.90859">
        <ele>1036</ele>
      </trkpt>
      <trkpt lat="45.63269" lon="2.90876">
        <ele>1035</ele>
      </trkpt>
      <trkpt lat="45.63275" lon="2.90892">
        <ele>1035</ele>
      </trkpt>
      <trkpt lat="45.63282" lon="2.90903">
        <ele>1035</ele>
      </trkpt>
      <trkpt lat="45.63287" lon="2.90915">
        <ele>1035</ele>
      </trkpt>
      <trkpt lat="45.63296" lon="2.90928">
        <ele>1035</ele>
      </trkpt>
      <trkpt lat="45.63303" lon="2.90939">
        <ele>1035</ele>
      </trkpt>
      <trkpt lat="45.6331" lon="2.90948">
        <ele>1035</ele>
      </trkpt>
      <trkpt lat="45.63319" lon="2.90959">
        <ele>1035</ele>
      </trkpt>
      <trkpt lat="45.63324" lon="2.90971">
        <ele>1035</ele>
      </trkpt>
      <trkpt lat="45.63327" lon="2.90984">
        <ele>1035</ele>
      </trkpt>
      <trkpt lat="45.63332" lon="2.90996">
        <ele>1035</ele>
      </trkpt>
      <trkpt lat="45.63332" lon="2.9101">
        <ele>1035</ele>
      </trkpt>
      <trkpt lat="45.63333" lon="2.91025">
        <ele>1034</ele>
      </trkpt>
      <trkpt lat="45.63336" lon="2.91038">
        <ele>1034</ele>
      </trkpt>
      <trkpt lat="45.63338" lon="2.91052">
        <ele>1034</ele>
      </trkpt>
      <trkpt lat="45.63339" lon="2.91068">
        <ele>1034</ele>
      </trkpt>
      <trkpt lat="45.63337" lon="2.91082">
        <ele>1033</ele>
      </trkpt>
      <trkpt lat="45.63342" lon="2.91098">
        <ele>1033</ele>
      </trkpt>
      <trkpt lat="45.63338" lon="2.91112">
        <ele>1032</ele>
      </trkpt>
      <trkpt lat="45.63334" lon="2.91124">
        <ele>1031</ele>
      </trkpt>
      <trkpt lat="45.63335" lon="2.91149">
        <ele>1031</ele>
      </trkpt>
      <trkpt lat="45.63338" lon="2.91162">
        <ele>1031</ele>
      </trkpt>
      <trkpt lat="45.63342" lon="2.91175">
        <ele>1031</ele>
      </trkpt>
      <trkpt lat="45.63345" lon="2.91187">
        <ele>1032</ele>
      </trkpt>
      <trkpt lat="45.63344" lon="2.91202">
        <ele>1031</ele>
      </trkpt>
      <trkpt lat="45.6335" lon="2.91213">
        <ele>1031</ele>
      </trkpt>
      <trkpt lat="45.63353" lon="2.91226">
        <ele>1030</ele>
      </trkpt>
      <trkpt lat="45.63357" lon="2.91239">
        <ele>1030</ele>
      </trkpt>
      <trkpt lat="45.6336" lon="2.91252">
        <ele>1029</ele>
      </trkpt>
      <trkpt lat="45.63359" lon="2.91266">
        <ele>1028</ele>
      </trkpt>
      <trkpt lat="45.63366" lon="2.91278">
        <ele>1028</ele>
      </trkpt>
      <trkpt lat="45.63372" lon="2.9129">
        <ele>1028</ele>
      </trkpt>
      <trkpt lat="45.63376" lon="2.91304">
        <ele>1028</ele>
      </trkpt>
      <trkpt lat="45.63378" lon="2.91317">
        <ele>1028</ele>
      </trkpt>
      <trkpt lat="45.63382" lon="2.9133">
        <ele>1027</ele>
      </trkpt>
      <trkpt lat="45.63388" lon="2.9134">
        <ele>1027</ele>
      </trkpt>
      <trkpt lat="45.63391" lon="2.91352">
        <ele>1027</ele>
      </trkpt>
      <trkpt lat="45.63389" lon="2.91366">
        <ele>1026</ele>
      </trkpt>
      <trkpt lat="45.63389" lon="2.91381">
        <ele>1026</ele>
      </trkpt>
      <trkpt lat="45.63389" lon="2.91395">
        <ele>1025</ele>
      </trkpt>
      <trkpt lat="45.63392" lon="2.91409">
        <ele>1025</ele>
      </trkpt>
      <trkpt lat="45.63393" lon="2.91424">
        <ele>1024</ele>
      </trkpt>
      <trkpt lat="45.63398" lon="2.91439">
        <ele>1024</ele>
      </trkpt>
      <trkpt lat="45.63407" lon="2.91453">
        <ele>1023</ele>
      </trkpt>
      <trkpt lat="45.63413" lon="2.91469">
        <ele>1024</ele>
      </trkpt>
      <trkpt lat="45.63415" lon="2.91484">
        <ele>1024</ele>
      </trkpt>
      <trkpt lat="45.63416" lon="2.91497">
        <ele>1023</ele>
      </trkpt>
      <trkpt lat="45.63422" lon="2.91508">
        <ele>1024</ele>
      </trkpt>
      <trkpt lat="45.63422" lon="2.91523">
        <ele>1023</ele>
      </trkpt>
      <trkpt lat="45.63427" lon="2.91536">
        <ele>1023</ele>
      </trkpt>
      <trkpt lat="45.63428" lon="2.9155">
        <ele>1023</ele>
      </trkpt>
      <trkpt lat="45.63431" lon="2.91564">
        <ele>1022</ele>
      </trkpt>
      <trkpt lat="45.63436" lon="2.91582">
        <ele>1022</ele>
      </trkpt>
      <trkpt lat="45.63441" lon="2.91596">
        <ele>1021</ele>
      </trkpt>
      <trkpt lat="45.63447" lon="2.91609">
        <ele>1021</ele>
      </trkpt>
      <trkpt lat="45.6345" lon="2.91622">
        <ele>1021</ele>
      </trkpt>
      <trkpt lat="45.63456" lon="2.91633">
        <ele>1021</ele>
      </trkpt>
      <trkpt lat="45.63465" lon="2.91643">
        <ele>1022</ele>
      </trkpt>
      <trkpt lat="45.63474" lon="2.9165">
        <ele>1022</ele>
      </trkpt>
      <trkpt lat="45.63485" lon="2.91652">
        <ele>1022</ele>
      </trkpt>
      <trkpt lat="45.63491" lon="2.91663">
        <ele>1021</ele>
      </trkpt>
      <trkpt lat="45.63493" lon="2.91677">
        <ele>1020</ele>
      </trkpt>
      <trkpt lat="45.63496" lon="2.91692">
        <ele>1020</ele>
      </trkpt>
      <trkpt lat="45.63499" lon="2.91707">
        <ele>1020</ele>
      </trkpt>
      <trkpt lat="45.63505" lon="2.9172">
        <ele>1020</ele>
      </trkpt>
      <trkpt lat="45.63508" lon="2.91734">
        <ele>1020</ele>
      </trkpt>
      <trkpt lat="45.63509" lon="2.91749">
        <ele>1020</ele>
      </trkpt>
      <trkpt lat="45.63513" lon="2.91766">
        <ele>1020</ele>
      </trkpt>
      <trkpt lat="45.63516" lon="2.9178">
        <ele>1020</ele>
      </trkpt>
      <trkpt lat="45.6352" lon="2.91794">
        <ele>1020</ele>
      </trkpt>
      <trkpt lat="45.6352" lon="2.91807">
        <ele>1020</ele>
      </trkpt>
      <trkpt lat="45.63524" lon="2.9182">
        <ele>1019</ele>
      </trkpt>
      <trkpt lat="45.63527" lon="2.91833">
        <ele>1019</ele>
      </trkpt>
      <trkpt lat="45.63535" lon="2.91838">
        <ele>1018</ele>
      </trkpt>
      <trkpt lat="45.63544" lon="2.91843">
        <ele>1019</ele>
      </trkpt>
      <trkpt lat="45.63552" lon="2.91853">
        <ele>1020</ele>
      </trkpt>
      <trkpt lat="45.63544" lon="2.91859">
        <ele>1018</ele>
      </trkpt>
      <trkpt lat="45.63539" lon="2.91871">
        <ele>1017</ele>
      </trkpt>
      <trkpt lat="45.63533" lon="2.91884">
        <ele>1017</ele>
      </trkpt>
      <trkpt lat="45.63531" lon="2.91898">
        <ele>1017</ele>
      </trkpt>
      <trkpt lat="45.63529" lon="2.91912">
        <ele>1017</ele>
      </trkpt>
      <trkpt lat="45.63526" lon="2.91929">
        <ele>1018</ele>
      </trkpt>
      <trkpt lat="45.63524" lon="2.91944">
        <ele>1019</ele>
      </trkpt>
      <trkpt lat="45.63522" lon="2.91958">
        <ele>1020</ele>
      </trkpt>
      <trkpt lat="45.63518" lon="2.91972">
        <ele>1021</ele>
      </trkpt>
      <trkpt lat="45.63515" lon="2.91986">
        <ele>1022</ele>
      </trkpt>
      <trkpt lat="45.6351" lon="2.91998">
        <ele>1023</ele>
      </trkpt>
      <trkpt lat="45.63505" lon="2.92012">
        <ele>1024</ele>
      </trkpt>
      <trkpt lat="45.63498" lon="2.92023">
        <ele>1025</ele>
      </trkpt>
      <trkpt lat="45.63494" lon="2.92036">
        <ele>1027</ele>
      </trkpt>
      <trkpt lat="45.6349" lon="2.9205">
        <ele>1027</ele>
      </trkpt>
      <trkpt lat="45.63486" lon="2.92061">
        <ele>1028</ele>
      </trkpt>
      <trkpt lat="45.63481" lon="2.92073">
        <ele>1028</ele>
      </trkpt>
      <trkpt lat="45.63474" lon="2.92085">
        <ele>1030</ele>
      </trkpt>
      <trkpt lat="45.63467" lon="2.92095">
        <ele>1031</ele>
      </trkpt>
      <trkpt lat="45.63465" lon="2.92109">
        <ele>1031</ele>
      </trkpt>
      <trkpt lat="45.6346" lon="2.92122">
        <ele>1032</ele>
      </trkpt>
      <trkpt lat="45.63455" lon="2.92134">
        <ele>1033</ele>
      </trkpt>
      <trkpt lat="45.6345" lon="2.92147">
        <ele>1034</ele>
      </trkpt>
      <trkpt lat="45.63442" lon="2.92158">
        <ele>1036</ele>
      </trkpt>
      <trkpt lat="45.63438" lon="2.9217">
        <ele>1037</ele>
      </trkpt>
      <trkpt lat="45.63434" lon="2.92183">
        <ele>1038</ele>
      </trkpt>
      <trkpt lat="45.63434" lon="2.922">
        <ele>1038</ele>
      </trkpt>
      <trkpt lat="45.63429" lon="2.92212">
        <ele>1039</ele>
      </trkpt>
      <trkpt lat="45.63426" lon="2.92225">
        <ele>1040</ele>
      </trkpt>
      <trkpt lat="45.63421" lon="2.92238">
        <ele>1042</ele>
      </trkpt>
      <trkpt lat="45.63417" lon="2.92252">
        <ele>1043</ele>
      </trkpt>
      <trkpt lat="45.63412" lon="2.92264">
        <ele>1045</ele>
      </trkpt>
      <trkpt lat="45.63407" lon="2.92279">
        <ele>1046</ele>
      </trkpt>
      <trkpt lat="45.63401" lon="2.92291">
        <ele>1048</ele>
      </trkpt>
      <trkpt lat="45.63399" lon="2.92304">
        <ele>1049</ele>
      </trkpt>
      <trkpt lat="45.63392" lon="2.92317">
        <ele>1051</ele>
      </trkpt>
      <trkpt lat="45.63387" lon="2.92329">
        <ele>1053</ele>
      </trkpt>
      <trkpt lat="45.63382" lon="2.92341">
        <ele>1054</ele>
      </trkpt>
      <trkpt lat="45.63375" lon="2.92351">
        <ele>1056</ele>
      </trkpt>
      <trkpt lat="45.63366" lon="2.92359">
        <ele>1057</ele>
      </trkpt>
      <trkpt lat="45.63359" lon="2.9237">
        <ele>1058</ele>
      </trkpt>
      <trkpt lat="45.63353" lon="2.92381">
        <ele>1060</ele>
      </trkpt>
      <trkpt lat="45.63348" lon="2.92393">
        <ele>1061</ele>
      </trkpt>
      <trkpt lat="45.63339" lon="2.924">
        <ele>1062</ele>
      </trkpt>
      <trkpt lat="45.63333" lon="2.9241">
        <ele>1063</ele>
      </trkpt>
      <trkpt lat="45.63325" lon="2.92417">
        <ele>1064</ele>
      </trkpt>
      <trkpt lat="45.63315" lon="2.92421">
        <ele>1066</ele>
      </trkpt>
      <trkpt lat="45.63305" lon="2.92426">
        <ele>1067</ele>
      </trkpt>
      <trkpt lat="45.63295" lon="2.92428">
        <ele>1067</ele>
      </trkpt>
      <trkpt lat="45.63286" lon="2.9243">
        <ele>1068</ele>
      </trkpt>
      <trkpt lat="45.63278" lon="2.92438">
        <ele>1069</ele>
      </trkpt>
      <trkpt lat="45.63269" lon="2.92446">
        <ele>1070</ele>
      </trkpt>
      <trkpt lat="45.63261" lon="2.92452">
        <ele>1070</ele>
      </trkpt>
      <trkpt lat="45.63252" lon="2.92458">
        <ele>1071</ele>
      </trkpt>
      <trkpt lat="45.63244" lon="2.92465">
        <ele>1071</ele>
      </trkpt>
      <trkpt lat="45.63237" lon="2.92477">
        <ele>1072</ele>
      </trkpt>
      <trkpt lat="45.63244" lon="2.92486">
        <ele>1071</ele>
      </trkpt>
      <trkpt lat="45.63252" lon="2.92493">
        <ele>1071</ele>
      </trkpt>
      <trkpt lat="45.6326" lon="2.92501">
        <ele>1071</ele>
      </trkpt>
      <trkpt lat="45.63269" lon="2.9251">
        <ele>1071</ele>
      </trkpt>
      <trkpt lat="45.6328" lon="2.9252">
        <ele>1071</ele>
      </trkpt>
      <trkpt lat="45.6329" lon="2.9253">
        <ele>1071</ele>
      </trkpt>
      <trkpt lat="45.633" lon="2.92541">
        <ele>1072</ele>
      </trkpt>
      <trkpt lat="45.6331" lon="2.92551">
        <ele>1072</ele>
      </trkpt>
      <trkpt lat="45.63322" lon="2.92562">
        <ele>1072</ele>
      </trkpt>
      <trkpt lat="45.63334" lon="2.92571">
        <ele>1072</ele>
      </trkpt>
      <trkpt lat="45.63348" lon="2.9258">
        <ele>1072</ele>
      </trkpt>
      <trkpt lat="45.63361" lon="2.9259">
        <ele>1071</ele>
      </trkpt>
      <trkpt lat="45.63373" lon="2.92598">
        <ele>1071</ele>
      </trkpt>
      <trkpt lat="45.63385" lon="2.92606">
        <ele>1071</ele>
      </trkpt>
      <trkpt lat="45.63397" lon="2.92615">
        <ele>1070</ele>
      </trkpt>
      <trkpt lat="45.63409" lon="2.92622">
        <ele>1070</ele>
      </trkpt>
      <trkpt lat="45.63421" lon="2.92628">
        <ele>1069</ele>
      </trkpt>
      <trkpt lat="45.63433" lon="2.92634">
        <ele>1069</ele>
      </trkpt>
      <trkpt lat="45.63444" lon="2.92642">
        <ele>1069</ele>
      </trkpt>
      <trkpt lat="45.63455" lon="2.9265">
        <ele>1069</ele>
      </trkpt>
      <trkpt lat="45.63466" lon="2.92658">
        <ele>1070</ele>
      </trkpt>
      <trkpt lat="45.63475" lon="2.92664">
        <ele>1070</ele>
      </trkpt>
      <trkpt lat="45.63488" lon="2.92672">
        <ele>1070</ele>
      </trkpt>
      <trkpt lat="45.63496" lon="2.92678">
        <ele>1071</ele>
      </trkpt>
      <trkpt lat="45.63505" lon="2.92686">
        <ele>1071</ele>
      </trkpt>
      <trkpt lat="45.63514" lon="2.92692">
        <ele>1071</ele>
      </trkpt>
      <trkpt lat="45.63522" lon="2.92698">
        <ele>1072</ele>
      </trkpt>
      <trkpt lat="45.6353" lon="2.92705">
        <ele>1072</ele>
      </trkpt>
      <trkpt lat="45.63539" lon="2.92712">
        <ele>1072</ele>
      </trkpt>
      <trkpt lat="45.63545" lon="2.92722">
        <ele>1073</ele>
      </trkpt>
      <trkpt lat="45.63554" lon="2.92726">
        <ele>1073</ele>
      </trkpt>
      <trkpt lat="45.63564" lon="2.92731">
        <ele>1073</ele>
      </trkpt>
      <trkpt lat="45.63573" lon="2.92738">
        <ele>1073</ele>
      </trkpt>
      <trkpt lat="45.63581" lon="2.92745">
        <ele>1073</ele>
      </trkpt>
      <trkpt lat="45.63591" lon="2.92749">
        <ele>1072</ele>
      </trkpt>
      <trkpt lat="45.63601" lon="2.92757">
        <ele>1071</ele>
      </trkpt>
      <trkpt lat="45.63612" lon="2.92767">
        <ele>1070</ele>
      </trkpt>
      <trkpt lat="45.63619" lon="2.92777">
        <ele>1070</ele>
      </trkpt>
      <trkpt lat="45.63627" lon="2.92786">
        <ele>1070</ele>
      </trkpt>
      <trkpt lat="45.63633" lon="2.92798">
        <ele>1069</ele>
      </trkpt>
      <trkpt lat="45.63639" lon="2.9281">
        <ele>1069</ele>
      </trkpt>
      <trkpt lat="45.63645" lon="2.92821">
        <ele>1069</ele>
      </trkpt>
      <trkpt lat="45.63651" lon="2.92833">
        <ele>1068</ele>
      </trkpt>
      <trkpt lat="45.63658" lon="2.92844">
        <ele>1067</ele>
      </trkpt>
      <trkpt lat="45.63666" lon="2.9286">
        <ele>1066</ele>
      </trkpt>
      <trkpt lat="45.63672" lon="2.92871">
        <ele>1066</ele>
      </trkpt>
      <trkpt lat="45.63678" lon="2.92881">
        <ele>1065</ele>
      </trkpt>
      <trkpt lat="45.63683" lon="2.92893">
        <ele>1065</ele>
      </trkpt>
      <trkpt lat="45.63686" lon="2.92908">
        <ele>1065</ele>
      </trkpt>
      <trkpt lat="45.63687" lon="2.92924">
        <ele>1066</ele>
      </trkpt>
      <trkpt lat="45.63691" lon="2.92936">
        <ele>1066</ele>
      </trkpt>
      <trkpt lat="45.63699" lon="2.92949">
        <ele>1066</ele>
      </trkpt>
      <trkpt lat="45.63702" lon="2.92961">
        <ele>1066</ele>
      </trkpt>
      <trkpt lat="45.63709" lon="2.92973">
        <ele>1065</ele>
      </trkpt>
      <trkpt lat="45.63714" lon="2.92984">
        <ele>1064</ele>
      </trkpt>
      <trkpt lat="45.63723" lon="2.92991">
        <ele>1063</ele>
      </trkpt>
      <trkpt lat="45.63729" lon="2.93001">
        <ele>1062</ele>
      </trkpt>
      <trkpt lat="45.63738" lon="2.93015">
        <ele>1061</ele>
      </trkpt>
      <trkpt lat="45.63744" lon="2.93028">
        <ele>1060</ele>
      </trkpt>
      <trkpt lat="45.63752" lon="2.93044">
        <ele>1060</ele>
      </trkpt>
      <trkpt lat="45.63758" lon="2.93062">
        <ele>1059</ele>
      </trkpt>
      <trkpt lat="45.63765" lon="2.93078">
        <ele>1059</ele>
      </trkpt>
      <trkpt lat="45.63772" lon="2.93093">
        <ele>1058</ele>
      </trkpt>
      <trkpt lat="45.63777" lon="2.93109">
        <ele>1058</ele>
      </trkpt>
      <trkpt lat="45.63784" lon="2.93124">
        <ele>1057</ele>
      </trkpt>
      <trkpt lat="45.63791" lon="2.93138">
        <ele>1057</ele>
      </trkpt>
      <trkpt lat="45.63799" lon="2.93154">
        <ele>1056</ele>
      </trkpt>
      <trkpt lat="45.63806" lon="2.9317">
        <ele>1055</ele>
      </trkpt>
      <trkpt lat="45.63811" lon="2.93184">
        <ele>1055</ele>
      </trkpt>
      <trkpt lat="45.63816" lon="2.93196">
        <ele>1055</ele>
      </trkpt>
      <trkpt lat="45.63823" lon="2.93206">
        <ele>1054</ele>
      </trkpt>
      <trkpt lat="45.63828" lon="2.93219">
        <ele>1053</ele>
      </trkpt>
      <trkpt lat="45.63831" lon="2.93232">
        <ele>1053</ele>
      </trkpt>
      <trkpt lat="45.63837" lon="2.93244">
        <ele>1052</ele>
      </trkpt>
      <trkpt lat="45.6384" lon="2.93258">
        <ele>1051</ele>
      </trkpt>
      <trkpt lat="45.63845" lon="2.9327">
        <ele>1050</ele>
      </trkpt>
      <trkpt lat="45.63852" lon="2.9328">
        <ele>1049</ele>
      </trkpt>
      <trkpt lat="45.63859" lon="2.9329">
        <ele>1047</ele>
      </trkpt>
      <trkpt lat="45.63864" lon="2.93303">
        <ele>1046</ele>
      </trkpt>
      <trkpt lat="45.63868" lon="2.93316">
        <ele>1046</ele>
      </trkpt>
      <trkpt lat="45.63875" lon="2.93326">
        <ele>1044</ele>
      </trkpt>
      <trkpt lat="45.63879" lon="2.9334">
        <ele>1043</ele>
      </trkpt>
      <trkpt lat="45.63884" lon="2.93351">
        <ele>1042</ele>
      </trkpt>
      <trkpt lat="45.63889" lon="2.93365">
        <ele>1041</ele>
      </trkpt>
      <trkpt lat="45.63892" lon="2.93379">
        <ele>1041</ele>
      </trkpt>
      <trkpt lat="45.63896" lon="2.93393">
        <ele>1041</ele>
      </trkpt>
      <trkpt lat="45.639" lon="2.93407">
        <ele>1041</ele>
      </trkpt>
      <trkpt lat="45.63904" lon="2.93419">
        <ele>1041</ele>
      </trkpt>
      <trkpt lat="45.63907" lon="2.93432">
        <ele>1040</ele>
      </trkpt>
      <trkpt lat="45.63912" lon="2.93445">
        <ele>1040</ele>
      </trkpt>
      <trkpt lat="45.63916" lon="2.93459">
        <ele>1040</ele>
      </trkpt>
      <trkpt lat="45.63919" lon="2.93472">
        <ele>1040</ele>
      </trkpt>
      <trkpt lat="45.6392" lon="2.93487">
        <ele>1040</ele>
      </trkpt>
      <trkpt lat="45.63921" lon="2.93502">
        <ele>1041</ele>
      </trkpt>
      <trkpt lat="45.63925" lon="2.93514">
        <ele>1041</ele>
      </trkpt>
      <trkpt lat="45.63929" lon="2.93528">
        <ele>1040</ele>
      </trkpt>
      <trkpt lat="45.63934" lon="2.93542">
        <ele>1040</ele>
      </trkpt>
      <trkpt lat="45.63935" lon="2.93556">
        <ele>1041</ele>
      </trkpt>
      <trkpt lat="45.63939" lon="2.93569">
        <ele>1041</ele>
      </trkpt>
      <trkpt lat="45.63939" lon="2.93582">
        <ele>1041</ele>
      </trkpt>
      <trkpt lat="45.63943" lon="2.93596">
        <ele>1041</ele>
      </trkpt>
      <trkpt lat="45.63949" lon="2.93608">
        <ele>1041</ele>
      </trkpt>
      <trkpt lat="45.63953" lon="2.9362">
        <ele>1041</ele>
      </trkpt>
      <trkpt lat="45.63956" lon="2.93634">
        <ele>1042</ele>
      </trkpt>
      <trkpt lat="45.63959" lon="2.93649">
        <ele>1042</ele>
      </trkpt>
      <trkpt lat="45.63961" lon="2.93662">
        <ele>1042</ele>
      </trkpt>
      <trkpt lat="45.63966" lon="2.93675">
        <ele>1042</ele>
      </trkpt>
      <trkpt lat="45.63966" lon="2.93689">
        <ele>1043</ele>
      </trkpt>
      <trkpt lat="45.63967" lon="2.93704">
        <ele>1044</ele>
      </trkpt>
      <trkpt lat="45.63966" lon="2.93719">
        <ele>1044</ele>
      </trkpt>
      <trkpt lat="45.6397" lon="2.93732">
        <ele>1044</ele>
      </trkpt>
      <trkpt lat="45.63976" lon="2.93745">
        <ele>1043</ele>
      </trkpt>
      <trkpt lat="45.63983" lon="2.93754">
        <ele>1043</ele>
      </trkpt>
      <trkpt lat="45.63988" lon="2.93764">
        <ele>1042</ele>
      </trkpt>
      <trkpt lat="45.63993" lon="2.93777">
        <ele>1042</ele>
      </trkpt>
      <trkpt lat="45.63993" lon="2.93791">
        <ele>1042</ele>
      </trkpt>
      <trkpt lat="45.63997" lon="2.93805">
        <ele>1041</ele>
      </trkpt>
      <trkpt lat="45.63998" lon="2.9382">
        <ele>1041</ele>
      </trkpt>
      <trkpt lat="45.64004" lon="2.93832">
        <ele>1040</ele>
      </trkpt>
      <trkpt lat="45.64007" lon="2.93845">
        <ele>1040</ele>
      </trkpt>
      <trkpt lat="45.64011" lon="2.93858">
        <ele>1039</ele>
      </trkpt>
      <trkpt lat="45.64016" lon="2.9387">
        <ele>1038</ele>
      </trkpt>
      <trkpt lat="45.64017" lon="2.93885">
        <ele>1038</ele>
      </trkpt>
      <trkpt lat="45.6402" lon="2.93897">
        <ele>1037</ele>
      </trkpt>
      <trkpt lat="45.64023" lon="2.9391">
        <ele>1037</ele>
      </trkpt>
      <trkpt lat="45.64027" lon="2.93923">
        <ele>1036</ele>
      </trkpt>
      <trkpt lat="45.64026" lon="2.93938">
        <ele>1035</ele>
      </trkpt>
      <trkpt lat="45.64026" lon="2.93951">
        <ele>1034</ele>
      </trkpt>
      <trkpt lat="45.64026" lon="2.93966">
        <ele>1034</ele>
      </trkpt>
      <trkpt lat="45.64027" lon="2.93979">
        <ele>1033</ele>
      </trkpt>
      <trkpt lat="45.64024" lon="2.93993">
        <ele>1033</ele>
      </trkpt>
      <trkpt lat="45.64022" lon="2.94009">
        <ele>1033</ele>
      </trkpt>
      <trkpt lat="45.64026" lon="2.94021">
        <ele>1033</ele>
      </trkpt>
      <trkpt lat="45.64028" lon="2.94036">
        <ele>1032</ele>
      </trkpt>
      <trkpt lat="45.64029" lon="2.94049">
        <ele>1032</ele>
      </trkpt>
      <trkpt lat="45.64029" lon="2.94063">
        <ele>1032</ele>
      </trkpt>
      <trkpt lat="45.64031" lon="2.94077">
        <ele>1031</ele>
      </trkpt>
      <trkpt lat="45.64033" lon="2.94091">
        <ele>1031</ele>
      </trkpt>
      <trkpt lat="45.64033" lon="2.94105">
        <ele>1031</ele>
      </trkpt>
      <trkpt lat="45.64034" lon="2.94119">
        <ele>1031</ele>
      </trkpt>
      <trkpt lat="45.64037" lon="2.94132">
        <ele>1031</ele>
      </trkpt>
      <trkpt lat="45.64041" lon="2.94144">
        <ele>1031</ele>
      </trkpt>
      <trkpt lat="45.64041" lon="2.94158">
        <ele>1031</ele>
      </trkpt>
      <trkpt lat="45.64039" lon="2.94172">
        <ele>1031</ele>
      </trkpt>
      <trkpt lat="45.64043" lon="2.94185">
        <ele>1030</ele>
      </trkpt>
      <trkpt lat="45.64048" lon="2.94197">
        <ele>1030</ele>
      </trkpt>
      <trkpt lat="45.64051" lon="2.94212">
        <ele>1030</ele>
      </trkpt>
      <trkpt lat="45.64051" lon="2.94225">
        <ele>1030</ele>
      </trkpt>
      <trkpt lat="45.64051" lon="2.9424">
        <ele>1030</ele>
      </trkpt>
      <trkpt lat="45.64052" lon="2.94254">
        <ele>1031</ele>
      </trkpt>
      <trkpt lat="45.64051" lon="2.94268">
        <ele>1032</ele>
      </trkpt>
      <trkpt lat="45.6405" lon="2.94283">
        <ele>1032</ele>
      </trkpt>
      <trkpt lat="45.6405" lon="2.94297">
        <ele>1032</ele>
      </trkpt>
      <trkpt lat="45.64045" lon="2.94309">
        <ele>1033</ele>
      </trkpt>
      <trkpt lat="45.64042" lon="2.94322">
        <ele>1033</ele>
      </trkpt>
      <trkpt lat="45.64038" lon="2.94336">
        <ele>1033</ele>
      </trkpt>
      <trkpt lat="45.64034" lon="2.94349">
        <ele>1033</ele>
      </trkpt>
      <trkpt lat="45.64029" lon="2.94362">
        <ele>1033</ele>
      </trkpt>
      <trkpt lat="45.64026" lon="2.94375">
        <ele>1033</ele>
      </trkpt>
      <trkpt lat="45.64022" lon="2.94389">
        <ele>1034</ele>
      </trkpt>
      <trkpt lat="45.6402" lon="2.94401">
        <ele>1034</ele>
      </trkpt>
      <trkpt lat="45.64015" lon="2.94414">
        <ele>1034</ele>
      </trkpt>
      <trkpt lat="45.64012" lon="2.94426">
        <ele>1034</ele>
      </trkpt>
      <trkpt lat="45.64009" lon="2.9444">
        <ele>1034</ele>
      </trkpt>
      <trkpt lat="45.64007" lon="2.94453">
        <ele>1034</ele>
      </trkpt>
      <trkpt lat="45.64004" lon="2.94466">
        <ele>1034</ele>
      </trkpt>
      <trkpt lat="45.64002" lon="2.94479">
        <ele>1034</ele>
      </trkpt>
      <trkpt lat="45.64002" lon="2.94495">
        <ele>1034</ele>
      </trkpt>
      <trkpt lat="45.64" lon="2.94508">
        <ele>1034</ele>
      </trkpt>
      <trkpt lat="45.64" lon="2.94523">
        <ele>1034</ele>
      </trkpt>
      <trkpt lat="45.63999" lon="2.94538">
        <ele>1034</ele>
      </trkpt>
      <trkpt lat="45.64" lon="2.94551">
        <ele>1034</ele>
      </trkpt>
      <trkpt lat="45.64" lon="2.94565">
        <ele>1034</ele>
      </trkpt>
      <trkpt lat="45.64" lon="2.9458">
        <ele>1033</ele>
      </trkpt>
      <trkpt lat="45.64" lon="2.94594">
        <ele>1033</ele>
      </trkpt>
      <trkpt lat="45.64002" lon="2.94608">
        <ele>1033</ele>
      </trkpt>
      <trkpt lat="45.64004" lon="2.94623">
        <ele>1033</ele>
      </trkpt>
      <trkpt lat="45.64006" lon="2.94637">
        <ele>1033</ele>
      </trkpt>
      <trkpt lat="45.64009" lon="2.94651">
        <ele>1032</ele>
      </trkpt>
      <trkpt lat="45.64012" lon="2.94665">
        <ele>1032</ele>
      </trkpt>
      <trkpt lat="45.64015" lon="2.94679">
        <ele>1032</ele>
      </trkpt>
      <trkpt lat="45.64018" lon="2.94692">
        <ele>1031</ele>
      </trkpt>
      <trkpt lat="45.64021" lon="2.94706">
        <ele>1031</ele>
      </trkpt>
      <trkpt lat="45.64025" lon="2.94718">
        <ele>1031</ele>
      </trkpt>
      <trkpt lat="45.64029" lon="2.94732">
        <ele>1030</ele>
      </trkpt>
      <trkpt lat="45.64035" lon="2.94744">
        <ele>1030</ele>
      </trkpt>
      <trkpt lat="45.64038" lon="2.94757">
        <ele>1030</ele>
      </trkpt>
      <trkpt lat="45.64043" lon="2.94769">
        <ele>1030</ele>
      </trkpt>
      <trkpt lat="45.64048" lon="2.94781">
        <ele>1029</ele>
      </trkpt>
      <trkpt lat="45.64053" lon="2.94793">
        <ele>1029</ele>
      </trkpt>
      <trkpt lat="45.64058" lon="2.94806">
        <ele>1029</ele>
      </trkpt>
      <trkpt lat="45.6406" lon="2.94819">
        <ele>1028</ele>
      </trkpt>
      <trkpt lat="45.64064" lon="2.94832">
        <ele>1028</ele>
      </trkpt>
      <trkpt lat="45.64069" lon="2.94844">
        <ele>1027</ele>
      </trkpt>
      <trkpt lat="45.64075" lon="2.94855">
        <ele>1027</ele>
      </trkpt>
      <trkpt lat="45.64079" lon="2.94867">
        <ele>1026</ele>
      </trkpt>
      <trkpt lat="45.64083" lon="2.94881">
        <ele>1026</ele>
      </trkpt>
      <trkpt lat="45.64086" lon="2.94894">
        <ele>1026</ele>
      </trkpt>
      <trkpt lat="45.64091" lon="2.94907">
        <ele>1025</ele>
      </trkpt>
      <trkpt lat="45.64095" lon="2.9492">
        <ele>1025</ele>
      </trkpt>
      <trkpt lat="45.64101" lon="2.9493">
        <ele>1025</ele>
      </trkpt>
      <trkpt lat="45.64106" lon="2.94941">
        <ele>1025</ele>
      </trkpt>
      <trkpt lat="45.64111" lon="2.94954">
        <ele>1024</ele>
      </trkpt>
      <trkpt lat="45.6412" lon="2.94977">
        <ele>1024</ele>
      </trkpt>
      <trkpt lat="45.64124" lon="2.94989">
        <ele>1024</ele>
      </trkpt>
      <trkpt lat="45.64127" lon="2.95002">
        <ele>1023</ele>
      </trkpt>
      <trkpt lat="45.6413" lon="2.95016">
        <ele>1023</ele>
      </trkpt>
      <trkpt lat="45.64126" lon="2.95002">
        <ele>1023</ele>
      </trkpt>
      <trkpt lat="45.64124" lon="2.94989">
        <ele>1024</ele>
      </trkpt>
      <trkpt lat="45.6412" lon="2.94976">
        <ele>1024</ele>
      </trkpt>
      <trkpt lat="45.64116" lon="2.94964">
        <ele>1024</ele>
      </trkpt>
      <trkpt lat="45.64122" lon="2.94974">
        <ele>1024</ele>
      </trkpt>
      <trkpt lat="45.64125" lon="2.94988">
        <ele>1024</ele>
      </trkpt>
      <trkpt lat="45.6413" lon="2.95003">
        <ele>1023</ele>
      </trkpt>
      <trkpt lat="45.64143" lon="2.95054">
        <ele>1022</ele>
      </trkpt>
      <trkpt lat="45.64147" lon="2.95071">
        <ele>1022</ele>
      </trkpt>
      <trkpt lat="45.64152" lon="2.95088">
        <ele>1022</ele>
      </trkpt>
      <trkpt lat="45.64156" lon="2.95105">
        <ele>1021</ele>
      </trkpt>
      <trkpt lat="45.64161" lon="2.95121">
        <ele>1021</ele>
      </trkpt>
      <trkpt lat="45.64167" lon="2.95138">
        <ele>1021</ele>
      </trkpt>
      <trkpt lat="45.64172" lon="2.95154">
        <ele>1021</ele>
      </trkpt>
      <trkpt lat="45.64177" lon="2.9517">
        <ele>1020</ele>
      </trkpt>
      <trkpt lat="45.64183" lon="2.95186">
        <ele>1020</ele>
      </trkpt>
      <trkpt lat="45.64189" lon="2.95201">
        <ele>1019</ele>
      </trkpt>
      <trkpt lat="45.64195" lon="2.95216">
        <ele>1019</ele>
      </trkpt>
      <trkpt lat="45.642" lon="2.9523">
        <ele>1019</ele>
      </trkpt>
      <trkpt lat="45.64205" lon="2.95244">
        <ele>1019</ele>
      </trkpt>
      <trkpt lat="45.64209" lon="2.95258">
        <ele>1019</ele>
      </trkpt>
      <trkpt lat="45.64212" lon="2.95272">
        <ele>1018</ele>
      </trkpt>
      <trkpt lat="45.64215" lon="2.95284">
        <ele>1018</ele>
      </trkpt>
      <trkpt lat="45.64221" lon="2.95297">
        <ele>1018</ele>
      </trkpt>
      <trkpt lat="45.64226" lon="2.95309">
        <ele>1018</ele>
      </trkpt>
      <trkpt lat="45.64228" lon="2.95324">
        <ele>1018</ele>
      </trkpt>
      <trkpt lat="45.6423" lon="2.95337">
        <ele>1017</ele>
      </trkpt>
      <trkpt lat="45.64232" lon="2.9535">
        <ele>1017</ele>
      </trkpt>
      <trkpt lat="45.64235" lon="2.95363">
        <ele>1017</ele>
      </trkpt>
      <trkpt lat="45.64238" lon="2.95379">
        <ele>1017</ele>
      </trkpt>
      <trkpt lat="45.64241" lon="2.95395">
        <ele>1017</ele>
      </trkpt>
      <trkpt lat="45.64244" lon="2.95412">
        <ele>1017</ele>
      </trkpt>
      <trkpt lat="45.64246" lon="2.95428">
        <ele>1017</ele>
      </trkpt>
      <trkpt lat="45.64249" lon="2.95444">
        <ele>1016</ele>
      </trkpt>
      <trkpt lat="45.64252" lon="2.9546">
        <ele>1017</ele>
      </trkpt>
      <trkpt lat="45.64253" lon="2.95478">
        <ele>1017</ele>
      </trkpt>
      <trkpt lat="45.64256" lon="2.95495">
        <ele>1017</ele>
      </trkpt>
      <trkpt lat="45.64258" lon="2.95513">
        <ele>1017</ele>
      </trkpt>
      <trkpt lat="45.64261" lon="2.95531">
        <ele>1017</ele>
      </trkpt>
      <trkpt lat="45.64264" lon="2.9555">
        <ele>1017</ele>
      </trkpt>
      <trkpt lat="45.64268" lon="2.95568">
        <ele>1017</ele>
      </trkpt>
      <trkpt lat="45.64271" lon="2.95587">
        <ele>1017</ele>
      </trkpt>
      <trkpt lat="45.64275" lon="2.95606">
        <ele>1017</ele>
      </trkpt>
      <trkpt lat="45.6428" lon="2.95625">
        <ele>1017</ele>
      </trkpt>
      <trkpt lat="45.64283" lon="2.95645">
        <ele>1017</ele>
      </trkpt>
      <trkpt lat="45.64287" lon="2.95663">
        <ele>1017</ele>
      </trkpt>
      <trkpt lat="45.6429" lon="2.95682">
        <ele>1017</ele>
      </trkpt>
      <trkpt lat="45.64293" lon="2.957">
        <ele>1017</ele>
      </trkpt>
      <trkpt lat="45.64295" lon="2.95719">
        <ele>1016</ele>
      </trkpt>
      <trkpt lat="45.64295" lon="2.95737">
        <ele>1016</ele>
      </trkpt>
      <trkpt lat="45.64297" lon="2.95756">
        <ele>1016</ele>
      </trkpt>
      <trkpt lat="45.64298" lon="2.95775">
        <ele>1015</ele>
      </trkpt>
      <trkpt lat="45.64298" lon="2.95795">
        <ele>1015</ele>
      </trkpt>
      <trkpt lat="45.64297" lon="2.95813">
        <ele>1015</ele>
      </trkpt>
      <trkpt lat="45.64295" lon="2.95833">
        <ele>1014</ele>
      </trkpt>
      <trkpt lat="45.64294" lon="2.95852">
        <ele>1014</ele>
      </trkpt>
      <trkpt lat="45.64292" lon="2.95873">
        <ele>1014</ele>
      </trkpt>
      <trkpt lat="45.64291" lon="2.95893">
        <ele>1014</ele>
      </trkpt>
      <trkpt lat="45.6429" lon="2.95914">
        <ele>1013</ele>
      </trkpt>
      <trkpt lat="45.64289" lon="2.95935">
        <ele>1013</ele>
      </trkpt>
      <trkpt lat="45.64288" lon="2.95955">
        <ele>1013</ele>
      </trkpt>
      <trkpt lat="45.64286" lon="2.95975">
        <ele>1012</ele>
      </trkpt>
      <trkpt lat="45.64285" lon="2.95994">
        <ele>1012</ele>
      </trkpt>
      <trkpt lat="45.64288" lon="2.9601">
        <ele>1012</ele>
      </trkpt>
      <trkpt lat="45.64294" lon="2.96024">
        <ele>1013</ele>
      </trkpt>
      <trkpt lat="45.64304" lon="2.96035">
        <ele>1013</ele>
      </trkpt>
      <trkpt lat="45.64314" lon="2.96044">
        <ele>1013</ele>
      </trkpt>
      <trkpt lat="45.64325" lon="2.96053">
        <ele>1014</ele>
      </trkpt>
      <trkpt lat="45.64336" lon="2.96062">
        <ele>1014</ele>
      </trkpt>
      <trkpt lat="45.64348" lon="2.96071">
        <ele>1015</ele>
      </trkpt>
      <trkpt lat="45.64358" lon="2.96082">
        <ele>1015</ele>
      </trkpt>
      <trkpt lat="45.64368" lon="2.96093">
        <ele>1015</ele>
      </trkpt>
      <trkpt lat="45.64378" lon="2.96105">
        <ele>1015</ele>
      </trkpt>
      <trkpt lat="45.64389" lon="2.96115">
        <ele>1015</ele>
      </trkpt>
      <trkpt lat="45.64399" lon="2.96128">
        <ele>1015</ele>
      </trkpt>
      <trkpt lat="45.64411" lon="2.9614">
        <ele>1016</ele>
      </trkpt>
      <trkpt lat="45.64421" lon="2.96151">
        <ele>1016</ele>
      </trkpt>
      <trkpt lat="45.64431" lon="2.96166">
        <ele>1016</ele>
      </trkpt>
      <trkpt lat="45.6444" lon="2.9618">
        <ele>1017</ele>
      </trkpt>
      <trkpt lat="45.64451" lon="2.96191">
        <ele>1017</ele>
      </trkpt>
      <trkpt lat="45.64462" lon="2.96202">
        <ele>1017</ele>
      </trkpt>
      <trkpt lat="45.64472" lon="2.96213">
        <ele>1017</ele>
      </trkpt>
      <trkpt lat="45.64484" lon="2.96225">
        <ele>1017</ele>
      </trkpt>
      <trkpt lat="45.64496" lon="2.96237">
        <ele>1017</ele>
      </trkpt>
      <trkpt lat="45.64506" lon="2.96248">
        <ele>1016</ele>
      </trkpt>
      <trkpt lat="45.64516" lon="2.96261">
        <ele>1016</ele>
      </trkpt>
      <trkpt lat="45.64523" lon="2.96276">
        <ele>1016</ele>
      </trkpt>
      <trkpt lat="45.64528" lon="2.96293">
        <ele>1016</ele>
      </trkpt>
      <trkpt lat="45.64529" lon="2.96311">
        <ele>1016</ele>
      </trkpt>
      <trkpt lat="45.64528" lon="2.96328">
        <ele>1016</ele>
      </trkpt>
      <trkpt lat="45.64528" lon="2.96346">
        <ele>1016</ele>
      </trkpt>
      <trkpt lat="45.64527" lon="2.96365">
        <ele>1015</ele>
      </trkpt>
      <trkpt lat="45.64527" lon="2.96384">
        <ele>1015</ele>
      </trkpt>
      <trkpt lat="45.64528" lon="2.96403">
        <ele>1014</ele>
      </trkpt>
      <trkpt lat="45.64527" lon="2.9642">
        <ele>1014</ele>
      </trkpt>
      <trkpt lat="45.64526" lon="2.96438">
        <ele>1014</ele>
      </trkpt>
      <trkpt lat="45.64526" lon="2.96455">
        <ele>1013</ele>
      </trkpt>
      <trkpt lat="45.64527" lon="2.96473">
        <ele>1013</ele>
      </trkpt>
      <trkpt lat="45.64526" lon="2.96492">
        <ele>1013</ele>
      </trkpt>
      <trkpt lat="45.64526" lon="2.96511">
        <ele>1012</ele>
      </trkpt>
      <trkpt lat="45.64525" lon="2.96531">
        <ele>1012</ele>
      </trkpt>
      <trkpt lat="45.64525" lon="2.96553">
        <ele>1012</ele>
      </trkpt>
      <trkpt lat="45.64525" lon="2.96573">
        <ele>1012</ele>
      </trkpt>
      <trkpt lat="45.64525" lon="2.96593">
        <ele>1011</ele>
      </trkpt>
      <trkpt lat="45.64528" lon="2.96613">
        <ele>1011</ele>
      </trkpt>
      <trkpt lat="45.64533" lon="2.96633">
        <ele>1011</ele>
      </trkpt>
      <trkpt lat="45.64537" lon="2.96652">
        <ele>1011</ele>
      </trkpt>
      <trkpt lat="45.64541" lon="2.9667">
        <ele>1011</ele>
      </trkpt>
      <trkpt lat="45.64545" lon="2.96688">
        <ele>1011</ele>
      </trkpt>
      <trkpt lat="45.64548" lon="2.96705">
        <ele>1011</ele>
      </trkpt>
      <trkpt lat="45.64552" lon="2.96721">
        <ele>1011</ele>
      </trkpt>
      <trkpt lat="45.64555" lon="2.96741">
        <ele>1010</ele>
      </trkpt>
      <trkpt lat="45.64557" lon="2.96753">
        <ele>1010</ele>
      </trkpt>
      <trkpt lat="45.64562" lon="2.96767">
        <ele>1010</ele>
      </trkpt>
      <trkpt lat="45.64566" lon="2.96781">
        <ele>1010</ele>
      </trkpt>
      <trkpt lat="45.64569" lon="2.96794">
        <ele>1010</ele>
      </trkpt>
      <trkpt lat="45.64573" lon="2.96808">
        <ele>1010</ele>
      </trkpt>
      <trkpt lat="45.64574" lon="2.96821">
        <ele>1010</ele>
      </trkpt>
      <trkpt lat="45.64578" lon="2.96834">
        <ele>1010</ele>
      </trkpt>
      <trkpt lat="45.64581" lon="2.96847">
        <ele>1010</ele>
      </trkpt>
      <trkpt lat="45.64585" lon="2.9686">
        <ele>1010</ele>
      </trkpt>
      <trkpt lat="45.6459" lon="2.96873">
        <ele>1010</ele>
      </trkpt>
      <trkpt lat="45.64596" lon="2.96884">
        <ele>1009</ele>
      </trkpt>
      <trkpt lat="45.646" lon="2.96897">
        <ele>1008</ele>
      </trkpt>
      <trkpt lat="45.64601" lon="2.9691">
        <ele>1009</ele>
      </trkpt>
      <trkpt lat="45.64603" lon="2.96924">
        <ele>1009</ele>
      </trkpt>
      <trkpt lat="45.64607" lon="2.96936">
        <ele>1007</ele>
      </trkpt>
      <trkpt lat="45.6461" lon="2.96951">
        <ele>1006</ele>
      </trkpt>
      <trkpt lat="45.64611" lon="2.96966">
        <ele>1005</ele>
      </trkpt>
      <trkpt lat="45.64612" lon="2.9698">
        <ele>1004</ele>
      </trkpt>
      <trkpt lat="45.64611" lon="2.96995">
        <ele>1003</ele>
      </trkpt>
      <trkpt lat="45.6461" lon="2.97009">
        <ele>1002</ele>
      </trkpt>
      <trkpt lat="45.64611" lon="2.97024">
        <ele>1000</ele>
      </trkpt>
      <trkpt lat="45.64612" lon="2.97037">
        <ele>999</ele>
      </trkpt>
      <trkpt lat="45.64617" lon="2.9705">
        <ele>998</ele>
      </trkpt>
      <trkpt lat="45.64621" lon="2.97061">
        <ele>997</ele>
      </trkpt>
      <trkpt lat="45.64626" lon="2.97075">
        <ele>995</ele>
      </trkpt>
      <trkpt lat="45.64631" lon="2.97088">
        <ele>994</ele>
      </trkpt>
      <trkpt lat="45.64636" lon="2.971">
        <ele>993</ele>
      </trkpt>
      <trkpt lat="45.6464" lon="2.97112">
        <ele>992</ele>
      </trkpt>
      <trkpt lat="45.64645" lon="2.97124">
        <ele>991</ele>
      </trkpt>
      <trkpt lat="45.64653" lon="2.9714">
        <ele>989</ele>
      </trkpt>
      <trkpt lat="45.64661" lon="2.97151">
        <ele>988</ele>
      </trkpt>
      <trkpt lat="45.64668" lon="2.97162">
        <ele>987</ele>
      </trkpt>
      <trkpt lat="45.64677" lon="2.97173">
        <ele>986</ele>
      </trkpt>
      <trkpt lat="45.64685" lon="2.97185">
        <ele>985</ele>
      </trkpt>
      <trkpt lat="45.64695" lon="2.97198">
        <ele>984</ele>
      </trkpt>
      <trkpt lat="45.64705" lon="2.97212">
        <ele>983</ele>
      </trkpt>
      <trkpt lat="45.64715" lon="2.97226">
        <ele>983</ele>
      </trkpt>
      <trkpt lat="45.64724" lon="2.97238">
        <ele>982</ele>
      </trkpt>
      <trkpt lat="45.64734" lon="2.97252">
        <ele>982</ele>
      </trkpt>
      <trkpt lat="45.64743" lon="2.97265">
        <ele>981</ele>
      </trkpt>
      <trkpt lat="45.64751" lon="2.97278">
        <ele>981</ele>
      </trkpt>
      <trkpt lat="45.64757" lon="2.9729">
        <ele>980</ele>
      </trkpt>
      <trkpt lat="45.64763" lon="2.97302">
        <ele>979</ele>
      </trkpt>
      <trkpt lat="45.64769" lon="2.97315">
        <ele>979</ele>
      </trkpt>
      <trkpt lat="45.64774" lon="2.97326">
        <ele>978</ele>
      </trkpt>
      <trkpt lat="45.6478" lon="2.97338">
        <ele>978</ele>
      </trkpt>
      <trkpt lat="45.64787" lon="2.9735">
        <ele>977</ele>
      </trkpt>
      <trkpt lat="45.64796" lon="2.97361">
        <ele>977</ele>
      </trkpt>
      <trkpt lat="45.64803" lon="2.97373">
        <ele>976</ele>
      </trkpt>
      <trkpt lat="45.64809" lon="2.97385">
        <ele>976</ele>
      </trkpt>
      <trkpt lat="45.64815" lon="2.97395">
        <ele>977</ele>
      </trkpt>
      <trkpt lat="45.6482" lon="2.97407">
        <ele>977</ele>
      </trkpt>
      <trkpt lat="45.64825" lon="2.97421">
        <ele>976</ele>
      </trkpt>
      <trkpt lat="45.64827" lon="2.97434">
        <ele>976</ele>
      </trkpt>
      <trkpt lat="45.64828" lon="2.97448">
        <ele>976</ele>
      </trkpt>
      <trkpt lat="45.64828" lon="2.97462">
        <ele>976</ele>
      </trkpt>
      <trkpt lat="45.64827" lon="2.97476">
        <ele>976</ele>
      </trkpt>
      <trkpt lat="45.64826" lon="2.97492">
        <ele>976</ele>
      </trkpt>
      <trkpt lat="45.64826" lon="2.97507">
        <ele>976</ele>
      </trkpt>
      <trkpt lat="45.64825" lon="2.97522">
        <ele>977</ele>
      </trkpt>
      <trkpt lat="45.64823" lon="2.97536">
        <ele>978</ele>
      </trkpt>
      <trkpt lat="45.64821" lon="2.97555">
        <ele>978</ele>
      </trkpt>
      <trkpt lat="45.64819" lon="2.97571">
        <ele>979</ele>
      </trkpt>
      <trkpt lat="45.64817" lon="2.97589">
        <ele>979</ele>
      </trkpt>
      <trkpt lat="45.64816" lon="2.97604">
        <ele>979</ele>
      </trkpt>
      <trkpt lat="45.64815" lon="2.97617">
        <ele>980</ele>
      </trkpt>
      <trkpt lat="45.64815" lon="2.97631">
        <ele>980</ele>
      </trkpt>
      <trkpt lat="45.64815" lon="2.97645">
        <ele>980</ele>
      </trkpt>
      <trkpt lat="45.64814" lon="2.9766">
        <ele>981</ele>
      </trkpt>
      <trkpt lat="45.64813" lon="2.97673">
        <ele>981</ele>
      </trkpt>
      <trkpt lat="45.64813" lon="2.97686">
        <ele>982</ele>
      </trkpt>
      <trkpt lat="45.64813" lon="2.97701">
        <ele>982</ele>
      </trkpt>
      <trkpt lat="45.64814" lon="2.97715">
        <ele>982</ele>
      </trkpt>
      <trkpt lat="45.64813" lon="2.97729">
        <ele>982</ele>
      </trkpt>
      <trkpt lat="45.64814" lon="2.97742">
        <ele>982</ele>
      </trkpt>
      <trkpt lat="45.64815" lon="2.97756">
        <ele>982</ele>
      </trkpt>
      <trkpt lat="45.64816" lon="2.97769">
        <ele>981</ele>
      </trkpt>
      <trkpt lat="45.64815" lon="2.97783">
        <ele>981</ele>
      </trkpt>
      <trkpt lat="45.64812" lon="2.97797">
        <ele>980</ele>
      </trkpt>
      <trkpt lat="45.64809" lon="2.9781">
        <ele>979</ele>
      </trkpt>
      <trkpt lat="45.64808" lon="2.97824">
        <ele>978</ele>
      </trkpt>
      <trkpt lat="45.64805" lon="2.97836">
        <ele>978</ele>
      </trkpt>
      <trkpt lat="45.64803" lon="2.97851">
        <ele>977</ele>
      </trkpt>
      <trkpt lat="45.648" lon="2.97865">
        <ele>977</ele>
      </trkpt>
      <trkpt lat="45.64798" lon="2.97879">
        <ele>976</ele>
      </trkpt>
      <trkpt lat="45.64797" lon="2.97893">
        <ele>975</ele>
      </trkpt>
      <trkpt lat="45.64796" lon="2.97907">
        <ele>975</ele>
      </trkpt>
      <trkpt lat="45.64794" lon="2.9792">
        <ele>974</ele>
      </trkpt>
      <trkpt lat="45.64792" lon="2.97934">
        <ele>974</ele>
      </trkpt>
      <trkpt lat="45.64791" lon="2.97947">
        <ele>973</ele>
      </trkpt>
      <trkpt lat="45.64791" lon="2.9796">
        <ele>973</ele>
      </trkpt>
      <trkpt lat="45.64791" lon="2.97975">
        <ele>972</ele>
      </trkpt>
      <trkpt lat="45.64792" lon="2.97989">
        <ele>972</ele>
      </trkpt>
      <trkpt lat="45.64792" lon="2.98016">
        <ele>971</ele>
      </trkpt>
      <trkpt lat="45.64794" lon="2.9803">
        <ele>970</ele>
      </trkpt>
      <trkpt lat="45.64794" lon="2.98045">
        <ele>969</ele>
      </trkpt>
      <trkpt lat="45.64794" lon="2.98058">
        <ele>969</ele>
      </trkpt>
      <trkpt lat="45.64796" lon="2.98074">
        <ele>968</ele>
      </trkpt>
      <trkpt lat="45.64796" lon="2.9809">
        <ele>968</ele>
      </trkpt>
      <trkpt lat="45.64796" lon="2.98108">
        <ele>967</ele>
      </trkpt>
      <trkpt lat="45.64796" lon="2.98126">
        <ele>967</ele>
      </trkpt>
      <trkpt lat="45.64796" lon="2.98144">
        <ele>966</ele>
      </trkpt>
      <trkpt lat="45.64796" lon="2.98163">
        <ele>966</ele>
      </trkpt>
      <trkpt lat="45.64796" lon="2.98181">
        <ele>966</ele>
      </trkpt>
      <trkpt lat="45.64796" lon="2.98199">
        <ele>965</ele>
      </trkpt>
      <trkpt lat="45.64796" lon="2.98217">
        <ele>965</ele>
      </trkpt>
      <trkpt lat="45.64796" lon="2.98234">
        <ele>964</ele>
      </trkpt>
      <trkpt lat="45.64796" lon="2.98252">
        <ele>964</ele>
      </trkpt>
      <trkpt lat="45.64795" lon="2.98269">
        <ele>964</ele>
      </trkpt>
      <trkpt lat="45.64793" lon="2.98287">
        <ele>963</ele>
      </trkpt>
      <trkpt lat="45.64791" lon="2.98305">
        <ele>963</ele>
      </trkpt>
      <trkpt lat="45.64789" lon="2.98322">
        <ele>962</ele>
      </trkpt>
      <trkpt lat="45.64784" lon="2.98338">
        <ele>961</ele>
      </trkpt>
      <trkpt lat="45.64778" lon="2.98353">
        <ele>961</ele>
      </trkpt>
      <trkpt lat="45.64772" lon="2.98368">
        <ele>961</ele>
      </trkpt>
      <trkpt lat="45.64767" lon="2.98384">
        <ele>961</ele>
      </trkpt>
      <trkpt lat="45.64761" lon="2.98402">
        <ele>960</ele>
      </trkpt>
      <trkpt lat="45.64756" lon="2.98419">
        <ele>960</ele>
      </trkpt>
      <trkpt lat="45.6475" lon="2.98437">
        <ele>959</ele>
      </trkpt>
      <trkpt lat="45.64746" lon="2.98456">
        <ele>959</ele>
      </trkpt>
      <trkpt lat="45.64745" lon="2.98475">
        <ele>958</ele>
      </trkpt>
      <trkpt lat="45.64742" lon="2.98496">
        <ele>958</ele>
      </trkpt>
      <trkpt lat="45.6474" lon="2.98517">
        <ele>957</ele>
      </trkpt>
      <trkpt lat="45.64738" lon="2.98536">
        <ele>957</ele>
      </trkpt>
      <trkpt lat="45.64736" lon="2.98557">
        <ele>956</ele>
      </trkpt>
      <trkpt lat="45.64735" lon="2.98576">
        <ele>956</ele>
      </trkpt>
      <trkpt lat="45.64734" lon="2.98596">
        <ele>956</ele>
      </trkpt>
      <trkpt lat="45.64733" lon="2.98616">
        <ele>955</ele>
      </trkpt>
      <trkpt lat="45.64732" lon="2.98637">
        <ele>955</ele>
      </trkpt>
      <trkpt lat="45.64732" lon="2.98659">
        <ele>955</ele>
      </trkpt>
      <trkpt lat="45.64733" lon="2.9868">
        <ele>954</ele>
      </trkpt>
      <trkpt lat="45.64734" lon="2.98702">
        <ele>954</ele>
      </trkpt>
      <trkpt lat="45.64735" lon="2.98723">
        <ele>954</ele>
      </trkpt>
      <trkpt lat="45.64737" lon="2.98743">
        <ele>954</ele>
      </trkpt>
      <trkpt lat="45.64739" lon="2.98763">
        <ele>953</ele>
      </trkpt>
      <trkpt lat="45.64741" lon="2.98782">
        <ele>953</ele>
      </trkpt>
      <trkpt lat="45.64743" lon="2.98802">
        <ele>953</ele>
      </trkpt>
      <trkpt lat="45.64746" lon="2.9882">
        <ele>953</ele>
      </trkpt>
      <trkpt lat="45.64748" lon="2.98838">
        <ele>952</ele>
      </trkpt>
      <trkpt lat="45.6475" lon="2.98854">
        <ele>952</ele>
      </trkpt>
      <trkpt lat="45.64752" lon="2.98868">
        <ele>952</ele>
      </trkpt>
      <trkpt lat="45.64753" lon="2.98884">
        <ele>952</ele>
      </trkpt>
      <trkpt lat="45.64755" lon="2.98899">
        <ele>951</ele>
      </trkpt>
      <trkpt lat="45.64757" lon="2.98915">
        <ele>951</ele>
      </trkpt>
      <trkpt lat="45.64763" lon="2.98928">
        <ele>950</ele>
      </trkpt>
      <trkpt lat="45.64766" lon="2.98941">
        <ele>950</ele>
      </trkpt>
      <trkpt lat="45.64769" lon="2.98958">
        <ele>949</ele>
      </trkpt>
      <trkpt lat="45.64772" lon="2.98972">
        <ele>948</ele>
      </trkpt>
      <trkpt lat="45.64774" lon="2.98988">
        <ele>948</ele>
      </trkpt>
      <trkpt lat="45.64776" lon="2.99007">
        <ele>947</ele>
      </trkpt>
      <trkpt lat="45.64779" lon="2.99026">
        <ele>946</ele>
      </trkpt>
      <trkpt lat="45.64781" lon="2.99046">
        <ele>945</ele>
      </trkpt>
      <trkpt lat="45.64784" lon="2.99064">
        <ele>945</ele>
      </trkpt>
      <trkpt lat="45.64787" lon="2.99085">
        <ele>946</ele>
      </trkpt>
      <trkpt lat="45.64792" lon="2.99106">
        <ele>946</ele>
      </trkpt>
      <trkpt lat="45.64798" lon="2.99126">
        <ele>947</ele>
      </trkpt>
      <trkpt lat="45.64807" lon="2.99143">
        <ele>947</ele>
      </trkpt>
      <trkpt lat="45.64818" lon="2.99158">
        <ele>947</ele>
      </trkpt>
      <trkpt lat="45.64828" lon="2.99173">
        <ele>947</ele>
      </trkpt>
      <trkpt lat="45.64838" lon="2.99188">
        <ele>948</ele>
      </trkpt>
      <trkpt lat="45.64847" lon="2.99203">
        <ele>948</ele>
      </trkpt>
      <trkpt lat="45.64856" lon="2.9922">
        <ele>948</ele>
      </trkpt>
      <trkpt lat="45.64864" lon="2.99236">
        <ele>948</ele>
      </trkpt>
      <trkpt lat="45.64872" lon="2.99252">
        <ele>949</ele>
      </trkpt>
      <trkpt lat="45.6488" lon="2.99268">
        <ele>950</ele>
      </trkpt>
      <trkpt lat="45.64888" lon="2.99283">
        <ele>950</ele>
      </trkpt>
      <trkpt lat="45.64895" lon="2.99298">
        <ele>950</ele>
      </trkpt>
      <trkpt lat="45.64901" lon="2.99314">
        <ele>950</ele>
      </trkpt>
      <trkpt lat="45.64906" lon="2.9933">
        <ele>950</ele>
      </trkpt>
      <trkpt lat="45.64907" lon="2.99348">
        <ele>951</ele>
      </trkpt>
      <trkpt lat="45.64907" lon="2.99366">
        <ele>951</ele>
      </trkpt>
      <trkpt lat="45.64907" lon="2.99384">
        <ele>951</ele>
      </trkpt>
      <trkpt lat="45.64908" lon="2.99402">
        <ele>950</ele>
      </trkpt>
      <trkpt lat="45.64908" lon="2.99421">
        <ele>950</ele>
      </trkpt>
      <trkpt lat="45.64909" lon="2.9944">
        <ele>950</ele>
      </trkpt>
      <trkpt lat="45.64909" lon="2.9946">
        <ele>949</ele>
      </trkpt>
      <trkpt lat="45.64907" lon="2.9948">
        <ele>948</ele>
      </trkpt>
      <trkpt lat="45.64905" lon="2.99501">
        <ele>948</ele>
      </trkpt>
      <trkpt lat="45.64902" lon="2.99522">
        <ele>948</ele>
      </trkpt>
      <trkpt lat="45.64899" lon="2.99542">
        <ele>947</ele>
      </trkpt>
      <trkpt lat="45.64896" lon="2.99564">
        <ele>947</ele>
      </trkpt>
      <trkpt lat="45.64893" lon="2.99585">
        <ele>947</ele>
      </trkpt>
      <trkpt lat="45.64891" lon="2.99605">
        <ele>947</ele>
      </trkpt>
      <trkpt lat="45.64889" lon="2.99626">
        <ele>947</ele>
      </trkpt>
      <trkpt lat="45.64888" lon="2.99647">
        <ele>947</ele>
      </trkpt>
      <trkpt lat="45.64888" lon="2.99669">
        <ele>947</ele>
      </trkpt>
      <trkpt lat="45.64888" lon="2.99691">
        <ele>947</ele>
      </trkpt>
      <trkpt lat="45.64888" lon="2.99712">
        <ele>947</ele>
      </trkpt>
      <trkpt lat="45.64888" lon="2.99733">
        <ele>948</ele>
      </trkpt>
      <trkpt lat="45.64889" lon="2.99753">
        <ele>948</ele>
      </trkpt>
      <trkpt lat="45.64889" lon="2.99771">
        <ele>948</ele>
      </trkpt>
      <trkpt lat="45.6489" lon="2.9979">
        <ele>948</ele>
      </trkpt>
      <trkpt lat="45.64892" lon="2.99808">
        <ele>948</ele>
      </trkpt>
      <trkpt lat="45.64895" lon="2.99827">
        <ele>948</ele>
      </trkpt>
      <trkpt lat="45.64899" lon="2.99846">
        <ele>947</ele>
      </trkpt>
      <trkpt lat="45.64903" lon="2.99864">
        <ele>947</ele>
      </trkpt>
      <trkpt lat="45.6491" lon="2.99879">
        <ele>947</ele>
      </trkpt>
      <trkpt lat="45.64917" lon="2.99891">
        <ele>948</ele>
      </trkpt>
      <trkpt lat="45.64923" lon="2.99904">
        <ele>948</ele>
      </trkpt>
      <trkpt lat="45.64922" lon="2.99919">
        <ele>948</ele>
      </trkpt>
      <trkpt lat="45.6492" lon="2.99932">
        <ele>948</ele>
      </trkpt>
      <trkpt lat="45.64917" lon="2.99948">
        <ele>949</ele>
      </trkpt>
      <trkpt lat="45.64913" lon="2.99964">
        <ele>949</ele>
      </trkpt>
      <trkpt lat="45.64909" lon="2.9998">
        <ele>949</ele>
      </trkpt>
      <trkpt lat="45.64905" lon="2.99998">
        <ele>949</ele>
      </trkpt>
      <trkpt lat="45.64902" lon="3.00016">
        <ele>950</ele>
      </trkpt>
      <trkpt lat="45.64898" lon="3.00035">
        <ele>950</ele>
      </trkpt>
      <trkpt lat="45.64893" lon="3.00053">
        <ele>951</ele>
      </trkpt>
      <trkpt lat="45.64886" lon="3.00068">
        <ele>951</ele>
      </trkpt>
      <trkpt lat="45.6488" lon="3.00083">
        <ele>950</ele>
      </trkpt>
      <trkpt lat="45.64874" lon="3.00097">
        <ele>949</ele>
      </trkpt>
      <trkpt lat="45.6487" lon="3.00111">
        <ele>949</ele>
      </trkpt>
      <trkpt lat="45.6486" lon="3.00124">
        <ele>947</ele>
      </trkpt>
      <trkpt lat="45.6485" lon="3.0013">
        <ele>946</ele>
      </trkpt>
      <trkpt lat="45.64841" lon="3.00135">
        <ele>944</ele>
      </trkpt>
      <trkpt lat="45.64832" lon="3.00142">
        <ele>943</ele>
      </trkpt>
      <trkpt lat="45.64823" lon="3.00151">
        <ele>941</ele>
      </trkpt>
      <trkpt lat="45.64816" lon="3.00162">
        <ele>941</ele>
      </trkpt>
      <trkpt lat="45.64809" lon="3.00175">
        <ele>940</ele>
      </trkpt>
      <trkpt lat="45.64801" lon="3.00187">
        <ele>939</ele>
      </trkpt>
      <trkpt lat="45.64794" lon="3.002">
        <ele>939</ele>
      </trkpt>
      <trkpt lat="45.64786" lon="3.00212">
        <ele>938</ele>
      </trkpt>
      <trkpt lat="45.64777" lon="3.00223">
        <ele>937</ele>
      </trkpt>
      <trkpt lat="45.6477" lon="3.00235">
        <ele>937</ele>
      </trkpt>
      <trkpt lat="45.64763" lon="3.00244">
        <ele>936</ele>
      </trkpt>
      <trkpt lat="45.64755" lon="3.00256">
        <ele>935</ele>
      </trkpt>
      <trkpt lat="45.64746" lon="3.00268">
        <ele>934</ele>
      </trkpt>
      <trkpt lat="45.64745" lon="3.00283">
        <ele>934</ele>
      </trkpt>
      <trkpt lat="45.64753" lon="3.00291">
        <ele>935</ele>
      </trkpt>
      <trkpt lat="45.64761" lon="3.00298">
        <ele>936</ele>
      </trkpt>
      <trkpt lat="45.64769" lon="3.00307">
        <ele>937</ele>
      </trkpt>
      <trkpt lat="45.64775" lon="3.00316">
        <ele>937</ele>
      </trkpt>
      <trkpt lat="45.64786" lon="3.00322">
        <ele>938</ele>
      </trkpt>
      <trkpt lat="45.64794" lon="3.00326">
        <ele>939</ele>
      </trkpt>
      <trkpt lat="45.64803" lon="3.0033">
        <ele>940</ele>
      </trkpt>
      <trkpt lat="45.64813" lon="3.00331">
        <ele>941</ele>
      </trkpt>
      <trkpt lat="45.64823" lon="3.00333">
        <ele>942</ele>
      </trkpt>
      <trkpt lat="45.64833" lon="3.00334">
        <ele>943</ele>
      </trkpt>
      <trkpt lat="45.64843" lon="3.00339">
        <ele>943</ele>
      </trkpt>
      <trkpt lat="45.64852" lon="3.00345">
        <ele>942</ele>
      </trkpt>
      <trkpt lat="45.64859" lon="3.00354">
        <ele>941</ele>
      </trkpt>
      <trkpt lat="45.64863" lon="3.00366">
        <ele>939</ele>
      </trkpt>
      <trkpt lat="45.64866" lon="3.00381">
        <ele>938</ele>
      </trkpt>
      <trkpt lat="45.64868" lon="3.00394">
        <ele>936</ele>
      </trkpt>
      <trkpt lat="45.64876" lon="3.00403">
        <ele>935</ele>
      </trkpt>
      <trkpt lat="45.64878" lon="3.00417">
        <ele>933</ele>
      </trkpt>
      <trkpt lat="45.64878" lon="3.00432">
        <ele>932</ele>
      </trkpt>
      <trkpt lat="45.64878" lon="3.00446">
        <ele>931</ele>
      </trkpt>
      <trkpt lat="45.64874" lon="3.00459">
        <ele>930</ele>
      </trkpt>
      <trkpt lat="45.6487" lon="3.00471">
        <ele>930</ele>
      </trkpt>
      <trkpt lat="45.64867" lon="3.00484">
        <ele>930</ele>
      </trkpt>
      <trkpt lat="45.64866" lon="3.00497">
        <ele>930</ele>
      </trkpt>
      <trkpt lat="45.64869" lon="3.0051">
        <ele>929</ele>
      </trkpt>
      <trkpt lat="45.64864" lon="3.00523">
        <ele>929</ele>
      </trkpt>
      <trkpt lat="45.64857" lon="3.00532">
        <ele>930</ele>
      </trkpt>
      <trkpt lat="45.64854" lon="3.00546">
        <ele>930</ele>
      </trkpt>
      <trkpt lat="45.6485" lon="3.00558">
        <ele>931</ele>
      </trkpt>
      <trkpt lat="45.64852" lon="3.00571">
        <ele>931</ele>
      </trkpt>
      <trkpt lat="45.64856" lon="3.00584">
        <ele>931</ele>
      </trkpt>
      <trkpt lat="45.64861" lon="3.00595">
        <ele>931</ele>
      </trkpt>
      <trkpt lat="45.64866" lon="3.00607">
        <ele>931</ele>
      </trkpt>
      <trkpt lat="45.64871" lon="3.00618">
        <ele>931</ele>
      </trkpt>
      <trkpt lat="45.64875" lon="3.00631">
        <ele>931</ele>
      </trkpt>
      <trkpt lat="45.6488" lon="3.00645">
        <ele>931</ele>
      </trkpt>
      <trkpt lat="45.64884" lon="3.00657">
        <ele>931</ele>
      </trkpt>
      <trkpt lat="45.64885" lon="3.00674">
        <ele>930</ele>
      </trkpt>
      <trkpt lat="45.64885" lon="3.00689">
        <ele>930</ele>
      </trkpt>
      <trkpt lat="45.64886" lon="3.00702">
        <ele>929</ele>
      </trkpt>
      <trkpt lat="45.64887" lon="3.00716">
        <ele>929</ele>
      </trkpt>
      <trkpt lat="45.64889" lon="3.0073">
        <ele>928</ele>
      </trkpt>
      <trkpt lat="45.64889" lon="3.00745">
        <ele>928</ele>
      </trkpt>
      <trkpt lat="45.6489" lon="3.00759">
        <ele>927</ele>
      </trkpt>
      <trkpt lat="45.6489" lon="3.00775">
        <ele>927</ele>
      </trkpt>
      <trkpt lat="45.64889" lon="3.00792">
        <ele>927</ele>
      </trkpt>
      <trkpt lat="45.64886" lon="3.00806">
        <ele>926</ele>
      </trkpt>
      <trkpt lat="45.64884" lon="3.0082">
        <ele>926</ele>
      </trkpt>
      <trkpt lat="45.64881" lon="3.00834">
        <ele>926</ele>
      </trkpt>
      <trkpt lat="45.64879" lon="3.00851">
        <ele>926</ele>
      </trkpt>
      <trkpt lat="45.64878" lon="3.00866">
        <ele>927</ele>
      </trkpt>
      <trkpt lat="45.64876" lon="3.00879">
        <ele>927</ele>
      </trkpt>
      <trkpt lat="45.64874" lon="3.00893">
        <ele>927</ele>
      </trkpt>
      <trkpt lat="45.64871" lon="3.00908">
        <ele>928</ele>
      </trkpt>
      <trkpt lat="45.64871" lon="3.00922">
        <ele>928</ele>
      </trkpt>
      <trkpt lat="45.64869" lon="3.00936">
        <ele>929</ele>
      </trkpt>
      <trkpt lat="45.64869" lon="3.0095">
        <ele>929</ele>
      </trkpt>
      <trkpt lat="45.64866" lon="3.00963">
        <ele>930</ele>
      </trkpt>
      <trkpt lat="45.64865" lon="3.00977">
        <ele>930</ele>
      </trkpt>
      <trkpt lat="45.64865" lon="3.0099">
        <ele>930</ele>
      </trkpt>
      <trkpt lat="45.64869" lon="3.01004">
        <ele>930</ele>
      </trkpt>
      <trkpt lat="45.64871" lon="3.01017">
        <ele>931</ele>
      </trkpt>
      <trkpt lat="45.64874" lon="3.0103">
        <ele>931</ele>
      </trkpt>
      <trkpt lat="45.6488" lon="3.01043">
        <ele>931</ele>
      </trkpt>
      <trkpt lat="45.64878" lon="3.01057">
        <ele>930</ele>
      </trkpt>
      <trkpt lat="45.64878" lon="3.01072">
        <ele>930</ele>
      </trkpt>
      <trkpt lat="45.64878" lon="3.01086">
        <ele>929</ele>
      </trkpt>
      <trkpt lat="45.64872" lon="3.01098">
        <ele>929</ele>
      </trkpt>
      <trkpt lat="45.64869" lon="3.01111">
        <ele>928</ele>
      </trkpt>
      <trkpt lat="45.64864" lon="3.01123">
        <ele>928</ele>
      </trkpt>
      <trkpt lat="45.64859" lon="3.01137">
        <ele>927</ele>
      </trkpt>
      <trkpt lat="45.64855" lon="3.0115">
        <ele>926</ele>
      </trkpt>
      <trkpt lat="45.64853" lon="3.01165">
        <ele>926</ele>
      </trkpt>
      <trkpt lat="45.64847" lon="3.01176">
        <ele>925</ele>
      </trkpt>
      <trkpt lat="45.64843" lon="3.01187">
        <ele>924</ele>
      </trkpt>
      <trkpt lat="45.64839" lon="3.01202">
        <ele>924</ele>
      </trkpt>
      <trkpt lat="45.64833" lon="3.01214">
        <ele>923</ele>
      </trkpt>
      <trkpt lat="45.6483" lon="3.01227">
        <ele>922</ele>
      </trkpt>
      <trkpt lat="45.64825" lon="3.01238">
        <ele>922</ele>
      </trkpt>
      <trkpt lat="45.64823" lon="3.01252">
        <ele>921</ele>
      </trkpt>
      <trkpt lat="45.6482" lon="3.01264">
        <ele>920</ele>
      </trkpt>
      <trkpt lat="45.64815" lon="3.01277">
        <ele>920</ele>
      </trkpt>
      <trkpt lat="45.64815" lon="3.01291">
        <ele>919</ele>
      </trkpt>
      <trkpt lat="45.64812" lon="3.01303">
        <ele>918</ele>
      </trkpt>
      <trkpt lat="45.64808" lon="3.01316">
        <ele>916</ele>
      </trkpt>
      <trkpt lat="45.64807" lon="3.0133">
        <ele>915</ele>
      </trkpt>
      <trkpt lat="45.64804" lon="3.01344">
        <ele>914</ele>
      </trkpt>
      <trkpt lat="45.64802" lon="3.01358">
        <ele>912</ele>
      </trkpt>
      <trkpt lat="45.64801" lon="3.01371">
        <ele>911</ele>
      </trkpt>
      <trkpt lat="45.64799" lon="3.01385">
        <ele>910</ele>
      </trkpt>
      <trkpt lat="45.64797" lon="3.01399">
        <ele>909</ele>
      </trkpt>
      <trkpt lat="45.64795" lon="3.01412">
        <ele>908</ele>
      </trkpt>
      <trkpt lat="45.64791" lon="3.01423">
        <ele>907</ele>
      </trkpt>
      <trkpt lat="45.64789" lon="3.01437">
        <ele>907</ele>
      </trkpt>
      <trkpt lat="45.64792" lon="3.0145">
        <ele>906</ele>
      </trkpt>
      <trkpt lat="45.64791" lon="3.01465">
        <ele>905</ele>
      </trkpt>
      <trkpt lat="45.64791" lon="3.01479">
        <ele>904</ele>
      </trkpt>
      <trkpt lat="45.64787" lon="3.01493">
        <ele>903</ele>
      </trkpt>
      <trkpt lat="45.64784" lon="3.01507">
        <ele>902</ele>
      </trkpt>
      <trkpt lat="45.64782" lon="3.0152">
        <ele>902</ele>
      </trkpt>
      <trkpt lat="45.64774" lon="3.01529">
        <ele>901</ele>
      </trkpt>
      <trkpt lat="45.64769" lon="3.01541">
        <ele>900</ele>
      </trkpt>
      <trkpt lat="45.64765" lon="3.01555">
        <ele>899</ele>
      </trkpt>
      <trkpt lat="45.6476" lon="3.01566">
        <ele>898</ele>
      </trkpt>
      <trkpt lat="45.64758" lon="3.01581">
        <ele>897</ele>
      </trkpt>
      <trkpt lat="45.64755" lon="3.01594">
        <ele>896</ele>
      </trkpt>
      <trkpt lat="45.64754" lon="3.01608">
        <ele>895</ele>
      </trkpt>
      <trkpt lat="45.64755" lon="3.01624">
        <ele>894</ele>
      </trkpt>
      <trkpt lat="45.64761" lon="3.01636">
        <ele>894</ele>
      </trkpt>
      <trkpt lat="45.6477" lon="3.01643">
        <ele>894</ele>
      </trkpt>
      <trkpt lat="45.64779" lon="3.01649">
        <ele>894</ele>
      </trkpt>
      <trkpt lat="45.64789" lon="3.0165">
        <ele>894</ele>
      </trkpt>
      <trkpt lat="45.64799" lon="3.01651">
        <ele>894</ele>
      </trkpt>
      <trkpt lat="45.64808" lon="3.01653">
        <ele>895</ele>
      </trkpt>
      <trkpt lat="45.64818" lon="3.01651">
        <ele>895</ele>
      </trkpt>
      <trkpt lat="45.64827" lon="3.01654">
        <ele>895</ele>
      </trkpt>
      <trkpt lat="45.64835" lon="3.01662">
        <ele>895</ele>
      </trkpt>
      <trkpt lat="45.64839" lon="3.01674">
        <ele>895</ele>
      </trkpt>
      <trkpt lat="45.64838" lon="3.01688">
        <ele>895</ele>
      </trkpt>
      <trkpt lat="45.64838" lon="3.01702">
        <ele>895</ele>
      </trkpt>
      <trkpt lat="45.64838" lon="3.01717">
        <ele>894</ele>
      </trkpt>
      <trkpt lat="45.64837" lon="3.01732">
        <ele>894</ele>
      </trkpt>
      <trkpt lat="45.64832" lon="3.01745">
        <ele>893</ele>
      </trkpt>
      <trkpt lat="45.64825" lon="3.01754">
        <ele>893</ele>
      </trkpt>
      <trkpt lat="45.64818" lon="3.01765">
        <ele>893</ele>
      </trkpt>
      <trkpt lat="45.64815" lon="3.01777">
        <ele>892</ele>
      </trkpt>
      <trkpt lat="45.64811" lon="3.01791">
        <ele>892</ele>
      </trkpt>
      <trkpt lat="45.64803" lon="3.018">
        <ele>892</ele>
      </trkpt>
      <trkpt lat="45.64796" lon="3.01808">
        <ele>891</ele>
      </trkpt>
      <trkpt lat="45.64789" lon="3.01818">
        <ele>890</ele>
      </trkpt>
      <trkpt lat="45.64781" lon="3.01825">
        <ele>888</ele>
      </trkpt>
      <trkpt lat="45.64773" lon="3.01832">
        <ele>887</ele>
      </trkpt>
      <trkpt lat="45.64765" lon="3.01839">
        <ele>885</ele>
      </trkpt>
      <trkpt lat="45.64756" lon="3.01843">
        <ele>884</ele>
      </trkpt>
      <trkpt lat="45.64746" lon="3.01843">
        <ele>883</ele>
      </trkpt>
      <trkpt lat="45.64738" lon="3.01849">
        <ele>881</ele>
      </trkpt>
      <trkpt lat="45.64731" lon="3.01858">
        <ele>879</ele>
      </trkpt>
      <trkpt lat="45.64721" lon="3.01861">
        <ele>878</ele>
      </trkpt>
      <trkpt lat="45.64711" lon="3.0186">
        <ele>878</ele>
      </trkpt>
      <trkpt lat="45.64702" lon="3.01857">
        <ele>877</ele>
      </trkpt>
      <trkpt lat="45.64692" lon="3.01859">
        <ele>876</ele>
      </trkpt>
      <trkpt lat="45.64683" lon="3.01854">
        <ele>876</ele>
      </trkpt>
      <trkpt lat="45.64683" lon="3.01867">
        <ele>874</ele>
      </trkpt>
      <trkpt lat="45.6469" lon="3.01877">
        <ele>872</ele>
      </trkpt>
      <trkpt lat="45.64697" lon="3.01887">
        <ele>871</ele>
      </trkpt>
      <trkpt lat="45.64697" lon="3.019">
        <ele>868</ele>
      </trkpt>
      <trkpt lat="45.64687" lon="3.01902">
        <ele>867</ele>
      </trkpt>
      <trkpt lat="45.64677" lon="3.01905">
        <ele>866</ele>
      </trkpt>
      <trkpt lat="45.64668" lon="3.01906">
        <ele>866</ele>
      </trkpt>
      <trkpt lat="45.64658" lon="3.01909">
        <ele>865</ele>
      </trkpt>
      <trkpt lat="45.64665" lon="3.0192">
        <ele>864</ele>
      </trkpt>
      <trkpt lat="45.64671" lon="3.01932">
        <ele>862</ele>
      </trkpt>
      <trkpt lat="45.64675" lon="3.01944">
        <ele>862</ele>
      </trkpt>
      <trkpt lat="45.64686" lon="3.01953">
        <ele>861</ele>
      </trkpt>
      <trkpt lat="45.64693" lon="3.01966">
        <ele>860</ele>
      </trkpt>
      <trkpt lat="45.64693" lon="3.0198">
        <ele>860</ele>
      </trkpt>
      <trkpt lat="45.64697" lon="3.01993">
        <ele>859</ele>
      </trkpt>
      <trkpt lat="45.64699" lon="3.02008">
        <ele>860</ele>
      </trkpt>
      <trkpt lat="45.64692" lon="3.02021">
        <ele>861</ele>
      </trkpt>
      <trkpt lat="45.64684" lon="3.02033">
        <ele>863</ele>
      </trkpt>
      <trkpt lat="45.64676" lon="3.02045">
        <ele>864</ele>
      </trkpt>
      <trkpt lat="45.64669" lon="3.02055">
        <ele>865</ele>
      </trkpt>
      <trkpt lat="45.64663" lon="3.02066">
        <ele>865</ele>
      </trkpt>
      <trkpt lat="45.64656" lon="3.02077">
        <ele>865</ele>
      </trkpt>
      <trkpt lat="45.64652" lon="3.02089">
        <ele>865</ele>
      </trkpt>
      <trkpt lat="45.64652" lon="3.02103">
        <ele>865</ele>
      </trkpt>
      <trkpt lat="45.64657" lon="3.02118">
        <ele>865</ele>
      </trkpt>
      <trkpt lat="45.6466" lon="3.0213">
        <ele>865</ele>
      </trkpt>
      <trkpt lat="45.64663" lon="3.02143">
        <ele>865</ele>
      </trkpt>
      <trkpt lat="45.64666" lon="3.02156">
        <ele>864</ele>
      </trkpt>
      <trkpt lat="45.64668" lon="3.02173">
        <ele>864</ele>
      </trkpt>
      <trkpt lat="45.64671" lon="3.02185">
        <ele>864</ele>
      </trkpt>
      <trkpt lat="45.64673" lon="3.022">
        <ele>864</ele>
      </trkpt>
      <trkpt lat="45.64676" lon="3.02212">
        <ele>864</ele>
      </trkpt>
      <trkpt lat="45.64678" lon="3.02227">
        <ele>863</ele>
      </trkpt>
      <trkpt lat="45.64682" lon="3.02241">
        <ele>863</ele>
      </trkpt>
      <trkpt lat="45.64685" lon="3.02254">
        <ele>863</ele>
      </trkpt>
      <trkpt lat="45.64686" lon="3.0227">
        <ele>863</ele>
      </trkpt>
      <trkpt lat="45.64688" lon="3.02284">
        <ele>863</ele>
      </trkpt>
      <trkpt lat="45.6469" lon="3.02298">
        <ele>863</ele>
      </trkpt>
      <trkpt lat="45.64691" lon="3.02315">
        <ele>863</ele>
      </trkpt>
      <trkpt lat="45.64692" lon="3.02329">
        <ele>862</ele>
      </trkpt>
      <trkpt lat="45.64692" lon="3.02343">
        <ele>862</ele>
      </trkpt>
      <trkpt lat="45.64692" lon="3.0236">
        <ele>861</ele>
      </trkpt>
      <trkpt lat="45.64693" lon="3.02377">
        <ele>861</ele>
      </trkpt>
      <trkpt lat="45.64694" lon="3.02393">
        <ele>861</ele>
      </trkpt>
      <trkpt lat="45.64695" lon="3.02408">
        <ele>861</ele>
      </trkpt>
      <trkpt lat="45.64696" lon="3.02422">
        <ele>860</ele>
      </trkpt>
      <trkpt lat="45.64697" lon="3.02437">
        <ele>860</ele>
      </trkpt>
      <trkpt lat="45.64698" lon="3.02453">
        <ele>860</ele>
      </trkpt>
      <trkpt lat="45.647" lon="3.02467">
        <ele>859</ele>
      </trkpt>
      <trkpt lat="45.647" lon="3.02481">
        <ele>858</ele>
      </trkpt>
      <trkpt lat="45.64704" lon="3.02495">
        <ele>858</ele>
      </trkpt>
      <trkpt lat="45.64709" lon="3.02506">
        <ele>858</ele>
      </trkpt>
      <trkpt lat="45.64715" lon="3.02519">
        <ele>857</ele>
      </trkpt>
      <trkpt lat="45.6472" lon="3.02531">
        <ele>857</ele>
      </trkpt>
      <trkpt lat="45.64724" lon="3.02544">
        <ele>857</ele>
      </trkpt>
      <trkpt lat="45.6473" lon="3.02554">
        <ele>856</ele>
      </trkpt>
      <trkpt lat="45.64736" lon="3.02566">
        <ele>856</ele>
      </trkpt>
      <trkpt lat="45.64741" lon="3.02578">
        <ele>856</ele>
      </trkpt>
      <trkpt lat="45.64748" lon="3.02589">
        <ele>856</ele>
      </trkpt>
      <trkpt lat="45.64755" lon="3.02599">
        <ele>855</ele>
      </trkpt>
      <trkpt lat="45.64761" lon="3.0261">
        <ele>855</ele>
      </trkpt>
      <trkpt lat="45.64769" lon="3.0262">
        <ele>855</ele>
      </trkpt>
      <trkpt lat="45.64776" lon="3.0263">
        <ele>855</ele>
      </trkpt>
      <trkpt lat="45.6478" lon="3.02642">
        <ele>855</ele>
      </trkpt>
      <trkpt lat="45.64783" lon="3.02655">
        <ele>854</ele>
      </trkpt>
      <trkpt lat="45.64784" lon="3.02669">
        <ele>853</ele>
      </trkpt>
      <trkpt lat="45.64784" lon="3.02684">
        <ele>853</ele>
      </trkpt>
      <trkpt lat="45.64785" lon="3.02697">
        <ele>852</ele>
      </trkpt>
      <trkpt lat="45.64786" lon="3.02712">
        <ele>851</ele>
      </trkpt>
      <trkpt lat="45.64787" lon="3.02725">
        <ele>850</ele>
      </trkpt>
      <trkpt lat="45.64785" lon="3.02739">
        <ele>848</ele>
      </trkpt>
      <trkpt lat="45.64783" lon="3.02753">
        <ele>847</ele>
      </trkpt>
      <trkpt lat="45.64789" lon="3.02766">
        <ele>846</ele>
      </trkpt>
      <trkpt lat="45.648" lon="3.02765">
        <ele>846</ele>
      </trkpt>
      <trkpt lat="45.6481" lon="3.02764">
        <ele>846</ele>
      </trkpt>
      <trkpt lat="45.6482" lon="3.02761">
        <ele>847</ele>
      </trkpt>
      <trkpt lat="45.64829" lon="3.0276">
        <ele>847</ele>
      </trkpt>
      <trkpt lat="45.64839" lon="3.02763">
        <ele>847</ele>
      </trkpt>
      <trkpt lat="45.64847" lon="3.0277">
        <ele>846</ele>
      </trkpt>
      <trkpt lat="45.64854" lon="3.02779">
        <ele>845</ele>
      </trkpt>
      <trkpt lat="45.64863" lon="3.0279">
        <ele>844</ele>
      </trkpt>
      <trkpt lat="45.64871" lon="3.02798">
        <ele>843</ele>
      </trkpt>
      <trkpt lat="45.64879" lon="3.02806">
        <ele>842</ele>
      </trkpt>
      <trkpt lat="45.64886" lon="3.02815">
        <ele>842</ele>
      </trkpt>
      <trkpt lat="45.6489" lon="3.02827">
        <ele>841</ele>
      </trkpt>
      <trkpt lat="45.6489" lon="3.02854">
        <ele>838</ele>
      </trkpt>
      <trkpt lat="45.64888" lon="3.02881">
        <ele>836</ele>
      </trkpt>
      <trkpt lat="45.64886" lon="3.02896">
        <ele>834</ele>
      </trkpt>
      <trkpt lat="45.64884" lon="3.02911">
        <ele>833</ele>
      </trkpt>
      <trkpt lat="45.64884" lon="3.02925">
        <ele>831</ele>
      </trkpt>
      <trkpt lat="45.64886" lon="3.02938">
        <ele>830</ele>
      </trkpt>
      <trkpt lat="45.64893" lon="3.02948">
        <ele>828</ele>
      </trkpt>
      <trkpt lat="45.64902" lon="3.02952">
        <ele>827</ele>
      </trkpt>
      <trkpt lat="45.64912" lon="3.02953">
        <ele>826</ele>
      </trkpt>
      <trkpt lat="45.64921" lon="3.02953">
        <ele>826</ele>
      </trkpt>
      <trkpt lat="45.64931" lon="3.02952">
        <ele>825</ele>
      </trkpt>
      <trkpt lat="45.64941" lon="3.02955">
        <ele>824</ele>
      </trkpt>
      <trkpt lat="45.6495" lon="3.02959">
        <ele>822</ele>
      </trkpt>
      <trkpt lat="45.64959" lon="3.02958">
        <ele>822</ele>
      </trkpt>
      <trkpt lat="45.64979" lon="3.02958">
        <ele>818</ele>
      </trkpt>
      <trkpt lat="45.64985" lon="3.02968">
        <ele>814</ele>
      </trkpt>
      <trkpt lat="45.64983" lon="3.02982">
        <ele>811</ele>
      </trkpt>
      <trkpt lat="45.6498" lon="3.02995">
        <ele>808</ele>
      </trkpt>
      <trkpt lat="45.64978" lon="3.03007">
        <ele>806</ele>
      </trkpt>
      <trkpt lat="45.64969" lon="3.0302">
        <ele>804</ele>
      </trkpt>
      <trkpt lat="45.64964" lon="3.03031">
        <ele>803</ele>
      </trkpt>
      <trkpt lat="45.64957" lon="3.03041">
        <ele>803</ele>
      </trkpt>
      <trkpt lat="45.64951" lon="3.03052">
        <ele>803</ele>
      </trkpt>
      <trkpt lat="45.64943" lon="3.03062">
        <ele>804</ele>
      </trkpt>
      <trkpt lat="45.64937" lon="3.03073">
        <ele>804</ele>
      </trkpt>
      <trkpt lat="45.6493" lon="3.03082">
        <ele>804</ele>
      </trkpt>
      <trkpt lat="45.64924" lon="3.03093">
        <ele>803</ele>
      </trkpt>
      <trkpt lat="45.64918" lon="3.03102">
        <ele>802</ele>
      </trkpt>
      <trkpt lat="45.6491" lon="3.03111">
        <ele>801</ele>
      </trkpt>
      <trkpt lat="45.64903" lon="3.03121">
        <ele>799</ele>
      </trkpt>
      <trkpt lat="45.64894" lon="3.03128">
        <ele>798</ele>
      </trkpt>
      <trkpt lat="45.64886" lon="3.03137">
        <ele>796</ele>
      </trkpt>
      <trkpt lat="45.64878" lon="3.03144">
        <ele>795</ele>
      </trkpt>
      <trkpt lat="45.64869" lon="3.03149">
        <ele>794</ele>
      </trkpt>
      <trkpt lat="45.64861" lon="3.03157">
        <ele>793</ele>
      </trkpt>
      <trkpt lat="45.64852" lon="3.03164">
        <ele>793</ele>
      </trkpt>
      <trkpt lat="45.64843" lon="3.03172">
        <ele>793</ele>
      </trkpt>
      <trkpt lat="45.64837" lon="3.03182">
        <ele>792</ele>
      </trkpt>
      <trkpt lat="45.64831" lon="3.03194">
        <ele>791</ele>
      </trkpt>
      <trkpt lat="45.6483" lon="3.03208">
        <ele>790</ele>
      </trkpt>
      <trkpt lat="45.64831" lon="3.03223">
        <ele>789</ele>
      </trkpt>
      <trkpt lat="45.64829" lon="3.03236">
        <ele>789</ele>
      </trkpt>
      <trkpt lat="45.64829" lon="3.03251">
        <ele>789</ele>
      </trkpt>
      <trkpt lat="45.64828" lon="3.03265">
        <ele>789</ele>
      </trkpt>
      <trkpt lat="45.64826" lon="3.03278">
        <ele>789</ele>
      </trkpt>
      <trkpt lat="45.64826" lon="3.03293">
        <ele>789</ele>
      </trkpt>
      <trkpt lat="45.64825" lon="3.03306">
        <ele>789</ele>
      </trkpt>
      <trkpt lat="45.6482" lon="3.0332">
        <ele>789</ele>
      </trkpt>
      <trkpt lat="45.64816" lon="3.03331">
        <ele>788</ele>
      </trkpt>
      <trkpt lat="45.6481" lon="3.03343">
        <ele>788</ele>
      </trkpt>
      <trkpt lat="45.64809" lon="3.03357">
        <ele>788</ele>
      </trkpt>
      <trkpt lat="45.64808" lon="3.0337">
        <ele>787</ele>
      </trkpt>
      <trkpt lat="45.64807" lon="3.03384">
        <ele>786</ele>
      </trkpt>
      <trkpt lat="45.64808" lon="3.03398">
        <ele>786</ele>
      </trkpt>
      <trkpt lat="45.64809" lon="3.03411">
        <ele>785</ele>
      </trkpt>
      <trkpt lat="45.64808" lon="3.03426">
        <ele>784</ele>
      </trkpt>
      <trkpt lat="45.64808" lon="3.03439">
        <ele>783</ele>
      </trkpt>
      <trkpt lat="45.64807" lon="3.03454">
        <ele>782</ele>
      </trkpt>
      <trkpt lat="45.64806" lon="3.03468">
        <ele>782</ele>
      </trkpt>
      <trkpt lat="45.64806" lon="3.03482">
        <ele>781</ele>
      </trkpt>
      <trkpt lat="45.64803" lon="3.03495">
        <ele>780</ele>
      </trkpt>
      <trkpt lat="45.64801" lon="3.03509">
        <ele>779</ele>
      </trkpt>
      <trkpt lat="45.64799" lon="3.03524">
        <ele>778</ele>
      </trkpt>
      <trkpt lat="45.64794" lon="3.03536">
        <ele>778</ele>
      </trkpt>
      <trkpt lat="45.64787" lon="3.03545">
        <ele>777</ele>
      </trkpt>
      <trkpt lat="45.64779" lon="3.03553">
        <ele>777</ele>
      </trkpt>
      <trkpt lat="45.6477" lon="3.03558">
        <ele>776</ele>
      </trkpt>
      <trkpt lat="45.64761" lon="3.03563">
        <ele>776</ele>
      </trkpt>
      <trkpt lat="45.64752" lon="3.03565">
        <ele>775</ele>
      </trkpt>
      <trkpt lat="45.64743" lon="3.03571">
        <ele>774</ele>
      </trkpt>
      <trkpt lat="45.64734" lon="3.03575">
        <ele>774</ele>
      </trkpt>
      <trkpt lat="45.64725" lon="3.03582">
        <ele>773</ele>
      </trkpt>
      <trkpt lat="45.64717" lon="3.03589">
        <ele>772</ele>
      </trkpt>
      <trkpt lat="45.64709" lon="3.03596">
        <ele>771</ele>
      </trkpt>
      <trkpt lat="45.64704" lon="3.03608">
        <ele>769</ele>
      </trkpt>
      <trkpt lat="45.64705" lon="3.03622">
        <ele>769</ele>
      </trkpt>
      <trkpt lat="45.64706" lon="3.03636">
        <ele>768</ele>
      </trkpt>
      <trkpt lat="45.64706" lon="3.0365">
        <ele>767</ele>
      </trkpt>
      <trkpt lat="45.64709" lon="3.03663">
        <ele>766</ele>
      </trkpt>
      <trkpt lat="45.64712" lon="3.03676">
        <ele>766</ele>
      </trkpt>
      <trkpt lat="45.64714" lon="3.03691">
        <ele>765</ele>
      </trkpt>
      <trkpt lat="45.64721" lon="3.03702">
        <ele>765</ele>
      </trkpt>
      <trkpt lat="45.64727" lon="3.03712">
        <ele>765</ele>
      </trkpt>
      <trkpt lat="45.6473" lon="3.03726">
        <ele>764</ele>
      </trkpt>
      <trkpt lat="45.64731" lon="3.03739">
        <ele>763</ele>
      </trkpt>
      <trkpt lat="45.64729" lon="3.03753">
        <ele>761</ele>
      </trkpt>
      <trkpt lat="45.64727" lon="3.03767">
        <ele>760</ele>
      </trkpt>
      <trkpt lat="45.64726" lon="3.03781">
        <ele>758</ele>
      </trkpt>
      <trkpt lat="45.64726" lon="3.03795">
        <ele>757</ele>
      </trkpt>
      <trkpt lat="45.64728" lon="3.03808">
        <ele>756</ele>
      </trkpt>
      <trkpt lat="45.64731" lon="3.03821">
        <ele>755</ele>
      </trkpt>
      <trkpt lat="45.64734" lon="3.03834">
        <ele>755</ele>
      </trkpt>
      <trkpt lat="45.64738" lon="3.03847">
        <ele>754</ele>
      </trkpt>
      <trkpt lat="45.64739" lon="3.03861">
        <ele>753</ele>
      </trkpt>
      <trkpt lat="45.64743" lon="3.03872">
        <ele>753</ele>
      </trkpt>
      <trkpt lat="45.64748" lon="3.03885">
        <ele>752</ele>
      </trkpt>
      <trkpt lat="45.64753" lon="3.03897">
        <ele>752</ele>
      </trkpt>
      <trkpt lat="45.64758" lon="3.0391">
        <ele>751</ele>
      </trkpt>
      <trkpt lat="45.64758" lon="3.03923">
        <ele>751</ele>
      </trkpt>
      <trkpt lat="45.6476" lon="3.03937">
        <ele>750</ele>
      </trkpt>
      <trkpt lat="45.64762" lon="3.0395">
        <ele>749</ele>
      </trkpt>
      <trkpt lat="45.64763" lon="3.03964">
        <ele>748</ele>
      </trkpt>
      <trkpt lat="45.64765" lon="3.03978">
        <ele>747</ele>
      </trkpt>
      <trkpt lat="45.64765" lon="3.03992">
        <ele>746</ele>
      </trkpt>
      <trkpt lat="45.64767" lon="3.04006">
        <ele>745</ele>
      </trkpt>
      <trkpt lat="45.64767" lon="3.0402">
        <ele>743</ele>
      </trkpt>
      <trkpt lat="45.64769" lon="3.04035">
        <ele>742</ele>
      </trkpt>
      <trkpt lat="45.6477" lon="3.04048">
        <ele>740</ele>
      </trkpt>
      <trkpt lat="45.64771" lon="3.04062">
        <ele>739</ele>
      </trkpt>
      <trkpt lat="45.64772" lon="3.04076">
        <ele>737</ele>
      </trkpt>
      <trkpt lat="45.64774" lon="3.0409">
        <ele>735</ele>
      </trkpt>
      <trkpt lat="45.64775" lon="3.04103">
        <ele>734</ele>
      </trkpt>
      <trkpt lat="45.64775" lon="3.04118">
        <ele>732</ele>
      </trkpt>
      <trkpt lat="45.64773" lon="3.04132">
        <ele>731</ele>
      </trkpt>
      <trkpt lat="45.64769" lon="3.04145">
        <ele>729</ele>
      </trkpt>
      <trkpt lat="45.64766" lon="3.04158">
        <ele>728</ele>
      </trkpt>
      <trkpt lat="45.64763" lon="3.04171">
        <ele>727</ele>
      </trkpt>
      <trkpt lat="45.64759" lon="3.04184">
        <ele>726</ele>
      </trkpt>
      <trkpt lat="45.64755" lon="3.04197">
        <ele>726</ele>
      </trkpt>
      <trkpt lat="45.64753" lon="3.0421">
        <ele>725</ele>
      </trkpt>
      <trkpt lat="45.64748" lon="3.04222">
        <ele>725</ele>
      </trkpt>
      <trkpt lat="45.64741" lon="3.04232">
        <ele>724</ele>
      </trkpt>
      <trkpt lat="45.64734" lon="3.04241">
        <ele>724</ele>
      </trkpt>
      <trkpt lat="45.64728" lon="3.04253">
        <ele>724</ele>
      </trkpt>
      <trkpt lat="45.6472" lon="3.04261">
        <ele>724</ele>
      </trkpt>
      <trkpt lat="45.64715" lon="3.04273">
        <ele>725</ele>
      </trkpt>
      <trkpt lat="45.64712" lon="3.04285">
        <ele>725</ele>
      </trkpt>
      <trkpt lat="45.64712" lon="3.04302">
        <ele>725</ele>
      </trkpt>
      <trkpt lat="45.64712" lon="3.04315">
        <ele>726</ele>
      </trkpt>
      <trkpt lat="45.64709" lon="3.04329">
        <ele>728</ele>
      </trkpt>
      <trkpt lat="45.647" lon="3.04324">
        <ele>729</ele>
      </trkpt>
      <trkpt lat="45.64691" lon="3.0432">
        <ele>730</ele>
      </trkpt>
      <trkpt lat="45.64683" lon="3.04312">
        <ele>731</ele>
      </trkpt>
      <trkpt lat="45.64674" lon="3.04304">
        <ele>732</ele>
      </trkpt>
      <trkpt lat="45.64666" lon="3.04297">
        <ele>733</ele>
      </trkpt>
      <trkpt lat="45.64657" lon="3.0429">
        <ele>734</ele>
      </trkpt>
      <trkpt lat="45.64648" lon="3.04285">
        <ele>735</ele>
      </trkpt>
      <trkpt lat="45.6464" lon="3.04278">
        <ele>736</ele>
      </trkpt>
      <trkpt lat="45.64631" lon="3.04268">
        <ele>737</ele>
      </trkpt>
      <trkpt lat="45.6462" lon="3.04266">
        <ele>738</ele>
      </trkpt>
      <trkpt lat="45.64629" lon="3.04272">
        <ele>737</ele>
      </trkpt>
      <trkpt lat="45.6462" lon="3.04264">
        <ele>738</ele>
      </trkpt>
      <trkpt lat="45.64615" lon="3.04252">
        <ele>738</ele>
      </trkpt>
      <trkpt lat="45.64618" lon="3.04265">
        <ele>738</ele>
      </trkpt>
      <trkpt lat="45.6462" lon="3.04251">
        <ele>737</ele>
      </trkpt>
      <trkpt lat="45.64625" lon="3.04263">
        <ele>737</ele>
      </trkpt>
      <trkpt lat="45.64634" lon="3.04269">
        <ele>737</ele>
      </trkpt>
      <trkpt lat="45.64625" lon="3.04266">
        <ele>738</ele>
      </trkpt>
      <trkpt lat="45.64617" lon="3.04259">
        <ele>738</ele>
      </trkpt>
      <trkpt lat="45.64626" lon="3.04261">
        <ele>737</ele>
      </trkpt>
      <trkpt lat="45.64617" lon="3.0426">
        <ele>738</ele>
      </trkpt>
      <trkpt lat="45.64607" lon="3.04259">
        <ele>739</ele>
      </trkpt>
      <trkpt lat="45.64597" lon="3.0426">
        <ele>740</ele>
      </trkpt>
      <trkpt lat="45.64586" lon="3.04259">
        <ele>740</ele>
      </trkpt>
      <trkpt lat="45.64597" lon="3.04258">
        <ele>740</ele>
      </trkpt>
      <trkpt lat="45.64606" lon="3.04258">
        <ele>739</ele>
      </trkpt>
      <trkpt lat="45.64615" lon="3.04259">
        <ele>738</ele>
      </trkpt>
      <trkpt lat="45.64624" lon="3.04262">
        <ele>737</ele>
      </trkpt>
      <trkpt lat="45.64615" lon="3.04259">
        <ele>738</ele>
      </trkpt>
      <trkpt lat="45.64624" lon="3.04262">
        <ele>737</ele>
      </trkpt>
      <trkpt lat="45.64632" lon="3.04269">
        <ele>737</ele>
      </trkpt>
      <trkpt lat="45.64641" lon="3.04277">
        <ele>736</ele>
      </trkpt>
      <trkpt lat="45.64649" lon="3.04283">
        <ele>735</ele>
      </trkpt>
      <trkpt lat="45.6466" lon="3.0429">
        <ele>733</ele>
      </trkpt>
      <trkpt lat="45.64669" lon="3.04298">
        <ele>732</ele>
      </trkpt>
      <trkpt lat="45.64677" lon="3.04305">
        <ele>731</ele>
      </trkpt>
      <trkpt lat="45.64687" lon="3.04312">
        <ele>730</ele>
      </trkpt>
      <trkpt lat="45.64697" lon="3.04318">
        <ele>729</ele>
      </trkpt>
      <trkpt lat="45.64706" lon="3.04324">
        <ele>728</ele>
      </trkpt>
      <trkpt lat="45.64712" lon="3.04335">
        <ele>728</ele>
      </trkpt>
      <trkpt lat="45.64713" lon="3.04348">
        <ele>728</ele>
      </trkpt>
      <trkpt lat="45.64717" lon="3.04363">
        <ele>729</ele>
      </trkpt>
      <trkpt lat="45.64723" lon="3.04374">
        <ele>728</ele>
      </trkpt>
      <trkpt lat="45.64729" lon="3.04384">
        <ele>727</ele>
      </trkpt>
      <trkpt lat="45.64735" lon="3.04395">
        <ele>727</ele>
      </trkpt>
      <trkpt lat="45.64741" lon="3.04407">
        <ele>726</ele>
      </trkpt>
      <trkpt lat="45.6474" lon="3.04421">
        <ele>727</ele>
      </trkpt>
      <trkpt lat="45.64745" lon="3.04433">
        <ele>726</ele>
      </trkpt>
      <trkpt lat="45.64749" lon="3.04446">
        <ele>726</ele>
      </trkpt>
      <trkpt lat="45.64752" lon="3.04459">
        <ele>725</ele>
      </trkpt>
      <trkpt lat="45.64755" lon="3.04471">
        <ele>724</ele>
      </trkpt>
      <trkpt lat="45.64752" lon="3.04485">
        <ele>725</ele>
      </trkpt>
      <trkpt lat="45.64749" lon="3.04497">
        <ele>726</ele>
      </trkpt>
      <trkpt lat="45.64751" lon="3.04511">
        <ele>725</ele>
      </trkpt>
      <trkpt lat="45.6475" lon="3.04524">
        <ele>725</ele>
      </trkpt>
      <trkpt lat="45.64749" lon="3.0454">
        <ele>725</ele>
      </trkpt>
      <trkpt lat="45.64751" lon="3.04554">
        <ele>725</ele>
      </trkpt>
      <trkpt lat="45.6475" lon="3.04568">
        <ele>725</ele>
      </trkpt>
      <trkpt lat="45.6475" lon="3.04583">
        <ele>725</ele>
      </trkpt>
      <trkpt lat="45.64752" lon="3.04596">
        <ele>724</ele>
      </trkpt>
      <trkpt lat="45.64755" lon="3.04609">
        <ele>724</ele>
      </trkpt>
      <trkpt lat="45.64755" lon="3.04623">
        <ele>723</ele>
      </trkpt>
      <trkpt lat="45.64755" lon="3.04637">
        <ele>723</ele>
      </trkpt>
      <trkpt lat="45.64755" lon="3.04651">
        <ele>723</ele>
      </trkpt>
      <trkpt lat="45.64755" lon="3.04665">
        <ele>723</ele>
      </trkpt>
      <trkpt lat="45.64757" lon="3.04679">
        <ele>722</ele>
      </trkpt>
      <trkpt lat="45.64758" lon="3.04692">
        <ele>721</ele>
      </trkpt>
      <trkpt lat="45.64757" lon="3.04707">
        <ele>720</ele>
      </trkpt>
      <trkpt lat="45.64757" lon="3.04721">
        <ele>719</ele>
      </trkpt>
      <trkpt lat="45.64754" lon="3.04735">
        <ele>718</ele>
      </trkpt>
      <trkpt lat="45.6475" lon="3.04748">
        <ele>718</ele>
      </trkpt>
      <trkpt lat="45.64745" lon="3.04761">
        <ele>717</ele>
      </trkpt>
      <trkpt lat="45.64738" lon="3.04771">
        <ele>717</ele>
      </trkpt>
      <trkpt lat="45.64734" lon="3.04785">
        <ele>717</ele>
      </trkpt>
      <trkpt lat="45.64736" lon="3.04798">
        <ele>716</ele>
      </trkpt>
      <trkpt lat="45.64726" lon="3.048">
        <ele>717</ele>
      </trkpt>
      <trkpt lat="45.64717" lon="3.04794">
        <ele>718</ele>
      </trkpt>
      <trkpt lat="45.64707" lon="3.048">
        <ele>718</ele>
      </trkpt>
      <trkpt lat="45.647" lon="3.0481">
        <ele>718</ele>
      </trkpt>
      <trkpt lat="45.64695" lon="3.04824">
        <ele>719</ele>
      </trkpt>
      <trkpt lat="45.64695" lon="3.04838">
        <ele>720</ele>
      </trkpt>
      <trkpt lat="45.64694" lon="3.04852">
        <ele>721</ele>
      </trkpt>
      <trkpt lat="45.64692" lon="3.04867">
        <ele>721</ele>
      </trkpt>
      <trkpt lat="45.64691" lon="3.0488">
        <ele>722</ele>
      </trkpt>
      <trkpt lat="45.64688" lon="3.04893">
        <ele>723</ele>
      </trkpt>
      <trkpt lat="45.64686" lon="3.04906">
        <ele>723</ele>
      </trkpt>
      <trkpt lat="45.64682" lon="3.04918">
        <ele>724</ele>
      </trkpt>
      <trkpt lat="45.64678" lon="3.0493">
        <ele>724</ele>
      </trkpt>
      <trkpt lat="45.64674" lon="3.04944">
        <ele>725</ele>
      </trkpt>
      <trkpt lat="45.6467" lon="3.04957">
        <ele>726</ele>
      </trkpt>
      <trkpt lat="45.64666" lon="3.04968">
        <ele>728</ele>
      </trkpt>
      <trkpt lat="45.64661" lon="3.04981">
        <ele>729</ele>
      </trkpt>
      <trkpt lat="45.64656" lon="3.04993">
        <ele>730</ele>
      </trkpt>
      <trkpt lat="45.64652" lon="3.05006">
        <ele>731</ele>
      </trkpt>
      <trkpt lat="45.64649" lon="3.05019">
        <ele>732</ele>
      </trkpt>
      <trkpt lat="45.64646" lon="3.05032">
        <ele>732</ele>
      </trkpt>
      <trkpt lat="45.64644" lon="3.05045">
        <ele>733</ele>
      </trkpt>
      <trkpt lat="45.64641" lon="3.05061">
        <ele>734</ele>
      </trkpt>
      <trkpt lat="45.64638" lon="3.05076">
        <ele>734</ele>
      </trkpt>
      <trkpt lat="45.64634" lon="3.05089">
        <ele>734</ele>
      </trkpt>
      <trkpt lat="45.64631" lon="3.05103">
        <ele>735</ele>
      </trkpt>
      <trkpt lat="45.64629" lon="3.05117">
        <ele>735</ele>
      </trkpt>
      <trkpt lat="45.64627" lon="3.05131">
        <ele>736</ele>
      </trkpt>
      <trkpt lat="45.64625" lon="3.05146">
        <ele>736</ele>
      </trkpt>
      <trkpt lat="45.64624" lon="3.0516">
        <ele>736</ele>
      </trkpt>
      <trkpt lat="45.6462" lon="3.05178">
        <ele>737</ele>
      </trkpt>
      <trkpt lat="45.64619" lon="3.05195">
        <ele>737</ele>
      </trkpt>
      <trkpt lat="45.64618" lon="3.05208">
        <ele>737</ele>
      </trkpt>
      <trkpt lat="45.64621" lon="3.05221">
        <ele>738</ele>
      </trkpt>
      <trkpt lat="45.64616" lon="3.05232">
        <ele>738</ele>
      </trkpt>
      <trkpt lat="45.64606" lon="3.05239">
        <ele>737</ele>
      </trkpt>
      <trkpt lat="45.64595" lon="3.05243">
        <ele>736</ele>
      </trkpt>
      <trkpt lat="45.64584" lon="3.05245">
        <ele>735</ele>
      </trkpt>
      <trkpt lat="45.64573" lon="3.05248">
        <ele>735</ele>
      </trkpt>
      <trkpt lat="45.64562" lon="3.05251">
        <ele>734</ele>
      </trkpt>
      <trkpt lat="45.64552" lon="3.05255">
        <ele>734</ele>
      </trkpt>
      <trkpt lat="45.64542" lon="3.05257">
        <ele>733</ele>
      </trkpt>
      <trkpt lat="45.64527" lon="3.05261">
        <ele>733</ele>
      </trkpt>
      <trkpt lat="45.64517" lon="3.05266">
        <ele>733</ele>
      </trkpt>
      <trkpt lat="45.64513" lon="3.0528">
        <ele>733</ele>
      </trkpt>
      <trkpt lat="45.6452" lon="3.05295">
        <ele>734</ele>
      </trkpt>
      <trkpt lat="45.64527" lon="3.05306">
        <ele>734</ele>
      </trkpt>
      <trkpt lat="45.64534" lon="3.05317">
        <ele>734</ele>
      </trkpt>
      <trkpt lat="45.6454" lon="3.05327">
        <ele>734</ele>
      </trkpt>
      <trkpt lat="45.64546" lon="3.05338">
        <ele>734</ele>
      </trkpt>
      <trkpt lat="45.64554" lon="3.05348">
        <ele>735</ele>
      </trkpt>
      <trkpt lat="45.64561" lon="3.05359">
        <ele>735</ele>
      </trkpt>
      <trkpt lat="45.64568" lon="3.05369">
        <ele>735</ele>
      </trkpt>
      <trkpt lat="45.64573" lon="3.05381">
        <ele>735</ele>
      </trkpt>
      <trkpt lat="45.64576" lon="3.05393">
        <ele>735</ele>
      </trkpt>
      <trkpt lat="45.6458" lon="3.05407">
        <ele>734</ele>
      </trkpt>
      <trkpt lat="45.64584" lon="3.05419">
        <ele>733</ele>
      </trkpt>
      <trkpt lat="45.6459" lon="3.05434">
        <ele>732</ele>
      </trkpt>
      <trkpt lat="45.64598" lon="3.05444">
        <ele>731</ele>
      </trkpt>
      <trkpt lat="45.64605" lon="3.05458">
        <ele>730</ele>
      </trkpt>
      <trkpt lat="45.6461" lon="3.05469">
        <ele>728</ele>
      </trkpt>
      <trkpt lat="45.64615" lon="3.05483">
        <ele>727</ele>
      </trkpt>
      <trkpt lat="45.64619" lon="3.05497">
        <ele>726</ele>
      </trkpt>
      <trkpt lat="45.64622" lon="3.0551">
        <ele>725</ele>
      </trkpt>
      <trkpt lat="45.64625" lon="3.05522">
        <ele>723</ele>
      </trkpt>
      <trkpt lat="45.64631" lon="3.05537">
        <ele>722</ele>
      </trkpt>
      <trkpt lat="45.64636" lon="3.05549">
        <ele>720</ele>
      </trkpt>
      <trkpt lat="45.64643" lon="3.05559">
        <ele>719</ele>
      </trkpt>
      <trkpt lat="45.64649" lon="3.0557">
        <ele>718</ele>
      </trkpt>
      <trkpt lat="45.64656" lon="3.05582">
        <ele>717</ele>
      </trkpt>
      <trkpt lat="45.64661" lon="3.05593">
        <ele>716</ele>
      </trkpt>
      <trkpt lat="45.64661" lon="3.05607">
        <ele>715</ele>
      </trkpt>
      <trkpt lat="45.64659" lon="3.05619">
        <ele>713</ele>
      </trkpt>
      <trkpt lat="45.64658" lon="3.05634">
        <ele>712</ele>
      </trkpt>
      <trkpt lat="45.64666" lon="3.05642">
        <ele>712</ele>
      </trkpt>
      <trkpt lat="45.64675" lon="3.05638">
        <ele>714</ele>
      </trkpt>
      <trkpt lat="45.64683" lon="3.05634">
        <ele>717</ele>
      </trkpt>
      <trkpt lat="45.64693" lon="3.05629">
        <ele>719</ele>
      </trkpt>
      <trkpt lat="45.647" lon="3.05639">
        <ele>721</ele>
      </trkpt>
      <trkpt lat="45.647" lon="3.05653">
        <ele>721</ele>
      </trkpt>
      <trkpt lat="45.64703" lon="3.05665">
        <ele>722</ele>
      </trkpt>
      <trkpt lat="45.64704" lon="3.05681">
        <ele>722</ele>
      </trkpt>
      <trkpt lat="45.64706" lon="3.05695">
        <ele>722</ele>
      </trkpt>
      <trkpt lat="45.64704" lon="3.05708">
        <ele>722</ele>
      </trkpt>
      <trkpt lat="45.64701" lon="3.05721">
        <ele>721</ele>
      </trkpt>
      <trkpt lat="45.64697" lon="3.05733">
        <ele>720</ele>
      </trkpt>
      <trkpt lat="45.64697" lon="3.05746">
        <ele>720</ele>
      </trkpt>
      <trkpt lat="45.64695" lon="3.0576">
        <ele>719</ele>
      </trkpt>
      <trkpt lat="45.64695" lon="3.05774">
        <ele>719</ele>
      </trkpt>
      <trkpt lat="45.64697" lon="3.05788">
        <ele>721</ele>
      </trkpt>
      <trkpt lat="45.64698" lon="3.05804">
        <ele>723</ele>
      </trkpt>
      <trkpt lat="45.64699" lon="3.05818">
        <ele>725</ele>
      </trkpt>
      <trkpt lat="45.64697" lon="3.05831">
        <ele>726</ele>
      </trkpt>
      <trkpt lat="45.64689" lon="3.05843">
        <ele>725</ele>
      </trkpt>
      <trkpt lat="45.6468" lon="3.05852">
        <ele>724</ele>
      </trkpt>
      <trkpt lat="45.64672" lon="3.05861">
        <ele>724</ele>
      </trkpt>
      <trkpt lat="45.64664" lon="3.0587">
        <ele>723</ele>
      </trkpt>
      <trkpt lat="45.64657" lon="3.05881">
        <ele>722</ele>
      </trkpt>
      <trkpt lat="45.64651" lon="3.05892">
        <ele>722</ele>
      </trkpt>
      <trkpt lat="45.64647" lon="3.05905">
        <ele>722</ele>
      </trkpt>
      <trkpt lat="45.64645" lon="3.0592">
        <ele>722</ele>
      </trkpt>
      <trkpt lat="45.64645" lon="3.05934">
        <ele>722</ele>
      </trkpt>
      <trkpt lat="45.64643" lon="3.05946">
        <ele>721</ele>
      </trkpt>
      <trkpt lat="45.64639" lon="3.05959">
        <ele>721</ele>
      </trkpt>
      <trkpt lat="45.64634" lon="3.05984">
        <ele>720</ele>
      </trkpt>
      <trkpt lat="45.64633" lon="3.05999">
        <ele>719</ele>
      </trkpt>
      <trkpt lat="45.64631" lon="3.06012">
        <ele>718</ele>
      </trkpt>
      <trkpt lat="45.64628" lon="3.06025">
        <ele>718</ele>
      </trkpt>
      <trkpt lat="45.64625" lon="3.06038">
        <ele>716</ele>
      </trkpt>
      <trkpt lat="45.64624" lon="3.06052">
        <ele>714</ele>
      </trkpt>
      <trkpt lat="45.64625" lon="3.06066">
        <ele>713</ele>
      </trkpt>
      <trkpt lat="45.64627" lon="3.06079">
        <ele>712</ele>
      </trkpt>
      <trkpt lat="45.64632" lon="3.06091">
        <ele>711</ele>
      </trkpt>
      <trkpt lat="45.64637" lon="3.06104">
        <ele>710</ele>
      </trkpt>
      <trkpt lat="45.64639" lon="3.06117">
        <ele>709</ele>
      </trkpt>
      <trkpt lat="45.64645" lon="3.0613">
        <ele>708</ele>
      </trkpt>
      <trkpt lat="45.64644" lon="3.06143">
        <ele>706</ele>
      </trkpt>
      <trkpt lat="45.64647" lon="3.06158">
        <ele>705</ele>
      </trkpt>
      <trkpt lat="45.64649" lon="3.06173">
        <ele>705</ele>
      </trkpt>
      <trkpt lat="45.64649" lon="3.06187">
        <ele>704</ele>
      </trkpt>
      <trkpt lat="45.64653" lon="3.062">
        <ele>705</ele>
      </trkpt>
      <trkpt lat="45.64656" lon="3.06213">
        <ele>705</ele>
      </trkpt>
      <trkpt lat="45.64656" lon="3.06228">
        <ele>705</ele>
      </trkpt>
      <trkpt lat="45.64658" lon="3.06242">
        <ele>706</ele>
      </trkpt>
      <trkpt lat="45.64654" lon="3.06255">
        <ele>705</ele>
      </trkpt>
      <trkpt lat="45.64655" lon="3.06271">
        <ele>705</ele>
      </trkpt>
      <trkpt lat="45.64653" lon="3.06283">
        <ele>705</ele>
      </trkpt>
      <trkpt lat="45.64649" lon="3.06296">
        <ele>705</ele>
      </trkpt>
      <trkpt lat="45.64645" lon="3.06309">
        <ele>705</ele>
      </trkpt>
      <trkpt lat="45.64641" lon="3.06322">
        <ele>705</ele>
      </trkpt>
      <trkpt lat="45.64637" lon="3.06335">
        <ele>706</ele>
      </trkpt>
      <trkpt lat="45.64632" lon="3.06347">
        <ele>706</ele>
      </trkpt>
      <trkpt lat="45.6463" lon="3.06361">
        <ele>707</ele>
      </trkpt>
      <trkpt lat="45.64626" lon="3.06374">
        <ele>707</ele>
      </trkpt>
      <trkpt lat="45.64621" lon="3.06386">
        <ele>706</ele>
      </trkpt>
      <trkpt lat="45.64615" lon="3.06397">
        <ele>706</ele>
      </trkpt>
      <trkpt lat="45.64609" lon="3.06408">
        <ele>705</ele>
      </trkpt>
      <trkpt lat="45.64603" lon="3.06419">
        <ele>705</ele>
      </trkpt>
      <trkpt lat="45.64596" lon="3.06428">
        <ele>704</ele>
      </trkpt>
      <trkpt lat="45.64588" lon="3.06438">
        <ele>704</ele>
      </trkpt>
      <trkpt lat="45.64582" lon="3.0645">
        <ele>703</ele>
      </trkpt>
      <trkpt lat="45.64573" lon="3.06454">
        <ele>703</ele>
      </trkpt>
      <trkpt lat="45.64566" lon="3.06464">
        <ele>702</ele>
      </trkpt>
      <trkpt lat="45.6456" lon="3.06476">
        <ele>702</ele>
      </trkpt>
      <trkpt lat="45.64554" lon="3.06488">
        <ele>701</ele>
      </trkpt>
      <trkpt lat="45.64551" lon="3.06502">
        <ele>701</ele>
      </trkpt>
      <trkpt lat="45.64547" lon="3.06515">
        <ele>700</ele>
      </trkpt>
      <trkpt lat="45.64542" lon="3.06528">
        <ele>699</ele>
      </trkpt>
      <trkpt lat="45.6454" lon="3.06542">
        <ele>699</ele>
      </trkpt>
      <trkpt lat="45.64537" lon="3.06556">
        <ele>698</ele>
      </trkpt>
      <trkpt lat="45.64539" lon="3.06571">
        <ele>698</ele>
      </trkpt>
      <trkpt lat="45.6454" lon="3.06584">
        <ele>698</ele>
      </trkpt>
      <trkpt lat="45.64538" lon="3.06598">
        <ele>698</ele>
      </trkpt>
      <trkpt lat="45.64535" lon="3.06612">
        <ele>697</ele>
      </trkpt>
      <trkpt lat="45.64534" lon="3.06626">
        <ele>696</ele>
      </trkpt>
      <trkpt lat="45.64535" lon="3.0664">
        <ele>695</ele>
      </trkpt>
      <trkpt lat="45.6453" lon="3.06653">
        <ele>693</ele>
      </trkpt>
      <trkpt lat="45.64527" lon="3.06665">
        <ele>692</ele>
      </trkpt>
      <trkpt lat="45.64525" lon="3.06679">
        <ele>690</ele>
      </trkpt>
      <trkpt lat="45.64525" lon="3.06692">
        <ele>687</ele>
      </trkpt>
      <trkpt lat="45.64524" lon="3.06706">
        <ele>685</ele>
      </trkpt>
      <trkpt lat="45.64527" lon="3.06718">
        <ele>683</ele>
      </trkpt>
      <trkpt lat="45.64532" lon="3.0673">
        <ele>682</ele>
      </trkpt>
      <trkpt lat="45.64536" lon="3.06744">
        <ele>680</ele>
      </trkpt>
      <trkpt lat="45.6454" lon="3.06758">
        <ele>679</ele>
      </trkpt>
      <trkpt lat="45.64544" lon="3.0677">
        <ele>678</ele>
      </trkpt>
      <trkpt lat="45.64545" lon="3.06785">
        <ele>676</ele>
      </trkpt>
      <trkpt lat="45.64544" lon="3.06798">
        <ele>674</ele>
      </trkpt>
      <trkpt lat="45.64547" lon="3.06812">
        <ele>672</ele>
      </trkpt>
      <trkpt lat="45.64553" lon="3.06827">
        <ele>670</ele>
      </trkpt>
      <trkpt lat="45.64561" lon="3.0684">
        <ele>669</ele>
      </trkpt>
      <trkpt lat="45.64569" lon="3.06851">
        <ele>667</ele>
      </trkpt>
      <trkpt lat="45.64578" lon="3.06861">
        <ele>665</ele>
      </trkpt>
      <trkpt lat="45.64587" lon="3.06872">
        <ele>664</ele>
      </trkpt>
      <trkpt lat="45.64596" lon="3.06879">
        <ele>663</ele>
      </trkpt>
      <trkpt lat="45.64605" lon="3.06885">
        <ele>662</ele>
      </trkpt>
      <trkpt lat="45.64613" lon="3.06893">
        <ele>661</ele>
      </trkpt>
      <trkpt lat="45.64622" lon="3.06898">
        <ele>660</ele>
      </trkpt>
      <trkpt lat="45.64631" lon="3.06901">
        <ele>658</ele>
      </trkpt>
      <trkpt lat="45.64641" lon="3.06901">
        <ele>657</ele>
      </trkpt>
      <trkpt lat="45.64653" lon="3.069">
        <ele>657</ele>
      </trkpt>
      <trkpt lat="45.64662" lon="3.06898">
        <ele>657</ele>
      </trkpt>
      <trkpt lat="45.64673" lon="3.06892">
        <ele>656</ele>
      </trkpt>
      <trkpt lat="45.64684" lon="3.06892">
        <ele>654</ele>
      </trkpt>
      <trkpt lat="45.64688" lon="3.06906">
        <ele>651</ele>
      </trkpt>
      <trkpt lat="45.64682" lon="3.06919">
        <ele>649</ele>
      </trkpt>
      <trkpt lat="45.64675" lon="3.06927">
        <ele>648</ele>
      </trkpt>
      <trkpt lat="45.64666" lon="3.06934">
        <ele>649</ele>
      </trkpt>
      <trkpt lat="45.64654" lon="3.06936">
        <ele>651</ele>
      </trkpt>
      <trkpt lat="45.64643" lon="3.06935">
        <ele>652</ele>
      </trkpt>
      <trkpt lat="45.64634" lon="3.06933">
        <ele>653</ele>
      </trkpt>
      <trkpt lat="45.64624" lon="3.06936">
        <ele>654</ele>
      </trkpt>
      <trkpt lat="45.64615" lon="3.06944">
        <ele>654</ele>
      </trkpt>
      <trkpt lat="45.64608" lon="3.06953">
        <ele>653</ele>
      </trkpt>
      <trkpt lat="45.646" lon="3.06961">
        <ele>652</ele>
      </trkpt>
      <trkpt lat="45.64595" lon="3.06971">
        <ele>651</ele>
      </trkpt>
      <trkpt lat="45.64589" lon="3.06982">
        <ele>650</ele>
      </trkpt>
      <trkpt lat="45.64581" lon="3.06991">
        <ele>650</ele>
      </trkpt>
      <trkpt lat="45.64574" lon="3.07">
        <ele>649</ele>
      </trkpt>
      <trkpt lat="45.64566" lon="3.07009">
        <ele>648</ele>
      </trkpt>
      <trkpt lat="45.64558" lon="3.07019">
        <ele>647</ele>
      </trkpt>
      <trkpt lat="45.64552" lon="3.07029">
        <ele>646</ele>
      </trkpt>
      <trkpt lat="45.64545" lon="3.07042">
        <ele>645</ele>
      </trkpt>
      <trkpt lat="45.6454" lon="3.07052">
        <ele>644</ele>
      </trkpt>
      <trkpt lat="45.64535" lon="3.07064">
        <ele>642</ele>
      </trkpt>
      <trkpt lat="45.64529" lon="3.07076">
        <ele>640</ele>
      </trkpt>
      <trkpt lat="45.64525" lon="3.07087">
        <ele>639</ele>
      </trkpt>
      <trkpt lat="45.64521" lon="3.071">
        <ele>637</ele>
      </trkpt>
      <trkpt lat="45.64518" lon="3.07112">
        <ele>636</ele>
      </trkpt>
      <trkpt lat="45.64516" lon="3.07127">
        <ele>634</ele>
      </trkpt>
      <trkpt lat="45.64513" lon="3.07139">
        <ele>634</ele>
      </trkpt>
      <trkpt lat="45.64511" lon="3.07154">
        <ele>633</ele>
      </trkpt>
      <trkpt lat="45.64508" lon="3.07167">
        <ele>632</ele>
      </trkpt>
      <trkpt lat="45.64507" lon="3.07182">
        <ele>631</ele>
      </trkpt>
      <trkpt lat="45.64508" lon="3.07195">
        <ele>630</ele>
      </trkpt>
      <trkpt lat="45.6451" lon="3.07209">
        <ele>629</ele>
      </trkpt>
      <trkpt lat="45.64513" lon="3.07222">
        <ele>628</ele>
      </trkpt>
      <trkpt lat="45.64518" lon="3.07234">
        <ele>627</ele>
      </trkpt>
      <trkpt lat="45.64523" lon="3.07245">
        <ele>626</ele>
      </trkpt>
      <trkpt lat="45.64527" lon="3.07257">
        <ele>626</ele>
      </trkpt>
      <trkpt lat="45.6453" lon="3.0727">
        <ele>625</ele>
      </trkpt>
      <trkpt lat="45.64529" lon="3.07283">
        <ele>625</ele>
      </trkpt>
      <trkpt lat="45.64528" lon="3.07298">
        <ele>624</ele>
      </trkpt>
      <trkpt lat="45.64528" lon="3.07312">
        <ele>624</ele>
      </trkpt>
      <trkpt lat="45.64528" lon="3.07325">
        <ele>623</ele>
      </trkpt>
      <trkpt lat="45.64527" lon="3.07339">
        <ele>622</ele>
      </trkpt>
      <trkpt lat="45.64526" lon="3.07352">
        <ele>621</ele>
      </trkpt>
      <trkpt lat="45.64525" lon="3.07366">
        <ele>621</ele>
      </trkpt>
      <trkpt lat="45.64524" lon="3.07379">
        <ele>620</ele>
      </trkpt>
      <trkpt lat="45.64525" lon="3.07393">
        <ele>619</ele>
      </trkpt>
      <trkpt lat="45.64524" lon="3.07407">
        <ele>619</ele>
      </trkpt>
      <trkpt lat="45.64523" lon="3.07421">
        <ele>618</ele>
      </trkpt>
      <trkpt lat="45.64524" lon="3.07434">
        <ele>618</ele>
      </trkpt>
      <trkpt lat="45.64527" lon="3.07447">
        <ele>617</ele>
      </trkpt>
      <trkpt lat="45.64531" lon="3.0746">
        <ele>616</ele>
      </trkpt>
      <trkpt lat="45.64534" lon="3.07473">
        <ele>614</ele>
      </trkpt>
      <trkpt lat="45.64539" lon="3.07484">
        <ele>613</ele>
      </trkpt>
      <trkpt lat="45.64545" lon="3.07495">
        <ele>612</ele>
      </trkpt>
      <trkpt lat="45.64551" lon="3.07508">
        <ele>610</ele>
      </trkpt>
      <trkpt lat="45.64544" lon="3.07517">
        <ele>608</ele>
      </trkpt>
      <trkpt lat="45.64534" lon="3.07518">
        <ele>608</ele>
      </trkpt>
      <trkpt lat="45.64532" lon="3.07531">
        <ele>604</ele>
      </trkpt>
      <trkpt lat="45.6454" lon="3.0754">
        <ele>602</ele>
      </trkpt>
      <trkpt lat="45.64549" lon="3.07545">
        <ele>602</ele>
      </trkpt>
      <trkpt lat="45.64559" lon="3.0755">
        <ele>601</ele>
      </trkpt>
      <trkpt lat="45.64568" lon="3.07553">
        <ele>601</ele>
      </trkpt>
      <trkpt lat="45.64577" lon="3.07556">
        <ele>602</ele>
      </trkpt>
      <trkpt lat="45.64587" lon="3.0756">
        <ele>603</ele>
      </trkpt>
      <trkpt lat="45.64597" lon="3.07563">
        <ele>604</ele>
      </trkpt>
      <trkpt lat="45.64605" lon="3.07569">
        <ele>605</ele>
      </trkpt>
      <trkpt lat="45.64615" lon="3.07578">
        <ele>606</ele>
      </trkpt>
      <trkpt lat="45.64615" lon="3.07591">
        <ele>605</ele>
      </trkpt>
      <trkpt lat="45.64614" lon="3.07605">
        <ele>604</ele>
      </trkpt>
      <trkpt lat="45.64612" lon="3.07619">
        <ele>603</ele>
      </trkpt>
      <trkpt lat="45.64612" lon="3.07633">
        <ele>602</ele>
      </trkpt>
      <trkpt lat="45.64608" lon="3.07645">
        <ele>600</ele>
      </trkpt>
      <trkpt lat="45.64606" lon="3.07658">
        <ele>599</ele>
      </trkpt>
      <trkpt lat="45.64605" lon="3.07671">
        <ele>599</ele>
      </trkpt>
      <trkpt lat="45.64605" lon="3.07685">
        <ele>599</ele>
      </trkpt>
      <trkpt lat="45.64606" lon="3.07699">
        <ele>598</ele>
      </trkpt>
      <trkpt lat="45.64606" lon="3.07726">
        <ele>596</ele>
      </trkpt>
      <trkpt lat="45.64607" lon="3.07741">
        <ele>596</ele>
      </trkpt>
      <trkpt lat="45.64607" lon="3.07755">
        <ele>595</ele>
      </trkpt>
      <trkpt lat="45.64605" lon="3.07771">
        <ele>593</ele>
      </trkpt>
      <trkpt lat="45.64602" lon="3.07787">
        <ele>590</ele>
      </trkpt>
      <trkpt lat="45.64601" lon="3.07803">
        <ele>588</ele>
      </trkpt>
      <trkpt lat="45.64599" lon="3.07817">
        <ele>586</ele>
      </trkpt>
      <trkpt lat="45.64598" lon="3.07832">
        <ele>584</ele>
      </trkpt>
      <trkpt lat="45.64598" lon="3.07846">
        <ele>582</ele>
      </trkpt>
      <trkpt lat="45.64599" lon="3.07859">
        <ele>580</ele>
      </trkpt>
      <trkpt lat="45.64602" lon="3.07873">
        <ele>578</ele>
      </trkpt>
      <trkpt lat="45.64605" lon="3.07886">
        <ele>576</ele>
      </trkpt>
      <trkpt lat="45.64612" lon="3.07899">
        <ele>575</ele>
      </trkpt>
      <trkpt lat="45.64619" lon="3.07913">
        <ele>572</ele>
      </trkpt>
      <trkpt lat="45.64625" lon="3.07925">
        <ele>570</ele>
      </trkpt>
      <trkpt lat="45.64632" lon="3.07938">
        <ele>567</ele>
      </trkpt>
      <trkpt lat="45.64637" lon="3.07951">
        <ele>564</ele>
      </trkpt>
      <trkpt lat="45.64645" lon="3.0796">
        <ele>561</ele>
      </trkpt>
      <trkpt lat="45.64656" lon="3.07965">
        <ele>561</ele>
      </trkpt>
      <trkpt lat="45.64686" lon="3.07965">
        <ele>566</ele>
      </trkpt>
      <trkpt lat="45.64698" lon="3.07966">
        <ele>568</ele>
      </trkpt>
      <trkpt lat="45.64709" lon="3.07967">
        <ele>570</ele>
      </trkpt>
      <trkpt lat="45.64719" lon="3.07967">
        <ele>573</ele>
      </trkpt>
      <trkpt lat="45.64733" lon="3.0797">
        <ele>576</ele>
      </trkpt>
      <trkpt lat="45.64741" lon="3.07974">
        <ele>578</ele>
      </trkpt>
      <trkpt lat="45.64746" lon="3.07988">
        <ele>578</ele>
      </trkpt>
      <trkpt lat="45.64751" lon="3.08004">
        <ele>577</ele>
      </trkpt>
      <trkpt lat="45.64752" lon="3.08018">
        <ele>577</ele>
      </trkpt>
      <trkpt lat="45.64752" lon="3.08033">
        <ele>576</ele>
      </trkpt>
      <trkpt lat="45.64748" lon="3.08048">
        <ele>574</ele>
      </trkpt>
      <trkpt lat="45.64744" lon="3.08061">
        <ele>573</ele>
      </trkpt>
      <trkpt lat="45.64741" lon="3.08075">
        <ele>571</ele>
      </trkpt>
      <trkpt lat="45.64744" lon="3.0809">
        <ele>571</ele>
      </trkpt>
      <trkpt lat="45.64749" lon="3.08103">
        <ele>570</ele>
      </trkpt>
      <trkpt lat="45.64755" lon="3.08119">
        <ele>568</ele>
      </trkpt>
      <trkpt lat="45.6476" lon="3.08133">
        <ele>565</ele>
      </trkpt>
      <trkpt lat="45.64766" lon="3.08146">
        <ele>563</ele>
      </trkpt>
      <trkpt lat="45.6477" lon="3.08162">
        <ele>559</ele>
      </trkpt>
      <trkpt lat="45.64774" lon="3.08177">
        <ele>554</ele>
      </trkpt>
      <trkpt lat="45.64777" lon="3.0819">
        <ele>551</ele>
      </trkpt>
      <trkpt lat="45.64784" lon="3.08199">
        <ele>547</ele>
      </trkpt>
      <trkpt lat="45.64793" lon="3.08199">
        <ele>546</ele>
      </trkpt>
      <trkpt lat="45.64802" lon="3.08192">
        <ele>546</ele>
      </trkpt>
      <trkpt lat="45.64812" lon="3.08185">
        <ele>546</ele>
      </trkpt>
      <trkpt lat="45.64821" lon="3.0818">
        <ele>545</ele>
      </trkpt>
      <trkpt lat="45.6483" lon="3.08172">
        <ele>545</ele>
      </trkpt>
      <trkpt lat="45.6484" lon="3.08164">
        <ele>546</ele>
      </trkpt>
      <trkpt lat="45.64849" lon="3.08158">
        <ele>546</ele>
      </trkpt>
      <trkpt lat="45.64859" lon="3.08149">
        <ele>547</ele>
      </trkpt>
      <trkpt lat="45.64867" lon="3.08146">
        <ele>546</ele>
      </trkpt>
      <trkpt lat="45.64878" lon="3.08145">
        <ele>544</ele>
      </trkpt>
      <trkpt lat="45.64889" lon="3.08143">
        <ele>543</ele>
      </trkpt>
      <trkpt lat="45.64899" lon="3.08141">
        <ele>542</ele>
      </trkpt>
      <trkpt lat="45.6491" lon="3.08142">
        <ele>540</ele>
      </trkpt>
      <trkpt lat="45.6492" lon="3.08146">
        <ele>537</ele>
      </trkpt>
      <trkpt lat="45.6493" lon="3.08144">
        <ele>537</ele>
      </trkpt>
      <trkpt lat="45.64938" lon="3.08137">
        <ele>538</ele>
      </trkpt>
      <trkpt lat="45.64945" lon="3.08128">
        <ele>540</ele>
      </trkpt>
      <trkpt lat="45.64955" lon="3.08123">
        <ele>541</ele>
      </trkpt>
      <trkpt lat="45.64964" lon="3.08116">
        <ele>543</ele>
      </trkpt>
      <trkpt lat="45.6498" lon="3.08102">
        <ele>545</ele>
      </trkpt>
      <trkpt lat="45.6499" lon="3.08101">
        <ele>545</ele>
      </trkpt>
      <trkpt lat="45.65" lon="3.08108">
        <ele>543</ele>
      </trkpt>
      <trkpt lat="45.65005" lon="3.08119">
        <ele>541</ele>
      </trkpt>
      <trkpt lat="45.65002" lon="3.08133">
        <ele>539</ele>
      </trkpt>
      <trkpt lat="45.64998" lon="3.08146">
        <ele>537</ele>
      </trkpt>
      <trkpt lat="45.64993" lon="3.08157">
        <ele>535</ele>
      </trkpt>
      <trkpt lat="45.64987" lon="3.08169">
        <ele>533</ele>
      </trkpt>
      <trkpt lat="45.6498" lon="3.08181">
        <ele>530</ele>
      </trkpt>
      <trkpt lat="45.6497" lon="3.08189">
        <ele>529</ele>
      </trkpt>
      <trkpt lat="45.64963" lon="3.08199">
        <ele>527</ele>
      </trkpt>
      <trkpt lat="45.64953" lon="3.08202">
        <ele>526</ele>
      </trkpt>
      <trkpt lat="45.64945" lon="3.08208">
        <ele>525</ele>
      </trkpt>
      <trkpt lat="45.64934" lon="3.08205">
        <ele>525</ele>
      </trkpt>
      <trkpt lat="45.64924" lon="3.08204">
        <ele>525</ele>
      </trkpt>
      <trkpt lat="45.64913" lon="3.08205">
        <ele>525</ele>
      </trkpt>
      <trkpt lat="45.64907" lon="3.08215">
        <ele>523</ele>
      </trkpt>
      <trkpt lat="45.64901" lon="3.08227">
        <ele>521</ele>
      </trkpt>
      <trkpt lat="45.64895" lon="3.08238">
        <ele>520</ele>
      </trkpt>
      <trkpt lat="45.64888" lon="3.08251">
        <ele>518</ele>
      </trkpt>
      <trkpt lat="45.64878" lon="3.08252">
        <ele>518</ele>
      </trkpt>
      <trkpt lat="45.64869" lon="3.08252">
        <ele>519</ele>
      </trkpt>
      <trkpt lat="45.64859" lon="3.08257">
        <ele>519</ele>
      </trkpt>
      <trkpt lat="45.64855" lon="3.0827">
        <ele>517</ele>
      </trkpt>
      <trkpt lat="45.64848" lon="3.08282">
        <ele>516</ele>
      </trkpt>
      <trkpt lat="45.64838" lon="3.0829">
        <ele>516</ele>
      </trkpt>
      <trkpt lat="45.6483" lon="3.08298">
        <ele>516</ele>
      </trkpt>
      <trkpt lat="45.64823" lon="3.08308">
        <ele>516</ele>
      </trkpt>
      <trkpt lat="45.64817" lon="3.08318">
        <ele>516</ele>
      </trkpt>
      <trkpt lat="45.64809" lon="3.08325">
        <ele>516</ele>
      </trkpt>
      <trkpt lat="45.64801" lon="3.08337">
        <ele>515</ele>
      </trkpt>
      <trkpt lat="45.64795" lon="3.08348">
        <ele>515</ele>
      </trkpt>
      <trkpt lat="45.64804" lon="3.08343">
        <ele>514</ele>
      </trkpt>
      <trkpt lat="45.64811" lon="3.08334">
        <ele>515</ele>
      </trkpt>
      <trkpt lat="45.64821" lon="3.08329">
        <ele>515</ele>
      </trkpt>
      <trkpt lat="45.64832" lon="3.08324">
        <ele>514</ele>
      </trkpt>
      <trkpt lat="45.64842" lon="3.08325">
        <ele>514</ele>
      </trkpt>
      <trkpt lat="45.64852" lon="3.08323">
        <ele>514</ele>
      </trkpt>
      <trkpt lat="45.64861" lon="3.08319">
        <ele>514</ele>
      </trkpt>
      <trkpt lat="45.64873" lon="3.08314">
        <ele>514</ele>
      </trkpt>
      <trkpt lat="45.64884" lon="3.0831">
        <ele>514</ele>
      </trkpt>
      <trkpt lat="45.64894" lon="3.08307">
        <ele>514</ele>
      </trkpt>
      <trkpt lat="45.64903" lon="3.08305">
        <ele>514</ele>
      </trkpt>
      <trkpt lat="45.64913" lon="3.08304">
        <ele>515</ele>
      </trkpt>
      <trkpt lat="45.64925" lon="3.08304">
        <ele>515</ele>
      </trkpt>
      <trkpt lat="45.64936" lon="3.08305">
        <ele>515</ele>
      </trkpt>
      <trkpt lat="45.64947" lon="3.08307">
        <ele>516</ele>
      </trkpt>
      <trkpt lat="45.64956" lon="3.0831">
        <ele>516</ele>
      </trkpt>
      <trkpt lat="45.64966" lon="3.08313">
        <ele>516</ele>
      </trkpt>
      <trkpt lat="45.64978" lon="3.08315">
        <ele>516</ele>
      </trkpt>
      <trkpt lat="45.64991" lon="3.08319">
        <ele>516</ele>
      </trkpt>
      <trkpt lat="45.65" lon="3.08323">
        <ele>516</ele>
      </trkpt>
      <trkpt lat="45.6501" lon="3.08327">
        <ele>516</ele>
      </trkpt>
      <trkpt lat="45.65019" lon="3.08332">
        <ele>516</ele>
      </trkpt>
      <trkpt lat="45.65028" lon="3.08337">
        <ele>516</ele>
      </trkpt>
      <trkpt lat="45.65037" lon="3.08341">
        <ele>516</ele>
      </trkpt>
      <trkpt lat="45.65046" lon="3.08346">
        <ele>516</ele>
      </trkpt>
      <trkpt lat="45.65055" lon="3.08349">
        <ele>516</ele>
      </trkpt>
      <trkpt lat="45.65064" lon="3.08353">
        <ele>516</ele>
      </trkpt>
      <trkpt lat="45.65073" lon="3.08357">
        <ele>516</ele>
      </trkpt>
      <trkpt lat="45.65083" lon="3.08361">
        <ele>516</ele>
      </trkpt>
      <trkpt lat="45.65092" lon="3.08366">
        <ele>516</ele>
      </trkpt>
      <trkpt lat="45.65097" lon="3.08377">
        <ele>514</ele>
      </trkpt>
      <trkpt lat="45.65101" lon="3.08389">
        <ele>513</ele>
      </trkpt>
      <trkpt lat="45.65106" lon="3.08402">
        <ele>511</ele>
      </trkpt>
      <trkpt lat="45.65104" lon="3.08415">
        <ele>510</ele>
      </trkpt>
      <trkpt lat="45.65094" lon="3.0842">
        <ele>510</ele>
      </trkpt>
      <trkpt lat="45.65087" lon="3.08431">
        <ele>510</ele>
      </trkpt>
      <trkpt lat="45.65079" lon="3.0844">
        <ele>511</ele>
      </trkpt>
      <trkpt lat="45.65068" lon="3.08444">
        <ele>511</ele>
      </trkpt>
      <trkpt lat="45.6506" lon="3.08447">
        <ele>511</ele>
      </trkpt>
      <trkpt lat="45.6505" lon="3.08452">
        <ele>512</ele>
      </trkpt>
      <trkpt lat="45.65041" lon="3.08457">
        <ele>512</ele>
      </trkpt>
      <trkpt lat="45.65032" lon="3.08462">
        <ele>513</ele>
      </trkpt>
      <trkpt lat="45.65022" lon="3.08467">
        <ele>514</ele>
      </trkpt>
      <trkpt lat="45.65012" lon="3.08471">
        <ele>515</ele>
      </trkpt>
      <trkpt lat="45.65002" lon="3.08473">
        <ele>516</ele>
      </trkpt>
      <trkpt lat="45.64993" lon="3.08476">
        <ele>518</ele>
      </trkpt>
      <trkpt lat="45.64983" lon="3.08473">
        <ele>518</ele>
      </trkpt>
      <trkpt lat="45.64973" lon="3.08471">
        <ele>519</ele>
      </trkpt>
      <trkpt lat="45.64963" lon="3.0847">
        <ele>520</ele>
      </trkpt>
      <trkpt lat="45.64956" lon="3.0848">
        <ele>522</ele>
      </trkpt>
      <trkpt lat="45.64965" lon="3.08489">
        <ele>524</ele>
      </trkpt>
      <trkpt lat="45.64973" lon="3.08496">
        <ele>525</ele>
      </trkpt>
      <trkpt lat="45.64982" lon="3.08501">
        <ele>525</ele>
      </trkpt>
      <trkpt lat="45.64992" lon="3.08507">
        <ele>525</ele>
      </trkpt>
      <trkpt lat="45.65004" lon="3.08517">
        <ele>525</ele>
      </trkpt>
      <trkpt lat="45.65012" lon="3.08526">
        <ele>525</ele>
      </trkpt>
      <trkpt lat="45.65019" lon="3.08536">
        <ele>526</ele>
      </trkpt>
      <trkpt lat="45.65027" lon="3.08544">
        <ele>526</ele>
      </trkpt>
      <trkpt lat="45.65035" lon="3.08554">
        <ele>527</ele>
      </trkpt>
      <trkpt lat="45.65043" lon="3.08564">
        <ele>528</ele>
      </trkpt>
      <trkpt lat="45.65052" lon="3.08569">
        <ele>528</ele>
      </trkpt>
      <trkpt lat="45.65058" lon="3.08579">
        <ele>529</ele>
      </trkpt>
      <trkpt lat="45.65061" lon="3.08591">
        <ele>532</ele>
      </trkpt>
      <trkpt lat="45.65067" lon="3.08603">
        <ele>535</ele>
      </trkpt>
      <trkpt lat="45.65075" lon="3.08612">
        <ele>538</ele>
      </trkpt>
      <trkpt lat="45.65073" lon="3.08626">
        <ele>541</ele>
      </trkpt>
      <trkpt lat="45.65081" lon="3.08637">
        <ele>544</ele>
      </trkpt>
      <trkpt lat="45.6509" lon="3.08644">
        <ele>546</ele>
      </trkpt>
      <trkpt lat="45.65099" lon="3.08648">
        <ele>547</ele>
      </trkpt>
      <trkpt lat="45.65109" lon="3.0865">
        <ele>546</ele>
      </trkpt>
      <trkpt lat="45.6512" lon="3.08649">
        <ele>545</ele>
      </trkpt>
      <trkpt lat="45.6513" lon="3.08648">
        <ele>544</ele>
      </trkpt>
      <trkpt lat="45.6514" lon="3.08647">
        <ele>543</ele>
      </trkpt>
      <trkpt lat="45.65159" lon="3.08647">
        <ele>538</ele>
      </trkpt>
      <trkpt lat="45.6517" lon="3.0865">
        <ele>534</ele>
      </trkpt>
      <trkpt lat="45.65179" lon="3.08656">
        <ele>531</ele>
      </trkpt>
      <trkpt lat="45.65183" lon="3.08668">
        <ele>531</ele>
      </trkpt>
      <trkpt lat="45.65181" lon="3.08682">
        <ele>533</ele>
      </trkpt>
      <trkpt lat="45.65179" lon="3.08696">
        <ele>534</ele>
      </trkpt>
      <trkpt lat="45.65176" lon="3.08711">
        <ele>537</ele>
      </trkpt>
      <trkpt lat="45.65173" lon="3.08724">
        <ele>539</ele>
      </trkpt>
      <trkpt lat="45.65167" lon="3.08737">
        <ele>542</ele>
      </trkpt>
      <trkpt lat="45.65162" lon="3.08748">
        <ele>542</ele>
      </trkpt>
      <trkpt lat="45.65158" lon="3.08761">
        <ele>543</ele>
      </trkpt>
      <trkpt lat="45.65154" lon="3.08773">
        <ele>544</ele>
      </trkpt>
      <trkpt lat="45.65152" lon="3.08787">
        <ele>544</ele>
      </trkpt>
      <trkpt lat="45.65147" lon="3.08799">
        <ele>545</ele>
      </trkpt>
      <trkpt lat="45.65138" lon="3.08794">
        <ele>548</ele>
      </trkpt>
      <trkpt lat="45.65127" lon="3.08794">
        <ele>551</ele>
      </trkpt>
      <trkpt lat="45.65118" lon="3.08797">
        <ele>554</ele>
      </trkpt>
      <trkpt lat="45.65109" lon="3.08801">
        <ele>556</ele>
      </trkpt>
      <trkpt lat="45.65102" lon="3.0881">
        <ele>558</ele>
      </trkpt>
      <trkpt lat="45.65094" lon="3.08819">
        <ele>559</ele>
      </trkpt>
      <trkpt lat="45.65087" lon="3.08827">
        <ele>561</ele>
      </trkpt>
      <trkpt lat="45.6508" lon="3.08837">
        <ele>562</ele>
      </trkpt>
      <trkpt lat="45.65073" lon="3.08847">
        <ele>564</ele>
      </trkpt>
      <trkpt lat="45.65065" lon="3.08858">
        <ele>566</ele>
      </trkpt>
      <trkpt lat="45.65059" lon="3.08869">
        <ele>568</ele>
      </trkpt>
      <trkpt lat="45.65054" lon="3.08881">
        <ele>570</ele>
      </trkpt>
      <trkpt lat="45.65048" lon="3.08894">
        <ele>572</ele>
      </trkpt>
      <trkpt lat="45.65039" lon="3.08903">
        <ele>574</ele>
      </trkpt>
      <trkpt lat="45.65033" lon="3.08914">
        <ele>576</ele>
      </trkpt>
      <trkpt lat="45.65027" lon="3.08924">
        <ele>578</ele>
      </trkpt>
      <trkpt lat="45.65019" lon="3.08932">
        <ele>581</ele>
      </trkpt>
      <trkpt lat="45.65013" lon="3.08942">
        <ele>584</ele>
      </trkpt>
      <trkpt lat="45.65005" lon="3.0895">
        <ele>586</ele>
      </trkpt>
      <trkpt lat="45.64999" lon="3.08961">
        <ele>588</ele>
      </trkpt>
      <trkpt lat="45.64992" lon="3.08973">
        <ele>590</ele>
      </trkpt>
      <trkpt lat="45.64987" lon="3.08985">
        <ele>593</ele>
      </trkpt>
      <trkpt lat="45.6498" lon="3.08995">
        <ele>595</ele>
      </trkpt>
      <trkpt lat="45.64973" lon="3.09006">
        <ele>599</ele>
      </trkpt>
      <trkpt lat="45.64967" lon="3.09017">
        <ele>602</ele>
      </trkpt>
      <trkpt lat="45.64961" lon="3.09028">
        <ele>604</ele>
      </trkpt>
      <trkpt lat="45.64955" lon="3.09038">
        <ele>606</ele>
      </trkpt>
      <trkpt lat="45.64947" lon="3.09047">
        <ele>607</ele>
      </trkpt>
      <trkpt lat="45.64939" lon="3.09056">
        <ele>608</ele>
      </trkpt>
      <trkpt lat="45.6493" lon="3.09064">
        <ele>609</ele>
      </trkpt>
      <trkpt lat="45.64921" lon="3.09071">
        <ele>610</ele>
      </trkpt>
      <trkpt lat="45.64911" lon="3.09077">
        <ele>610</ele>
      </trkpt>
      <trkpt lat="45.64902" lon="3.09085">
        <ele>610</ele>
      </trkpt>
      <trkpt lat="45.64896" lon="3.09098">
        <ele>611</ele>
      </trkpt>
      <trkpt lat="45.64893" lon="3.09113">
        <ele>612</ele>
      </trkpt>
      <trkpt lat="45.64891" lon="3.09129">
        <ele>613</ele>
      </trkpt>
      <trkpt lat="45.6489" lon="3.09143">
        <ele>613</ele>
      </trkpt>
      <trkpt lat="45.64887" lon="3.09158">
        <ele>612</ele>
      </trkpt>
      <trkpt lat="45.64883" lon="3.09174">
        <ele>612</ele>
      </trkpt>
      <trkpt lat="45.64881" lon="3.09188">
        <ele>612</ele>
      </trkpt>
      <trkpt lat="45.64877" lon="3.09204">
        <ele>612</ele>
      </trkpt>
      <trkpt lat="45.64873" lon="3.09218">
        <ele>612</ele>
      </trkpt>
      <trkpt lat="45.64868" lon="3.09233">
        <ele>612</ele>
      </trkpt>
      <trkpt lat="45.64864" lon="3.09246">
        <ele>612</ele>
      </trkpt>
      <trkpt lat="45.64858" lon="3.0926">
        <ele>611</ele>
      </trkpt>
      <trkpt lat="45.64852" lon="3.09275">
        <ele>609</ele>
      </trkpt>
      <trkpt lat="45.64847" lon="3.09289">
        <ele>608</ele>
      </trkpt>
      <trkpt lat="45.64845" lon="3.09304">
        <ele>608</ele>
      </trkpt>
      <trkpt lat="45.64843" lon="3.09319">
        <ele>608</ele>
      </trkpt>
      <trkpt lat="45.64842" lon="3.09332">
        <ele>608</ele>
      </trkpt>
      <trkpt lat="45.64841" lon="3.09347">
        <ele>608</ele>
      </trkpt>
      <trkpt lat="45.6484" lon="3.09361">
        <ele>608</ele>
      </trkpt>
      <trkpt lat="45.64838" lon="3.09374">
        <ele>608</ele>
      </trkpt>
      <trkpt lat="45.64837" lon="3.0939">
        <ele>608</ele>
      </trkpt>
      <trkpt lat="45.64834" lon="3.09404">
        <ele>608</ele>
      </trkpt>
      <trkpt lat="45.6483" lon="3.09417">
        <ele>608</ele>
      </trkpt>
      <trkpt lat="45.64825" lon="3.09429">
        <ele>609</ele>
      </trkpt>
      <trkpt lat="45.6482" lon="3.09442">
        <ele>609</ele>
      </trkpt>
      <trkpt lat="45.64813" lon="3.0945">
        <ele>610</ele>
      </trkpt>
      <trkpt lat="45.64806" lon="3.09439">
        <ele>608</ele>
      </trkpt>
      <trkpt lat="45.64801" lon="3.09427">
        <ele>606</ele>
      </trkpt>
      <trkpt lat="45.64797" lon="3.09414">
        <ele>604</ele>
      </trkpt>
      <trkpt lat="45.64792" lon="3.09402">
        <ele>602</ele>
      </trkpt>
      <trkpt lat="45.64786" lon="3.09391">
        <ele>600</ele>
      </trkpt>
      <trkpt lat="45.6478" lon="3.09379">
        <ele>597</ele>
      </trkpt>
      <trkpt lat="45.64771" lon="3.09374">
        <ele>596</ele>
      </trkpt>
      <trkpt lat="45.64763" lon="3.09365">
        <ele>594</ele>
      </trkpt>
      <trkpt lat="45.64755" lon="3.09356">
        <ele>593</ele>
      </trkpt>
      <trkpt lat="45.64748" lon="3.09347">
        <ele>591</ele>
      </trkpt>
      <trkpt lat="45.64742" lon="3.09337">
        <ele>588</ele>
      </trkpt>
      <trkpt lat="45.64735" lon="3.09327">
        <ele>586</ele>
      </trkpt>
      <trkpt lat="45.64727" lon="3.09317">
        <ele>584</ele>
      </trkpt>
      <trkpt lat="45.64717" lon="3.09307">
        <ele>583</ele>
      </trkpt>
      <trkpt lat="45.64708" lon="3.09302">
        <ele>582</ele>
      </trkpt>
      <trkpt lat="45.64699" lon="3.09294">
        <ele>581</ele>
      </trkpt>
      <trkpt lat="45.64688" lon="3.09292">
        <ele>580</ele>
      </trkpt>
      <trkpt lat="45.64679" lon="3.09288">
        <ele>580</ele>
      </trkpt>
      <trkpt lat="45.6467" lon="3.09286">
        <ele>580</ele>
      </trkpt>
      <trkpt lat="45.6466" lon="3.09285">
        <ele>581</ele>
      </trkpt>
      <trkpt lat="45.64651" lon="3.09286">
        <ele>582</ele>
      </trkpt>
      <trkpt lat="45.64641" lon="3.09292">
        <ele>584</ele>
      </trkpt>
      <trkpt lat="45.64632" lon="3.09297">
        <ele>586</ele>
      </trkpt>
      <trkpt lat="45.64622" lon="3.09305">
        <ele>588</ele>
      </trkpt>
      <trkpt lat="45.64611" lon="3.09312">
        <ele>591</ele>
      </trkpt>
      <trkpt lat="45.64603" lon="3.09319">
        <ele>593</ele>
      </trkpt>
      <trkpt lat="45.64593" lon="3.09321">
        <ele>594</ele>
      </trkpt>
      <trkpt lat="45.64584" lon="3.09327">
        <ele>596</ele>
      </trkpt>
      <trkpt lat="45.64576" lon="3.09334">
        <ele>598</ele>
      </trkpt>
      <trkpt lat="45.64574" lon="3.09349">
        <ele>599</ele>
      </trkpt>
      <trkpt lat="45.64573" lon="3.09363">
        <ele>600</ele>
      </trkpt>
      <trkpt lat="45.64569" lon="3.09375">
        <ele>602</ele>
      </trkpt>
      <trkpt lat="45.64568" lon="3.09389">
        <ele>603</ele>
      </trkpt>
      <trkpt lat="45.64565" lon="3.09401">
        <ele>605</ele>
      </trkpt>
      <trkpt lat="45.64564" lon="3.09415">
        <ele>606</ele>
      </trkpt>
      <trkpt lat="45.64562" lon="3.09429">
        <ele>608</ele>
      </trkpt>
      <trkpt lat="45.64564" lon="3.09444">
        <ele>610</ele>
      </trkpt>
      <trkpt lat="45.64567" lon="3.09459">
        <ele>612</ele>
      </trkpt>
      <trkpt lat="45.64566" lon="3.09473">
        <ele>614</ele>
      </trkpt>
      <trkpt lat="45.64569" lon="3.09488">
        <ele>616</ele>
      </trkpt>
      <trkpt lat="45.64569" lon="3.09501">
        <ele>618</ele>
      </trkpt>
      <trkpt lat="45.64568" lon="3.09515">
        <ele>620</ele>
      </trkpt>
      <trkpt lat="45.64566" lon="3.09528">
        <ele>622</ele>
      </trkpt>
      <trkpt lat="45.64569" lon="3.09541">
        <ele>623</ele>
      </trkpt>
      <trkpt lat="45.64576" lon="3.0955">
        <ele>625</ele>
      </trkpt>
      <trkpt lat="45.64579" lon="3.09562">
        <ele>627</ele>
      </trkpt>
      <trkpt lat="45.64582" lon="3.09575">
        <ele>629</ele>
      </trkpt>
      <trkpt lat="45.64586" lon="3.09588">
        <ele>630</ele>
      </trkpt>
      <trkpt lat="45.64591" lon="3.09601">
        <ele>632</ele>
      </trkpt>
      <trkpt lat="45.64595" lon="3.09613">
        <ele>634</ele>
      </trkpt>
      <trkpt lat="45.64599" lon="3.09627">
        <ele>636</ele>
      </trkpt>
      <trkpt lat="45.64603" lon="3.09639">
        <ele>637</ele>
      </trkpt>
      <trkpt lat="45.64607" lon="3.09651">
        <ele>640</ele>
      </trkpt>
      <trkpt lat="45.64612" lon="3.09663">
        <ele>641</ele>
      </trkpt>
      <trkpt lat="45.64616" lon="3.09674">
        <ele>643</ele>
      </trkpt>
      <trkpt lat="45.6462" lon="3.09688">
        <ele>646</ele>
      </trkpt>
      <trkpt lat="45.64624" lon="3.09701">
        <ele>647</ele>
      </trkpt>
      <trkpt lat="45.64629" lon="3.09714">
        <ele>649</ele>
      </trkpt>
      <trkpt lat="45.64633" lon="3.09726">
        <ele>651</ele>
      </trkpt>
      <trkpt lat="45.64639" lon="3.09736">
        <ele>652</ele>
      </trkpt>
      <trkpt lat="45.64643" lon="3.0975">
        <ele>654</ele>
      </trkpt>
      <trkpt lat="45.6464" lon="3.09763">
        <ele>655</ele>
      </trkpt>
      <trkpt lat="45.64634" lon="3.09774">
        <ele>656</ele>
      </trkpt>
      <trkpt lat="45.64627" lon="3.09785">
        <ele>657</ele>
      </trkpt>
      <trkpt lat="45.64619" lon="3.09794">
        <ele>658</ele>
      </trkpt>
      <trkpt lat="45.64612" lon="3.09803">
        <ele>658</ele>
      </trkpt>
      <trkpt lat="45.64605" lon="3.09813">
        <ele>659</ele>
      </trkpt>
      <trkpt lat="45.646" lon="3.09824">
        <ele>660</ele>
      </trkpt>
      <trkpt lat="45.64594" lon="3.09836">
        <ele>661</ele>
      </trkpt>
      <trkpt lat="45.64586" lon="3.09846">
        <ele>661</ele>
      </trkpt>
      <trkpt lat="45.64579" lon="3.09856">
        <ele>662</ele>
      </trkpt>
      <trkpt lat="45.64573" lon="3.09867">
        <ele>662</ele>
      </trkpt>
      <trkpt lat="45.64566" lon="3.09877">
        <ele>662</ele>
      </trkpt>
      <trkpt lat="45.64559" lon="3.09887">
        <ele>662</ele>
      </trkpt>
      <trkpt lat="45.64551" lon="3.09899">
        <ele>661</ele>
      </trkpt>
      <trkpt lat="45.64544" lon="3.09909">
        <ele>660</ele>
      </trkpt>
      <trkpt lat="45.64532" lon="3.09929">
        <ele>659</ele>
      </trkpt>
      <trkpt lat="45.64525" lon="3.0994">
        <ele>658</ele>
      </trkpt>
      <trkpt lat="45.64518" lon="3.0995">
        <ele>657</ele>
      </trkpt>
      <trkpt lat="45.64511" lon="3.0996">
        <ele>656</ele>
      </trkpt>
      <trkpt lat="45.64505" lon="3.09969">
        <ele>654</ele>
      </trkpt>
      <trkpt lat="45.64498" lon="3.0998">
        <ele>653</ele>
      </trkpt>
      <trkpt lat="45.64492" lon="3.0999">
        <ele>652</ele>
      </trkpt>
      <trkpt lat="45.64484" lon="3.1">
        <ele>650</ele>
      </trkpt>
      <trkpt lat="45.64478" lon="3.1001">
        <ele>648</ele>
      </trkpt>
      <trkpt lat="45.64471" lon="3.10021">
        <ele>645</ele>
      </trkpt>
      <trkpt lat="45.64465" lon="3.10033">
        <ele>643</ele>
      </trkpt>
      <trkpt lat="45.64459" lon="3.10043">
        <ele>641</ele>
      </trkpt>
      <trkpt lat="45.64453" lon="3.10054">
        <ele>638</ele>
      </trkpt>
      <trkpt lat="45.64446" lon="3.10063">
        <ele>636</ele>
      </trkpt>
      <trkpt lat="45.64439" lon="3.10072">
        <ele>634</ele>
      </trkpt>
      <trkpt lat="45.64433" lon="3.10082">
        <ele>632</ele>
      </trkpt>
      <trkpt lat="45.64426" lon="3.10094">
        <ele>630</ele>
      </trkpt>
      <trkpt lat="45.64419" lon="3.10105">
        <ele>629</ele>
      </trkpt>
      <trkpt lat="45.64413" lon="3.10116">
        <ele>627</ele>
      </trkpt>
      <trkpt lat="45.64406" lon="3.10125">
        <ele>625</ele>
      </trkpt>
      <trkpt lat="45.64399" lon="3.10134">
        <ele>624</ele>
      </trkpt>
      <trkpt lat="45.64391" lon="3.10144">
        <ele>622</ele>
      </trkpt>
      <trkpt lat="45.64385" lon="3.10155">
        <ele>620</ele>
      </trkpt>
      <trkpt lat="45.64378" lon="3.10166">
        <ele>618</ele>
      </trkpt>
      <trkpt lat="45.64371" lon="3.10178">
        <ele>616</ele>
      </trkpt>
      <trkpt lat="45.64363" lon="3.10187">
        <ele>614</ele>
      </trkpt>
      <trkpt lat="45.64355" lon="3.10193">
        <ele>611</ele>
      </trkpt>
      <trkpt lat="45.64346" lon="3.10196">
        <ele>609</ele>
      </trkpt>
      <trkpt lat="45.64336" lon="3.10199">
        <ele>607</ele>
      </trkpt>
      <trkpt lat="45.64326" lon="3.10199">
        <ele>605</ele>
      </trkpt>
      <trkpt lat="45.64315" lon="3.10203">
        <ele>603</ele>
      </trkpt>
      <trkpt lat="45.64305" lon="3.10205">
        <ele>601</ele>
      </trkpt>
      <trkpt lat="45.64295" lon="3.10207">
        <ele>599</ele>
      </trkpt>
      <trkpt lat="45.64285" lon="3.10212">
        <ele>598</ele>
      </trkpt>
      <trkpt lat="45.64276" lon="3.10213">
        <ele>596</ele>
      </trkpt>
      <trkpt lat="45.64256" lon="3.10213">
        <ele>593</ele>
      </trkpt>
      <trkpt lat="45.64247" lon="3.10213">
        <ele>592</ele>
      </trkpt>
      <trkpt lat="45.64236" lon="3.10215">
        <ele>591</ele>
      </trkpt>
      <trkpt lat="45.64226" lon="3.10217">
        <ele>590</ele>
      </trkpt>
      <trkpt lat="45.64216" lon="3.10219">
        <ele>589</ele>
      </trkpt>
      <trkpt lat="45.64206" lon="3.10222">
        <ele>588</ele>
      </trkpt>
      <trkpt lat="45.64198" lon="3.10225">
        <ele>587</ele>
      </trkpt>
      <trkpt lat="45.64187" lon="3.10227">
        <ele>586</ele>
      </trkpt>
      <trkpt lat="45.64178" lon="3.10232">
        <ele>586</ele>
      </trkpt>
      <trkpt lat="45.64184" lon="3.10244">
        <ele>587</ele>
      </trkpt>
      <trkpt lat="45.64186" lon="3.10257">
        <ele>587</ele>
      </trkpt>
      <trkpt lat="45.64189" lon="3.10271">
        <ele>587</ele>
      </trkpt>
      <trkpt lat="45.64195" lon="3.10284">
        <ele>587</ele>
      </trkpt>
      <trkpt lat="45.64198" lon="3.10297">
        <ele>587</ele>
      </trkpt>
      <trkpt lat="45.64201" lon="3.10311">
        <ele>587</ele>
      </trkpt>
      <trkpt lat="45.64207" lon="3.10322">
        <ele>588</ele>
      </trkpt>
      <trkpt lat="45.6421" lon="3.10335">
        <ele>588</ele>
      </trkpt>
      <trkpt lat="45.64213" lon="3.10347">
        <ele>588</ele>
      </trkpt>
      <trkpt lat="45.64215" lon="3.10361">
        <ele>588</ele>
      </trkpt>
      <trkpt lat="45.64218" lon="3.10373">
        <ele>588</ele>
      </trkpt>
      <trkpt lat="45.64226" lon="3.10384">
        <ele>588</ele>
      </trkpt>
      <trkpt lat="45.64231" lon="3.10397">
        <ele>588</ele>
      </trkpt>
      <trkpt lat="45.64235" lon="3.10408">
        <ele>588</ele>
      </trkpt>
      <trkpt lat="45.64238" lon="3.10421">
        <ele>588</ele>
      </trkpt>
      <trkpt lat="45.64241" lon="3.10435">
        <ele>588</ele>
      </trkpt>
      <trkpt lat="45.64244" lon="3.10449">
        <ele>587</ele>
      </trkpt>
      <trkpt lat="45.64244" lon="3.10462">
        <ele>587</ele>
      </trkpt>
      <trkpt lat="45.64249" lon="3.10474">
        <ele>587</ele>
      </trkpt>
      <trkpt lat="45.64252" lon="3.10487">
        <ele>587</ele>
      </trkpt>
      <trkpt lat="45.64257" lon="3.10501">
        <ele>587</ele>
      </trkpt>
      <trkpt lat="45.64261" lon="3.10514">
        <ele>587</ele>
      </trkpt>
      <trkpt lat="45.64263" lon="3.10528">
        <ele>586</ele>
      </trkpt>
      <trkpt lat="45.64267" lon="3.1054">
        <ele>586</ele>
      </trkpt>
      <trkpt lat="45.64273" lon="3.10553">
        <ele>585</ele>
      </trkpt>
      <trkpt lat="45.64276" lon="3.10567">
        <ele>585</ele>
      </trkpt>
      <trkpt lat="45.64278" lon="3.10579">
        <ele>584</ele>
      </trkpt>
      <trkpt lat="45.64283" lon="3.10591">
        <ele>584</ele>
      </trkpt>
      <trkpt lat="45.64288" lon="3.10603">
        <ele>583</ele>
      </trkpt>
      <trkpt lat="45.6429" lon="3.10617">
        <ele>583</ele>
      </trkpt>
      <trkpt lat="45.64293" lon="3.1063">
        <ele>582</ele>
      </trkpt>
      <trkpt lat="45.64298" lon="3.10643">
        <ele>581</ele>
      </trkpt>
      <trkpt lat="45.64298" lon="3.10656">
        <ele>581</ele>
      </trkpt>
      <trkpt lat="45.643" lon="3.1067">
        <ele>581</ele>
      </trkpt>
      <trkpt lat="45.643" lon="3.10684">
        <ele>581</ele>
      </trkpt>
      <trkpt lat="45.64302" lon="3.10699">
        <ele>580</ele>
      </trkpt>
      <trkpt lat="45.64308" lon="3.10709">
        <ele>580</ele>
      </trkpt>
      <trkpt lat="45.6431" lon="3.10723">
        <ele>579</ele>
      </trkpt>
      <trkpt lat="45.64313" lon="3.10737">
        <ele>579</ele>
      </trkpt>
      <trkpt lat="45.64315" lon="3.1075">
        <ele>578</ele>
      </trkpt>
      <trkpt lat="45.64319" lon="3.10762">
        <ele>578</ele>
      </trkpt>
      <trkpt lat="45.64324" lon="3.10773">
        <ele>577</ele>
      </trkpt>
      <trkpt lat="45.64329" lon="3.10786">
        <ele>577</ele>
      </trkpt>
      <trkpt lat="45.64333" lon="3.10799">
        <ele>577</ele>
      </trkpt>
      <trkpt lat="45.64343" lon="3.10801">
        <ele>577</ele>
      </trkpt>
      <trkpt lat="45.64353" lon="3.10798">
        <ele>577</ele>
      </trkpt>
      <trkpt lat="45.64363" lon="3.10794">
        <ele>578</ele>
      </trkpt>
      <trkpt lat="45.64373" lon="3.10791">
        <ele>579</ele>
      </trkpt>
      <trkpt lat="45.64382" lon="3.1079">
        <ele>579</ele>
      </trkpt>
      <trkpt lat="45.64391" lon="3.10796">
        <ele>580</ele>
      </trkpt>
      <trkpt lat="45.64399" lon="3.10805">
        <ele>580</ele>
      </trkpt>
      <trkpt lat="45.64406" lon="3.10814">
        <ele>579</ele>
      </trkpt>
      <trkpt lat="45.64416" lon="3.10828">
        <ele>579</ele>
      </trkpt>
      <trkpt lat="45.64424" lon="3.10838">
        <ele>579</ele>
      </trkpt>
      <trkpt lat="45.64432" lon="3.10849">
        <ele>578</ele>
      </trkpt>
      <trkpt lat="45.64445" lon="3.10859">
        <ele>578</ele>
      </trkpt>
      <trkpt lat="45.64453" lon="3.10866">
        <ele>578</ele>
      </trkpt>
      <trkpt lat="45.64461" lon="3.10876">
        <ele>578</ele>
      </trkpt>
      <trkpt lat="45.6447" lon="3.10885">
        <ele>578</ele>
      </trkpt>
      <trkpt lat="45.64481" lon="3.10893">
        <ele>578</ele>
      </trkpt>
      <trkpt lat="45.64491" lon="3.109">
        <ele>578</ele>
      </trkpt>
      <trkpt lat="45.64501" lon="3.10906">
        <ele>578</ele>
      </trkpt>
      <trkpt lat="45.64511" lon="3.10914">
        <ele>578</ele>
      </trkpt>
      <trkpt lat="45.6452" lon="3.1092">
        <ele>579</ele>
      </trkpt>
      <trkpt lat="45.64531" lon="3.10926">
        <ele>579</ele>
      </trkpt>
      <trkpt lat="45.6454" lon="3.10932">
        <ele>579</ele>
      </trkpt>
      <trkpt lat="45.64551" lon="3.1094">
        <ele>580</ele>
      </trkpt>
      <trkpt lat="45.64561" lon="3.10947">
        <ele>580</ele>
      </trkpt>
      <trkpt lat="45.64569" lon="3.10955">
        <ele>580</ele>
      </trkpt>
      <trkpt lat="45.64579" lon="3.10962">
        <ele>581</ele>
      </trkpt>
      <trkpt lat="45.64587" lon="3.10971">
        <ele>581</ele>
      </trkpt>
      <trkpt lat="45.64596" lon="3.10978">
        <ele>581</ele>
      </trkpt>
      <trkpt lat="45.64604" lon="3.10984">
        <ele>581</ele>
      </trkpt>
      <trkpt lat="45.64612" lon="3.10991">
        <ele>581</ele>
      </trkpt>
      <trkpt lat="45.64622" lon="3.10997">
        <ele>581</ele>
      </trkpt>
      <trkpt lat="45.64631" lon="3.11001">
        <ele>581</ele>
      </trkpt>
      <trkpt lat="45.64641" lon="3.11004">
        <ele>582</ele>
      </trkpt>
      <trkpt lat="45.64651" lon="3.11008">
        <ele>582</ele>
      </trkpt>
      <trkpt lat="45.6466" lon="3.11013">
        <ele>582</ele>
      </trkpt>
      <trkpt lat="45.64668" lon="3.11021">
        <ele>581</ele>
      </trkpt>
      <trkpt lat="45.64677" lon="3.11028">
        <ele>580</ele>
      </trkpt>
      <trkpt lat="45.64684" lon="3.11036">
        <ele>579</ele>
      </trkpt>
      <trkpt lat="45.64695" lon="3.11041">
        <ele>579</ele>
      </trkpt>
      <trkpt lat="45.64704" lon="3.11044">
        <ele>579</ele>
      </trkpt>
      <trkpt lat="45.64715" lon="3.1105">
        <ele>579</ele>
      </trkpt>
      <trkpt lat="45.64726" lon="3.11056">
        <ele>579</ele>
      </trkpt>
      <trkpt lat="45.64735" lon="3.11063">
        <ele>579</ele>
      </trkpt>
      <trkpt lat="45.64745" lon="3.11071">
        <ele>579</ele>
      </trkpt>
      <trkpt lat="45.64755" lon="3.1108">
        <ele>578</ele>
      </trkpt>
      <trkpt lat="45.64763" lon="3.11088">
        <ele>578</ele>
      </trkpt>
      <trkpt lat="45.6477" lon="3.11097">
        <ele>577</ele>
      </trkpt>
      <trkpt lat="45.64777" lon="3.11109">
        <ele>577</ele>
      </trkpt>
      <trkpt lat="45.64784" lon="3.11119">
        <ele>577</ele>
      </trkpt>
      <trkpt lat="45.64792" lon="3.11131">
        <ele>577</ele>
      </trkpt>
      <trkpt lat="45.64799" lon="3.11141">
        <ele>576</ele>
      </trkpt>
      <trkpt lat="45.64806" lon="3.1115">
        <ele>576</ele>
      </trkpt>
      <trkpt lat="45.64812" lon="3.11161">
        <ele>576</ele>
      </trkpt>
      <trkpt lat="45.64818" lon="3.11175">
        <ele>575</ele>
      </trkpt>
      <trkpt lat="45.64821" lon="3.11187">
        <ele>575</ele>
      </trkpt>
      <trkpt lat="45.64827" lon="3.11201">
        <ele>574</ele>
      </trkpt>
      <trkpt lat="45.64832" lon="3.11213">
        <ele>574</ele>
      </trkpt>
      <trkpt lat="45.64838" lon="3.11227">
        <ele>573</ele>
      </trkpt>
      <trkpt lat="45.64843" lon="3.11239">
        <ele>573</ele>
      </trkpt>
      <trkpt lat="45.64849" lon="3.1125">
        <ele>573</ele>
      </trkpt>
      <trkpt lat="45.64855" lon="3.11262">
        <ele>573</ele>
      </trkpt>
      <trkpt lat="45.64861" lon="3.11275">
        <ele>572</ele>
      </trkpt>
      <trkpt lat="45.64866" lon="3.11286">
        <ele>572</ele>
      </trkpt>
      <trkpt lat="45.64872" lon="3.11298">
        <ele>572</ele>
      </trkpt>
      <trkpt lat="45.64876" lon="3.1131">
        <ele>571</ele>
      </trkpt>
      <trkpt lat="45.64881" lon="3.11324">
        <ele>570</ele>
      </trkpt>
      <trkpt lat="45.64884" lon="3.11336">
        <ele>569</ele>
      </trkpt>
      <trkpt lat="45.64888" lon="3.11349">
        <ele>568</ele>
      </trkpt>
      <trkpt lat="45.64893" lon="3.11361">
        <ele>567</ele>
      </trkpt>
      <trkpt lat="45.64898" lon="3.11372">
        <ele>566</ele>
      </trkpt>
      <trkpt lat="45.64903" lon="3.11386">
        <ele>564</ele>
      </trkpt>
      <trkpt lat="45.64896" lon="3.11394">
        <ele>562</ele>
      </trkpt>
      <trkpt lat="45.64888" lon="3.114">
        <ele>561</ele>
      </trkpt>
      <trkpt lat="45.64879" lon="3.11406">
        <ele>560</ele>
      </trkpt>
      <trkpt lat="45.64869" lon="3.11412">
        <ele>559</ele>
      </trkpt>
      <trkpt lat="45.6486" lon="3.11414">
        <ele>558</ele>
      </trkpt>
      <trkpt lat="45.6485" lon="3.11416">
        <ele>557</ele>
      </trkpt>
      <trkpt lat="45.64841" lon="3.11419">
        <ele>556</ele>
      </trkpt>
      <trkpt lat="45.64832" lon="3.11421">
        <ele>555</ele>
      </trkpt>
      <trkpt lat="45.64821" lon="3.11424">
        <ele>554</ele>
      </trkpt>
      <trkpt lat="45.64812" lon="3.11427">
        <ele>553</ele>
      </trkpt>
      <trkpt lat="45.64803" lon="3.11431">
        <ele>552</ele>
      </trkpt>
      <trkpt lat="45.64793" lon="3.11432">
        <ele>550</ele>
      </trkpt>
      <trkpt lat="45.64784" lon="3.11436">
        <ele>549</ele>
      </trkpt>
      <trkpt lat="45.64776" lon="3.11443">
        <ele>547</ele>
      </trkpt>
      <trkpt lat="45.6476" lon="3.11456">
        <ele>543</ele>
      </trkpt>
      <trkpt lat="45.64752" lon="3.11463">
        <ele>542</ele>
      </trkpt>
      <trkpt lat="45.64745" lon="3.11474">
        <ele>540</ele>
      </trkpt>
      <trkpt lat="45.64737" lon="3.11482">
        <ele>538</ele>
      </trkpt>
      <trkpt lat="45.64729" lon="3.11488">
        <ele>537</ele>
      </trkpt>
      <trkpt lat="45.64719" lon="3.11494">
        <ele>536</ele>
      </trkpt>
      <trkpt lat="45.64711" lon="3.11501">
        <ele>534</ele>
      </trkpt>
      <trkpt lat="45.64702" lon="3.11507">
        <ele>533</ele>
      </trkpt>
      <trkpt lat="45.64693" lon="3.11513">
        <ele>532</ele>
      </trkpt>
      <trkpt lat="45.64684" lon="3.11518">
        <ele>530</ele>
      </trkpt>
      <trkpt lat="45.64675" lon="3.11523">
        <ele>529</ele>
      </trkpt>
      <trkpt lat="45.64667" lon="3.1153">
        <ele>528</ele>
      </trkpt>
      <trkpt lat="45.64658" lon="3.11535">
        <ele>527</ele>
      </trkpt>
      <trkpt lat="45.64649" lon="3.11539">
        <ele>526</ele>
      </trkpt>
      <trkpt lat="45.64646" lon="3.11552">
        <ele>525</ele>
      </trkpt>
      <trkpt lat="45.64655" lon="3.1156">
        <ele>525</ele>
      </trkpt>
      <trkpt lat="45.64662" lon="3.11571">
        <ele>525</ele>
      </trkpt>
      <trkpt lat="45.64669" lon="3.1158">
        <ele>525</ele>
      </trkpt>
      <trkpt lat="45.64676" lon="3.1159">
        <ele>525</ele>
      </trkpt>
      <trkpt lat="45.64685" lon="3.11594">
        <ele>526</ele>
      </trkpt>
      <trkpt lat="45.64695" lon="3.11595">
        <ele>526</ele>
      </trkpt>
      <trkpt lat="45.64705" lon="3.11591">
        <ele>527</ele>
      </trkpt>
      <trkpt lat="45.64714" lon="3.11585">
        <ele>528</ele>
      </trkpt>
      <trkpt lat="45.64723" lon="3.11581">
        <ele>529</ele>
      </trkpt>
      <trkpt lat="45.64733" lon="3.11581">
        <ele>530</ele>
      </trkpt>
      <trkpt lat="45.64742" lon="3.11587">
        <ele>530</ele>
      </trkpt>
      <trkpt lat="45.64751" lon="3.11594">
        <ele>530</ele>
      </trkpt>
      <trkpt lat="45.6476" lon="3.116">
        <ele>530</ele>
      </trkpt>
      <trkpt lat="45.6477" lon="3.11601">
        <ele>530</ele>
      </trkpt>
      <trkpt lat="45.6478" lon="3.11601">
        <ele>531</ele>
      </trkpt>
      <trkpt lat="45.6479" lon="3.11607">
        <ele>531</ele>
      </trkpt>
      <trkpt lat="45.64799" lon="3.11616">
        <ele>531</ele>
      </trkpt>
      <trkpt lat="45.64808" lon="3.11623">
        <ele>531</ele>
      </trkpt>
      <trkpt lat="45.64816" lon="3.11632">
        <ele>531</ele>
      </trkpt>
      <trkpt lat="45.64825" lon="3.11641">
        <ele>530</ele>
      </trkpt>
      <trkpt lat="45.64833" lon="3.11647">
        <ele>530</ele>
      </trkpt>
      <trkpt lat="45.64843" lon="3.11653">
        <ele>530</ele>
      </trkpt>
      <trkpt lat="45.64852" lon="3.1166">
        <ele>530</ele>
      </trkpt>
      <trkpt lat="45.6486" lon="3.11666">
        <ele>530</ele>
      </trkpt>
      <trkpt lat="45.6487" lon="3.11671">
        <ele>531</ele>
      </trkpt>
      <trkpt lat="45.64879" lon="3.11674">
        <ele>531</ele>
      </trkpt>
      <trkpt lat="45.64888" lon="3.1168">
        <ele>531</ele>
      </trkpt>
      <trkpt lat="45.64897" lon="3.11684">
        <ele>531</ele>
      </trkpt>
      <trkpt lat="45.64906" lon="3.11689">
        <ele>531</ele>
      </trkpt>
      <trkpt lat="45.64915" lon="3.11693">
        <ele>531</ele>
      </trkpt>
      <trkpt lat="45.64924" lon="3.11702">
        <ele>531</ele>
      </trkpt>
      <trkpt lat="45.64932" lon="3.11711">
        <ele>530</ele>
      </trkpt>
      <trkpt lat="45.64941" lon="3.11717">
        <ele>530</ele>
      </trkpt>
      <trkpt lat="45.64949" lon="3.11726">
        <ele>529</ele>
      </trkpt>
      <trkpt lat="45.64958" lon="3.11733">
        <ele>529</ele>
      </trkpt>
      <trkpt lat="45.64968" lon="3.11737">
        <ele>528</ele>
      </trkpt>
      <trkpt lat="45.64976" lon="3.11746">
        <ele>527</ele>
      </trkpt>
      <trkpt lat="45.64985" lon="3.1175">
        <ele>527</ele>
      </trkpt>
      <trkpt lat="45.64994" lon="3.11754">
        <ele>526</ele>
      </trkpt>
      <trkpt lat="45.65001" lon="3.11764">
        <ele>524</ele>
      </trkpt>
      <trkpt lat="45.65008" lon="3.11774">
        <ele>522</ele>
      </trkpt>
      <trkpt lat="45.65016" lon="3.1178">
        <ele>521</ele>
      </trkpt>
      <trkpt lat="45.65026" lon="3.11777">
        <ele>522</ele>
      </trkpt>
      <trkpt lat="45.65036" lon="3.11778">
        <ele>522</ele>
      </trkpt>
      <trkpt lat="45.65045" lon="3.11778">
        <ele>522</ele>
      </trkpt>
      <trkpt lat="45.65055" lon="3.11779">
        <ele>522</ele>
      </trkpt>
      <trkpt lat="45.65065" lon="3.1178">
        <ele>523</ele>
      </trkpt>
      <trkpt lat="45.65075" lon="3.11782">
        <ele>523</ele>
      </trkpt>
      <trkpt lat="45.65085" lon="3.11783">
        <ele>524</ele>
      </trkpt>
      <trkpt lat="45.65094" lon="3.11787">
        <ele>524</ele>
      </trkpt>
      <trkpt lat="45.65103" lon="3.11795">
        <ele>524</ele>
      </trkpt>
      <trkpt lat="45.65109" lon="3.11805">
        <ele>523</ele>
      </trkpt>
      <trkpt lat="45.65119" lon="3.11813">
        <ele>523</ele>
      </trkpt>
      <trkpt lat="45.65127" lon="3.11822">
        <ele>522</ele>
      </trkpt>
      <trkpt lat="45.65135" lon="3.1183">
        <ele>522</ele>
      </trkpt>
      <trkpt lat="45.65143" lon="3.11839">
        <ele>522</ele>
      </trkpt>
      <trkpt lat="45.65152" lon="3.11847">
        <ele>523</ele>
      </trkpt>
      <trkpt lat="45.6516" lon="3.11853">
        <ele>524</ele>
      </trkpt>
      <trkpt lat="45.65167" lon="3.11862">
        <ele>524</ele>
      </trkpt>
      <trkpt lat="45.65175" lon="3.1187">
        <ele>525</ele>
      </trkpt>
      <trkpt lat="45.65182" lon="3.11879">
        <ele>525</ele>
      </trkpt>
      <trkpt lat="45.65189" lon="3.1189">
        <ele>524</ele>
      </trkpt>
      <trkpt lat="45.65198" lon="3.11899">
        <ele>524</ele>
      </trkpt>
      <trkpt lat="45.65206" lon="3.11908">
        <ele>525</ele>
      </trkpt>
      <trkpt lat="45.65213" lon="3.11918">
        <ele>525</ele>
      </trkpt>
      <trkpt lat="45.65219" lon="3.11928">
        <ele>525</ele>
      </trkpt>
      <trkpt lat="45.65225" lon="3.11941">
        <ele>524</ele>
      </trkpt>
      <trkpt lat="45.6523" lon="3.11953">
        <ele>523</ele>
      </trkpt>
      <trkpt lat="45.65237" lon="3.11963">
        <ele>523</ele>
      </trkpt>
      <trkpt lat="45.65244" lon="3.11973">
        <ele>523</ele>
      </trkpt>
      <trkpt lat="45.65251" lon="3.11983">
        <ele>523</ele>
      </trkpt>
      <trkpt lat="45.65259" lon="3.11994">
        <ele>523</ele>
      </trkpt>
      <trkpt lat="45.65265" lon="3.12004">
        <ele>523</ele>
      </trkpt>
      <trkpt lat="45.65272" lon="3.12014">
        <ele>523</ele>
      </trkpt>
      <trkpt lat="45.65279" lon="3.12024">
        <ele>523</ele>
      </trkpt>
      <trkpt lat="45.65286" lon="3.12033">
        <ele>524</ele>
      </trkpt>
      <trkpt lat="45.65293" lon="3.12043">
        <ele>524</ele>
      </trkpt>
      <trkpt lat="45.653" lon="3.12052">
        <ele>525</ele>
      </trkpt>
      <trkpt lat="45.65308" lon="3.12063">
        <ele>526</ele>
      </trkpt>
      <trkpt lat="45.65313" lon="3.12075">
        <ele>525</ele>
      </trkpt>
      <trkpt lat="45.65318" lon="3.12088">
        <ele>525</ele>
      </trkpt>
      <trkpt lat="45.65323" lon="3.121">
        <ele>525</ele>
      </trkpt>
      <trkpt lat="45.65326" lon="3.12113">
        <ele>524</ele>
      </trkpt>
      <trkpt lat="45.65329" lon="3.12126">
        <ele>524</ele>
      </trkpt>
      <trkpt lat="45.65332" lon="3.12139">
        <ele>523</ele>
      </trkpt>
      <trkpt lat="45.65336" lon="3.12152">
        <ele>522</ele>
      </trkpt>
      <trkpt lat="45.65339" lon="3.12165">
        <ele>522</ele>
      </trkpt>
      <trkpt lat="45.65343" lon="3.12178">
        <ele>521</ele>
      </trkpt>
      <trkpt lat="45.65347" lon="3.12191">
        <ele>521</ele>
      </trkpt>
      <trkpt lat="45.65351" lon="3.12204">
        <ele>520</ele>
      </trkpt>
      <trkpt lat="45.65354" lon="3.12218">
        <ele>519</ele>
      </trkpt>
      <trkpt lat="45.65359" lon="3.12229">
        <ele>518</ele>
      </trkpt>
      <trkpt lat="45.65363" lon="3.12241">
        <ele>517</ele>
      </trkpt>
      <trkpt lat="45.6537" lon="3.12253">
        <ele>516</ele>
      </trkpt>
      <trkpt lat="45.65378" lon="3.12261">
        <ele>517</ele>
      </trkpt>
      <trkpt lat="45.65387" lon="3.12264">
        <ele>518</ele>
      </trkpt>
      <trkpt lat="45.65397" lon="3.12264">
        <ele>519</ele>
      </trkpt>
      <trkpt lat="45.65406" lon="3.12262">
        <ele>521</ele>
      </trkpt>
      <trkpt lat="45.65415" lon="3.12267">
        <ele>521</ele>
      </trkpt>
      <trkpt lat="45.65422" lon="3.12275">
        <ele>521</ele>
      </trkpt>
      <trkpt lat="45.6543" lon="3.12285">
        <ele>520</ele>
      </trkpt>
      <trkpt lat="45.65438" lon="3.12293">
        <ele>520</ele>
      </trkpt>
      <trkpt lat="45.65446" lon="3.12302">
        <ele>520</ele>
      </trkpt>
      <trkpt lat="45.65453" lon="3.12312">
        <ele>520</ele>
      </trkpt>
      <trkpt lat="45.65459" lon="3.12323">
        <ele>519</ele>
      </trkpt>
      <trkpt lat="45.65466" lon="3.12333">
        <ele>519</ele>
      </trkpt>
      <trkpt lat="45.65472" lon="3.12343">
        <ele>519</ele>
      </trkpt>
      <trkpt lat="45.65479" lon="3.12354">
        <ele>518</ele>
      </trkpt>
      <trkpt lat="45.65485" lon="3.12366">
        <ele>518</ele>
      </trkpt>
      <trkpt lat="45.65491" lon="3.12378">
        <ele>517</ele>
      </trkpt>
      <trkpt lat="45.65497" lon="3.12387">
        <ele>516</ele>
      </trkpt>
      <trkpt lat="45.65504" lon="3.12397">
        <ele>515</ele>
      </trkpt>
      <trkpt lat="45.65508" lon="3.12411">
        <ele>514</ele>
      </trkpt>
      <trkpt lat="45.65512" lon="3.12422">
        <ele>512</ele>
      </trkpt>
      <trkpt lat="45.65518" lon="3.12434">
        <ele>511</ele>
      </trkpt>
      <trkpt lat="45.65523" lon="3.12446">
        <ele>510</ele>
      </trkpt>
      <trkpt lat="45.65528" lon="3.12457">
        <ele>508</ele>
      </trkpt>
      <trkpt lat="45.65531" lon="3.12471">
        <ele>506</ele>
      </trkpt>
      <trkpt lat="45.65539" lon="3.12482">
        <ele>505</ele>
      </trkpt>
      <trkpt lat="45.65547" lon="3.12491">
        <ele>504</ele>
      </trkpt>
      <trkpt lat="45.65556" lon="3.12498">
        <ele>504</ele>
      </trkpt>
      <trkpt lat="45.65567" lon="3.12503">
        <ele>503</ele>
      </trkpt>
      <trkpt lat="45.65577" lon="3.12509">
        <ele>503</ele>
      </trkpt>
      <trkpt lat="45.65587" lon="3.12516">
        <ele>502</ele>
      </trkpt>
      <trkpt lat="45.65595" lon="3.12522">
        <ele>501</ele>
      </trkpt>
      <trkpt lat="45.65604" lon="3.12527">
        <ele>501</ele>
      </trkpt>
      <trkpt lat="45.65613" lon="3.12534">
        <ele>500</ele>
      </trkpt>
      <trkpt lat="45.65615" lon="3.12548">
        <ele>499</ele>
      </trkpt>
      <trkpt lat="45.65623" lon="3.12554">
        <ele>498</ele>
      </trkpt>
      <trkpt lat="45.65633" lon="3.12553">
        <ele>498</ele>
      </trkpt>
      <trkpt lat="45.65642" lon="3.12552">
        <ele>498</ele>
      </trkpt>
      <trkpt lat="45.65652" lon="3.12552">
        <ele>498</ele>
      </trkpt>
      <trkpt lat="45.65662" lon="3.12549">
        <ele>497</ele>
      </trkpt>
      <trkpt lat="45.65674" lon="3.12547">
        <ele>497</ele>
      </trkpt>
      <trkpt lat="45.65684" lon="3.12544">
        <ele>496</ele>
      </trkpt>
      <trkpt lat="45.65694" lon="3.12539">
        <ele>496</ele>
      </trkpt>
      <trkpt lat="45.65703" lon="3.12534">
        <ele>495</ele>
      </trkpt>
      <trkpt lat="45.65711" lon="3.12528">
        <ele>495</ele>
      </trkpt>
      <trkpt lat="45.65719" lon="3.12521">
        <ele>493</ele>
      </trkpt>
      <trkpt lat="45.65725" lon="3.1251">
        <ele>493</ele>
      </trkpt>
      <trkpt lat="45.65731" lon="3.12499">
        <ele>492</ele>
      </trkpt>
      <trkpt lat="45.65734" lon="3.12485">
        <ele>492</ele>
      </trkpt>
      <trkpt lat="45.6574" lon="3.12469">
        <ele>492</ele>
      </trkpt>
      <trkpt lat="45.65744" lon="3.12457">
        <ele>492</ele>
      </trkpt>
      <trkpt lat="45.65749" lon="3.12441">
        <ele>492</ele>
      </trkpt>
      <trkpt lat="45.65753" lon="3.12429">
        <ele>492</ele>
      </trkpt>
      <trkpt lat="45.65757" lon="3.12416">
        <ele>492</ele>
      </trkpt>
      <trkpt lat="45.65763" lon="3.12401">
        <ele>491</ele>
      </trkpt>
      <trkpt lat="45.65768" lon="3.12388">
        <ele>491</ele>
      </trkpt>
      <trkpt lat="45.65773" lon="3.12375">
        <ele>491</ele>
      </trkpt>
      <trkpt lat="45.65776" lon="3.12362">
        <ele>491</ele>
      </trkpt>
      <trkpt lat="45.65779" lon="3.12346">
        <ele>491</ele>
      </trkpt>
      <trkpt lat="45.65782" lon="3.12331">
        <ele>491</ele>
      </trkpt>
      <trkpt lat="45.65784" lon="3.12318">
        <ele>491</ele>
      </trkpt>
      <trkpt lat="45.65786" lon="3.12305">
        <ele>491</ele>
      </trkpt>
      <trkpt lat="45.65783" lon="3.12291">
        <ele>492</ele>
      </trkpt>
      <trkpt lat="45.65777" lon="3.12281">
        <ele>493</ele>
      </trkpt>
      <trkpt lat="45.65771" lon="3.1227">
        <ele>494</ele>
      </trkpt>
      <trkpt lat="45.65761" lon="3.12261">
        <ele>495</ele>
      </trkpt>
      <trkpt lat="45.65756" lon="3.12272">
        <ele>496</ele>
      </trkpt>
      <trkpt lat="45.65751" lon="3.12283">
        <ele>496</ele>
      </trkpt>
      <trkpt lat="45.65745" lon="3.12294">
        <ele>497</ele>
      </trkpt>
      <trkpt lat="45.65741" lon="3.12307">
        <ele>498</ele>
      </trkpt>
      <trkpt lat="45.65734" lon="3.12318">
        <ele>499</ele>
      </trkpt>
      <trkpt lat="45.65729" lon="3.12329">
        <ele>500</ele>
      </trkpt>
      <trkpt lat="45.65722" lon="3.1234">
        <ele>500</ele>
      </trkpt>
      <trkpt lat="45.65717" lon="3.12352">
        <ele>501</ele>
      </trkpt>
      <trkpt lat="45.6571" lon="3.12365">
        <ele>502</ele>
      </trkpt>
      <trkpt lat="45.65703" lon="3.12376">
        <ele>504</ele>
      </trkpt>
      <trkpt lat="45.65697" lon="3.12385">
        <ele>505</ele>
      </trkpt>
      <trkpt lat="45.65684" lon="3.12404">
        <ele>506</ele>
      </trkpt>
      <trkpt lat="45.65675" lon="3.12409">
        <ele>508</ele>
      </trkpt>
      <trkpt lat="45.65666" lon="3.12413">
        <ele>509</ele>
      </trkpt>
      <trkpt lat="45.65656" lon="3.12409">
        <ele>510</ele>
      </trkpt>
      <trkpt lat="45.65656" lon="3.12395">
        <ele>512</ele>
      </trkpt>
      <trkpt lat="45.65657" lon="3.12381">
        <ele>512</ele>
      </trkpt>
      <trkpt lat="45.65655" lon="3.12367">
        <ele>512</ele>
      </trkpt>
      <trkpt lat="45.65653" lon="3.12353">
        <ele>512</ele>
      </trkpt>
      <trkpt lat="45.65657" lon="3.12341">
        <ele>512</ele>
      </trkpt>
      <trkpt lat="45.65664" lon="3.12331">
        <ele>511</ele>
      </trkpt>
      <trkpt lat="45.65671" lon="3.12321">
        <ele>509</ele>
      </trkpt>
      <trkpt lat="45.65677" lon="3.1231">
        <ele>508</ele>
      </trkpt>
      <trkpt lat="45.6568" lon="3.12298">
        <ele>507</ele>
      </trkpt>
      <trkpt lat="45.65675" lon="3.12286">
        <ele>508</ele>
      </trkpt>
      <trkpt lat="45.65666" lon="3.1228">
        <ele>510</ele>
      </trkpt>
      <trkpt lat="45.65657" lon="3.12273">
        <ele>511</ele>
      </trkpt>
      <trkpt lat="45.65648" lon="3.12268">
        <ele>512</ele>
      </trkpt>
      <trkpt lat="45.65639" lon="3.12263">
        <ele>513</ele>
      </trkpt>
      <trkpt lat="45.6563" lon="3.12257">
        <ele>514</ele>
      </trkpt>
      <trkpt lat="45.6562" lon="3.12251">
        <ele>516</ele>
      </trkpt>
      <trkpt lat="45.65611" lon="3.12245">
        <ele>517</ele>
      </trkpt>
      <trkpt lat="45.65601" lon="3.1224">
        <ele>518</ele>
      </trkpt>
      <trkpt lat="45.65593" lon="3.12234">
        <ele>519</ele>
      </trkpt>
      <trkpt lat="45.65587" lon="3.12244">
        <ele>520</ele>
      </trkpt>
      <trkpt lat="45.65595" lon="3.12251">
        <ele>519</ele>
      </trkpt>
      <trkpt lat="45.65601" lon="3.12262">
        <ele>518</ele>
      </trkpt>
      <trkpt lat="45.65606" lon="3.12275">
        <ele>518</ele>
      </trkpt>
      <trkpt lat="45.65612" lon="3.12286">
        <ele>518</ele>
      </trkpt>
      <trkpt lat="45.65621" lon="3.12293">
        <ele>517</ele>
      </trkpt>
      <trkpt lat="45.6563" lon="3.12299">
        <ele>515</ele>
      </trkpt>
      <trkpt lat="45.6564" lon="3.12303">
        <ele>514</ele>
      </trkpt>
      <trkpt lat="45.65649" lon="3.12307">
        <ele>513</ele>
      </trkpt>
      <trkpt lat="45.65657" lon="3.12312">
        <ele>511</ele>
      </trkpt>
      <trkpt lat="45.65666" lon="3.12321">
        <ele>510</ele>
      </trkpt>
      <trkpt lat="45.65667" lon="3.12334">
        <ele>510</ele>
      </trkpt>
      <trkpt lat="45.65662" lon="3.12346">
        <ele>511</ele>
      </trkpt>
      <trkpt lat="45.65657" lon="3.1236">
        <ele>512</ele>
      </trkpt>
      <trkpt lat="45.65655" lon="3.12374">
        <ele>512</ele>
      </trkpt>
      <trkpt lat="45.65657" lon="3.12388">
        <ele>511</ele>
      </trkpt>
      <trkpt lat="45.65662" lon="3.12402">
        <ele>510</ele>
      </trkpt>
      <trkpt lat="45.65671" lon="3.12408">
        <ele>508</ele>
      </trkpt>
      <trkpt lat="45.6568" lon="3.12406">
        <ele>507</ele>
      </trkpt>
      <trkpt lat="45.65689" lon="3.12403">
        <ele>506</ele>
      </trkpt>
      <trkpt lat="45.65697" lon="3.12394">
        <ele>505</ele>
      </trkpt>
      <trkpt lat="45.65704" lon="3.12383">
        <ele>503</ele>
      </trkpt>
      <trkpt lat="45.6571" lon="3.12372">
        <ele>502</ele>
      </trkpt>
      <trkpt lat="45.65717" lon="3.1236">
        <ele>501</ele>
      </trkpt>
      <trkpt lat="45.65722" lon="3.12349">
        <ele>500</ele>
      </trkpt>
      <trkpt lat="45.65727" lon="3.12337">
        <ele>500</ele>
      </trkpt>
      <trkpt lat="45.65733" lon="3.12325">
        <ele>499</ele>
      </trkpt>
      <trkpt lat="45.65737" lon="3.12312">
        <ele>498</ele>
      </trkpt>
      <trkpt lat="45.65743" lon="3.12301">
        <ele>497</ele>
      </trkpt>
      <trkpt lat="45.65749" lon="3.12289">
        <ele>496</ele>
      </trkpt>
      <trkpt lat="45.65754" lon="3.12278">
        <ele>496</ele>
      </trkpt>
      <trkpt lat="45.65761" lon="3.12267">
        <ele>495</ele>
      </trkpt>
      <trkpt lat="45.65768" lon="3.12258">
        <ele>494</ele>
      </trkpt>
      <trkpt lat="45.65772" lon="3.12271">
        <ele>494</ele>
      </trkpt>
      <trkpt lat="45.65778" lon="3.1228">
        <ele>493</ele>
      </trkpt>
      <trkpt lat="45.65785" lon="3.1229">
        <ele>492</ele>
      </trkpt>
      <trkpt lat="45.65788" lon="3.12303">
        <ele>491</ele>
      </trkpt>
      <trkpt lat="45.65785" lon="3.12316">
        <ele>491</ele>
      </trkpt>
      <trkpt lat="45.65783" lon="3.12329">
        <ele>491</ele>
      </trkpt>
      <trkpt lat="45.65782" lon="3.12342">
        <ele>491</ele>
      </trkpt>
      <trkpt lat="45.65778" lon="3.12357">
        <ele>491</ele>
      </trkpt>
      <trkpt lat="45.65775" lon="3.12369">
        <ele>491</ele>
      </trkpt>
      <trkpt lat="45.65771" lon="3.12382">
        <ele>491</ele>
      </trkpt>
      <trkpt lat="45.65766" lon="3.12395">
        <ele>491</ele>
      </trkpt>
      <trkpt lat="45.65762" lon="3.12407">
        <ele>491</ele>
      </trkpt>
      <trkpt lat="45.65758" lon="3.1242">
        <ele>491</ele>
      </trkpt>
      <trkpt lat="45.65754" lon="3.12432">
        <ele>491</ele>
      </trkpt>
      <trkpt lat="45.65749" lon="3.12445">
        <ele>491</ele>
      </trkpt>
      <trkpt lat="45.65744" lon="3.12458">
        <ele>492</ele>
      </trkpt>
      <trkpt lat="45.65741" lon="3.12472">
        <ele>492</ele>
      </trkpt>
      <trkpt lat="45.65737" lon="3.12484">
        <ele>492</ele>
      </trkpt>
      <trkpt lat="45.65732" lon="3.12498">
        <ele>492</ele>
      </trkpt>
      <trkpt lat="45.65727" lon="3.1251">
        <ele>492</ele>
      </trkpt>
      <trkpt lat="45.6572" lon="3.1252">
        <ele>493</ele>
      </trkpt>
      <trkpt lat="45.6571" lon="3.12525">
        <ele>495</ele>
      </trkpt>
      <trkpt lat="45.657" lon="3.12529">
        <ele>496</ele>
      </trkpt>
      <trkpt lat="45.65691" lon="3.12536">
        <ele>496</ele>
      </trkpt>
      <trkpt lat="45.65681" lon="3.12542">
        <ele>497</ele>
      </trkpt>
      <trkpt lat="45.65672" lon="3.12545">
        <ele>497</ele>
      </trkpt>
      <trkpt lat="45.65661" lon="3.12548">
        <ele>498</ele>
      </trkpt>
      <trkpt lat="45.6564" lon="3.12548">
        <ele>498</ele>
      </trkpt>
      <trkpt lat="45.65631" lon="3.12551">
        <ele>498</ele>
      </trkpt>
      <trkpt lat="45.65621" lon="3.12553">
        <ele>498</ele>
      </trkpt>
      <trkpt lat="45.65613" lon="3.12561">
        <ele>497</ele>
      </trkpt>
      <trkpt lat="45.65614" lon="3.12575">
        <ele>496</ele>
      </trkpt>
      <trkpt lat="45.65615" lon="3.1259">
        <ele>495</ele>
      </trkpt>
      <trkpt lat="45.65612" lon="3.12603">
        <ele>493</ele>
      </trkpt>
      <trkpt lat="45.65614" lon="3.12617">
        <ele>491</ele>
      </trkpt>
      <trkpt lat="45.65615" lon="3.12632">
        <ele>489</ele>
      </trkpt>
      <trkpt lat="45.65615" lon="3.12646">
        <ele>488</ele>
      </trkpt>
      <trkpt lat="45.65614" lon="3.1266">
        <ele>486</ele>
      </trkpt>
      <trkpt lat="45.65614" lon="3.12676">
        <ele>484</ele>
      </trkpt>
      <trkpt lat="45.65613" lon="3.12692">
        <ele>483</ele>
      </trkpt>
      <trkpt lat="45.65612" lon="3.12705">
        <ele>481</ele>
      </trkpt>
      <trkpt lat="45.65612" lon="3.12722">
        <ele>479</ele>
      </trkpt>
      <trkpt lat="45.65612" lon="3.12736">
        <ele>478</ele>
      </trkpt>
      <trkpt lat="45.65611" lon="3.12749">
        <ele>477</ele>
      </trkpt>
      <trkpt lat="45.6561" lon="3.12764">
        <ele>475</ele>
      </trkpt>
      <trkpt lat="45.6561" lon="3.12781">
        <ele>474</ele>
      </trkpt>
      <trkpt lat="45.6561" lon="3.12794">
        <ele>472</ele>
      </trkpt>
      <trkpt lat="45.6561" lon="3.12808">
        <ele>471</ele>
      </trkpt>
      <trkpt lat="45.6561" lon="3.12821">
        <ele>469</ele>
      </trkpt>
      <trkpt lat="45.65609" lon="3.12835">
        <ele>468</ele>
      </trkpt>
      <trkpt lat="45.65613" lon="3.12848">
        <ele>467</ele>
      </trkpt>
      <trkpt lat="45.65622" lon="3.12852">
        <ele>466</ele>
      </trkpt>
      <trkpt lat="45.65632" lon="3.12855">
        <ele>465</ele>
      </trkpt>
      <trkpt lat="45.65642" lon="3.12857">
        <ele>465</ele>
      </trkpt>
      <trkpt lat="45.65651" lon="3.1286">
        <ele>464</ele>
      </trkpt>
      <trkpt lat="45.65662" lon="3.12864">
        <ele>464</ele>
      </trkpt>
      <trkpt lat="45.65671" lon="3.12865">
        <ele>463</ele>
      </trkpt>
      <trkpt lat="45.65681" lon="3.12867">
        <ele>462</ele>
      </trkpt>
      <trkpt lat="45.6569" lon="3.12868">
        <ele>462</ele>
      </trkpt>
      <trkpt lat="45.657" lon="3.12868">
        <ele>461</ele>
      </trkpt>
      <trkpt lat="45.6571" lon="3.1287">
        <ele>461</ele>
      </trkpt>
      <trkpt lat="45.65719" lon="3.1287">
        <ele>460</ele>
      </trkpt>
      <trkpt lat="45.65729" lon="3.12872">
        <ele>459</ele>
      </trkpt>
      <trkpt lat="45.65739" lon="3.12874">
        <ele>458</ele>
      </trkpt>
      <trkpt lat="45.65749" lon="3.12875">
        <ele>458</ele>
      </trkpt>
      <trkpt lat="45.65759" lon="3.12877">
        <ele>457</ele>
      </trkpt>
      <trkpt lat="45.65769" lon="3.12879">
        <ele>456</ele>
      </trkpt>
      <trkpt lat="45.65779" lon="3.1288">
        <ele>455</ele>
      </trkpt>
      <trkpt lat="45.65788" lon="3.12881">
        <ele>454</ele>
      </trkpt>
      <trkpt lat="45.65798" lon="3.12883">
        <ele>453</ele>
      </trkpt>
      <trkpt lat="45.65807" lon="3.12887">
        <ele>451</ele>
      </trkpt>
      <trkpt lat="45.65817" lon="3.12887">
        <ele>450</ele>
      </trkpt>
      <trkpt lat="45.65826" lon="3.12883">
        <ele>450</ele>
      </trkpt>
      <trkpt lat="45.65836" lon="3.1288">
        <ele>449</ele>
      </trkpt>
      <trkpt lat="45.65845" lon="3.12876">
        <ele>448</ele>
      </trkpt>
      <trkpt lat="45.65854" lon="3.12872">
        <ele>447</ele>
      </trkpt>
      <trkpt lat="45.65863" lon="3.12866">
        <ele>446</ele>
      </trkpt>
      <trkpt lat="45.65872" lon="3.12863">
        <ele>445</ele>
      </trkpt>
      <trkpt lat="45.65882" lon="3.12858">
        <ele>444</ele>
      </trkpt>
      <trkpt lat="45.65891" lon="3.12853">
        <ele>443</ele>
      </trkpt>
      <trkpt lat="45.65899" lon="3.12846">
        <ele>442</ele>
      </trkpt>
      <trkpt lat="45.65908" lon="3.12841">
        <ele>440</ele>
      </trkpt>
      <trkpt lat="45.65917" lon="3.12833">
        <ele>439</ele>
      </trkpt>
      <trkpt lat="45.65926" lon="3.12826">
        <ele>438</ele>
      </trkpt>
      <trkpt lat="45.65934" lon="3.12818">
        <ele>437</ele>
      </trkpt>
      <trkpt lat="45.65942" lon="3.1281">
        <ele>436</ele>
      </trkpt>
      <trkpt lat="45.6595" lon="3.12801">
        <ele>435</ele>
      </trkpt>
      <trkpt lat="45.65959" lon="3.12793">
        <ele>434</ele>
      </trkpt>
      <trkpt lat="45.65967" lon="3.12787">
        <ele>433</ele>
      </trkpt>
      <trkpt lat="45.65976" lon="3.12781">
        <ele>432</ele>
      </trkpt>
      <trkpt lat="45.65984" lon="3.12773">
        <ele>432</ele>
      </trkpt>
      <trkpt lat="45.65993" lon="3.12766">
        <ele>431</ele>
      </trkpt>
      <trkpt lat="45.66" lon="3.12757">
        <ele>431</ele>
      </trkpt>
      <trkpt lat="45.66008" lon="3.12749">
        <ele>430</ele>
      </trkpt>
      <trkpt lat="45.66016" lon="3.12742">
        <ele>429</ele>
      </trkpt>
      <trkpt lat="45.66025" lon="3.12735">
        <ele>429</ele>
      </trkpt>
      <trkpt lat="45.66035" lon="3.12733">
        <ele>428</ele>
      </trkpt>
      <trkpt lat="45.66044" lon="3.1273">
        <ele>427</ele>
      </trkpt>
      <trkpt lat="45.66052" lon="3.12724">
        <ele>427</ele>
      </trkpt>
      <trkpt lat="45.66062" lon="3.12721">
        <ele>426</ele>
      </trkpt>
      <trkpt lat="45.66072" lon="3.12715">
        <ele>426</ele>
      </trkpt>
      <trkpt lat="45.66081" lon="3.12713">
        <ele>426</ele>
      </trkpt>
      <trkpt lat="45.66091" lon="3.12707">
        <ele>425</ele>
      </trkpt>
      <trkpt lat="45.66101" lon="3.12702">
        <ele>425</ele>
      </trkpt>
      <trkpt lat="45.6611" lon="3.12698">
        <ele>425</ele>
      </trkpt>
      <trkpt lat="45.66118" lon="3.12692">
        <ele>425</ele>
      </trkpt>
      <trkpt lat="45.66127" lon="3.12688">
        <ele>424</ele>
      </trkpt>
      <trkpt lat="45.66137" lon="3.12684">
        <ele>424</ele>
      </trkpt>
      <trkpt lat="45.66146" lon="3.1268">
        <ele>423</ele>
      </trkpt>
      <trkpt lat="45.66155" lon="3.12676">
        <ele>423</ele>
      </trkpt>
      <trkpt lat="45.66164" lon="3.12669">
        <ele>423</ele>
      </trkpt>
      <trkpt lat="45.66173" lon="3.12662">
        <ele>423</ele>
      </trkpt>
      <trkpt lat="45.66183" lon="3.12657">
        <ele>422</ele>
      </trkpt>
      <trkpt lat="45.66192" lon="3.12651">
        <ele>422</ele>
      </trkpt>
      <trkpt lat="45.662" lon="3.12643">
        <ele>422</ele>
      </trkpt>
      <trkpt lat="45.66209" lon="3.12637">
        <ele>421</ele>
      </trkpt>
      <trkpt lat="45.66218" lon="3.12629">
        <ele>420</ele>
      </trkpt>
      <trkpt lat="45.66226" lon="3.12622">
        <ele>419</ele>
      </trkpt>
      <trkpt lat="45.66235" lon="3.12617">
        <ele>418</ele>
      </trkpt>
      <trkpt lat="45.66245" lon="3.12612">
        <ele>417</ele>
      </trkpt>
      <trkpt lat="45.66254" lon="3.12609">
        <ele>416</ele>
      </trkpt>
      <trkpt lat="45.66263" lon="3.12607">
        <ele>414</ele>
      </trkpt>
      <trkpt lat="45.66273" lon="3.12602">
        <ele>413</ele>
      </trkpt>
      <trkpt lat="45.66283" lon="3.12598">
        <ele>411</ele>
      </trkpt>
      <trkpt lat="45.66292" lon="3.12594">
        <ele>410</ele>
      </trkpt>
      <trkpt lat="45.66301" lon="3.1259">
        <ele>410</ele>
      </trkpt>
      <trkpt lat="45.66311" lon="3.12589">
        <ele>409</ele>
      </trkpt>
      <trkpt lat="45.66322" lon="3.12587">
        <ele>408</ele>
      </trkpt>
      <trkpt lat="45.66331" lon="3.12585">
        <ele>407</ele>
      </trkpt>
      <trkpt lat="45.66341" lon="3.12584">
        <ele>406</ele>
      </trkpt>
      <trkpt lat="45.66351" lon="3.12582">
        <ele>405</ele>
      </trkpt>
      <trkpt lat="45.6636" lon="3.12579">
        <ele>404</ele>
      </trkpt>
      <trkpt lat="45.66371" lon="3.12579">
        <ele>402</ele>
      </trkpt>
      <trkpt lat="45.66381" lon="3.12576">
        <ele>401</ele>
      </trkpt>
      <trkpt lat="45.66389" lon="3.12572">
        <ele>401</ele>
      </trkpt>
      <trkpt lat="45.66398" lon="3.12565">
        <ele>400</ele>
      </trkpt>
      <trkpt lat="45.66405" lon="3.12557">
        <ele>400</ele>
      </trkpt>
      <trkpt lat="45.66413" lon="3.1255">
        <ele>399</ele>
      </trkpt>
      <trkpt lat="45.66422" lon="3.12542">
        <ele>399</ele>
      </trkpt>
      <trkpt lat="45.6643" lon="3.12534">
        <ele>398</ele>
      </trkpt>
      <trkpt lat="45.6644" lon="3.12529">
        <ele>398</ele>
      </trkpt>
      <trkpt lat="45.66448" lon="3.12522">
        <ele>398</ele>
      </trkpt>
      <trkpt lat="45.66457" lon="3.12517">
        <ele>397</ele>
      </trkpt>
      <trkpt lat="45.66468" lon="3.12514">
        <ele>396</ele>
      </trkpt>
      <trkpt lat="45.66478" lon="3.12512">
        <ele>395</ele>
      </trkpt>
      <trkpt lat="45.66488" lon="3.12513">
        <ele>395</ele>
      </trkpt>
      <trkpt lat="45.66497" lon="3.12517">
        <ele>394</ele>
      </trkpt>
      <trkpt lat="45.66507" lon="3.12521">
        <ele>393</ele>
      </trkpt>
      <trkpt lat="45.66513" lon="3.1253">
        <ele>392</ele>
      </trkpt>
      <trkpt lat="45.66522" lon="3.12536">
        <ele>392</ele>
      </trkpt>
      <trkpt lat="45.66532" lon="3.12534">
        <ele>392</ele>
      </trkpt>
      <trkpt lat="45.66542" lon="3.12528">
        <ele>393</ele>
      </trkpt>
      <trkpt lat="45.66551" lon="3.12528">
        <ele>393</ele>
      </trkpt>
      <trkpt lat="45.6656" lon="3.12525">
        <ele>393</ele>
      </trkpt>
      <trkpt lat="45.6657" lon="3.12522">
        <ele>393</ele>
      </trkpt>
      <trkpt lat="45.6658" lon="3.12519">
        <ele>393</ele>
      </trkpt>
      <trkpt lat="45.6659" lon="3.12515">
        <ele>393</ele>
      </trkpt>
      <trkpt lat="45.666" lon="3.12512">
        <ele>393</ele>
      </trkpt>
      <trkpt lat="45.66609" lon="3.1251">
        <ele>393</ele>
      </trkpt>
      <trkpt lat="45.66618" lon="3.12506">
        <ele>393</ele>
      </trkpt>
      <trkpt lat="45.66627" lon="3.12502">
        <ele>393</ele>
      </trkpt>
      <trkpt lat="45.66637" lon="3.12499">
        <ele>393</ele>
      </trkpt>
      <trkpt lat="45.66647" lon="3.12496">
        <ele>393</ele>
      </trkpt>
      <trkpt lat="45.66657" lon="3.12497">
        <ele>393</ele>
      </trkpt>
      <trkpt lat="45.66666" lon="3.12501">
        <ele>393</ele>
      </trkpt>
      <trkpt lat="45.66665" lon="3.12515">
        <ele>393</ele>
      </trkpt>
      <trkpt lat="45.66664" lon="3.12529">
        <ele>392</ele>
      </trkpt>
      <trkpt lat="45.66663" lon="3.12544">
        <ele>392</ele>
      </trkpt>
      <trkpt lat="45.66662" lon="3.12558">
        <ele>391</ele>
      </trkpt>
      <trkpt lat="45.6666" lon="3.12572">
        <ele>391</ele>
      </trkpt>
      <trkpt lat="45.66658" lon="3.12587">
        <ele>390</ele>
      </trkpt>
      <trkpt lat="45.66657" lon="3.126">
        <ele>390</ele>
      </trkpt>
      <trkpt lat="45.66654" lon="3.12615">
        <ele>390</ele>
      </trkpt>
      <trkpt lat="45.66652" lon="3.1263">
        <ele>390</ele>
      </trkpt>
      <trkpt lat="45.6665" lon="3.12643">
        <ele>389</ele>
      </trkpt>
      <trkpt lat="45.66648" lon="3.12658">
        <ele>389</ele>
      </trkpt>
      <trkpt lat="45.66646" lon="3.12671">
        <ele>389</ele>
      </trkpt>
      <trkpt lat="45.66646" lon="3.12686">
        <ele>388</ele>
      </trkpt>
      <trkpt lat="45.66644" lon="3.127">
        <ele>388</ele>
      </trkpt>
      <trkpt lat="45.66643" lon="3.12713">
        <ele>387</ele>
      </trkpt>
      <trkpt lat="45.66642" lon="3.12727">
        <ele>387</ele>
      </trkpt>
      <trkpt lat="45.66641" lon="3.1274">
        <ele>387</ele>
      </trkpt>
      <trkpt lat="45.66639" lon="3.12755">
        <ele>387</ele>
      </trkpt>
      <trkpt lat="45.66636" lon="3.12771">
        <ele>386</ele>
      </trkpt>
      <trkpt lat="45.66634" lon="3.12785">
        <ele>386</ele>
      </trkpt>
      <trkpt lat="45.66633" lon="3.128">
        <ele>386</ele>
      </trkpt>
      <trkpt lat="45.66631" lon="3.12815">
        <ele>386</ele>
      </trkpt>
      <trkpt lat="45.66629" lon="3.12829">
        <ele>385</ele>
      </trkpt>
      <trkpt lat="45.66627" lon="3.12845">
        <ele>385</ele>
      </trkpt>
      <trkpt lat="45.66626" lon="3.12859">
        <ele>385</ele>
      </trkpt>
      <trkpt lat="45.66624" lon="3.12873">
        <ele>385</ele>
      </trkpt>
      <trkpt lat="45.6662" lon="3.12889">
        <ele>385</ele>
      </trkpt>
      <trkpt lat="45.66615" lon="3.12901">
        <ele>384</ele>
      </trkpt>
      <trkpt lat="45.66609" lon="3.12913">
        <ele>384</ele>
      </trkpt>
      <trkpt lat="45.66604" lon="3.12925">
        <ele>384</ele>
      </trkpt>
      <trkpt lat="45.66598" lon="3.12935">
        <ele>384</ele>
      </trkpt>
      <trkpt lat="45.66591" lon="3.12946">
        <ele>384</ele>
      </trkpt>
      <trkpt lat="45.66583" lon="3.12956">
        <ele>384</ele>
      </trkpt>
      <trkpt lat="45.66575" lon="3.12967">
        <ele>383</ele>
      </trkpt>
      <trkpt lat="45.66566" lon="3.12976">
        <ele>383</ele>
      </trkpt>
      <trkpt lat="45.66558" lon="3.12987">
        <ele>383</ele>
      </trkpt>
      <trkpt lat="45.66553" lon="3.12999">
        <ele>383</ele>
      </trkpt>
      <trkpt lat="45.66556" lon="3.13013">
        <ele>383</ele>
      </trkpt>
      <trkpt lat="45.66565" lon="3.13022">
        <ele>382</ele>
      </trkpt>
      <trkpt lat="45.66573" lon="3.13031">
        <ele>382</ele>
      </trkpt>
      <trkpt lat="45.66582" lon="3.1304">
        <ele>382</ele>
      </trkpt>
      <trkpt lat="45.66591" lon="3.13049">
        <ele>382</ele>
      </trkpt>
      <trkpt lat="45.66596" lon="3.13062">
        <ele>382</ele>
      </trkpt>
      <trkpt lat="45.66593" lon="3.13076">
        <ele>382</ele>
      </trkpt>
      <trkpt lat="45.66589" lon="3.1309">
        <ele>381</ele>
      </trkpt>
      <trkpt lat="45.66585" lon="3.13105">
        <ele>381</ele>
      </trkpt>
      <trkpt lat="45.66582" lon="3.1312">
        <ele>381</ele>
      </trkpt>
      <trkpt lat="45.6658" lon="3.13137">
        <ele>381</ele>
      </trkpt>
      <trkpt lat="45.66578" lon="3.13151">
        <ele>380</ele>
      </trkpt>
      <trkpt lat="45.66576" lon="3.13167">
        <ele>380</ele>
      </trkpt>
      <trkpt lat="45.66571" lon="3.13183">
        <ele>380</ele>
      </trkpt>
      <trkpt lat="45.66568" lon="3.13197">
        <ele>380</ele>
      </trkpt>
      <trkpt lat="45.66566" lon="3.1321">
        <ele>380</ele>
      </trkpt>
      <trkpt lat="45.66565" lon="3.13224">
        <ele>380</ele>
      </trkpt>
      <trkpt lat="45.66563" lon="3.13237">
        <ele>380</ele>
      </trkpt>
      <trkpt lat="45.66561" lon="3.13251">
        <ele>380</ele>
      </trkpt>
      <trkpt lat="45.6656" lon="3.13264">
        <ele>380</ele>
      </trkpt>
      <trkpt lat="45.66558" lon="3.13279">
        <ele>379</ele>
      </trkpt>
      <trkpt lat="45.66556" lon="3.13294">
        <ele>379</ele>
      </trkpt>
      <trkpt lat="45.66555" lon="3.13311">
        <ele>379</ele>
      </trkpt>
      <trkpt lat="45.66551" lon="3.13323">
        <ele>379</ele>
      </trkpt>
      <trkpt lat="45.66542" lon="3.13333">
        <ele>379</ele>
      </trkpt>
      <trkpt lat="45.66534" lon="3.13341">
        <ele>379</ele>
      </trkpt>
      <trkpt lat="45.66525" lon="3.13348">
        <ele>379</ele>
      </trkpt>
      <trkpt lat="45.66516" lon="3.13356">
        <ele>378</ele>
      </trkpt>
      <trkpt lat="45.66506" lon="3.13361">
        <ele>378</ele>
      </trkpt>
      <trkpt lat="45.66496" lon="3.1336">
        <ele>378</ele>
      </trkpt>
      <trkpt lat="45.66486" lon="3.13358">
        <ele>378</ele>
      </trkpt>
      <trkpt lat="45.66477" lon="3.13356">
        <ele>378</ele>
      </trkpt>
      <trkpt lat="45.66468" lon="3.13351">
        <ele>378</ele>
      </trkpt>
      <trkpt lat="45.66457" lon="3.13348">
        <ele>378</ele>
      </trkpt>
      <trkpt lat="45.66448" lon="3.13351">
        <ele>378</ele>
      </trkpt>
      <trkpt lat="45.66442" lon="3.13361">
        <ele>378</ele>
      </trkpt>
      <trkpt lat="45.66439" lon="3.13378">
        <ele>378</ele>
      </trkpt>
      <trkpt lat="45.66439" lon="3.13392">
        <ele>378</ele>
      </trkpt>
      <trkpt lat="45.66437" lon="3.13406">
        <ele>377</ele>
      </trkpt>
      <trkpt lat="45.66437" lon="3.1342">
        <ele>377</ele>
      </trkpt>
      <trkpt lat="45.66435" lon="3.13435">
        <ele>377</ele>
      </trkpt>
      <trkpt lat="45.66435" lon="3.13449">
        <ele>377</ele>
      </trkpt>
      <trkpt lat="45.66433" lon="3.13464">
        <ele>377</ele>
      </trkpt>
      <trkpt lat="45.66433" lon="3.13478">
        <ele>377</ele>
      </trkpt>
      <trkpt lat="45.66432" lon="3.13493">
        <ele>376</ele>
      </trkpt>
      <trkpt lat="45.66433" lon="3.13508">
        <ele>376</ele>
      </trkpt>
      <trkpt lat="45.66437" lon="3.13525">
        <ele>376</ele>
      </trkpt>
      <trkpt lat="45.66439" lon="3.13541">
        <ele>376</ele>
      </trkpt>
      <trkpt lat="45.6644" lon="3.13556">
        <ele>376</ele>
      </trkpt>
      <trkpt lat="45.66443" lon="3.13571">
        <ele>376</ele>
      </trkpt>
      <trkpt lat="45.66445" lon="3.13586">
        <ele>376</ele>
      </trkpt>
      <trkpt lat="45.66447" lon="3.136">
        <ele>375</ele>
      </trkpt>
      <trkpt lat="45.66448" lon="3.13614">
        <ele>375</ele>
      </trkpt>
      <trkpt lat="45.66447" lon="3.13629">
        <ele>375</ele>
      </trkpt>
      <trkpt lat="45.66445" lon="3.13644">
        <ele>375</ele>
      </trkpt>
      <trkpt lat="45.66445" lon="3.13659">
        <ele>375</ele>
      </trkpt>
      <trkpt lat="45.66444" lon="3.13673">
        <ele>375</ele>
      </trkpt>
      <trkpt lat="45.6644" lon="3.13687">
        <ele>375</ele>
      </trkpt>
      <trkpt lat="45.66436" lon="3.13701">
        <ele>374</ele>
      </trkpt>
      <trkpt lat="45.66432" lon="3.13712">
        <ele>374</ele>
      </trkpt>
      <trkpt lat="45.66427" lon="3.13725">
        <ele>374</ele>
      </trkpt>
      <trkpt lat="45.66423" lon="3.13738">
        <ele>373</ele>
      </trkpt>
      <trkpt lat="45.6642" lon="3.13754">
        <ele>373</ele>
      </trkpt>
      <trkpt lat="45.66418" lon="3.13768">
        <ele>373</ele>
      </trkpt>
      <trkpt lat="45.66418" lon="3.13782">
        <ele>373</ele>
      </trkpt>
      <trkpt lat="45.66417" lon="3.13797">
        <ele>373</ele>
      </trkpt>
      <trkpt lat="45.66417" lon="3.13812">
        <ele>373</ele>
      </trkpt>
      <trkpt lat="45.66416" lon="3.13827">
        <ele>373</ele>
      </trkpt>
      <trkpt lat="45.66416" lon="3.13843">
        <ele>373</ele>
      </trkpt>
      <trkpt lat="45.66416" lon="3.13857">
        <ele>372</ele>
      </trkpt>
      <trkpt lat="45.66416" lon="3.13871">
        <ele>372</ele>
      </trkpt>
      <trkpt lat="45.66417" lon="3.13885">
        <ele>372</ele>
      </trkpt>
      <trkpt lat="45.66418" lon="3.13899">
        <ele>372</ele>
      </trkpt>
      <trkpt lat="45.66418" lon="3.13915">
        <ele>372</ele>
      </trkpt>
      <trkpt lat="45.66418" lon="3.13929">
        <ele>372</ele>
      </trkpt>
      <trkpt lat="45.66418" lon="3.13943">
        <ele>372</ele>
      </trkpt>
      <trkpt lat="45.66415" lon="3.13959">
        <ele>372</ele>
      </trkpt>
      <trkpt lat="45.66416" lon="3.13975">
        <ele>372</ele>
      </trkpt>
      <trkpt lat="45.66413" lon="3.13988">
        <ele>371</ele>
      </trkpt>
      <trkpt lat="45.66418" lon="3.14001">
        <ele>371</ele>
      </trkpt>
      <trkpt lat="45.66425" lon="3.14012">
        <ele>371</ele>
      </trkpt>
      <trkpt lat="45.66435" lon="3.14019">
        <ele>371</ele>
      </trkpt>
      <trkpt lat="45.66445" lon="3.14028">
        <ele>371</ele>
      </trkpt>
      <trkpt lat="45.6646" lon="3.14037">
        <ele>372</ele>
      </trkpt>
      <trkpt lat="45.6647" lon="3.14046">
        <ele>372</ele>
      </trkpt>
      <trkpt lat="45.66477" lon="3.14055">
        <ele>372</ele>
      </trkpt>
      <trkpt lat="45.66486" lon="3.14066">
        <ele>372</ele>
      </trkpt>
      <trkpt lat="45.66494" lon="3.14075">
        <ele>372</ele>
      </trkpt>
      <trkpt lat="45.66502" lon="3.14082">
        <ele>372</ele>
      </trkpt>
      <trkpt lat="45.66512" lon="3.14087">
        <ele>372</ele>
      </trkpt>
      <trkpt lat="45.6652" lon="3.14091">
        <ele>372</ele>
      </trkpt>
      <trkpt lat="45.6653" lon="3.14094">
        <ele>373</ele>
      </trkpt>
      <trkpt lat="45.66541" lon="3.14097">
        <ele>373</ele>
      </trkpt>
      <trkpt lat="45.66553" lon="3.14099">
        <ele>374</ele>
      </trkpt>
      <trkpt lat="45.66573" lon="3.14102">
        <ele>374</ele>
      </trkpt>
      <trkpt lat="45.66583" lon="3.14103">
        <ele>374</ele>
      </trkpt>
      <trkpt lat="45.66592" lon="3.14105">
        <ele>375</ele>
      </trkpt>
      <trkpt lat="45.66602" lon="3.14107">
        <ele>375</ele>
      </trkpt>
      <trkpt lat="45.66612" lon="3.14108">
        <ele>375</ele>
      </trkpt>
      <trkpt lat="45.66621" lon="3.14109">
        <ele>375</ele>
      </trkpt>
      <trkpt lat="45.66631" lon="3.14111">
        <ele>375</ele>
      </trkpt>
      <trkpt lat="45.6664" lon="3.14114">
        <ele>375</ele>
      </trkpt>
      <trkpt lat="45.66651" lon="3.14118">
        <ele>376</ele>
      </trkpt>
      <trkpt lat="45.66662" lon="3.14122">
        <ele>376</ele>
      </trkpt>
      <trkpt lat="45.66674" lon="3.14126">
        <ele>376</ele>
      </trkpt>
      <trkpt lat="45.66685" lon="3.14128">
        <ele>376</ele>
      </trkpt>
      <trkpt lat="45.66694" lon="3.1413">
        <ele>376</ele>
      </trkpt>
      <trkpt lat="45.66707" lon="3.1413">
        <ele>377</ele>
      </trkpt>
      <trkpt lat="45.66717" lon="3.14131">
        <ele>377</ele>
      </trkpt>
      <trkpt lat="45.66726" lon="3.14131">
        <ele>377</ele>
      </trkpt>
      <trkpt lat="45.66736" lon="3.1413">
        <ele>377</ele>
      </trkpt>
      <trkpt lat="45.66748" lon="3.1413">
        <ele>378</ele>
      </trkpt>
      <trkpt lat="45.66772" lon="3.14128">
        <ele>378</ele>
      </trkpt>
      <trkpt lat="45.66783" lon="3.14128">
        <ele>379</ele>
      </trkpt>
      <trkpt lat="45.66804" lon="3.14127">
        <ele>379</ele>
      </trkpt>
      <trkpt lat="45.66815" lon="3.14127">
        <ele>380</ele>
      </trkpt>
      <trkpt lat="45.66821" lon="3.14136">
        <ele>380</ele>
      </trkpt>
      <trkpt lat="45.6682" lon="3.14151">
        <ele>380</ele>
      </trkpt>
      <trkpt lat="45.66819" lon="3.14164">
        <ele>380</ele>
      </trkpt>
      <trkpt lat="45.66818" lon="3.14178">
        <ele>379</ele>
      </trkpt>
      <trkpt lat="45.66818" lon="3.14191">
        <ele>379</ele>
      </trkpt>
      <trkpt lat="45.66816" lon="3.14206">
        <ele>379</ele>
      </trkpt>
      <trkpt lat="45.66817" lon="3.1422">
        <ele>379</ele>
      </trkpt>
      <trkpt lat="45.66816" lon="3.14234">
        <ele>379</ele>
      </trkpt>
      <trkpt lat="45.66816" lon="3.1425">
        <ele>378</ele>
      </trkpt>
      <trkpt lat="45.66816" lon="3.14264">
        <ele>378</ele>
      </trkpt>
      <trkpt lat="45.66815" lon="3.14277">
        <ele>378</ele>
      </trkpt>
      <trkpt lat="45.66816" lon="3.14291">
        <ele>378</ele>
      </trkpt>
      <trkpt lat="45.66817" lon="3.14305">
        <ele>378</ele>
      </trkpt>
      <trkpt lat="45.66818" lon="3.1432">
        <ele>378</ele>
      </trkpt>
      <trkpt lat="45.66818" lon="3.14333">
        <ele>378</ele>
      </trkpt>
      <trkpt lat="45.66818" lon="3.14348">
        <ele>378</ele>
      </trkpt>
      <trkpt lat="45.66818" lon="3.14361">
        <ele>378</ele>
      </trkpt>
      <trkpt lat="45.66818" lon="3.14375">
        <ele>379</ele>
      </trkpt>
      <trkpt lat="45.66818" lon="3.1439">
        <ele>379</ele>
      </trkpt>
      <trkpt lat="45.66818" lon="3.14417">
        <ele>380</ele>
      </trkpt>
      <trkpt lat="45.66816" lon="3.1443">
        <ele>380</ele>
      </trkpt>
      <trkpt lat="45.66815" lon="3.14444">
        <ele>380</ele>
      </trkpt>
      <trkpt lat="45.66812" lon="3.14457">
        <ele>380</ele>
      </trkpt>
      <trkpt lat="45.66808" lon="3.14471">
        <ele>380</ele>
      </trkpt>
      <trkpt lat="45.66804" lon="3.14483">
        <ele>381</ele>
      </trkpt>
      <trkpt lat="45.66801" lon="3.14496">
        <ele>381</ele>
      </trkpt>
      <trkpt lat="45.66805" lon="3.14507">
        <ele>382</ele>
      </trkpt>
      <trkpt lat="45.6681" lon="3.14496">
        <ele>382</ele>
      </trkpt>
      <trkpt lat="45.66813" lon="3.14483">
        <ele>381</ele>
      </trkpt>
      <trkpt lat="45.66815" lon="3.14471">
        <ele>381</ele>
      </trkpt>
      <trkpt lat="45.66818" lon="3.14457">
        <ele>381</ele>
      </trkpt>
      <trkpt lat="45.66821" lon="3.14444">
        <ele>381</ele>
      </trkpt>
      <trkpt lat="45.66828" lon="3.14435">
        <ele>381</ele>
      </trkpt>
      <trkpt lat="45.66837" lon="3.14427">
        <ele>381</ele>
      </trkpt>
      <trkpt lat="45.66846" lon="3.14424">
        <ele>381</ele>
      </trkpt>
      <trkpt lat="45.66856" lon="3.14421">
        <ele>382</ele>
      </trkpt>
      <trkpt lat="45.66866" lon="3.14419">
        <ele>382</ele>
      </trkpt>
      <trkpt lat="45.66875" lon="3.14416">
        <ele>382</ele>
      </trkpt>
      <trkpt lat="45.66885" lon="3.14413">
        <ele>383</ele>
      </trkpt>
      <trkpt lat="45.66895" lon="3.14413">
        <ele>383</ele>
      </trkpt>
      <trkpt lat="45.66905" lon="3.14414">
        <ele>383</ele>
      </trkpt>
      <trkpt lat="45.66914" lon="3.14416">
        <ele>384</ele>
      </trkpt>
      <trkpt lat="45.66943" lon="3.14416">
        <ele>385</ele>
      </trkpt>
      <trkpt lat="45.66964" lon="3.14418">
        <ele>386</ele>
      </trkpt>
      <trkpt lat="45.66975" lon="3.14419">
        <ele>386</ele>
      </trkpt>
      <trkpt lat="45.66995" lon="3.14419">
        <ele>387</ele>
      </trkpt>
      <trkpt lat="45.67004" lon="3.1442">
        <ele>387</ele>
      </trkpt>
      <trkpt lat="45.67014" lon="3.1442">
        <ele>388</ele>
      </trkpt>
      <trkpt lat="45.67024" lon="3.14419">
        <ele>388</ele>
      </trkpt>
      <trkpt lat="45.67033" lon="3.14419">
        <ele>388</ele>
      </trkpt>
      <trkpt lat="45.67043" lon="3.14418">
        <ele>388</ele>
      </trkpt>
      <trkpt lat="45.67053" lon="3.14417">
        <ele>389</ele>
      </trkpt>
      <trkpt lat="45.67073" lon="3.14417">
        <ele>390</ele>
      </trkpt>
      <trkpt lat="45.67083" lon="3.14416">
        <ele>390</ele>
      </trkpt>
      <trkpt lat="45.67093" lon="3.14414">
        <ele>390</ele>
      </trkpt>
      <trkpt lat="45.67104" lon="3.14416">
        <ele>391</ele>
      </trkpt>
      <trkpt lat="45.67113" lon="3.14418">
        <ele>391</ele>
      </trkpt>
      <trkpt lat="45.67123" lon="3.14418">
        <ele>392</ele>
      </trkpt>
      <trkpt lat="45.67133" lon="3.14418">
        <ele>392</ele>
      </trkpt>
      <trkpt lat="45.67143" lon="3.14417">
        <ele>392</ele>
      </trkpt>
      <trkpt lat="45.67152" lon="3.14417">
        <ele>393</ele>
      </trkpt>
      <trkpt lat="45.67163" lon="3.14416">
        <ele>393</ele>
      </trkpt>
      <trkpt lat="45.67173" lon="3.14415">
        <ele>394</ele>
      </trkpt>
      <trkpt lat="45.67184" lon="3.14414">
        <ele>394</ele>
      </trkpt>
      <trkpt lat="45.67193" lon="3.14413">
        <ele>395</ele>
      </trkpt>
      <trkpt lat="45.67203" lon="3.14412">
        <ele>395</ele>
      </trkpt>
      <trkpt lat="45.67213" lon="3.1441">
        <ele>396</ele>
      </trkpt>
      <trkpt lat="45.67222" lon="3.14411">
        <ele>396</ele>
      </trkpt>
      <trkpt lat="45.67231" lon="3.1441">
        <ele>396</ele>
      </trkpt>
      <trkpt lat="45.67242" lon="3.1441">
        <ele>396</ele>
      </trkpt>
      <trkpt lat="45.67252" lon="3.1441">
        <ele>397</ele>
      </trkpt>
      <trkpt lat="45.67262" lon="3.1441">
        <ele>397</ele>
      </trkpt>
      <trkpt lat="45.67272" lon="3.14411">
        <ele>397</ele>
      </trkpt>
      <trkpt lat="45.67282" lon="3.14414">
        <ele>398</ele>
      </trkpt>
      <trkpt lat="45.67293" lon="3.14412">
        <ele>398</ele>
      </trkpt>
      <trkpt lat="45.67363" lon="3.14412">
        <ele>402</ele>
      </trkpt>
      <trkpt lat="45.67373" lon="3.14411">
        <ele>402</ele>
      </trkpt>
      <trkpt lat="45.67383" lon="3.14411">
        <ele>403</ele>
      </trkpt>
      <trkpt lat="45.67393" lon="3.14409">
        <ele>403</ele>
      </trkpt>
      <trkpt lat="45.67403" lon="3.14407">
        <ele>403</ele>
      </trkpt>
      <trkpt lat="45.67422" lon="3.14407">
        <ele>404</ele>
      </trkpt>
      <trkpt lat="45.67432" lon="3.14406">
        <ele>404</ele>
      </trkpt>
      <trkpt lat="45.67442" lon="3.14404">
        <ele>405</ele>
      </trkpt>
      <trkpt lat="45.67451" lon="3.14401">
        <ele>405</ele>
      </trkpt>
      <trkpt lat="45.67459" lon="3.14394">
        <ele>406</ele>
      </trkpt>
      <trkpt lat="45.67469" lon="3.14392">
        <ele>406</ele>
      </trkpt>
      <trkpt lat="45.67478" lon="3.14388">
        <ele>407</ele>
      </trkpt>
      <trkpt lat="45.67487" lon="3.14384">
        <ele>407</ele>
      </trkpt>
      <trkpt lat="45.67497" lon="3.14379">
        <ele>408</ele>
      </trkpt>
      <trkpt lat="45.67507" lon="3.14376">
        <ele>408</ele>
      </trkpt>
      <trkpt lat="45.67515" lon="3.14372">
        <ele>409</ele>
      </trkpt>
      <trkpt lat="45.67525" lon="3.14368">
        <ele>409</ele>
      </trkpt>
      <trkpt lat="45.67534" lon="3.14364">
        <ele>410</ele>
      </trkpt>
      <trkpt lat="45.67543" lon="3.1436">
        <ele>410</ele>
      </trkpt>
      <trkpt lat="45.67552" lon="3.14357">
        <ele>411</ele>
      </trkpt>
      <trkpt lat="45.67562" lon="3.14356">
        <ele>411</ele>
      </trkpt>
      <trkpt lat="45.67571" lon="3.14352">
        <ele>411</ele>
      </trkpt>
      <trkpt lat="45.6758" lon="3.14349">
        <ele>412</ele>
      </trkpt>
      <trkpt lat="45.6759" lon="3.14347">
        <ele>412</ele>
      </trkpt>
      <trkpt lat="45.67601" lon="3.14347">
        <ele>413</ele>
      </trkpt>
      <trkpt lat="45.6761" lon="3.14345">
        <ele>413</ele>
      </trkpt>
      <trkpt lat="45.67619" lon="3.14344">
        <ele>414</ele>
      </trkpt>
      <trkpt lat="45.67629" lon="3.1434">
        <ele>414</ele>
      </trkpt>
      <trkpt lat="45.67639" lon="3.14339">
        <ele>414</ele>
      </trkpt>
      <trkpt lat="45.67648" lon="3.14337">
        <ele>415</ele>
      </trkpt>
      <trkpt lat="45.67658" lon="3.14334">
        <ele>415</ele>
      </trkpt>
      <trkpt lat="45.67668" lon="3.14333">
        <ele>415</ele>
      </trkpt>
      <trkpt lat="45.67677" lon="3.1433">
        <ele>416</ele>
      </trkpt>
      <trkpt lat="45.67687" lon="3.14329">
        <ele>416</ele>
      </trkpt>
      <trkpt lat="45.67697" lon="3.14326">
        <ele>416</ele>
      </trkpt>
      <trkpt lat="45.67707" lon="3.14322">
        <ele>417</ele>
      </trkpt>
      <trkpt lat="45.67718" lon="3.1432">
        <ele>417</ele>
      </trkpt>
      <trkpt lat="45.67728" lon="3.14318">
        <ele>418</ele>
      </trkpt>
      <trkpt lat="45.67738" lon="3.14316">
        <ele>418</ele>
      </trkpt>
      <trkpt lat="45.67748" lon="3.14315">
        <ele>419</ele>
      </trkpt>
      <trkpt lat="45.67757" lon="3.14313">
        <ele>419</ele>
      </trkpt>
      <trkpt lat="45.67767" lon="3.14312">
        <ele>419</ele>
      </trkpt>
      <trkpt lat="45.67777" lon="3.14312">
        <ele>419</ele>
      </trkpt>
      <trkpt lat="45.67787" lon="3.14311">
        <ele>419</ele>
      </trkpt>
      <trkpt lat="45.67808" lon="3.14311">
        <ele>420</ele>
      </trkpt>
      <trkpt lat="45.6782" lon="3.14312">
        <ele>420</ele>
      </trkpt>
      <trkpt lat="45.67833" lon="3.14312">
        <ele>420</ele>
      </trkpt>
      <trkpt lat="45.67845" lon="3.14312">
        <ele>421</ele>
      </trkpt>
      <trkpt lat="45.67857" lon="3.14314">
        <ele>421</ele>
      </trkpt>
      <trkpt lat="45.67868" lon="3.14315">
        <ele>422</ele>
      </trkpt>
      <trkpt lat="45.67881" lon="3.14316">
        <ele>422</ele>
      </trkpt>
      <trkpt lat="45.67891" lon="3.14317">
        <ele>422</ele>
      </trkpt>
      <trkpt lat="45.67902" lon="3.14319">
        <ele>423</ele>
      </trkpt>
      <trkpt lat="45.67913" lon="3.14321">
        <ele>423</ele>
      </trkpt>
      <trkpt lat="45.67923" lon="3.14323">
        <ele>424</ele>
      </trkpt>
      <trkpt lat="45.67936" lon="3.14325">
        <ele>424</ele>
      </trkpt>
      <trkpt lat="45.67947" lon="3.14326">
        <ele>425</ele>
      </trkpt>
      <trkpt lat="45.67958" lon="3.14326">
        <ele>425</ele>
      </trkpt>
      <trkpt lat="45.67968" lon="3.14328">
        <ele>425</ele>
      </trkpt>
      <trkpt lat="45.6798" lon="3.14329">
        <ele>425</ele>
      </trkpt>
      <trkpt lat="45.67992" lon="3.1433">
        <ele>426</ele>
      </trkpt>
      <trkpt lat="45.68003" lon="3.14331">
        <ele>426</ele>
      </trkpt>
      <trkpt lat="45.68014" lon="3.14333">
        <ele>427</ele>
      </trkpt>
      <trkpt lat="45.68025" lon="3.14335">
        <ele>427</ele>
      </trkpt>
      <trkpt lat="45.68036" lon="3.14336">
        <ele>427</ele>
      </trkpt>
      <trkpt lat="45.68049" lon="3.14337">
        <ele>428</ele>
      </trkpt>
      <trkpt lat="45.68063" lon="3.14338">
        <ele>429</ele>
      </trkpt>
      <trkpt lat="45.68073" lon="3.14339">
        <ele>429</ele>
      </trkpt>
      <trkpt lat="45.68083" lon="3.1434">
        <ele>430</ele>
      </trkpt>
      <trkpt lat="45.68093" lon="3.14342">
        <ele>430</ele>
      </trkpt>
      <trkpt lat="45.68102" lon="3.14344">
        <ele>431</ele>
      </trkpt>
      <trkpt lat="45.68112" lon="3.14346">
        <ele>431</ele>
      </trkpt>
      <trkpt lat="45.68123" lon="3.14348">
        <ele>432</ele>
      </trkpt>
      <trkpt lat="45.68133" lon="3.14352">
        <ele>432</ele>
      </trkpt>
      <trkpt lat="45.68143" lon="3.14356">
        <ele>432</ele>
      </trkpt>
      <trkpt lat="45.68152" lon="3.1436">
        <ele>433</ele>
      </trkpt>
      <trkpt lat="45.68162" lon="3.14363">
        <ele>433</ele>
      </trkpt>
      <trkpt lat="45.68172" lon="3.14365">
        <ele>433</ele>
      </trkpt>
      <trkpt lat="45.68182" lon="3.14368">
        <ele>434</ele>
      </trkpt>
      <trkpt lat="45.68191" lon="3.1437">
        <ele>434</ele>
      </trkpt>
      <trkpt lat="45.68201" lon="3.14372">
        <ele>435</ele>
      </trkpt>
      <trkpt lat="45.6821" lon="3.14374">
        <ele>435</ele>
      </trkpt>
      <trkpt lat="45.68223" lon="3.14375">
        <ele>435</ele>
      </trkpt>
      <trkpt lat="45.68235" lon="3.14377">
        <ele>435</ele>
      </trkpt>
      <trkpt lat="45.68245" lon="3.14378">
        <ele>435</ele>
      </trkpt>
      <trkpt lat="45.68268" lon="3.14382">
        <ele>435</ele>
      </trkpt>
      <trkpt lat="45.68279" lon="3.14383">
        <ele>435</ele>
      </trkpt>
      <trkpt lat="45.6829" lon="3.14385">
        <ele>436</ele>
      </trkpt>
      <trkpt lat="45.68301" lon="3.14386">
        <ele>436</ele>
      </trkpt>
      <trkpt lat="45.68312" lon="3.14387">
        <ele>436</ele>
      </trkpt>
      <trkpt lat="45.68344" lon="3.1439">
        <ele>437</ele>
      </trkpt>
      <trkpt lat="45.68356" lon="3.14391">
        <ele>438</ele>
      </trkpt>
      <trkpt lat="45.68366" lon="3.14392">
        <ele>438</ele>
      </trkpt>
      <trkpt lat="45.68377" lon="3.14392">
        <ele>439</ele>
      </trkpt>
      <trkpt lat="45.68388" lon="3.14392">
        <ele>439</ele>
      </trkpt>
      <trkpt lat="45.68398" lon="3.14393">
        <ele>439</ele>
      </trkpt>
      <trkpt lat="45.68408" lon="3.14394">
        <ele>439</ele>
      </trkpt>
      <trkpt lat="45.68418" lon="3.14397">
        <ele>440</ele>
      </trkpt>
      <trkpt lat="45.68429" lon="3.144">
        <ele>440</ele>
      </trkpt>
      <trkpt lat="45.68438" lon="3.14404">
        <ele>441</ele>
      </trkpt>
      <trkpt lat="45.68446" lon="3.14411">
        <ele>441</ele>
      </trkpt>
      <trkpt lat="45.68453" lon="3.1442">
        <ele>441</ele>
      </trkpt>
      <trkpt lat="45.68458" lon="3.14434">
        <ele>442</ele>
      </trkpt>
      <trkpt lat="45.68458" lon="3.14448">
        <ele>445</ele>
      </trkpt>
      <trkpt lat="45.68456" lon="3.14463">
        <ele>447</ele>
      </trkpt>
      <trkpt lat="45.68453" lon="3.14478">
        <ele>449</ele>
      </trkpt>
      <trkpt lat="45.68451" lon="3.1449">
        <ele>451</ele>
      </trkpt>
      <trkpt lat="45.68449" lon="3.14504">
        <ele>453</ele>
      </trkpt>
      <trkpt lat="45.6845" lon="3.14517">
        <ele>454</ele>
      </trkpt>
      <trkpt lat="45.68451" lon="3.14531">
        <ele>456</ele>
      </trkpt>
      <trkpt lat="45.68447" lon="3.14543">
        <ele>457</ele>
      </trkpt>
      <trkpt lat="45.68441" lon="3.14555">
        <ele>459</ele>
      </trkpt>
      <trkpt lat="45.68435" lon="3.14567">
        <ele>459</ele>
      </trkpt>
      <trkpt lat="45.6843" lon="3.14578">
        <ele>459</ele>
      </trkpt>
      <trkpt lat="45.68426" lon="3.14591">
        <ele>458</ele>
      </trkpt>
      <trkpt lat="45.68422" lon="3.14604">
        <ele>458</ele>
      </trkpt>
      <trkpt lat="45.68419" lon="3.14618">
        <ele>459</ele>
      </trkpt>
      <trkpt lat="45.68415" lon="3.1463">
        <ele>458</ele>
      </trkpt>
      <trkpt lat="45.68413" lon="3.14643">
        <ele>458</ele>
      </trkpt>
      <trkpt lat="45.6841" lon="3.14657">
        <ele>457</ele>
      </trkpt>
      <trkpt lat="45.68407" lon="3.14671">
        <ele>457</ele>
      </trkpt>
      <trkpt lat="45.68403" lon="3.14684">
        <ele>457</ele>
      </trkpt>
      <trkpt lat="45.68398" lon="3.14697">
        <ele>457</ele>
      </trkpt>
      <trkpt lat="45.68397" lon="3.1471">
        <ele>457</ele>
      </trkpt>
      <trkpt lat="45.68395" lon="3.14724">
        <ele>457</ele>
      </trkpt>
      <trkpt lat="45.68393" lon="3.14737">
        <ele>458</ele>
      </trkpt>
      <trkpt lat="45.6839" lon="3.1475">
        <ele>458</ele>
      </trkpt>
      <trkpt lat="45.68388" lon="3.14764">
        <ele>458</ele>
      </trkpt>
      <trkpt lat="45.68384" lon="3.14777">
        <ele>459</ele>
      </trkpt>
      <trkpt lat="45.68379" lon="3.14789">
        <ele>459</ele>
      </trkpt>
      <trkpt lat="45.68373" lon="3.14801">
        <ele>460</ele>
      </trkpt>
      <trkpt lat="45.68367" lon="3.14812">
        <ele>461</ele>
      </trkpt>
      <trkpt lat="45.68359" lon="3.14824">
        <ele>462</ele>
      </trkpt>
      <trkpt lat="45.68352" lon="3.14835">
        <ele>463</ele>
      </trkpt>
      <trkpt lat="45.68346" lon="3.14845">
        <ele>465</ele>
      </trkpt>
      <trkpt lat="45.68341" lon="3.14857">
        <ele>466</ele>
      </trkpt>
      <trkpt lat="45.68336" lon="3.14869">
        <ele>467</ele>
      </trkpt>
      <trkpt lat="45.68332" lon="3.14881">
        <ele>468</ele>
      </trkpt>
      <trkpt lat="45.68327" lon="3.14894">
        <ele>469</ele>
      </trkpt>
      <trkpt lat="45.68321" lon="3.14906">
        <ele>470</ele>
      </trkpt>
      <trkpt lat="45.68314" lon="3.14917">
        <ele>471</ele>
      </trkpt>
      <trkpt lat="45.68306" lon="3.14927">
        <ele>472</ele>
      </trkpt>
      <trkpt lat="45.68298" lon="3.14934">
        <ele>473</ele>
      </trkpt>
      <trkpt lat="45.6829" lon="3.14941">
        <ele>474</ele>
      </trkpt>
      <trkpt lat="45.68282" lon="3.14949">
        <ele>475</ele>
      </trkpt>
      <trkpt lat="45.68274" lon="3.14957">
        <ele>476</ele>
      </trkpt>
      <trkpt lat="45.68266" lon="3.14966">
        <ele>478</ele>
      </trkpt>
      <trkpt lat="45.68258" lon="3.14976">
        <ele>479</ele>
      </trkpt>
      <trkpt lat="45.68251" lon="3.14985">
        <ele>480</ele>
      </trkpt>
      <trkpt lat="45.68244" lon="3.14994">
        <ele>481</ele>
      </trkpt>
      <trkpt lat="45.68238" lon="3.15004">
        <ele>482</ele>
      </trkpt>
      <trkpt lat="45.68231" lon="3.15014">
        <ele>483</ele>
      </trkpt>
      <trkpt lat="45.68224" lon="3.15026">
        <ele>484</ele>
      </trkpt>
      <trkpt lat="45.68218" lon="3.15038">
        <ele>485</ele>
      </trkpt>
      <trkpt lat="45.68212" lon="3.15049">
        <ele>486</ele>
      </trkpt>
      <trkpt lat="45.68206" lon="3.1506">
        <ele>486</ele>
      </trkpt>
      <trkpt lat="45.68199" lon="3.15069">
        <ele>487</ele>
      </trkpt>
      <trkpt lat="45.68191" lon="3.15077">
        <ele>488</ele>
      </trkpt>
      <trkpt lat="45.68186" lon="3.15089">
        <ele>488</ele>
      </trkpt>
      <trkpt lat="45.68189" lon="3.15101">
        <ele>488</ele>
      </trkpt>
      <trkpt lat="45.68193" lon="3.15113">
        <ele>488</ele>
      </trkpt>
      <trkpt lat="45.68196" lon="3.15125">
        <ele>487</ele>
      </trkpt>
      <trkpt lat="45.68199" lon="3.15138">
        <ele>488</ele>
      </trkpt>
      <trkpt lat="45.68201" lon="3.15152">
        <ele>488</ele>
      </trkpt>
      <trkpt lat="45.68205" lon="3.15166">
        <ele>489</ele>
      </trkpt>
      <trkpt lat="45.68209" lon="3.15178">
        <ele>489</ele>
      </trkpt>
      <trkpt lat="45.68212" lon="3.1519">
        <ele>489</ele>
      </trkpt>
      <trkpt lat="45.68213" lon="3.15205">
        <ele>490</ele>
      </trkpt>
      <trkpt lat="45.68218" lon="3.15216">
        <ele>491</ele>
      </trkpt>
      <trkpt lat="45.68224" lon="3.15227">
        <ele>492</ele>
      </trkpt>
      <trkpt lat="45.68233" lon="3.15232">
        <ele>491</ele>
      </trkpt>
      <trkpt lat="45.68243" lon="3.15234">
        <ele>490</ele>
      </trkpt>
      <trkpt lat="45.68252" lon="3.15236">
        <ele>489</ele>
      </trkpt>
      <trkpt lat="45.68262" lon="3.15237">
        <ele>489</ele>
      </trkpt>
      <trkpt lat="45.68272" lon="3.15239">
        <ele>488</ele>
      </trkpt>
      <trkpt lat="45.68281" lon="3.1524">
        <ele>487</ele>
      </trkpt>
      <trkpt lat="45.68291" lon="3.15242">
        <ele>487</ele>
      </trkpt>
      <trkpt lat="45.68301" lon="3.15244">
        <ele>486</ele>
      </trkpt>
      <trkpt lat="45.68311" lon="3.15247">
        <ele>486</ele>
      </trkpt>
      <trkpt lat="45.6832" lon="3.15249">
        <ele>485</ele>
      </trkpt>
      <trkpt lat="45.6833" lon="3.15251">
        <ele>485</ele>
      </trkpt>
      <trkpt lat="45.6834" lon="3.15254">
        <ele>485</ele>
      </trkpt>
      <trkpt lat="45.6835" lon="3.15256">
        <ele>484</ele>
      </trkpt>
      <trkpt lat="45.68359" lon="3.15259">
        <ele>483</ele>
      </trkpt>
      <trkpt lat="45.68368" lon="3.15263">
        <ele>483</ele>
      </trkpt>
      <trkpt lat="45.68378" lon="3.15268">
        <ele>482</ele>
      </trkpt>
      <trkpt lat="45.68386" lon="3.15275">
        <ele>482</ele>
      </trkpt>
      <trkpt lat="45.68396" lon="3.15277">
        <ele>481</ele>
      </trkpt>
      <trkpt lat="45.68405" lon="3.15277">
        <ele>480</ele>
      </trkpt>
      <trkpt lat="45.68415" lon="3.15274">
        <ele>479</ele>
      </trkpt>
      <trkpt lat="45.68426" lon="3.15272">
        <ele>478</ele>
      </trkpt>
      <trkpt lat="45.68435" lon="3.15269">
        <ele>476</ele>
      </trkpt>
      <trkpt lat="45.68446" lon="3.15267">
        <ele>475</ele>
      </trkpt>
      <trkpt lat="45.68456" lon="3.15265">
        <ele>474</ele>
      </trkpt>
      <trkpt lat="45.68466" lon="3.15263">
        <ele>472</ele>
      </trkpt>
      <trkpt lat="45.68476" lon="3.15261">
        <ele>471</ele>
      </trkpt>
      <trkpt lat="45.68485" lon="3.15261">
        <ele>470</ele>
      </trkpt>
      <trkpt lat="45.68495" lon="3.15259">
        <ele>468</ele>
      </trkpt>
      <trkpt lat="45.68515" lon="3.15259">
        <ele>466</ele>
      </trkpt>
      <trkpt lat="45.68526" lon="3.15259">
        <ele>464</ele>
      </trkpt>
      <trkpt lat="45.68534" lon="3.15266">
        <ele>463</ele>
      </trkpt>
      <trkpt lat="45.68536" lon="3.1528">
        <ele>463</ele>
      </trkpt>
      <trkpt lat="45.68538" lon="3.15295">
        <ele>463</ele>
      </trkpt>
      <trkpt lat="45.68541" lon="3.15308">
        <ele>462</ele>
      </trkpt>
      <trkpt lat="45.68543" lon="3.15321">
        <ele>462</ele>
      </trkpt>
      <trkpt lat="45.68544" lon="3.15337">
        <ele>463</ele>
      </trkpt>
      <trkpt lat="45.68547" lon="3.15351">
        <ele>463</ele>
      </trkpt>
      <trkpt lat="45.68548" lon="3.15366">
        <ele>463</ele>
      </trkpt>
      <trkpt lat="45.68551" lon="3.1538">
        <ele>463</ele>
      </trkpt>
      <trkpt lat="45.68554" lon="3.15393">
        <ele>463</ele>
      </trkpt>
      <trkpt lat="45.68558" lon="3.15406">
        <ele>462</ele>
      </trkpt>
      <trkpt lat="45.6856" lon="3.15419">
        <ele>462</ele>
      </trkpt>
      <trkpt lat="45.6856" lon="3.15433">
        <ele>462</ele>
      </trkpt>
      <trkpt lat="45.68566" lon="3.15443">
        <ele>462</ele>
      </trkpt>
      <trkpt lat="45.68575" lon="3.15448">
        <ele>460</ele>
      </trkpt>
      <trkpt lat="45.68583" lon="3.15452">
        <ele>459</ele>
      </trkpt>
      <trkpt lat="45.68593" lon="3.15456">
        <ele>458</ele>
      </trkpt>
      <trkpt lat="45.68602" lon="3.15465">
        <ele>456</ele>
      </trkpt>
      <trkpt lat="45.68607" lon="3.15479">
        <ele>456</ele>
      </trkpt>
      <trkpt lat="45.68611" lon="3.15492">
        <ele>456</ele>
      </trkpt>
      <trkpt lat="45.68612" lon="3.15507">
        <ele>456</ele>
      </trkpt>
      <trkpt lat="45.68615" lon="3.15523">
        <ele>456</ele>
      </trkpt>
      <trkpt lat="45.68617" lon="3.15536">
        <ele>456</ele>
      </trkpt>
      <trkpt lat="45.68619" lon="3.1555">
        <ele>456</ele>
      </trkpt>
      <trkpt lat="45.68623" lon="3.15563">
        <ele>455</ele>
      </trkpt>
      <trkpt lat="45.68625" lon="3.15576">
        <ele>455</ele>
      </trkpt>
      <trkpt lat="45.68627" lon="3.1559">
        <ele>455</ele>
      </trkpt>
      <trkpt lat="45.68631" lon="3.15602">
        <ele>455</ele>
      </trkpt>
      <trkpt lat="45.68633" lon="3.15617">
        <ele>455</ele>
      </trkpt>
      <trkpt lat="45.68636" lon="3.15629">
        <ele>454</ele>
      </trkpt>
      <trkpt lat="45.68638" lon="3.15642">
        <ele>454</ele>
      </trkpt>
      <trkpt lat="45.68639" lon="3.15655">
        <ele>454</ele>
      </trkpt>
      <trkpt lat="45.68641" lon="3.1567">
        <ele>454</ele>
      </trkpt>
      <trkpt lat="45.68645" lon="3.15682">
        <ele>453</ele>
      </trkpt>
      <trkpt lat="45.68646" lon="3.15696">
        <ele>453</ele>
      </trkpt>
      <trkpt lat="45.68648" lon="3.15708">
        <ele>453</ele>
      </trkpt>
      <trkpt lat="45.6865" lon="3.15722">
        <ele>452</ele>
      </trkpt>
      <trkpt lat="45.68653" lon="3.15735">
        <ele>451</ele>
      </trkpt>
      <trkpt lat="45.68653" lon="3.15751">
        <ele>451</ele>
      </trkpt>
      <trkpt lat="45.68651" lon="3.15764">
        <ele>451</ele>
      </trkpt>
      <trkpt lat="45.68647" lon="3.15778">
        <ele>452</ele>
      </trkpt>
      <trkpt lat="45.68642" lon="3.1579">
        <ele>452</ele>
      </trkpt>
      <trkpt lat="45.68641" lon="3.15805">
        <ele>451</ele>
      </trkpt>
      <trkpt lat="45.68639" lon="3.15818">
        <ele>451</ele>
      </trkpt>
      <trkpt lat="45.68638" lon="3.15832">
        <ele>450</ele>
      </trkpt>
      <trkpt lat="45.68636" lon="3.15847">
        <ele>450</ele>
      </trkpt>
      <trkpt lat="45.68636" lon="3.1586">
        <ele>449</ele>
      </trkpt>
      <trkpt lat="45.68634" lon="3.15874">
        <ele>448</ele>
      </trkpt>
      <trkpt lat="45.68634" lon="3.15888">
        <ele>448</ele>
      </trkpt>
      <trkpt lat="45.68633" lon="3.15903">
        <ele>447</ele>
      </trkpt>
      <trkpt lat="45.68631" lon="3.15917">
        <ele>446</ele>
      </trkpt>
      <trkpt lat="45.68628" lon="3.15929">
        <ele>446</ele>
      </trkpt>
      <trkpt lat="45.68624" lon="3.15942">
        <ele>446</ele>
      </trkpt>
      <trkpt lat="45.68622" lon="3.15955">
        <ele>446</ele>
      </trkpt>
      <trkpt lat="45.68619" lon="3.15968">
        <ele>446</ele>
      </trkpt>
      <trkpt lat="45.68616" lon="3.15981">
        <ele>446</ele>
      </trkpt>
      <trkpt lat="45.68613" lon="3.15994">
        <ele>446</ele>
      </trkpt>
      <trkpt lat="45.6861" lon="3.16008">
        <ele>446</ele>
      </trkpt>
      <trkpt lat="45.68607" lon="3.16022">
        <ele>446</ele>
      </trkpt>
      <trkpt lat="45.68605" lon="3.16036">
        <ele>446</ele>
      </trkpt>
      <trkpt lat="45.68604" lon="3.1605">
        <ele>446</ele>
      </trkpt>
      <trkpt lat="45.68604" lon="3.16064">
        <ele>446</ele>
      </trkpt>
      <trkpt lat="45.68603" lon="3.16079">
        <ele>446</ele>
      </trkpt>
      <trkpt lat="45.68603" lon="3.16092">
        <ele>446</ele>
      </trkpt>
      <trkpt lat="45.68602" lon="3.16106">
        <ele>446</ele>
      </trkpt>
      <trkpt lat="45.68601" lon="3.16121">
        <ele>445</ele>
      </trkpt>
      <trkpt lat="45.68599" lon="3.16134">
        <ele>445</ele>
      </trkpt>
      <trkpt lat="45.68596" lon="3.16149">
        <ele>445</ele>
      </trkpt>
      <trkpt lat="45.68592" lon="3.16161">
        <ele>445</ele>
      </trkpt>
      <trkpt lat="45.68588" lon="3.16175">
        <ele>444</ele>
      </trkpt>
      <trkpt lat="45.68583" lon="3.16186">
        <ele>444</ele>
      </trkpt>
      <trkpt lat="45.68577" lon="3.16198">
        <ele>444</ele>
      </trkpt>
      <trkpt lat="45.68571" lon="3.1621">
        <ele>444</ele>
      </trkpt>
      <trkpt lat="45.68564" lon="3.1622">
        <ele>444</ele>
      </trkpt>
      <trkpt lat="45.68557" lon="3.1623">
        <ele>444</ele>
      </trkpt>
      <trkpt lat="45.68549" lon="3.16238">
        <ele>445</ele>
      </trkpt>
      <trkpt lat="45.68543" lon="3.16248">
        <ele>445</ele>
      </trkpt>
      <trkpt lat="45.68535" lon="3.16259">
        <ele>446</ele>
      </trkpt>
      <trkpt lat="45.68528" lon="3.16268">
        <ele>446</ele>
      </trkpt>
      <trkpt lat="45.68523" lon="3.16281">
        <ele>446</ele>
      </trkpt>
      <trkpt lat="45.68518" lon="3.16292">
        <ele>447</ele>
      </trkpt>
      <trkpt lat="45.68516" lon="3.16307">
        <ele>446</ele>
      </trkpt>
      <trkpt lat="45.68512" lon="3.16319">
        <ele>447</ele>
      </trkpt>
      <trkpt lat="45.68507" lon="3.16331">
        <ele>447</ele>
      </trkpt>
      <trkpt lat="45.68503" lon="3.16345">
        <ele>447</ele>
      </trkpt>
      <trkpt lat="45.68499" lon="3.1636">
        <ele>447</ele>
      </trkpt>
      <trkpt lat="45.68495" lon="3.16373">
        <ele>447</ele>
      </trkpt>
      <trkpt lat="45.68492" lon="3.16386">
        <ele>447</ele>
      </trkpt>
      <trkpt lat="45.68488" lon="3.164">
        <ele>447</ele>
      </trkpt>
      <trkpt lat="45.68483" lon="3.16414">
        <ele>447</ele>
      </trkpt>
      <trkpt lat="45.68481" lon="3.16427">
        <ele>447</ele>
      </trkpt>
      <trkpt lat="45.68477" lon="3.16442">
        <ele>447</ele>
      </trkpt>
      <trkpt lat="45.68472" lon="3.16455">
        <ele>448</ele>
      </trkpt>
      <trkpt lat="45.68467" lon="3.16467">
        <ele>448</ele>
      </trkpt>
      <trkpt lat="45.68461" lon="3.1648">
        <ele>448</ele>
      </trkpt>
      <trkpt lat="45.68467" lon="3.16491">
        <ele>447</ele>
      </trkpt>
      <trkpt lat="45.68474" lon="3.16481">
        <ele>447</ele>
      </trkpt>
      <trkpt lat="45.68483" lon="3.16477">
        <ele>446</ele>
      </trkpt>
      <trkpt lat="45.68489" lon="3.16467">
        <ele>445</ele>
      </trkpt>
      <trkpt lat="45.68497" lon="3.16459">
        <ele>444</ele>
      </trkpt>
      <trkpt lat="45.68505" lon="3.1645">
        <ele>443</ele>
      </trkpt>
      <trkpt lat="45.68513" lon="3.16441">
        <ele>442</ele>
      </trkpt>
      <trkpt lat="45.68522" lon="3.16436">
        <ele>441</ele>
      </trkpt>
      <trkpt lat="45.68524" lon="3.16423">
        <ele>441</ele>
      </trkpt>
      <trkpt lat="45.6853" lon="3.16412">
        <ele>441</ele>
      </trkpt>
      <trkpt lat="45.68539" lon="3.16407">
        <ele>439</ele>
      </trkpt>
      <trkpt lat="45.68543" lon="3.16395">
        <ele>439</ele>
      </trkpt>
      <trkpt lat="45.68549" lon="3.16385">
        <ele>438</ele>
      </trkpt>
      <trkpt lat="45.6856" lon="3.16385">
        <ele>437</ele>
      </trkpt>
      <trkpt lat="45.68568" lon="3.16377">
        <ele>436</ele>
      </trkpt>
      <trkpt lat="45.68577" lon="3.16371">
        <ele>435</ele>
      </trkpt>
      <trkpt lat="45.68587" lon="3.16365">
        <ele>434</ele>
      </trkpt>
      <trkpt lat="45.68594" lon="3.16357">
        <ele>433</ele>
      </trkpt>
      <trkpt lat="45.68599" lon="3.16345">
        <ele>433</ele>
      </trkpt>
      <trkpt lat="45.68609" lon="3.16344">
        <ele>431</ele>
      </trkpt>
      <trkpt lat="45.68619" lon="3.16336">
        <ele>430</ele>
      </trkpt>
      <trkpt lat="45.68626" lon="3.16328">
        <ele>430</ele>
      </trkpt>
      <trkpt lat="45.68636" lon="3.16323">
        <ele>429</ele>
      </trkpt>
      <trkpt lat="45.68645" lon="3.16318">
        <ele>428</ele>
      </trkpt>
      <trkpt lat="45.68653" lon="3.16315">
        <ele>427</ele>
      </trkpt>
      <trkpt lat="45.68664" lon="3.16312">
        <ele>426</ele>
      </trkpt>
      <trkpt lat="45.68673" lon="3.16303">
        <ele>426</ele>
      </trkpt>
    </trkseg>
  </trk>
</gpx>